<?xml version="1.0" encoding="UTF-8" standalone="no" ?>
<gpx xmlns="http://www.topografix.com/GPX/1/1" xmlns:xsi="http://www.w3.org/2001/XMLSchema-instance" xsi:schemaLocation="http://www.topografix.com/GPX/1/1 http://www.topografix.com/GPX/1/1/gpx.xsd" version="1.1" creator="VisuGPX - https://www.visugpx.com">
  <metadata>
    <name>Légette du Mirantin</name>
  </metadata>
  <trk>
    <name><![CDATA[Légette du Mirantin_1]]></name>
    <trkseg>
      <trkpt lat="45.71851" lon="6.5739">
        <ele>774.6</ele>
        <time>2018-10-26T09:19:13Z</time>
      </trkpt>
      <trkpt lat="45.71851" lon="6.57391">
        <ele>767.3</ele>
        <time>2018-10-26T09:19:14Z</time>
      </trkpt>
      <trkpt lat="45.71845" lon="6.57405">
        <ele>744.6</ele>
        <time>2018-10-26T09:19:20Z</time>
      </trkpt>
      <trkpt lat="45.71835" lon="6.57404">
        <ele>735.8</ele>
        <time>2018-10-26T09:19:47Z</time>
      </trkpt>
      <trkpt lat="45.71826" lon="6.574">
        <ele>736.1</ele>
        <time>2018-10-26T09:21:16Z</time>
      </trkpt>
      <trkpt lat="45.71814" lon="6.57407">
        <ele>737.1</ele>
        <time>2018-10-26T09:21:30Z</time>
      </trkpt>
      <trkpt lat="45.71806" lon="6.57416">
        <ele>737.4</ele>
        <time>2018-10-26T09:21:33Z</time>
      </trkpt>
      <trkpt lat="45.718" lon="6.57427">
        <ele>737.7</ele>
        <time>2018-10-26T09:21:36Z</time>
      </trkpt>
      <trkpt lat="45.71794" lon="6.5744">
        <ele>738.2</ele>
        <time>2018-10-26T09:21:39Z</time>
      </trkpt>
      <trkpt lat="45.71787" lon="6.5745">
        <ele>738.5</ele>
        <time>2018-10-26T09:21:42Z</time>
      </trkpt>
      <trkpt lat="45.71779" lon="6.57462">
        <ele>738.6</ele>
        <time>2018-10-26T09:21:46Z</time>
      </trkpt>
      <trkpt lat="45.71772" lon="6.57471">
        <ele>739.4</ele>
        <time>2018-10-26T09:21:49Z</time>
      </trkpt>
      <trkpt lat="45.71763" lon="6.57466">
        <ele>740.4</ele>
        <time>2018-10-26T09:21:52Z</time>
      </trkpt>
      <trkpt lat="45.71753" lon="6.57458">
        <ele>741.2</ele>
        <time>2018-10-26T09:21:56Z</time>
      </trkpt>
      <trkpt lat="45.71744" lon="6.57454">
        <ele>741.9</ele>
        <time>2018-10-26T09:22:00Z</time>
      </trkpt>
      <trkpt lat="45.71733" lon="6.57455">
        <ele>742.8</ele>
        <time>2018-10-26T09:22:04Z</time>
      </trkpt>
      <trkpt lat="45.71724" lon="6.57454">
        <ele>743.7</ele>
        <time>2018-10-26T09:22:08Z</time>
      </trkpt>
      <trkpt lat="45.71716" lon="6.57444">
        <ele>744.3</ele>
        <time>2018-10-26T09:22:12Z</time>
      </trkpt>
      <trkpt lat="45.7171" lon="6.57432">
        <ele>744.7</ele>
        <time>2018-10-26T09:22:16Z</time>
      </trkpt>
      <trkpt lat="45.71701" lon="6.57422">
        <ele>744.8</ele>
        <time>2018-10-26T09:22:20Z</time>
      </trkpt>
      <trkpt lat="45.71693" lon="6.57414">
        <ele>744.9</ele>
        <time>2018-10-26T09:22:24Z</time>
      </trkpt>
      <trkpt lat="45.71686" lon="6.57407">
        <ele>745.8</ele>
        <time>2018-10-26T09:22:28Z</time>
      </trkpt>
      <trkpt lat="45.71677" lon="6.574">
        <ele>746.3</ele>
        <time>2018-10-26T09:22:32Z</time>
      </trkpt>
      <trkpt lat="45.71669" lon="6.57392">
        <ele>746.7</ele>
        <time>2018-10-26T09:22:36Z</time>
      </trkpt>
      <trkpt lat="45.71662" lon="6.57384">
        <ele>747.2</ele>
        <time>2018-10-26T09:22:40Z</time>
      </trkpt>
      <trkpt lat="45.71655" lon="6.57375">
        <ele>747.5</ele>
        <time>2018-10-26T09:22:44Z</time>
      </trkpt>
      <trkpt lat="45.71648" lon="6.57366">
        <ele>747.9</ele>
        <time>2018-10-26T09:22:48Z</time>
      </trkpt>
      <trkpt lat="45.71641" lon="6.57357">
        <ele>748.2</ele>
        <time>2018-10-26T09:22:52Z</time>
      </trkpt>
      <trkpt lat="45.71634" lon="6.57348">
        <ele>748.8</ele>
        <time>2018-10-26T09:22:56Z</time>
      </trkpt>
      <trkpt lat="45.71626" lon="6.57338">
        <ele>749.7</ele>
        <time>2018-10-26T09:23:01Z</time>
      </trkpt>
      <trkpt lat="45.71617" lon="6.57329">
        <ele>750.5</ele>
        <time>2018-10-26T09:23:06Z</time>
      </trkpt>
      <trkpt lat="45.71609" lon="6.5732">
        <ele>751.5</ele>
        <time>2018-10-26T09:23:11Z</time>
      </trkpt>
      <trkpt lat="45.71602" lon="6.5731">
        <ele>752.3</ele>
        <time>2018-10-26T09:23:16Z</time>
      </trkpt>
      <trkpt lat="45.71594" lon="6.57298">
        <ele>753.8</ele>
        <time>2018-10-26T09:23:21Z</time>
      </trkpt>
      <trkpt lat="45.71588" lon="6.57287">
        <ele>754.8</ele>
        <time>2018-10-26T09:23:26Z</time>
      </trkpt>
      <trkpt lat="45.71581" lon="6.57274">
        <ele>755.9</ele>
        <time>2018-10-26T09:23:31Z</time>
      </trkpt>
      <trkpt lat="45.71576" lon="6.57264">
        <ele>756.7</ele>
        <time>2018-10-26T09:23:35Z</time>
      </trkpt>
      <trkpt lat="45.71568" lon="6.57257">
        <ele>757.7</ele>
        <time>2018-10-26T09:23:40Z</time>
      </trkpt>
      <trkpt lat="45.71559" lon="6.57265">
        <ele>758.2</ele>
        <time>2018-10-26T09:23:45Z</time>
      </trkpt>
      <trkpt lat="45.71558" lon="6.57278">
        <ele>758.9</ele>
        <time>2018-10-26T09:23:48Z</time>
      </trkpt>
      <trkpt lat="45.71563" lon="6.57293">
        <ele>759.5</ele>
        <time>2018-10-26T09:23:52Z</time>
      </trkpt>
      <trkpt lat="45.71573" lon="6.57301">
        <ele>759.9</ele>
        <time>2018-10-26T09:23:56Z</time>
      </trkpt>
      <trkpt lat="45.71582" lon="6.5731">
        <ele>760.4</ele>
        <time>2018-10-26T09:24:00Z</time>
      </trkpt>
      <trkpt lat="45.71583" lon="6.57324">
        <ele>761.1</ele>
        <time>2018-10-26T09:24:04Z</time>
      </trkpt>
      <trkpt lat="45.71572" lon="6.57322">
        <ele>762.3</ele>
        <time>2018-10-26T09:24:09Z</time>
      </trkpt>
      <trkpt lat="45.71565" lon="6.57311">
        <ele>763.2</ele>
        <time>2018-10-26T09:24:13Z</time>
      </trkpt>
      <trkpt lat="45.71561" lon="6.57299">
        <ele>764.3</ele>
        <time>2018-10-26T09:24:17Z</time>
      </trkpt>
      <trkpt lat="45.71558" lon="6.57286">
        <ele>765.1</ele>
        <time>2018-10-26T09:24:21Z</time>
      </trkpt>
      <trkpt lat="45.71555" lon="6.57274">
        <ele>765.8</ele>
        <time>2018-10-26T09:24:25Z</time>
      </trkpt>
      <trkpt lat="45.71551" lon="6.57261">
        <ele>766.4</ele>
        <time>2018-10-26T09:24:29Z</time>
      </trkpt>
      <trkpt lat="45.71549" lon="6.57249">
        <ele>767.3</ele>
        <time>2018-10-26T09:24:33Z</time>
      </trkpt>
      <trkpt lat="45.71545" lon="6.57234">
        <ele>768.3</ele>
        <time>2018-10-26T09:24:38Z</time>
      </trkpt>
      <trkpt lat="45.7154" lon="6.5722">
        <ele>769.2</ele>
        <time>2018-10-26T09:24:43Z</time>
      </trkpt>
      <trkpt lat="45.7153" lon="6.57215">
        <ele>770.3</ele>
        <time>2018-10-26T09:24:48Z</time>
      </trkpt>
      <trkpt lat="45.71523" lon="6.57226">
        <ele>771</ele>
        <time>2018-10-26T09:24:53Z</time>
      </trkpt>
      <trkpt lat="45.71524" lon="6.5724">
        <ele>771.6</ele>
        <time>2018-10-26T09:24:57Z</time>
      </trkpt>
      <trkpt lat="45.71528" lon="6.57253">
        <ele>772</ele>
        <time>2018-10-26T09:25:01Z</time>
      </trkpt>
      <trkpt lat="45.71533" lon="6.57264">
        <ele>772.7</ele>
        <time>2018-10-26T09:25:05Z</time>
      </trkpt>
      <trkpt lat="45.71537" lon="6.57276">
        <ele>773.5</ele>
        <time>2018-10-26T09:25:09Z</time>
      </trkpt>
      <trkpt lat="45.7154" lon="6.57291">
        <ele>774.3</ele>
        <time>2018-10-26T09:25:14Z</time>
      </trkpt>
      <trkpt lat="45.71541" lon="6.57306">
        <ele>775.3</ele>
        <time>2018-10-26T09:25:19Z</time>
      </trkpt>
      <trkpt lat="45.71542" lon="6.5732">
        <ele>776.1</ele>
        <time>2018-10-26T09:25:23Z</time>
      </trkpt>
      <trkpt lat="45.71545" lon="6.57335">
        <ele>777.1</ele>
        <time>2018-10-26T09:25:28Z</time>
      </trkpt>
      <trkpt lat="45.71547" lon="6.57348">
        <ele>777.5</ele>
        <time>2018-10-26T09:25:32Z</time>
      </trkpt>
      <trkpt lat="45.71542" lon="6.57361">
        <ele>778.5</ele>
        <time>2018-10-26T09:25:37Z</time>
      </trkpt>
      <trkpt lat="45.71533" lon="6.57354">
        <ele>779.8</ele>
        <time>2018-10-26T09:25:42Z</time>
      </trkpt>
      <trkpt lat="45.71529" lon="6.57341">
        <ele>780.7</ele>
        <time>2018-10-26T09:25:46Z</time>
      </trkpt>
      <trkpt lat="45.71526" lon="6.57328">
        <ele>781.3</ele>
        <time>2018-10-26T09:25:50Z</time>
      </trkpt>
      <trkpt lat="45.71521" lon="6.57317">
        <ele>782.1</ele>
        <time>2018-10-26T09:25:54Z</time>
      </trkpt>
      <trkpt lat="45.71514" lon="6.57308">
        <ele>782.8</ele>
        <time>2018-10-26T09:25:58Z</time>
      </trkpt>
      <trkpt lat="45.71506" lon="6.573">
        <ele>783.4</ele>
        <time>2018-10-26T09:26:02Z</time>
      </trkpt>
      <trkpt lat="45.71499" lon="6.57292">
        <ele>784.3</ele>
        <time>2018-10-26T09:26:06Z</time>
      </trkpt>
      <trkpt lat="45.71492" lon="6.57283">
        <ele>785</ele>
        <time>2018-10-26T09:26:10Z</time>
      </trkpt>
      <trkpt lat="45.71484" lon="6.57273">
        <ele>786.1</ele>
        <time>2018-10-26T09:26:15Z</time>
      </trkpt>
      <trkpt lat="45.71478" lon="6.57263">
        <ele>787</ele>
        <time>2018-10-26T09:26:19Z</time>
      </trkpt>
      <trkpt lat="45.71473" lon="6.57252">
        <ele>787.9</ele>
        <time>2018-10-26T09:26:23Z</time>
      </trkpt>
      <trkpt lat="45.71468" lon="6.57242">
        <ele>788.7</ele>
        <time>2018-10-26T09:26:27Z</time>
      </trkpt>
      <trkpt lat="45.71459" lon="6.57234">
        <ele>789.7</ele>
        <time>2018-10-26T09:26:32Z</time>
      </trkpt>
      <trkpt lat="45.71448" lon="6.57235">
        <ele>791</ele>
        <time>2018-10-26T09:26:37Z</time>
      </trkpt>
      <trkpt lat="45.71444" lon="6.57246">
        <ele>791.6</ele>
        <time>2018-10-26T09:26:41Z</time>
      </trkpt>
      <trkpt lat="45.71447" lon="6.57261">
        <ele>792.1</ele>
        <time>2018-10-26T09:26:45Z</time>
      </trkpt>
      <trkpt lat="45.71451" lon="6.57274">
        <ele>792.7</ele>
        <time>2018-10-26T09:26:49Z</time>
      </trkpt>
      <trkpt lat="45.71454" lon="6.57289">
        <ele>793.5</ele>
        <time>2018-10-26T09:26:54Z</time>
      </trkpt>
      <trkpt lat="45.71458" lon="6.57304">
        <ele>794.2</ele>
        <time>2018-10-26T09:26:59Z</time>
      </trkpt>
      <trkpt lat="45.7146" lon="6.57319">
        <ele>795.4</ele>
        <time>2018-10-26T09:27:04Z</time>
      </trkpt>
      <trkpt lat="45.71461" lon="6.57332">
        <ele>796.2</ele>
        <time>2018-10-26T09:27:08Z</time>
      </trkpt>
      <trkpt lat="45.71464" lon="6.57345">
        <ele>797.1</ele>
        <time>2018-10-26T09:27:12Z</time>
      </trkpt>
      <trkpt lat="45.71464" lon="6.57361">
        <ele>798.1</ele>
        <time>2018-10-26T09:27:17Z</time>
      </trkpt>
      <trkpt lat="45.71463" lon="6.57377">
        <ele>798.9</ele>
        <time>2018-10-26T09:27:22Z</time>
      </trkpt>
      <trkpt lat="45.71461" lon="6.57392">
        <ele>799.7</ele>
        <time>2018-10-26T09:27:27Z</time>
      </trkpt>
      <trkpt lat="45.71456" lon="6.57405">
        <ele>800.6</ele>
        <time>2018-10-26T09:27:32Z</time>
      </trkpt>
      <trkpt lat="45.7145" lon="6.57415">
        <ele>801.4</ele>
        <time>2018-10-26T09:27:36Z</time>
      </trkpt>
      <trkpt lat="45.71442" lon="6.57426">
        <ele>802.3</ele>
        <time>2018-10-26T09:27:41Z</time>
      </trkpt>
      <trkpt lat="45.71436" lon="6.57436">
        <ele>803.2</ele>
        <time>2018-10-26T09:27:45Z</time>
      </trkpt>
      <trkpt lat="45.71431" lon="6.57447">
        <ele>803.9</ele>
        <time>2018-10-26T09:27:49Z</time>
      </trkpt>
      <trkpt lat="45.71423" lon="6.57458">
        <ele>804.8</ele>
        <time>2018-10-26T09:27:54Z</time>
      </trkpt>
      <trkpt lat="45.71415" lon="6.5747">
        <ele>805.6</ele>
        <time>2018-10-26T09:27:59Z</time>
      </trkpt>
      <trkpt lat="45.71408" lon="6.57482">
        <ele>806.4</ele>
        <time>2018-10-26T09:28:04Z</time>
      </trkpt>
      <trkpt lat="45.71402" lon="6.57492">
        <ele>807.2</ele>
        <time>2018-10-26T09:28:08Z</time>
      </trkpt>
      <trkpt lat="45.71396" lon="6.57501">
        <ele>807.9</ele>
        <time>2018-10-26T09:28:12Z</time>
      </trkpt>
      <trkpt lat="45.71389" lon="6.57511">
        <ele>808.6</ele>
        <time>2018-10-26T09:28:16Z</time>
      </trkpt>
      <trkpt lat="45.71383" lon="6.5752">
        <ele>809.5</ele>
        <time>2018-10-26T09:28:20Z</time>
      </trkpt>
      <trkpt lat="45.71375" lon="6.57532">
        <ele>810.6</ele>
        <time>2018-10-26T09:28:25Z</time>
      </trkpt>
      <trkpt lat="45.71368" lon="6.5754">
        <ele>811.2</ele>
        <time>2018-10-26T09:28:29Z</time>
      </trkpt>
      <trkpt lat="45.71358" lon="6.57543">
        <ele>812.1</ele>
        <time>2018-10-26T09:28:34Z</time>
      </trkpt>
      <trkpt lat="45.71347" lon="6.5754">
        <ele>813.2</ele>
        <time>2018-10-26T09:28:39Z</time>
      </trkpt>
      <trkpt lat="45.71339" lon="6.5753">
        <ele>814.1</ele>
        <time>2018-10-26T09:28:44Z</time>
      </trkpt>
      <trkpt lat="45.71332" lon="6.57519">
        <ele>815.1</ele>
        <time>2018-10-26T09:28:49Z</time>
      </trkpt>
      <trkpt lat="45.71327" lon="6.57508">
        <ele>816.3</ele>
        <time>2018-10-26T09:28:54Z</time>
      </trkpt>
      <trkpt lat="45.71323" lon="6.57494">
        <ele>816.9</ele>
        <time>2018-10-26T09:28:59Z</time>
      </trkpt>
      <trkpt lat="45.71321" lon="6.57482">
        <ele>817.4</ele>
        <time>2018-10-26T09:29:03Z</time>
      </trkpt>
      <trkpt lat="45.71321" lon="6.57468">
        <ele>817.9</ele>
        <time>2018-10-26T09:29:07Z</time>
      </trkpt>
      <trkpt lat="45.7132" lon="6.57452">
        <ele>818.3</ele>
        <time>2018-10-26T09:29:11Z</time>
      </trkpt>
      <trkpt lat="45.71319" lon="6.57438">
        <ele>818.9</ele>
        <time>2018-10-26T09:29:15Z</time>
      </trkpt>
      <trkpt lat="45.71318" lon="6.57422">
        <ele>819.6</ele>
        <time>2018-10-26T09:29:19Z</time>
      </trkpt>
      <trkpt lat="45.71317" lon="6.57407">
        <ele>820.4</ele>
        <time>2018-10-26T09:29:23Z</time>
      </trkpt>
      <trkpt lat="45.71316" lon="6.57392">
        <ele>821.1</ele>
        <time>2018-10-26T09:29:27Z</time>
      </trkpt>
      <trkpt lat="45.71317" lon="6.57377">
        <ele>821.8</ele>
        <time>2018-10-26T09:29:31Z</time>
      </trkpt>
      <trkpt lat="45.71315" lon="6.57363">
        <ele>822.8</ele>
        <time>2018-10-26T09:29:35Z</time>
      </trkpt>
      <trkpt lat="45.71314" lon="6.57347">
        <ele>823.5</ele>
        <time>2018-10-26T09:29:39Z</time>
      </trkpt>
      <trkpt lat="45.71313" lon="6.57333">
        <ele>824.1</ele>
        <time>2018-10-26T09:29:43Z</time>
      </trkpt>
      <trkpt lat="45.7131" lon="6.57319">
        <ele>824.9</ele>
        <time>2018-10-26T09:29:47Z</time>
      </trkpt>
      <trkpt lat="45.71306" lon="6.57306">
        <ele>825.6</ele>
        <time>2018-10-26T09:29:51Z</time>
      </trkpt>
      <trkpt lat="45.71301" lon="6.57294">
        <ele>826.5</ele>
        <time>2018-10-26T09:29:55Z</time>
      </trkpt>
      <trkpt lat="45.71297" lon="6.57282">
        <ele>827.2</ele>
        <time>2018-10-26T09:29:59Z</time>
      </trkpt>
      <trkpt lat="45.7129" lon="6.57271">
        <ele>827.9</ele>
        <time>2018-10-26T09:30:03Z</time>
      </trkpt>
      <trkpt lat="45.71282" lon="6.57263">
        <ele>828.4</ele>
        <time>2018-10-26T09:30:07Z</time>
      </trkpt>
      <trkpt lat="45.71274" lon="6.57254">
        <ele>829.1</ele>
        <time>2018-10-26T09:30:11Z</time>
      </trkpt>
      <trkpt lat="45.71267" lon="6.57243">
        <ele>829.7</ele>
        <time>2018-10-26T09:30:15Z</time>
      </trkpt>
      <trkpt lat="45.7126" lon="6.57232">
        <ele>830.2</ele>
        <time>2018-10-26T09:30:19Z</time>
      </trkpt>
      <trkpt lat="45.71255" lon="6.5722">
        <ele>830.7</ele>
        <time>2018-10-26T09:30:23Z</time>
      </trkpt>
      <trkpt lat="45.71251" lon="6.57206">
        <ele>831.7</ele>
        <time>2018-10-26T09:30:27Z</time>
      </trkpt>
      <trkpt lat="45.71246" lon="6.57192">
        <ele>832.4</ele>
        <time>2018-10-26T09:30:31Z</time>
      </trkpt>
      <trkpt lat="45.71241" lon="6.5718">
        <ele>833.3</ele>
        <time>2018-10-26T09:30:35Z</time>
      </trkpt>
      <trkpt lat="45.71235" lon="6.57168">
        <ele>834.3</ele>
        <time>2018-10-26T09:30:39Z</time>
      </trkpt>
      <trkpt lat="45.71229" lon="6.57157">
        <ele>835.2</ele>
        <time>2018-10-26T09:30:43Z</time>
      </trkpt>
      <trkpt lat="45.71222" lon="6.57147">
        <ele>835.8</ele>
        <time>2018-10-26T09:30:47Z</time>
      </trkpt>
      <trkpt lat="45.71216" lon="6.57136">
        <ele>836.8</ele>
        <time>2018-10-26T09:30:51Z</time>
      </trkpt>
      <trkpt lat="45.7121" lon="6.57125">
        <ele>837.5</ele>
        <time>2018-10-26T09:30:55Z</time>
      </trkpt>
      <trkpt lat="45.71204" lon="6.57114">
        <ele>838.4</ele>
        <time>2018-10-26T09:30:59Z</time>
      </trkpt>
      <trkpt lat="45.71199" lon="6.57103">
        <ele>839.3</ele>
        <time>2018-10-26T09:31:03Z</time>
      </trkpt>
      <trkpt lat="45.71188" lon="6.57097">
        <ele>840.3</ele>
        <time>2018-10-26T09:31:08Z</time>
      </trkpt>
      <trkpt lat="45.7118" lon="6.57102">
        <ele>841.2</ele>
        <time>2018-10-26T09:31:12Z</time>
      </trkpt>
      <trkpt lat="45.71176" lon="6.57116">
        <ele>842</ele>
        <time>2018-10-26T09:31:16Z</time>
      </trkpt>
      <trkpt lat="45.7118" lon="6.5713">
        <ele>842.7</ele>
        <time>2018-10-26T09:31:20Z</time>
      </trkpt>
      <trkpt lat="45.71184" lon="6.57144">
        <ele>843.3</ele>
        <time>2018-10-26T09:31:24Z</time>
      </trkpt>
      <trkpt lat="45.71189" lon="6.57157">
        <ele>844</ele>
        <time>2018-10-26T09:31:28Z</time>
      </trkpt>
      <trkpt lat="45.71193" lon="6.57171">
        <ele>845.3</ele>
        <time>2018-10-26T09:31:32Z</time>
      </trkpt>
      <trkpt lat="45.71198" lon="6.57184">
        <ele>846.1</ele>
        <time>2018-10-26T09:31:36Z</time>
      </trkpt>
      <trkpt lat="45.71197" lon="6.57197">
        <ele>847</ele>
        <time>2018-10-26T09:31:40Z</time>
      </trkpt>
      <trkpt lat="45.71188" lon="6.572">
        <ele>848.2</ele>
        <time>2018-10-26T09:31:44Z</time>
      </trkpt>
      <trkpt lat="45.71184" lon="6.57188">
        <ele>849</ele>
        <time>2018-10-26T09:31:47Z</time>
      </trkpt>
      <trkpt lat="45.71179" lon="6.57174">
        <ele>849.7</ele>
        <time>2018-10-26T09:31:51Z</time>
      </trkpt>
      <trkpt lat="45.71174" lon="6.57161">
        <ele>850.5</ele>
        <time>2018-10-26T09:31:55Z</time>
      </trkpt>
      <trkpt lat="45.71168" lon="6.5715">
        <ele>851.3</ele>
        <time>2018-10-26T09:31:59Z</time>
      </trkpt>
      <trkpt lat="45.71162" lon="6.57141">
        <ele>852.1</ele>
        <time>2018-10-26T09:32:03Z</time>
      </trkpt>
      <trkpt lat="45.71154" lon="6.57131">
        <ele>852.9</ele>
        <time>2018-10-26T09:32:08Z</time>
      </trkpt>
      <trkpt lat="45.71145" lon="6.57122">
        <ele>853.8</ele>
        <time>2018-10-26T09:32:13Z</time>
      </trkpt>
      <trkpt lat="45.71137" lon="6.57113">
        <ele>854.8</ele>
        <time>2018-10-26T09:32:18Z</time>
      </trkpt>
      <trkpt lat="45.71131" lon="6.57103">
        <ele>855.7</ele>
        <time>2018-10-26T09:32:22Z</time>
      </trkpt>
      <trkpt lat="45.71123" lon="6.57091">
        <ele>856.5</ele>
        <time>2018-10-26T09:32:27Z</time>
      </trkpt>
      <trkpt lat="45.71117" lon="6.57082">
        <ele>857.2</ele>
        <time>2018-10-26T09:32:31Z</time>
      </trkpt>
      <trkpt lat="45.71111" lon="6.57069">
        <ele>858.5</ele>
        <time>2018-10-26T09:32:36Z</time>
      </trkpt>
      <trkpt lat="45.71104" lon="6.57057">
        <ele>859.3</ele>
        <time>2018-10-26T09:32:41Z</time>
      </trkpt>
      <trkpt lat="45.71096" lon="6.57046">
        <ele>860.4</ele>
        <time>2018-10-26T09:32:46Z</time>
      </trkpt>
      <trkpt lat="45.71089" lon="6.57034">
        <ele>861.4</ele>
        <time>2018-10-26T09:32:51Z</time>
      </trkpt>
      <trkpt lat="45.71081" lon="6.57023">
        <ele>862.3</ele>
        <time>2018-10-26T09:32:56Z</time>
      </trkpt>
      <trkpt lat="45.71073" lon="6.57012">
        <ele>863.1</ele>
        <time>2018-10-26T09:33:01Z</time>
      </trkpt>
      <trkpt lat="45.71066" lon="6.57002">
        <ele>864.2</ele>
        <time>2018-10-26T09:33:06Z</time>
      </trkpt>
      <trkpt lat="45.71059" lon="6.5699">
        <ele>865.2</ele>
        <time>2018-10-26T09:33:11Z</time>
      </trkpt>
      <trkpt lat="45.71052" lon="6.56979">
        <ele>866</ele>
        <time>2018-10-26T09:33:16Z</time>
      </trkpt>
      <trkpt lat="45.71044" lon="6.5697">
        <ele>866.7</ele>
        <time>2018-10-26T09:33:21Z</time>
      </trkpt>
      <trkpt lat="45.71038" lon="6.5696">
        <ele>867.6</ele>
        <time>2018-10-26T09:33:25Z</time>
      </trkpt>
      <trkpt lat="45.71031" lon="6.56949">
        <ele>868.5</ele>
        <time>2018-10-26T09:33:30Z</time>
      </trkpt>
      <trkpt lat="45.71023" lon="6.56937">
        <ele>869.4</ele>
        <time>2018-10-26T09:33:35Z</time>
      </trkpt>
      <trkpt lat="45.71016" lon="6.56924">
        <ele>870.3</ele>
        <time>2018-10-26T09:33:40Z</time>
      </trkpt>
      <trkpt lat="45.7101" lon="6.56912">
        <ele>871.2</ele>
        <time>2018-10-26T09:33:45Z</time>
      </trkpt>
      <trkpt lat="45.71003" lon="6.569">
        <ele>872.1</ele>
        <time>2018-10-26T09:33:50Z</time>
      </trkpt>
      <trkpt lat="45.70998" lon="6.56886">
        <ele>872.8</ele>
        <time>2018-10-26T09:33:55Z</time>
      </trkpt>
      <trkpt lat="45.70995" lon="6.56874">
        <ele>873.5</ele>
        <time>2018-10-26T09:33:59Z</time>
      </trkpt>
      <trkpt lat="45.70991" lon="6.56859">
        <ele>874.6</ele>
        <time>2018-10-26T09:34:04Z</time>
      </trkpt>
      <trkpt lat="45.70984" lon="6.56848">
        <ele>875.6</ele>
        <time>2018-10-26T09:34:09Z</time>
      </trkpt>
      <trkpt lat="45.70974" lon="6.5685">
        <ele>876.6</ele>
        <time>2018-10-26T09:34:14Z</time>
      </trkpt>
      <trkpt lat="45.7097" lon="6.56862">
        <ele>877.4</ele>
        <time>2018-10-26T09:34:18Z</time>
      </trkpt>
      <trkpt lat="45.70971" lon="6.56877">
        <ele>878</ele>
        <time>2018-10-26T09:34:22Z</time>
      </trkpt>
      <trkpt lat="45.70975" lon="6.56889">
        <ele>878.4</ele>
        <time>2018-10-26T09:34:26Z</time>
      </trkpt>
      <trkpt lat="45.70979" lon="6.56901">
        <ele>879</ele>
        <time>2018-10-26T09:34:30Z</time>
      </trkpt>
      <trkpt lat="45.70983" lon="6.56914">
        <ele>879.6</ele>
        <time>2018-10-26T09:34:34Z</time>
      </trkpt>
      <trkpt lat="45.70986" lon="6.56929">
        <ele>880.7</ele>
        <time>2018-10-26T09:34:39Z</time>
      </trkpt>
      <trkpt lat="45.70988" lon="6.56944">
        <ele>881.8</ele>
        <time>2018-10-26T09:34:44Z</time>
      </trkpt>
      <trkpt lat="45.70988" lon="6.5696">
        <ele>883.1</ele>
        <time>2018-10-26T09:34:49Z</time>
      </trkpt>
      <trkpt lat="45.70987" lon="6.56974">
        <ele>884.1</ele>
        <time>2018-10-26T09:34:54Z</time>
      </trkpt>
      <trkpt lat="45.70987" lon="6.56987">
        <ele>884.7</ele>
        <time>2018-10-26T09:34:58Z</time>
      </trkpt>
      <trkpt lat="45.70986" lon="6.57003">
        <ele>885.7</ele>
        <time>2018-10-26T09:35:03Z</time>
      </trkpt>
      <trkpt lat="45.70986" lon="6.57018">
        <ele>886.4</ele>
        <time>2018-10-26T09:35:08Z</time>
      </trkpt>
      <trkpt lat="45.70984" lon="6.57034">
        <ele>887.6</ele>
        <time>2018-10-26T09:35:13Z</time>
      </trkpt>
      <trkpt lat="45.70985" lon="6.57047">
        <ele>888.2</ele>
        <time>2018-10-26T09:35:17Z</time>
      </trkpt>
      <trkpt lat="45.70988" lon="6.57063">
        <ele>889.5</ele>
        <time>2018-10-26T09:35:22Z</time>
      </trkpt>
      <trkpt lat="45.7099" lon="6.57078">
        <ele>890.6</ele>
        <time>2018-10-26T09:35:27Z</time>
      </trkpt>
      <trkpt lat="45.70996" lon="6.57092">
        <ele>891.4</ele>
        <time>2018-10-26T09:35:32Z</time>
      </trkpt>
      <trkpt lat="45.71002" lon="6.57105">
        <ele>892.3</ele>
        <time>2018-10-26T09:35:37Z</time>
      </trkpt>
      <trkpt lat="45.7101" lon="6.57116">
        <ele>893.2</ele>
        <time>2018-10-26T09:35:42Z</time>
      </trkpt>
      <trkpt lat="45.71017" lon="6.57124">
        <ele>893.7</ele>
        <time>2018-10-26T09:35:46Z</time>
      </trkpt>
      <trkpt lat="45.71026" lon="6.57133">
        <ele>894.6</ele>
        <time>2018-10-26T09:35:51Z</time>
      </trkpt>
      <trkpt lat="45.71034" lon="6.57142">
        <ele>895.3</ele>
        <time>2018-10-26T09:35:56Z</time>
      </trkpt>
      <trkpt lat="45.71039" lon="6.57156">
        <ele>896.2</ele>
        <time>2018-10-26T09:36:01Z</time>
      </trkpt>
      <trkpt lat="45.71028" lon="6.57159">
        <ele>897.6</ele>
        <time>2018-10-26T09:36:06Z</time>
      </trkpt>
      <trkpt lat="45.71019" lon="6.57153">
        <ele>898.7</ele>
        <time>2018-10-26T09:36:10Z</time>
      </trkpt>
      <trkpt lat="45.7101" lon="6.57146">
        <ele>899.7</ele>
        <time>2018-10-26T09:36:14Z</time>
      </trkpt>
      <trkpt lat="45.71001" lon="6.57139">
        <ele>900.5</ele>
        <time>2018-10-26T09:36:18Z</time>
      </trkpt>
      <trkpt lat="45.70991" lon="6.57131">
        <ele>901.7</ele>
        <time>2018-10-26T09:36:23Z</time>
      </trkpt>
      <trkpt lat="45.70983" lon="6.57124">
        <ele>902.3</ele>
        <time>2018-10-26T09:36:27Z</time>
      </trkpt>
      <trkpt lat="45.70974" lon="6.57117">
        <ele>903.3</ele>
        <time>2018-10-26T09:36:32Z</time>
      </trkpt>
      <trkpt lat="45.70965" lon="6.57109">
        <ele>904.4</ele>
        <time>2018-10-26T09:36:37Z</time>
      </trkpt>
      <trkpt lat="45.70955" lon="6.57102">
        <ele>905.4</ele>
        <time>2018-10-26T09:36:42Z</time>
      </trkpt>
      <trkpt lat="45.70947" lon="6.57097">
        <ele>906</ele>
        <time>2018-10-26T09:36:46Z</time>
      </trkpt>
      <trkpt lat="45.70939" lon="6.57091">
        <ele>906.9</ele>
        <time>2018-10-26T09:36:50Z</time>
      </trkpt>
      <trkpt lat="45.70931" lon="6.57084">
        <ele>907.6</ele>
        <time>2018-10-26T09:36:54Z</time>
      </trkpt>
      <trkpt lat="45.70923" lon="6.57073">
        <ele>908.3</ele>
        <time>2018-10-26T09:36:59Z</time>
      </trkpt>
      <trkpt lat="45.70917" lon="6.57061">
        <ele>909.4</ele>
        <time>2018-10-26T09:37:04Z</time>
      </trkpt>
      <trkpt lat="45.70913" lon="6.57048">
        <ele>910.5</ele>
        <time>2018-10-26T09:37:09Z</time>
      </trkpt>
      <trkpt lat="45.70908" lon="6.57033">
        <ele>911.3</ele>
        <time>2018-10-26T09:37:14Z</time>
      </trkpt>
      <trkpt lat="45.70904" lon="6.57021">
        <ele>912</ele>
        <time>2018-10-26T09:37:18Z</time>
      </trkpt>
      <trkpt lat="45.709" lon="6.57008">
        <ele>912.8</ele>
        <time>2018-10-26T09:37:22Z</time>
      </trkpt>
      <trkpt lat="45.70894" lon="6.56995">
        <ele>914.2</ele>
        <time>2018-10-26T09:37:27Z</time>
      </trkpt>
      <trkpt lat="45.70887" lon="6.56982">
        <ele>915.2</ele>
        <time>2018-10-26T09:37:32Z</time>
      </trkpt>
      <trkpt lat="45.70881" lon="6.56972">
        <ele>916</ele>
        <time>2018-10-26T09:37:36Z</time>
      </trkpt>
      <trkpt lat="45.70874" lon="6.56964">
        <ele>917</ele>
        <time>2018-10-26T09:37:40Z</time>
      </trkpt>
      <trkpt lat="45.70866" lon="6.56956">
        <ele>917.9</ele>
        <time>2018-10-26T09:37:44Z</time>
      </trkpt>
      <trkpt lat="45.70859" lon="6.56949">
        <ele>918.3</ele>
        <time>2018-10-26T09:37:48Z</time>
      </trkpt>
      <trkpt lat="45.7085" lon="6.5694">
        <ele>919.1</ele>
        <time>2018-10-26T09:37:53Z</time>
      </trkpt>
      <trkpt lat="45.70841" lon="6.5693">
        <ele>920.3</ele>
        <time>2018-10-26T09:37:58Z</time>
      </trkpt>
      <trkpt lat="45.70832" lon="6.56923">
        <ele>921.1</ele>
        <time>2018-10-26T09:38:02Z</time>
      </trkpt>
      <trkpt lat="45.70824" lon="6.56916">
        <ele>922</ele>
        <time>2018-10-26T09:38:06Z</time>
      </trkpt>
      <trkpt lat="45.70818" lon="6.56905">
        <ele>923.1</ele>
        <time>2018-10-26T09:38:11Z</time>
      </trkpt>
      <trkpt lat="45.7081" lon="6.56899">
        <ele>924</ele>
        <time>2018-10-26T09:38:15Z</time>
      </trkpt>
      <trkpt lat="45.70802" lon="6.56892">
        <ele>924.7</ele>
        <time>2018-10-26T09:38:19Z</time>
      </trkpt>
      <trkpt lat="45.70795" lon="6.56883">
        <ele>925.5</ele>
        <time>2018-10-26T09:38:23Z</time>
      </trkpt>
      <trkpt lat="45.70788" lon="6.56875">
        <ele>926.3</ele>
        <time>2018-10-26T09:38:27Z</time>
      </trkpt>
      <trkpt lat="45.70779" lon="6.56866">
        <ele>927.2</ele>
        <time>2018-10-26T09:38:32Z</time>
      </trkpt>
      <trkpt lat="45.7077" lon="6.56857">
        <ele>928.1</ele>
        <time>2018-10-26T09:38:37Z</time>
      </trkpt>
      <trkpt lat="45.70761" lon="6.56848">
        <ele>928.9</ele>
        <time>2018-10-26T09:38:42Z</time>
      </trkpt>
      <trkpt lat="45.70753" lon="6.56842">
        <ele>929.8</ele>
        <time>2018-10-26T09:38:46Z</time>
      </trkpt>
      <trkpt lat="45.70745" lon="6.56832">
        <ele>931</ele>
        <time>2018-10-26T09:38:51Z</time>
      </trkpt>
      <trkpt lat="45.70737" lon="6.56826">
        <ele>931.5</ele>
        <time>2018-10-26T09:38:55Z</time>
      </trkpt>
      <trkpt lat="45.70726" lon="6.5682">
        <ele>932.9</ele>
        <time>2018-10-26T09:39:00Z</time>
      </trkpt>
      <trkpt lat="45.70716" lon="6.56817">
        <ele>934</ele>
        <time>2018-10-26T09:39:05Z</time>
      </trkpt>
      <trkpt lat="45.70706" lon="6.56817">
        <ele>935</ele>
        <time>2018-10-26T09:39:10Z</time>
      </trkpt>
      <trkpt lat="45.70694" lon="6.56818">
        <ele>936.1</ele>
        <time>2018-10-26T09:39:15Z</time>
      </trkpt>
      <trkpt lat="45.70684" lon="6.56817">
        <ele>937.1</ele>
        <time>2018-10-26T09:39:20Z</time>
      </trkpt>
      <trkpt lat="45.70673" lon="6.5682">
        <ele>938.5</ele>
        <time>2018-10-26T09:39:25Z</time>
      </trkpt>
      <trkpt lat="45.70664" lon="6.56821">
        <ele>939.3</ele>
        <time>2018-10-26T09:39:29Z</time>
      </trkpt>
      <trkpt lat="45.70655" lon="6.56822">
        <ele>939.7</ele>
        <time>2018-10-26T09:39:33Z</time>
      </trkpt>
      <trkpt lat="45.70646" lon="6.56825">
        <ele>940.6</ele>
        <time>2018-10-26T09:39:37Z</time>
      </trkpt>
      <trkpt lat="45.70637" lon="6.56828">
        <ele>940.9</ele>
        <time>2018-10-26T09:39:41Z</time>
      </trkpt>
      <trkpt lat="45.70628" lon="6.56831">
        <ele>941.7</ele>
        <time>2018-10-26T09:39:45Z</time>
      </trkpt>
      <trkpt lat="45.70619" lon="6.56833">
        <ele>942.1</ele>
        <time>2018-10-26T09:39:49Z</time>
      </trkpt>
      <trkpt lat="45.7061" lon="6.56837">
        <ele>942.6</ele>
        <time>2018-10-26T09:39:53Z</time>
      </trkpt>
      <trkpt lat="45.70601" lon="6.56839">
        <ele>943.4</ele>
        <time>2018-10-26T09:39:57Z</time>
      </trkpt>
      <trkpt lat="45.70589" lon="6.5684">
        <ele>944.2</ele>
        <time>2018-10-26T09:40:02Z</time>
      </trkpt>
      <trkpt lat="45.7058" lon="6.56843">
        <ele>944.8</ele>
        <time>2018-10-26T09:40:06Z</time>
      </trkpt>
      <trkpt lat="45.70571" lon="6.56846">
        <ele>945.4</ele>
        <time>2018-10-26T09:40:10Z</time>
      </trkpt>
      <trkpt lat="45.7056" lon="6.56849">
        <ele>946.2</ele>
        <time>2018-10-26T09:40:15Z</time>
      </trkpt>
      <trkpt lat="45.70549" lon="6.56851">
        <ele>946.9</ele>
        <time>2018-10-26T09:40:20Z</time>
      </trkpt>
      <trkpt lat="45.70539" lon="6.56851">
        <ele>947.4</ele>
        <time>2018-10-26T09:40:24Z</time>
      </trkpt>
      <trkpt lat="45.7053" lon="6.56848">
        <ele>948.1</ele>
        <time>2018-10-26T09:40:28Z</time>
      </trkpt>
      <trkpt lat="45.70521" lon="6.56843">
        <ele>949.3</ele>
        <time>2018-10-26T09:40:32Z</time>
      </trkpt>
      <trkpt lat="45.70511" lon="6.56837">
        <ele>950.3</ele>
        <time>2018-10-26T09:40:37Z</time>
      </trkpt>
      <trkpt lat="45.70501" lon="6.56831">
        <ele>951</ele>
        <time>2018-10-26T09:40:42Z</time>
      </trkpt>
      <trkpt lat="45.70491" lon="6.56825">
        <ele>952.2</ele>
        <time>2018-10-26T09:40:47Z</time>
      </trkpt>
      <trkpt lat="45.70482" lon="6.5682">
        <ele>953.3</ele>
        <time>2018-10-26T09:40:52Z</time>
      </trkpt>
      <trkpt lat="45.70473" lon="6.56815">
        <ele>954</ele>
        <time>2018-10-26T09:40:56Z</time>
      </trkpt>
      <trkpt lat="45.70465" lon="6.56809">
        <ele>954.9</ele>
        <time>2018-10-26T09:41:00Z</time>
      </trkpt>
      <trkpt lat="45.70456" lon="6.56803">
        <ele>956.1</ele>
        <time>2018-10-26T09:41:05Z</time>
      </trkpt>
      <trkpt lat="45.70448" lon="6.56798">
        <ele>957</ele>
        <time>2018-10-26T09:41:09Z</time>
      </trkpt>
      <trkpt lat="45.70438" lon="6.56793">
        <ele>958.1</ele>
        <time>2018-10-26T09:41:14Z</time>
      </trkpt>
      <trkpt lat="45.70427" lon="6.56789">
        <ele>959.2</ele>
        <time>2018-10-26T09:41:19Z</time>
      </trkpt>
      <trkpt lat="45.70416" lon="6.56785">
        <ele>960.3</ele>
        <time>2018-10-26T09:41:24Z</time>
      </trkpt>
      <trkpt lat="45.70406" lon="6.56779">
        <ele>961.3</ele>
        <time>2018-10-26T09:41:29Z</time>
      </trkpt>
      <trkpt lat="45.70395" lon="6.56775">
        <ele>962.2</ele>
        <time>2018-10-26T09:41:34Z</time>
      </trkpt>
      <trkpt lat="45.70386" lon="6.56771">
        <ele>963</ele>
        <time>2018-10-26T09:41:38Z</time>
      </trkpt>
      <trkpt lat="45.70376" lon="6.56769">
        <ele>964.3</ele>
        <time>2018-10-26T09:41:43Z</time>
      </trkpt>
      <trkpt lat="45.70365" lon="6.56766">
        <ele>965.6</ele>
        <time>2018-10-26T09:41:48Z</time>
      </trkpt>
      <trkpt lat="45.70354" lon="6.56766">
        <ele>966.8</ele>
        <time>2018-10-26T09:41:53Z</time>
      </trkpt>
      <trkpt lat="45.70343" lon="6.56765">
        <ele>967.6</ele>
        <time>2018-10-26T09:41:58Z</time>
      </trkpt>
      <trkpt lat="45.70334" lon="6.56764">
        <ele>968.3</ele>
        <time>2018-10-26T09:42:02Z</time>
      </trkpt>
      <trkpt lat="45.70324" lon="6.56762">
        <ele>969</ele>
        <time>2018-10-26T09:42:06Z</time>
      </trkpt>
      <trkpt lat="45.70315" lon="6.56759">
        <ele>969.6</ele>
        <time>2018-10-26T09:42:10Z</time>
      </trkpt>
      <trkpt lat="45.70304" lon="6.56756">
        <ele>970.1</ele>
        <time>2018-10-26T09:42:14Z</time>
      </trkpt>
      <trkpt lat="45.70294" lon="6.56754">
        <ele>970.4</ele>
        <time>2018-10-26T09:42:18Z</time>
      </trkpt>
      <trkpt lat="45.70284" lon="6.56752">
        <ele>971</ele>
        <time>2018-10-26T09:42:22Z</time>
      </trkpt>
      <trkpt lat="45.70274" lon="6.56749">
        <ele>971.7</ele>
        <time>2018-10-26T09:42:26Z</time>
      </trkpt>
      <trkpt lat="45.70263" lon="6.56744">
        <ele>972.1</ele>
        <time>2018-10-26T09:42:30Z</time>
      </trkpt>
      <trkpt lat="45.70253" lon="6.56741">
        <ele>972.7</ele>
        <time>2018-10-26T09:42:34Z</time>
      </trkpt>
      <trkpt lat="45.70243" lon="6.56736">
        <ele>973.2</ele>
        <time>2018-10-26T09:42:38Z</time>
      </trkpt>
      <trkpt lat="45.70233" lon="6.56731">
        <ele>973.6</ele>
        <time>2018-10-26T09:42:42Z</time>
      </trkpt>
      <trkpt lat="45.70224" lon="6.56724">
        <ele>974.2</ele>
        <time>2018-10-26T09:42:46Z</time>
      </trkpt>
      <trkpt lat="45.70213" lon="6.56719">
        <ele>974.4</ele>
        <time>2018-10-26T09:42:50Z</time>
      </trkpt>
      <trkpt lat="45.70202" lon="6.56714">
        <ele>975.2</ele>
        <time>2018-10-26T09:42:54Z</time>
      </trkpt>
      <trkpt lat="45.70191" lon="6.56713">
        <ele>976.1</ele>
        <time>2018-10-26T09:42:58Z</time>
      </trkpt>
      <trkpt lat="45.7018" lon="6.56712">
        <ele>976.6</ele>
        <time>2018-10-26T09:43:02Z</time>
      </trkpt>
      <trkpt lat="45.70169" lon="6.56711">
        <ele>976.8</ele>
        <time>2018-10-26T09:43:06Z</time>
      </trkpt>
      <trkpt lat="45.70158" lon="6.5671">
        <ele>977.1</ele>
        <time>2018-10-26T09:43:10Z</time>
      </trkpt>
      <trkpt lat="45.70148" lon="6.5671">
        <ele>978</ele>
        <time>2018-10-26T09:43:14Z</time>
      </trkpt>
      <trkpt lat="45.70137" lon="6.56709">
        <ele>978.5</ele>
        <time>2018-10-26T09:43:18Z</time>
      </trkpt>
      <trkpt lat="45.70126" lon="6.56707">
        <ele>979</ele>
        <time>2018-10-26T09:43:22Z</time>
      </trkpt>
      <trkpt lat="45.70116" lon="6.56704">
        <ele>979.4</ele>
        <time>2018-10-26T09:43:26Z</time>
      </trkpt>
      <trkpt lat="45.70105" lon="6.56702">
        <ele>980</ele>
        <time>2018-10-26T09:43:30Z</time>
      </trkpt>
      <trkpt lat="45.70094" lon="6.56699">
        <ele>980.6</ele>
        <time>2018-10-26T09:43:34Z</time>
      </trkpt>
      <trkpt lat="45.70085" lon="6.56697">
        <ele>981.2</ele>
        <time>2018-10-26T09:43:38Z</time>
      </trkpt>
      <trkpt lat="45.70075" lon="6.56693">
        <ele>981.7</ele>
        <time>2018-10-26T09:43:42Z</time>
      </trkpt>
      <trkpt lat="45.70064" lon="6.5669">
        <ele>982.3</ele>
        <time>2018-10-26T09:43:46Z</time>
      </trkpt>
      <trkpt lat="45.70054" lon="6.56687">
        <ele>983.1</ele>
        <time>2018-10-26T09:43:50Z</time>
      </trkpt>
      <trkpt lat="45.70044" lon="6.56683">
        <ele>984.1</ele>
        <time>2018-10-26T09:43:54Z</time>
      </trkpt>
      <trkpt lat="45.70033" lon="6.56681">
        <ele>984.8</ele>
        <time>2018-10-26T09:43:58Z</time>
      </trkpt>
      <trkpt lat="45.70022" lon="6.56677">
        <ele>985.5</ele>
        <time>2018-10-26T09:44:02Z</time>
      </trkpt>
      <trkpt lat="45.70011" lon="6.56674">
        <ele>986.3</ele>
        <time>2018-10-26T09:44:06Z</time>
      </trkpt>
      <trkpt lat="45.70002" lon="6.56672">
        <ele>987.4</ele>
        <time>2018-10-26T09:44:10Z</time>
      </trkpt>
      <trkpt lat="45.69992" lon="6.5667">
        <ele>988.3</ele>
        <time>2018-10-26T09:44:14Z</time>
      </trkpt>
      <trkpt lat="45.69981" lon="6.56667">
        <ele>989.4</ele>
        <time>2018-10-26T09:44:18Z</time>
      </trkpt>
      <trkpt lat="45.69971" lon="6.56664">
        <ele>990.4</ele>
        <time>2018-10-26T09:44:22Z</time>
      </trkpt>
      <trkpt lat="45.69962" lon="6.56661">
        <ele>991.2</ele>
        <time>2018-10-26T09:44:26Z</time>
      </trkpt>
      <trkpt lat="45.69953" lon="6.56659">
        <ele>992</ele>
        <time>2018-10-26T09:44:30Z</time>
      </trkpt>
      <trkpt lat="45.69943" lon="6.56658">
        <ele>992.8</ele>
        <time>2018-10-26T09:44:34Z</time>
      </trkpt>
      <trkpt lat="45.69934" lon="6.56655">
        <ele>993.8</ele>
        <time>2018-10-26T09:44:38Z</time>
      </trkpt>
      <trkpt lat="45.69925" lon="6.56652">
        <ele>994.4</ele>
        <time>2018-10-26T09:44:42Z</time>
      </trkpt>
      <trkpt lat="45.69915" lon="6.56649">
        <ele>995.1</ele>
        <time>2018-10-26T09:44:46Z</time>
      </trkpt>
      <trkpt lat="45.69905" lon="6.56647">
        <ele>995.7</ele>
        <time>2018-10-26T09:44:50Z</time>
      </trkpt>
      <trkpt lat="45.69895" lon="6.56646">
        <ele>996.1</ele>
        <time>2018-10-26T09:44:54Z</time>
      </trkpt>
      <trkpt lat="45.69885" lon="6.56646">
        <ele>996.8</ele>
        <time>2018-10-26T09:44:58Z</time>
      </trkpt>
      <trkpt lat="45.69875" lon="6.56646">
        <ele>997.2</ele>
        <time>2018-10-26T09:45:02Z</time>
      </trkpt>
      <trkpt lat="45.69865" lon="6.56647">
        <ele>998.2</ele>
        <time>2018-10-26T09:45:06Z</time>
      </trkpt>
      <trkpt lat="45.69854" lon="6.56646">
        <ele>999</ele>
        <time>2018-10-26T09:45:10Z</time>
      </trkpt>
      <trkpt lat="45.69844" lon="6.56646">
        <ele>999.6</ele>
        <time>2018-10-26T09:45:14Z</time>
      </trkpt>
      <trkpt lat="45.69834" lon="6.56647">
        <ele>1000.3</ele>
        <time>2018-10-26T09:45:18Z</time>
      </trkpt>
      <trkpt lat="45.69823" lon="6.56647">
        <ele>1001.3</ele>
        <time>2018-10-26T09:45:22Z</time>
      </trkpt>
      <trkpt lat="45.69812" lon="6.56645">
        <ele>1001.9</ele>
        <time>2018-10-26T09:45:26Z</time>
      </trkpt>
      <trkpt lat="45.69802" lon="6.56641">
        <ele>1002.8</ele>
        <time>2018-10-26T09:45:30Z</time>
      </trkpt>
      <trkpt lat="45.69792" lon="6.56637">
        <ele>1003.6</ele>
        <time>2018-10-26T09:45:34Z</time>
      </trkpt>
      <trkpt lat="45.69782" lon="6.56636">
        <ele>1004.6</ele>
        <time>2018-10-26T09:45:38Z</time>
      </trkpt>
      <trkpt lat="45.69772" lon="6.56636">
        <ele>1005.5</ele>
        <time>2018-10-26T09:45:42Z</time>
      </trkpt>
      <trkpt lat="45.69762" lon="6.56635">
        <ele>1006.1</ele>
        <time>2018-10-26T09:45:46Z</time>
      </trkpt>
      <trkpt lat="45.69752" lon="6.56635">
        <ele>1007.1</ele>
        <time>2018-10-26T09:45:50Z</time>
      </trkpt>
      <trkpt lat="45.69742" lon="6.56638">
        <ele>1008</ele>
        <time>2018-10-26T09:45:54Z</time>
      </trkpt>
      <trkpt lat="45.69731" lon="6.56641">
        <ele>1008.5</ele>
        <time>2018-10-26T09:45:58Z</time>
      </trkpt>
      <trkpt lat="45.69721" lon="6.56644">
        <ele>1009</ele>
        <time>2018-10-26T09:46:02Z</time>
      </trkpt>
      <trkpt lat="45.6971" lon="6.56646">
        <ele>1009.8</ele>
        <time>2018-10-26T09:46:06Z</time>
      </trkpt>
      <trkpt lat="45.697" lon="6.56648">
        <ele>1010.6</ele>
        <time>2018-10-26T09:46:10Z</time>
      </trkpt>
      <trkpt lat="45.69689" lon="6.56651">
        <ele>1011.4</ele>
        <time>2018-10-26T09:46:14Z</time>
      </trkpt>
      <trkpt lat="45.69679" lon="6.56655">
        <ele>1012.1</ele>
        <time>2018-10-26T09:46:18Z</time>
      </trkpt>
      <trkpt lat="45.69669" lon="6.56658">
        <ele>1013</ele>
        <time>2018-10-26T09:46:22Z</time>
      </trkpt>
      <trkpt lat="45.69659" lon="6.56663">
        <ele>1013.7</ele>
        <time>2018-10-26T09:46:26Z</time>
      </trkpt>
      <trkpt lat="45.6965" lon="6.56667">
        <ele>1014.6</ele>
        <time>2018-10-26T09:46:30Z</time>
      </trkpt>
      <trkpt lat="45.69639" lon="6.56672">
        <ele>1015.4</ele>
        <time>2018-10-26T09:46:34Z</time>
      </trkpt>
      <trkpt lat="45.6963" lon="6.56679">
        <ele>1016</ele>
        <time>2018-10-26T09:46:38Z</time>
      </trkpt>
      <trkpt lat="45.69621" lon="6.56686">
        <ele>1017</ele>
        <time>2018-10-26T09:46:42Z</time>
      </trkpt>
      <trkpt lat="45.69612" lon="6.56694">
        <ele>1017.2</ele>
        <time>2018-10-26T09:46:46Z</time>
      </trkpt>
      <trkpt lat="45.69603" lon="6.56702">
        <ele>1018.6</ele>
        <time>2018-10-26T09:46:50Z</time>
      </trkpt>
      <trkpt lat="45.69593" lon="6.56707">
        <ele>1019.3</ele>
        <time>2018-10-26T09:46:54Z</time>
      </trkpt>
      <trkpt lat="45.69583" lon="6.56713">
        <ele>1020</ele>
        <time>2018-10-26T09:46:58Z</time>
      </trkpt>
      <trkpt lat="45.69573" lon="6.56718">
        <ele>1020.8</ele>
        <time>2018-10-26T09:47:02Z</time>
      </trkpt>
      <trkpt lat="45.69563" lon="6.56724">
        <ele>1021.8</ele>
        <time>2018-10-26T09:47:06Z</time>
      </trkpt>
      <trkpt lat="45.69554" lon="6.56728">
        <ele>1022.6</ele>
        <time>2018-10-26T09:47:10Z</time>
      </trkpt>
      <trkpt lat="45.69544" lon="6.56732">
        <ele>1023.1</ele>
        <time>2018-10-26T09:47:14Z</time>
      </trkpt>
      <trkpt lat="45.69534" lon="6.56736">
        <ele>1024.1</ele>
        <time>2018-10-26T09:47:18Z</time>
      </trkpt>
      <trkpt lat="45.69524" lon="6.5674">
        <ele>1024.7</ele>
        <time>2018-10-26T09:47:22Z</time>
      </trkpt>
      <trkpt lat="45.69514" lon="6.56745">
        <ele>1025.2</ele>
        <time>2018-10-26T09:47:26Z</time>
      </trkpt>
      <trkpt lat="45.69504" lon="6.56749">
        <ele>1025.9</ele>
        <time>2018-10-26T09:47:30Z</time>
      </trkpt>
      <trkpt lat="45.69494" lon="6.56754">
        <ele>1026.3</ele>
        <time>2018-10-26T09:47:34Z</time>
      </trkpt>
      <trkpt lat="45.69483" lon="6.56757">
        <ele>1026.6</ele>
        <time>2018-10-26T09:47:38Z</time>
      </trkpt>
      <trkpt lat="45.69474" lon="6.56755">
        <ele>1027</ele>
        <time>2018-10-26T09:47:41Z</time>
      </trkpt>
      <trkpt lat="45.69465" lon="6.5675">
        <ele>1027.4</ele>
        <time>2018-10-26T09:47:44Z</time>
      </trkpt>
      <trkpt lat="45.69457" lon="6.56743">
        <ele>1027.7</ele>
        <time>2018-10-26T09:47:47Z</time>
      </trkpt>
      <trkpt lat="45.69448" lon="6.56735">
        <ele>1028.1</ele>
        <time>2018-10-26T09:47:50Z</time>
      </trkpt>
      <trkpt lat="45.6944" lon="6.56729">
        <ele>1028.6</ele>
        <time>2018-10-26T09:47:53Z</time>
      </trkpt>
      <trkpt lat="45.6943" lon="6.56725">
        <ele>1029.1</ele>
        <time>2018-10-26T09:47:56Z</time>
      </trkpt>
      <trkpt lat="45.69421" lon="6.56723">
        <ele>1029.1</ele>
        <time>2018-10-26T09:47:59Z</time>
      </trkpt>
      <trkpt lat="45.6941" lon="6.56722">
        <ele>1028.8</ele>
        <time>2018-10-26T09:48:02Z</time>
      </trkpt>
      <trkpt lat="45.694" lon="6.56721">
        <ele>1028.9</ele>
        <time>2018-10-26T09:48:05Z</time>
      </trkpt>
      <trkpt lat="45.6939" lon="6.5672">
        <ele>1029.5</ele>
        <time>2018-10-26T09:48:08Z</time>
      </trkpt>
      <trkpt lat="45.6938" lon="6.56718">
        <ele>1029.9</ele>
        <time>2018-10-26T09:48:11Z</time>
      </trkpt>
      <trkpt lat="45.69369" lon="6.56716">
        <ele>1030.1</ele>
        <time>2018-10-26T09:48:14Z</time>
      </trkpt>
      <trkpt lat="45.69358" lon="6.56713">
        <ele>1030.2</ele>
        <time>2018-10-26T09:48:17Z</time>
      </trkpt>
      <trkpt lat="45.69346" lon="6.56712">
        <ele>1030.6</ele>
        <time>2018-10-26T09:48:20Z</time>
      </trkpt>
      <trkpt lat="45.69335" lon="6.56711">
        <ele>1030.7</ele>
        <time>2018-10-26T09:48:23Z</time>
      </trkpt>
      <trkpt lat="45.69324" lon="6.56711">
        <ele>1031</ele>
        <time>2018-10-26T09:48:26Z</time>
      </trkpt>
      <trkpt lat="45.69313" lon="6.56713">
        <ele>1031.2</ele>
        <time>2018-10-26T09:48:29Z</time>
      </trkpt>
      <trkpt lat="45.69302" lon="6.56718">
        <ele>1031.5</ele>
        <time>2018-10-26T09:48:32Z</time>
      </trkpt>
      <trkpt lat="45.6929" lon="6.56723">
        <ele>1031.8</ele>
        <time>2018-10-26T09:48:35Z</time>
      </trkpt>
      <trkpt lat="45.69279" lon="6.5673">
        <ele>1031.9</ele>
        <time>2018-10-26T09:48:38Z</time>
      </trkpt>
      <trkpt lat="45.69269" lon="6.56737">
        <ele>1032</ele>
        <time>2018-10-26T09:48:41Z</time>
      </trkpt>
      <trkpt lat="45.69258" lon="6.56743">
        <ele>1032.1</ele>
        <time>2018-10-26T09:48:44Z</time>
      </trkpt>
      <trkpt lat="45.69248" lon="6.56749">
        <ele>1032.3</ele>
        <time>2018-10-26T09:48:47Z</time>
      </trkpt>
      <trkpt lat="45.69237" lon="6.56753">
        <ele>1032.7</ele>
        <time>2018-10-26T09:48:50Z</time>
      </trkpt>
      <trkpt lat="45.69226" lon="6.56757">
        <ele>1032.9</ele>
        <time>2018-10-26T09:48:53Z</time>
      </trkpt>
      <trkpt lat="45.69215" lon="6.56762">
        <ele>1033.2</ele>
        <time>2018-10-26T09:48:56Z</time>
      </trkpt>
      <trkpt lat="45.69205" lon="6.56768">
        <ele>1033.4</ele>
        <time>2018-10-26T09:48:59Z</time>
      </trkpt>
      <trkpt lat="45.69194" lon="6.56773">
        <ele>1033.7</ele>
        <time>2018-10-26T09:49:02Z</time>
      </trkpt>
      <trkpt lat="45.69184" lon="6.56782">
        <ele>1034.1</ele>
        <time>2018-10-26T09:49:05Z</time>
      </trkpt>
      <trkpt lat="45.69174" lon="6.56789">
        <ele>1034.4</ele>
        <time>2018-10-26T09:49:08Z</time>
      </trkpt>
      <trkpt lat="45.69164" lon="6.56799">
        <ele>1034.5</ele>
        <time>2018-10-26T09:49:11Z</time>
      </trkpt>
      <trkpt lat="45.69154" lon="6.56807">
        <ele>1034.9</ele>
        <time>2018-10-26T09:49:14Z</time>
      </trkpt>
      <trkpt lat="45.69144" lon="6.56812">
        <ele>1035.1</ele>
        <time>2018-10-26T09:49:17Z</time>
      </trkpt>
      <trkpt lat="45.69132" lon="6.56812">
        <ele>1035.3</ele>
        <time>2018-10-26T09:49:20Z</time>
      </trkpt>
      <trkpt lat="45.6912" lon="6.56811">
        <ele>1035.1</ele>
        <time>2018-10-26T09:49:23Z</time>
      </trkpt>
      <trkpt lat="45.69108" lon="6.56809">
        <ele>1035.3</ele>
        <time>2018-10-26T09:49:26Z</time>
      </trkpt>
      <trkpt lat="45.69096" lon="6.56807">
        <ele>1035.5</ele>
        <time>2018-10-26T09:49:29Z</time>
      </trkpt>
      <trkpt lat="45.69084" lon="6.56807">
        <ele>1035.2</ele>
        <time>2018-10-26T09:49:32Z</time>
      </trkpt>
      <trkpt lat="45.69072" lon="6.56807">
        <ele>1035.1</ele>
        <time>2018-10-26T09:49:35Z</time>
      </trkpt>
      <trkpt lat="45.6906" lon="6.56809">
        <ele>1035.4</ele>
        <time>2018-10-26T09:49:38Z</time>
      </trkpt>
      <trkpt lat="45.69047" lon="6.56813">
        <ele>1035.4</ele>
        <time>2018-10-26T09:49:41Z</time>
      </trkpt>
      <trkpt lat="45.69034" lon="6.56817">
        <ele>1035.6</ele>
        <time>2018-10-26T09:49:44Z</time>
      </trkpt>
      <trkpt lat="45.69022" lon="6.56822">
        <ele>1035.7</ele>
        <time>2018-10-26T09:49:47Z</time>
      </trkpt>
      <trkpt lat="45.69009" lon="6.56826">
        <ele>1035.8</ele>
        <time>2018-10-26T09:49:50Z</time>
      </trkpt>
      <trkpt lat="45.69" lon="6.5683">
        <ele>1035.8</ele>
        <time>2018-10-26T09:49:52Z</time>
      </trkpt>
      <trkpt lat="45.68991" lon="6.56832">
        <ele>1035.7</ele>
        <time>2018-10-26T09:49:54Z</time>
      </trkpt>
      <trkpt lat="45.68981" lon="6.56835">
        <ele>1035.7</ele>
        <time>2018-10-26T09:49:56Z</time>
      </trkpt>
      <trkpt lat="45.68972" lon="6.56838">
        <ele>1035.6</ele>
        <time>2018-10-26T09:49:58Z</time>
      </trkpt>
      <trkpt lat="45.68962" lon="6.5684">
        <ele>1035.4</ele>
        <time>2018-10-26T09:50:00Z</time>
      </trkpt>
      <trkpt lat="45.68952" lon="6.56843">
        <ele>1035.2</ele>
        <time>2018-10-26T09:50:02Z</time>
      </trkpt>
      <trkpt lat="45.68943" lon="6.56847">
        <ele>1035.1</ele>
        <time>2018-10-26T09:50:04Z</time>
      </trkpt>
      <trkpt lat="45.68933" lon="6.56849">
        <ele>1035.1</ele>
        <time>2018-10-26T09:50:06Z</time>
      </trkpt>
      <trkpt lat="45.68924" lon="6.56851">
        <ele>1035</ele>
        <time>2018-10-26T09:50:08Z</time>
      </trkpt>
      <trkpt lat="45.68914" lon="6.56852">
        <ele>1035</ele>
        <time>2018-10-26T09:50:10Z</time>
      </trkpt>
      <trkpt lat="45.68904" lon="6.56853">
        <ele>1034.8</ele>
        <time>2018-10-26T09:50:12Z</time>
      </trkpt>
      <trkpt lat="45.68894" lon="6.56855">
        <ele>1034.8</ele>
        <time>2018-10-26T09:50:14Z</time>
      </trkpt>
      <trkpt lat="45.68885" lon="6.56858">
        <ele>1034.5</ele>
        <time>2018-10-26T09:50:16Z</time>
      </trkpt>
      <trkpt lat="45.68875" lon="6.56861">
        <ele>1034.3</ele>
        <time>2018-10-26T09:50:18Z</time>
      </trkpt>
      <trkpt lat="45.68864" lon="6.56862">
        <ele>1034.3</ele>
        <time>2018-10-26T09:50:20Z</time>
      </trkpt>
      <trkpt lat="45.68853" lon="6.56865">
        <ele>1034.3</ele>
        <time>2018-10-26T09:50:22Z</time>
      </trkpt>
      <trkpt lat="45.68841" lon="6.56868">
        <ele>1034.4</ele>
        <time>2018-10-26T09:50:24Z</time>
      </trkpt>
      <trkpt lat="45.68829" lon="6.56872">
        <ele>1034.2</ele>
        <time>2018-10-26T09:50:26Z</time>
      </trkpt>
      <trkpt lat="45.68817" lon="6.56875">
        <ele>1034</ele>
        <time>2018-10-26T09:50:28Z</time>
      </trkpt>
      <trkpt lat="45.68805" lon="6.56877">
        <ele>1033.9</ele>
        <time>2018-10-26T09:50:30Z</time>
      </trkpt>
      <trkpt lat="45.68793" lon="6.5688">
        <ele>1033.7</ele>
        <time>2018-10-26T09:50:32Z</time>
      </trkpt>
      <trkpt lat="45.68781" lon="6.56882">
        <ele>1033.6</ele>
        <time>2018-10-26T09:50:34Z</time>
      </trkpt>
      <trkpt lat="45.6877" lon="6.56884">
        <ele>1033.5</ele>
        <time>2018-10-26T09:50:36Z</time>
      </trkpt>
      <trkpt lat="45.6876" lon="6.56883">
        <ele>1033.6</ele>
        <time>2018-10-26T09:50:38Z</time>
      </trkpt>
      <trkpt lat="45.6875" lon="6.56883">
        <ele>1033.7</ele>
        <time>2018-10-26T09:50:40Z</time>
      </trkpt>
      <trkpt lat="45.68741" lon="6.56876">
        <ele>1034</ele>
        <time>2018-10-26T09:50:42Z</time>
      </trkpt>
      <trkpt lat="45.68732" lon="6.56868">
        <ele>1034.1</ele>
        <time>2018-10-26T09:50:44Z</time>
      </trkpt>
      <trkpt lat="45.68723" lon="6.56861">
        <ele>1033.9</ele>
        <time>2018-10-26T09:50:46Z</time>
      </trkpt>
      <trkpt lat="45.68713" lon="6.56854">
        <ele>1033.9</ele>
        <time>2018-10-26T09:50:48Z</time>
      </trkpt>
      <trkpt lat="45.68703" lon="6.56847">
        <ele>1033.8</ele>
        <time>2018-10-26T09:50:50Z</time>
      </trkpt>
      <trkpt lat="45.68693" lon="6.56838">
        <ele>1033.5</ele>
        <time>2018-10-26T09:50:52Z</time>
      </trkpt>
      <trkpt lat="45.68686" lon="6.56825">
        <ele>1033.2</ele>
        <time>2018-10-26T09:50:54Z</time>
      </trkpt>
      <trkpt lat="45.68685" lon="6.56807">
        <ele>1033.1</ele>
        <time>2018-10-26T09:50:56Z</time>
      </trkpt>
      <trkpt lat="45.68682" lon="6.56791">
        <ele>1033</ele>
        <time>2018-10-26T09:50:58Z</time>
      </trkpt>
      <trkpt lat="45.68674" lon="6.5678">
        <ele>1032.8</ele>
        <time>2018-10-26T09:51:00Z</time>
      </trkpt>
      <trkpt lat="45.68661" lon="6.56774">
        <ele>1032.6</ele>
        <time>2018-10-26T09:51:02Z</time>
      </trkpt>
      <trkpt lat="45.68658" lon="6.56758">
        <ele>1032.1</ele>
        <time>2018-10-26T09:51:04Z</time>
      </trkpt>
      <trkpt lat="45.68662" lon="6.56735">
        <ele>1031.5</ele>
        <time>2018-10-26T09:51:06Z</time>
      </trkpt>
      <trkpt lat="45.68665" lon="6.56711">
        <ele>1030.7</ele>
        <time>2018-10-26T09:51:08Z</time>
      </trkpt>
      <trkpt lat="45.68668" lon="6.56686">
        <ele>1029.8</ele>
        <time>2018-10-26T09:51:10Z</time>
      </trkpt>
      <trkpt lat="45.6867" lon="6.56661">
        <ele>1029.5</ele>
        <time>2018-10-26T09:51:12Z</time>
      </trkpt>
      <trkpt lat="45.68672" lon="6.56635">
        <ele>1028.6</ele>
        <time>2018-10-26T09:51:14Z</time>
      </trkpt>
      <trkpt lat="45.68673" lon="6.5661">
        <ele>1027.6</ele>
        <time>2018-10-26T09:51:16Z</time>
      </trkpt>
      <trkpt lat="45.6867" lon="6.56584">
        <ele>1026.6</ele>
        <time>2018-10-26T09:51:18Z</time>
      </trkpt>
      <trkpt lat="45.68658" lon="6.56565">
        <ele>1025.4</ele>
        <time>2018-10-26T09:51:20Z</time>
      </trkpt>
      <trkpt lat="45.68648" lon="6.56565">
        <ele>1024.9</ele>
        <time>2018-10-26T09:51:21Z</time>
      </trkpt>
      <trkpt lat="45.68638" lon="6.5657">
        <ele>1024.6</ele>
        <time>2018-10-26T09:51:22Z</time>
      </trkpt>
      <trkpt lat="45.6863" lon="6.56578">
        <ele>1024.1</ele>
        <time>2018-10-26T09:51:23Z</time>
      </trkpt>
      <trkpt lat="45.68622" lon="6.56587">
        <ele>1023.6</ele>
        <time>2018-10-26T09:51:24Z</time>
      </trkpt>
      <trkpt lat="45.68615" lon="6.56597">
        <ele>1022.6</ele>
        <time>2018-10-26T09:51:25Z</time>
      </trkpt>
      <trkpt lat="45.68607" lon="6.56606">
        <ele>1022</ele>
        <time>2018-10-26T09:51:26Z</time>
      </trkpt>
      <trkpt lat="45.68598" lon="6.56613">
        <ele>1020.8</ele>
        <time>2018-10-26T09:51:27Z</time>
      </trkpt>
      <trkpt lat="45.68589" lon="6.56616">
        <ele>1020</ele>
        <time>2018-10-26T09:51:28Z</time>
      </trkpt>
      <trkpt lat="45.68579" lon="6.56612">
        <ele>1019.1</ele>
        <time>2018-10-26T09:51:29Z</time>
      </trkpt>
      <trkpt lat="45.6857" lon="6.56609">
        <ele>1018.5</ele>
        <time>2018-10-26T09:51:30Z</time>
      </trkpt>
      <trkpt lat="45.68558" lon="6.56593">
        <ele>1017.3</ele>
        <time>2018-10-26T09:51:32Z</time>
      </trkpt>
      <trkpt lat="45.68553" lon="6.56573">
        <ele>1016.6</ele>
        <time>2018-10-26T09:51:34Z</time>
      </trkpt>
      <trkpt lat="45.68551" lon="6.56552">
        <ele>1016.2</ele>
        <time>2018-10-26T09:51:36Z</time>
      </trkpt>
      <trkpt lat="45.68552" lon="6.56534">
        <ele>1016.2</ele>
        <time>2018-10-26T09:51:38Z</time>
      </trkpt>
      <trkpt lat="45.68556" lon="6.56517">
        <ele>1016.1</ele>
        <time>2018-10-26T09:51:40Z</time>
      </trkpt>
      <trkpt lat="45.68559" lon="6.56502">
        <ele>1016</ele>
        <time>2018-10-26T09:51:42Z</time>
      </trkpt>
      <trkpt lat="45.68561" lon="6.56488">
        <ele>1016.5</ele>
        <time>2018-10-26T09:51:44Z</time>
      </trkpt>
      <trkpt lat="45.68558" lon="6.56469">
        <ele>1017.1</ele>
        <time>2018-10-26T09:51:47Z</time>
      </trkpt>
      <trkpt lat="45.68553" lon="6.56458">
        <ele>1017.3</ele>
        <time>2018-10-26T09:51:49Z</time>
      </trkpt>
      <trkpt lat="45.68544" lon="6.56446">
        <ele>1017.3</ele>
        <time>2018-10-26T09:51:52Z</time>
      </trkpt>
      <trkpt lat="45.68532" lon="6.5644">
        <ele>1017.8</ele>
        <time>2018-10-26T09:51:55Z</time>
      </trkpt>
      <trkpt lat="45.6852" lon="6.56439">
        <ele>1018.2</ele>
        <time>2018-10-26T09:51:58Z</time>
      </trkpt>
      <trkpt lat="45.6851" lon="6.56438">
        <ele>1018.5</ele>
        <time>2018-10-26T09:52:01Z</time>
      </trkpt>
      <trkpt lat="45.685" lon="6.56436">
        <ele>1019</ele>
        <time>2018-10-26T09:52:04Z</time>
      </trkpt>
      <trkpt lat="45.6849" lon="6.56434">
        <ele>1019.7</ele>
        <time>2018-10-26T09:52:07Z</time>
      </trkpt>
      <trkpt lat="45.68479" lon="6.56432">
        <ele>1020.3</ele>
        <time>2018-10-26T09:52:11Z</time>
      </trkpt>
      <trkpt lat="45.68468" lon="6.56427">
        <ele>1020.8</ele>
        <time>2018-10-26T09:52:15Z</time>
      </trkpt>
      <trkpt lat="45.68457" lon="6.56421">
        <ele>1021.2</ele>
        <time>2018-10-26T09:52:19Z</time>
      </trkpt>
      <trkpt lat="45.68446" lon="6.56418">
        <ele>1021.7</ele>
        <time>2018-10-26T09:52:23Z</time>
      </trkpt>
      <trkpt lat="45.68437" lon="6.56413">
        <ele>1022.3</ele>
        <time>2018-10-26T09:52:27Z</time>
      </trkpt>
      <trkpt lat="45.68427" lon="6.56407">
        <ele>1022.9</ele>
        <time>2018-10-26T09:52:31Z</time>
      </trkpt>
      <trkpt lat="45.68418" lon="6.564">
        <ele>1023.6</ele>
        <time>2018-10-26T09:52:35Z</time>
      </trkpt>
      <trkpt lat="45.68409" lon="6.56393">
        <ele>1024.2</ele>
        <time>2018-10-26T09:52:39Z</time>
      </trkpt>
      <trkpt lat="45.68399" lon="6.5639">
        <ele>1024.7</ele>
        <time>2018-10-26T09:52:43Z</time>
      </trkpt>
      <trkpt lat="45.68388" lon="6.56389">
        <ele>1025.4</ele>
        <time>2018-10-26T09:52:47Z</time>
      </trkpt>
      <trkpt lat="45.68378" lon="6.56389">
        <ele>1026.1</ele>
        <time>2018-10-26T09:52:51Z</time>
      </trkpt>
      <trkpt lat="45.68369" lon="6.56386">
        <ele>1026.8</ele>
        <time>2018-10-26T09:52:55Z</time>
      </trkpt>
      <trkpt lat="45.68361" lon="6.56382">
        <ele>1027.7</ele>
        <time>2018-10-26T09:52:59Z</time>
      </trkpt>
      <trkpt lat="45.6835" lon="6.56376">
        <ele>1028.8</ele>
        <time>2018-10-26T09:53:04Z</time>
      </trkpt>
      <trkpt lat="45.68341" lon="6.5637">
        <ele>1030.1</ele>
        <time>2018-10-26T09:53:09Z</time>
      </trkpt>
      <trkpt lat="45.68332" lon="6.56364">
        <ele>1031</ele>
        <time>2018-10-26T09:53:14Z</time>
      </trkpt>
      <trkpt lat="45.68322" lon="6.56358">
        <ele>1032.8</ele>
        <time>2018-10-26T09:53:19Z</time>
      </trkpt>
      <trkpt lat="45.68314" lon="6.56353">
        <ele>1033.7</ele>
        <time>2018-10-26T09:53:23Z</time>
      </trkpt>
      <trkpt lat="45.68305" lon="6.56347">
        <ele>1034.9</ele>
        <time>2018-10-26T09:53:28Z</time>
      </trkpt>
      <trkpt lat="45.68296" lon="6.56339">
        <ele>1035.9</ele>
        <time>2018-10-26T09:53:33Z</time>
      </trkpt>
      <trkpt lat="45.68289" lon="6.56329">
        <ele>1037</ele>
        <time>2018-10-26T09:53:38Z</time>
      </trkpt>
      <trkpt lat="45.68283" lon="6.56319">
        <ele>1038</ele>
        <time>2018-10-26T09:53:43Z</time>
      </trkpt>
      <trkpt lat="45.68275" lon="6.56309">
        <ele>1039.6</ele>
        <time>2018-10-26T09:53:48Z</time>
      </trkpt>
      <trkpt lat="45.68268" lon="6.56299">
        <ele>1040.6</ele>
        <time>2018-10-26T09:53:53Z</time>
      </trkpt>
      <trkpt lat="45.6826" lon="6.56289">
        <ele>1041.5</ele>
        <time>2018-10-26T09:53:58Z</time>
      </trkpt>
      <trkpt lat="45.68252" lon="6.5628">
        <ele>1042.7</ele>
        <time>2018-10-26T09:54:03Z</time>
      </trkpt>
      <trkpt lat="45.68244" lon="6.56272">
        <ele>1044.1</ele>
        <time>2018-10-26T09:54:08Z</time>
      </trkpt>
      <trkpt lat="45.68235" lon="6.56267">
        <ele>1045.1</ele>
        <time>2018-10-26T09:54:13Z</time>
      </trkpt>
      <trkpt lat="45.68226" lon="6.56261">
        <ele>1046.3</ele>
        <time>2018-10-26T09:54:18Z</time>
      </trkpt>
      <trkpt lat="45.68217" lon="6.56255">
        <ele>1047.2</ele>
        <time>2018-10-26T09:54:23Z</time>
      </trkpt>
      <trkpt lat="45.68209" lon="6.56247">
        <ele>1048.1</ele>
        <time>2018-10-26T09:54:28Z</time>
      </trkpt>
      <trkpt lat="45.682" lon="6.56238">
        <ele>1049.1</ele>
        <time>2018-10-26T09:54:33Z</time>
      </trkpt>
      <trkpt lat="45.68192" lon="6.56227">
        <ele>1050.4</ele>
        <time>2018-10-26T09:54:38Z</time>
      </trkpt>
      <trkpt lat="45.68186" lon="6.56216">
        <ele>1051.4</ele>
        <time>2018-10-26T09:54:43Z</time>
      </trkpt>
      <trkpt lat="45.68179" lon="6.56206">
        <ele>1052.5</ele>
        <time>2018-10-26T09:54:48Z</time>
      </trkpt>
      <trkpt lat="45.68172" lon="6.56194">
        <ele>1053.6</ele>
        <time>2018-10-26T09:54:53Z</time>
      </trkpt>
      <trkpt lat="45.68165" lon="6.56184">
        <ele>1054.9</ele>
        <time>2018-10-26T09:54:58Z</time>
      </trkpt>
      <trkpt lat="45.68157" lon="6.56175">
        <ele>1056.1</ele>
        <time>2018-10-26T09:55:03Z</time>
      </trkpt>
      <trkpt lat="45.68149" lon="6.56165">
        <ele>1057.4</ele>
        <time>2018-10-26T09:55:08Z</time>
      </trkpt>
      <trkpt lat="45.68141" lon="6.56156">
        <ele>1058.2</ele>
        <time>2018-10-26T09:55:13Z</time>
      </trkpt>
      <trkpt lat="45.68133" lon="6.56146">
        <ele>1059.4</ele>
        <time>2018-10-26T09:55:18Z</time>
      </trkpt>
      <trkpt lat="45.68124" lon="6.5614">
        <ele>1060.9</ele>
        <time>2018-10-26T09:55:23Z</time>
      </trkpt>
      <trkpt lat="45.68114" lon="6.56134">
        <ele>1061.8</ele>
        <time>2018-10-26T09:55:28Z</time>
      </trkpt>
      <trkpt lat="45.68104" lon="6.5613">
        <ele>1063</ele>
        <time>2018-10-26T09:55:33Z</time>
      </trkpt>
      <trkpt lat="45.68095" lon="6.56124">
        <ele>1063.6</ele>
        <time>2018-10-26T09:55:38Z</time>
      </trkpt>
      <trkpt lat="45.68086" lon="6.56118">
        <ele>1065</ele>
        <time>2018-10-26T09:55:43Z</time>
      </trkpt>
      <trkpt lat="45.68077" lon="6.5611">
        <ele>1065.8</ele>
        <time>2018-10-26T09:55:48Z</time>
      </trkpt>
      <trkpt lat="45.68071" lon="6.56097">
        <ele>1067.5</ele>
        <time>2018-10-26T09:55:53Z</time>
      </trkpt>
      <trkpt lat="45.68067" lon="6.56084">
        <ele>1068.4</ele>
        <time>2018-10-26T09:55:58Z</time>
      </trkpt>
      <trkpt lat="45.68063" lon="6.56069">
        <ele>1069.6</ele>
        <time>2018-10-26T09:56:03Z</time>
      </trkpt>
      <trkpt lat="45.68056" lon="6.56058">
        <ele>1070.6</ele>
        <time>2018-10-26T09:56:08Z</time>
      </trkpt>
      <trkpt lat="45.68049" lon="6.56047">
        <ele>1071.7</ele>
        <time>2018-10-26T09:56:13Z</time>
      </trkpt>
      <trkpt lat="45.68042" lon="6.56036">
        <ele>1073.1</ele>
        <time>2018-10-26T09:56:18Z</time>
      </trkpt>
      <trkpt lat="45.68034" lon="6.56025">
        <ele>1074.3</ele>
        <time>2018-10-26T09:56:23Z</time>
      </trkpt>
      <trkpt lat="45.68029" lon="6.56011">
        <ele>1075.5</ele>
        <time>2018-10-26T09:56:28Z</time>
      </trkpt>
      <trkpt lat="45.68024" lon="6.55998">
        <ele>1076.2</ele>
        <time>2018-10-26T09:56:33Z</time>
      </trkpt>
      <trkpt lat="45.68021" lon="6.55984">
        <ele>1077.4</ele>
        <time>2018-10-26T09:56:38Z</time>
      </trkpt>
      <trkpt lat="45.68019" lon="6.5597">
        <ele>1078.3</ele>
        <time>2018-10-26T09:56:43Z</time>
      </trkpt>
      <trkpt lat="45.68017" lon="6.55955">
        <ele>1079.5</ele>
        <time>2018-10-26T09:56:48Z</time>
      </trkpt>
      <trkpt lat="45.68014" lon="6.55941">
        <ele>1080.5</ele>
        <time>2018-10-26T09:56:53Z</time>
      </trkpt>
      <trkpt lat="45.6801" lon="6.55927">
        <ele>1081.4</ele>
        <time>2018-10-26T09:56:58Z</time>
      </trkpt>
      <trkpt lat="45.68004" lon="6.55915">
        <ele>1082.3</ele>
        <time>2018-10-26T09:57:03Z</time>
      </trkpt>
      <trkpt lat="45.67999" lon="6.55903">
        <ele>1083.6</ele>
        <time>2018-10-26T09:57:08Z</time>
      </trkpt>
      <trkpt lat="45.67994" lon="6.5589">
        <ele>1084.5</ele>
        <time>2018-10-26T09:57:13Z</time>
      </trkpt>
      <trkpt lat="45.67988" lon="6.55877">
        <ele>1085.5</ele>
        <time>2018-10-26T09:57:18Z</time>
      </trkpt>
      <trkpt lat="45.67982" lon="6.55866">
        <ele>1086.5</ele>
        <time>2018-10-26T09:57:23Z</time>
      </trkpt>
      <trkpt lat="45.67975" lon="6.55854">
        <ele>1087.8</ele>
        <time>2018-10-26T09:57:28Z</time>
      </trkpt>
      <trkpt lat="45.67968" lon="6.55844">
        <ele>1088.8</ele>
        <time>2018-10-26T09:57:33Z</time>
      </trkpt>
      <trkpt lat="45.67961" lon="6.55835">
        <ele>1089.7</ele>
        <time>2018-10-26T09:57:38Z</time>
      </trkpt>
      <trkpt lat="45.67954" lon="6.55824">
        <ele>1090.4</ele>
        <time>2018-10-26T09:57:43Z</time>
      </trkpt>
      <trkpt lat="45.67948" lon="6.5581">
        <ele>1091.6</ele>
        <time>2018-10-26T09:57:48Z</time>
      </trkpt>
      <trkpt lat="45.67944" lon="6.55798">
        <ele>1092.6</ele>
        <time>2018-10-26T09:57:52Z</time>
      </trkpt>
      <trkpt lat="45.67942" lon="6.55785">
        <ele>1093.3</ele>
        <time>2018-10-26T09:57:56Z</time>
      </trkpt>
      <trkpt lat="45.67938" lon="6.5577">
        <ele>1094.2</ele>
        <time>2018-10-26T09:58:01Z</time>
      </trkpt>
      <trkpt lat="45.67935" lon="6.55757">
        <ele>1095</ele>
        <time>2018-10-26T09:58:05Z</time>
      </trkpt>
      <trkpt lat="45.67932" lon="6.55744">
        <ele>1095.9</ele>
        <time>2018-10-26T09:58:09Z</time>
      </trkpt>
      <trkpt lat="45.67928" lon="6.55732">
        <ele>1096.2</ele>
        <time>2018-10-26T09:58:13Z</time>
      </trkpt>
      <trkpt lat="45.67922" lon="6.5572">
        <ele>1096.9</ele>
        <time>2018-10-26T09:58:17Z</time>
      </trkpt>
      <trkpt lat="45.67914" lon="6.5571">
        <ele>1097.4</ele>
        <time>2018-10-26T09:58:21Z</time>
      </trkpt>
      <trkpt lat="45.67905" lon="6.55702">
        <ele>1098</ele>
        <time>2018-10-26T09:58:25Z</time>
      </trkpt>
      <trkpt lat="45.67896" lon="6.55695">
        <ele>1098.6</ele>
        <time>2018-10-26T09:58:29Z</time>
      </trkpt>
      <trkpt lat="45.67887" lon="6.55687">
        <ele>1099</ele>
        <time>2018-10-26T09:58:33Z</time>
      </trkpt>
      <trkpt lat="45.67879" lon="6.55677">
        <ele>1099.6</ele>
        <time>2018-10-26T09:58:37Z</time>
      </trkpt>
      <trkpt lat="45.67871" lon="6.55668">
        <ele>1100.4</ele>
        <time>2018-10-26T09:58:41Z</time>
      </trkpt>
      <trkpt lat="45.67864" lon="6.55658">
        <ele>1101</ele>
        <time>2018-10-26T09:58:45Z</time>
      </trkpt>
      <trkpt lat="45.67857" lon="6.55648">
        <ele>1101.5</ele>
        <time>2018-10-26T09:58:49Z</time>
      </trkpt>
      <trkpt lat="45.67849" lon="6.55638">
        <ele>1102.2</ele>
        <time>2018-10-26T09:58:53Z</time>
      </trkpt>
      <trkpt lat="45.67841" lon="6.5563">
        <ele>1102.7</ele>
        <time>2018-10-26T09:58:57Z</time>
      </trkpt>
      <trkpt lat="45.67831" lon="6.55621">
        <ele>1103.5</ele>
        <time>2018-10-26T09:59:01Z</time>
      </trkpt>
      <trkpt lat="45.67822" lon="6.55612">
        <ele>1104.2</ele>
        <time>2018-10-26T09:59:05Z</time>
      </trkpt>
      <trkpt lat="45.67813" lon="6.55603">
        <ele>1104.8</ele>
        <time>2018-10-26T09:59:09Z</time>
      </trkpt>
      <trkpt lat="45.67804" lon="6.55594">
        <ele>1105.7</ele>
        <time>2018-10-26T09:59:13Z</time>
      </trkpt>
      <trkpt lat="45.67795" lon="6.55587">
        <ele>1106.4</ele>
        <time>2018-10-26T09:59:17Z</time>
      </trkpt>
      <trkpt lat="45.67784" lon="6.55582">
        <ele>1107.2</ele>
        <time>2018-10-26T09:59:21Z</time>
      </trkpt>
      <trkpt lat="45.67774" lon="6.55577">
        <ele>1107.6</ele>
        <time>2018-10-26T09:59:25Z</time>
      </trkpt>
      <trkpt lat="45.67763" lon="6.55571">
        <ele>1108.1</ele>
        <time>2018-10-26T09:59:29Z</time>
      </trkpt>
      <trkpt lat="45.67754" lon="6.55562">
        <ele>1108.9</ele>
        <time>2018-10-26T09:59:33Z</time>
      </trkpt>
      <trkpt lat="45.67747" lon="6.55552">
        <ele>1109.5</ele>
        <time>2018-10-26T09:59:36Z</time>
      </trkpt>
      <trkpt lat="45.67739" lon="6.55541">
        <ele>1110.2</ele>
        <time>2018-10-26T09:59:40Z</time>
      </trkpt>
      <trkpt lat="45.67731" lon="6.55531">
        <ele>1110.8</ele>
        <time>2018-10-26T09:59:44Z</time>
      </trkpt>
      <trkpt lat="45.67724" lon="6.5552">
        <ele>1111.5</ele>
        <time>2018-10-26T09:59:48Z</time>
      </trkpt>
      <trkpt lat="45.67717" lon="6.55508">
        <ele>1112.1</ele>
        <time>2018-10-26T09:59:52Z</time>
      </trkpt>
      <trkpt lat="45.67709" lon="6.55497">
        <ele>1112.7</ele>
        <time>2018-10-26T09:59:56Z</time>
      </trkpt>
      <trkpt lat="45.67702" lon="6.55485">
        <ele>1113.1</ele>
        <time>2018-10-26T10:00:00Z</time>
      </trkpt>
      <trkpt lat="45.67695" lon="6.55474">
        <ele>1113.6</ele>
        <time>2018-10-26T10:00:04Z</time>
      </trkpt>
      <trkpt lat="45.67688" lon="6.55461">
        <ele>1114.4</ele>
        <time>2018-10-26T10:00:08Z</time>
      </trkpt>
      <trkpt lat="45.67681" lon="6.55448">
        <ele>1115.1</ele>
        <time>2018-10-26T10:00:12Z</time>
      </trkpt>
      <trkpt lat="45.67675" lon="6.55436">
        <ele>1115.1</ele>
        <time>2018-10-26T10:00:16Z</time>
      </trkpt>
      <trkpt lat="45.67668" lon="6.55423">
        <ele>1115.9</ele>
        <time>2018-10-26T10:00:20Z</time>
      </trkpt>
      <trkpt lat="45.6766" lon="6.55414">
        <ele>1115.7</ele>
        <time>2018-10-26T10:00:23Z</time>
      </trkpt>
      <trkpt lat="45.67649" lon="6.55404">
        <ele>1115.8</ele>
        <time>2018-10-26T10:00:26Z</time>
      </trkpt>
      <trkpt lat="45.6764" lon="6.55395">
        <ele>1115.4</ele>
        <time>2018-10-26T10:00:28Z</time>
      </trkpt>
      <trkpt lat="45.6763" lon="6.55382">
        <ele>1115</ele>
        <time>2018-10-26T10:00:30Z</time>
      </trkpt>
      <trkpt lat="45.67621" lon="6.55365">
        <ele>1114.2</ele>
        <time>2018-10-26T10:00:32Z</time>
      </trkpt>
      <trkpt lat="45.67613" lon="6.55344">
        <ele>1113.5</ele>
        <time>2018-10-26T10:00:34Z</time>
      </trkpt>
      <trkpt lat="45.67605" lon="6.55324">
        <ele>1112.7</ele>
        <time>2018-10-26T10:00:36Z</time>
      </trkpt>
      <trkpt lat="45.67597" lon="6.55304">
        <ele>1111.8</ele>
        <time>2018-10-26T10:00:38Z</time>
      </trkpt>
      <trkpt lat="45.6759" lon="6.55284">
        <ele>1111.4</ele>
        <time>2018-10-26T10:00:40Z</time>
      </trkpt>
      <trkpt lat="45.67584" lon="6.55267">
        <ele>1111</ele>
        <time>2018-10-26T10:00:42Z</time>
      </trkpt>
      <trkpt lat="45.67578" lon="6.55252">
        <ele>1110.5</ele>
        <time>2018-10-26T10:00:44Z</time>
      </trkpt>
      <trkpt lat="45.67573" lon="6.5524">
        <ele>1110.4</ele>
        <time>2018-10-26T10:00:46Z</time>
      </trkpt>
      <trkpt lat="45.67568" lon="6.55226">
        <ele>1110.4</ele>
        <time>2018-10-26T10:00:49Z</time>
      </trkpt>
      <trkpt lat="45.67562" lon="6.55214">
        <ele>1110.6</ele>
        <time>2018-10-26T10:00:52Z</time>
      </trkpt>
      <trkpt lat="45.67557" lon="6.55202">
        <ele>1111.1</ele>
        <time>2018-10-26T10:00:55Z</time>
      </trkpt>
      <trkpt lat="45.67552" lon="6.55191">
        <ele>1111.5</ele>
        <time>2018-10-26T10:00:58Z</time>
      </trkpt>
      <trkpt lat="45.67546" lon="6.55177">
        <ele>1112.3</ele>
        <time>2018-10-26T10:01:02Z</time>
      </trkpt>
      <trkpt lat="45.6754" lon="6.55164">
        <ele>1112.8</ele>
        <time>2018-10-26T10:01:06Z</time>
      </trkpt>
      <trkpt lat="45.67535" lon="6.55151">
        <ele>1113.7</ele>
        <time>2018-10-26T10:01:10Z</time>
      </trkpt>
      <trkpt lat="45.6753" lon="6.55139">
        <ele>1114.7</ele>
        <time>2018-10-26T10:01:14Z</time>
      </trkpt>
      <trkpt lat="45.67525" lon="6.55126">
        <ele>1115.4</ele>
        <time>2018-10-26T10:01:18Z</time>
      </trkpt>
      <trkpt lat="45.6752" lon="6.55113">
        <ele>1115.7</ele>
        <time>2018-10-26T10:01:22Z</time>
      </trkpt>
      <trkpt lat="45.67515" lon="6.551">
        <ele>1116.2</ele>
        <time>2018-10-26T10:01:26Z</time>
      </trkpt>
      <trkpt lat="45.6751" lon="6.55088">
        <ele>1117.6</ele>
        <time>2018-10-26T10:01:30Z</time>
      </trkpt>
      <trkpt lat="45.67506" lon="6.55076">
        <ele>1118.3</ele>
        <time>2018-10-26T10:01:34Z</time>
      </trkpt>
      <trkpt lat="45.67503" lon="6.5506">
        <ele>1119.2</ele>
        <time>2018-10-26T10:01:39Z</time>
      </trkpt>
      <trkpt lat="45.67502" lon="6.55046">
        <ele>1119.8</ele>
        <time>2018-10-26T10:01:43Z</time>
      </trkpt>
      <trkpt lat="45.675" lon="6.55032">
        <ele>1119.7</ele>
        <time>2018-10-26T10:01:47Z</time>
      </trkpt>
      <trkpt lat="45.67498" lon="6.55019">
        <ele>1119.9</ele>
        <time>2018-10-26T10:01:51Z</time>
      </trkpt>
      <trkpt lat="45.67494" lon="6.55005">
        <ele>1120.4</ele>
        <time>2018-10-26T10:01:55Z</time>
      </trkpt>
      <trkpt lat="45.67488" lon="6.54996">
        <ele>1120.9</ele>
        <time>2018-10-26T10:01:59Z</time>
      </trkpt>
      <trkpt lat="45.67479" lon="6.54988">
        <ele>1121.5</ele>
        <time>2018-10-26T10:02:04Z</time>
      </trkpt>
      <trkpt lat="45.67472" lon="6.54979">
        <ele>1121.8</ele>
        <time>2018-10-26T10:02:08Z</time>
      </trkpt>
      <trkpt lat="45.67465" lon="6.54971">
        <ele>1122.7</ele>
        <time>2018-10-26T10:02:12Z</time>
      </trkpt>
      <trkpt lat="45.67457" lon="6.54961">
        <ele>1123.7</ele>
        <time>2018-10-26T10:02:17Z</time>
      </trkpt>
      <trkpt lat="45.6745" lon="6.54952">
        <ele>1124.2</ele>
        <time>2018-10-26T10:02:21Z</time>
      </trkpt>
      <trkpt lat="45.67443" lon="6.54943">
        <ele>1125.2</ele>
        <time>2018-10-26T10:02:25Z</time>
      </trkpt>
      <trkpt lat="45.67436" lon="6.54933">
        <ele>1126.5</ele>
        <time>2018-10-26T10:02:30Z</time>
      </trkpt>
      <trkpt lat="45.67428" lon="6.54922">
        <ele>1127.8</ele>
        <time>2018-10-26T10:02:36Z</time>
      </trkpt>
      <trkpt lat="45.67421" lon="6.54913">
        <ele>1128.8</ele>
        <time>2018-10-26T10:02:41Z</time>
      </trkpt>
      <trkpt lat="45.67415" lon="6.54903">
        <ele>1129.8</ele>
        <time>2018-10-26T10:02:46Z</time>
      </trkpt>
      <trkpt lat="45.67408" lon="6.54894">
        <ele>1130.7</ele>
        <time>2018-10-26T10:02:50Z</time>
      </trkpt>
      <trkpt lat="45.67402" lon="6.54884">
        <ele>1131.8</ele>
        <time>2018-10-26T10:02:55Z</time>
      </trkpt>
      <trkpt lat="45.67396" lon="6.54874">
        <ele>1132.7</ele>
        <time>2018-10-26T10:03:00Z</time>
      </trkpt>
      <trkpt lat="45.67389" lon="6.54863">
        <ele>1133.9</ele>
        <time>2018-10-26T10:03:06Z</time>
      </trkpt>
      <trkpt lat="45.67383" lon="6.54853">
        <ele>1135.4</ele>
        <time>2018-10-26T10:03:11Z</time>
      </trkpt>
      <trkpt lat="45.67376" lon="6.54844">
        <ele>1136.5</ele>
        <time>2018-10-26T10:03:16Z</time>
      </trkpt>
      <trkpt lat="45.67368" lon="6.54833">
        <ele>1137.9</ele>
        <time>2018-10-26T10:03:22Z</time>
      </trkpt>
      <trkpt lat="45.67362" lon="6.54823">
        <ele>1138.9</ele>
        <time>2018-10-26T10:03:27Z</time>
      </trkpt>
      <trkpt lat="45.67355" lon="6.54814">
        <ele>1139.8</ele>
        <time>2018-10-26T10:03:32Z</time>
      </trkpt>
      <trkpt lat="45.67347" lon="6.54803">
        <ele>1141.1</ele>
        <time>2018-10-26T10:03:38Z</time>
      </trkpt>
      <trkpt lat="45.67341" lon="6.54794">
        <ele>1142.3</ele>
        <time>2018-10-26T10:03:43Z</time>
      </trkpt>
      <trkpt lat="45.67335" lon="6.54783">
        <ele>1143.1</ele>
        <time>2018-10-26T10:03:48Z</time>
      </trkpt>
      <trkpt lat="45.67328" lon="6.54774">
        <ele>1144.3</ele>
        <time>2018-10-26T10:03:53Z</time>
      </trkpt>
      <trkpt lat="45.67323" lon="6.54763">
        <ele>1145.2</ele>
        <time>2018-10-26T10:03:58Z</time>
      </trkpt>
      <trkpt lat="45.67317" lon="6.54751">
        <ele>1145.9</ele>
        <time>2018-10-26T10:04:03Z</time>
      </trkpt>
      <trkpt lat="45.67311" lon="6.54741">
        <ele>1146.4</ele>
        <time>2018-10-26T10:04:08Z</time>
      </trkpt>
      <trkpt lat="45.67306" lon="6.5473">
        <ele>1147.1</ele>
        <time>2018-10-26T10:04:13Z</time>
      </trkpt>
      <trkpt lat="45.673" lon="6.54719">
        <ele>1147.7</ele>
        <time>2018-10-26T10:04:18Z</time>
      </trkpt>
      <trkpt lat="45.67293" lon="6.54707">
        <ele>1148.5</ele>
        <time>2018-10-26T10:04:23Z</time>
      </trkpt>
      <trkpt lat="45.67287" lon="6.54697">
        <ele>1149.1</ele>
        <time>2018-10-26T10:04:28Z</time>
      </trkpt>
      <trkpt lat="45.67282" lon="6.54685">
        <ele>1150.1</ele>
        <time>2018-10-26T10:04:33Z</time>
      </trkpt>
      <trkpt lat="45.67276" lon="6.54673">
        <ele>1151.1</ele>
        <time>2018-10-26T10:04:38Z</time>
      </trkpt>
      <trkpt lat="45.67271" lon="6.54661">
        <ele>1152.2</ele>
        <time>2018-10-26T10:04:43Z</time>
      </trkpt>
      <trkpt lat="45.67267" lon="6.54649">
        <ele>1153</ele>
        <time>2018-10-26T10:04:48Z</time>
      </trkpt>
      <trkpt lat="45.67263" lon="6.54636">
        <ele>1154</ele>
        <time>2018-10-26T10:04:53Z</time>
      </trkpt>
      <trkpt lat="45.67258" lon="6.54624">
        <ele>1155.1</ele>
        <time>2018-10-26T10:04:58Z</time>
      </trkpt>
      <trkpt lat="45.67253" lon="6.54611">
        <ele>1156</ele>
        <time>2018-10-26T10:05:03Z</time>
      </trkpt>
      <trkpt lat="45.6725" lon="6.54598">
        <ele>1156.9</ele>
        <time>2018-10-26T10:05:08Z</time>
      </trkpt>
      <trkpt lat="45.67245" lon="6.54586">
        <ele>1158</ele>
        <time>2018-10-26T10:05:13Z</time>
      </trkpt>
      <trkpt lat="45.67241" lon="6.54572">
        <ele>1159</ele>
        <time>2018-10-26T10:05:19Z</time>
      </trkpt>
      <trkpt lat="45.67237" lon="6.54559">
        <ele>1159.7</ele>
        <time>2018-10-26T10:05:24Z</time>
      </trkpt>
      <trkpt lat="45.67233" lon="6.54547">
        <ele>1160.8</ele>
        <time>2018-10-26T10:05:29Z</time>
      </trkpt>
      <trkpt lat="45.67228" lon="6.54534">
        <ele>1161.6</ele>
        <time>2018-10-26T10:05:34Z</time>
      </trkpt>
      <trkpt lat="45.67223" lon="6.54521">
        <ele>1162.3</ele>
        <time>2018-10-26T10:05:39Z</time>
      </trkpt>
      <trkpt lat="45.67218" lon="6.54508">
        <ele>1163.1</ele>
        <time>2018-10-26T10:05:44Z</time>
      </trkpt>
      <trkpt lat="45.67211" lon="6.54497">
        <ele>1163.8</ele>
        <time>2018-10-26T10:05:49Z</time>
      </trkpt>
      <trkpt lat="45.67202" lon="6.54489">
        <ele>1164.7</ele>
        <time>2018-10-26T10:05:54Z</time>
      </trkpt>
      <trkpt lat="45.67192" lon="6.54484">
        <ele>1165.2</ele>
        <time>2018-10-26T10:05:59Z</time>
      </trkpt>
      <trkpt lat="45.67181" lon="6.54479">
        <ele>1165.9</ele>
        <time>2018-10-26T10:06:04Z</time>
      </trkpt>
      <trkpt lat="45.67171" lon="6.54478">
        <ele>1166.8</ele>
        <time>2018-10-26T10:06:09Z</time>
      </trkpt>
      <trkpt lat="45.6716" lon="6.54475">
        <ele>1167.5</ele>
        <time>2018-10-26T10:06:14Z</time>
      </trkpt>
      <trkpt lat="45.67149" lon="6.54471">
        <ele>1168.3</ele>
        <time>2018-10-26T10:06:19Z</time>
      </trkpt>
      <trkpt lat="45.6714" lon="6.54468">
        <ele>1169.3</ele>
        <time>2018-10-26T10:06:23Z</time>
      </trkpt>
      <trkpt lat="45.6713" lon="6.54465">
        <ele>1170.3</ele>
        <time>2018-10-26T10:06:28Z</time>
      </trkpt>
      <trkpt lat="45.6712" lon="6.54463">
        <ele>1171.3</ele>
        <time>2018-10-26T10:06:33Z</time>
      </trkpt>
      <trkpt lat="45.6711" lon="6.5446">
        <ele>1172.5</ele>
        <time>2018-10-26T10:06:38Z</time>
      </trkpt>
      <trkpt lat="45.67099" lon="6.54457">
        <ele>1173.6</ele>
        <time>2018-10-26T10:06:43Z</time>
      </trkpt>
      <trkpt lat="45.6709" lon="6.54454">
        <ele>1174.7</ele>
        <time>2018-10-26T10:06:48Z</time>
      </trkpt>
      <trkpt lat="45.67079" lon="6.54452">
        <ele>1175.7</ele>
        <time>2018-10-26T10:06:53Z</time>
      </trkpt>
      <trkpt lat="45.6707" lon="6.54445">
        <ele>1176.6</ele>
        <time>2018-10-26T10:06:58Z</time>
      </trkpt>
      <trkpt lat="45.6707" lon="6.5443">
        <ele>1177.9</ele>
        <time>2018-10-26T10:07:03Z</time>
      </trkpt>
      <trkpt lat="45.67078" lon="6.54418">
        <ele>1179</ele>
        <time>2018-10-26T10:07:08Z</time>
      </trkpt>
      <trkpt lat="45.67086" lon="6.5441">
        <ele>1179.9</ele>
        <time>2018-10-26T10:07:12Z</time>
      </trkpt>
      <trkpt lat="45.67095" lon="6.54401">
        <ele>1180.9</ele>
        <time>2018-10-26T10:07:17Z</time>
      </trkpt>
      <trkpt lat="45.67103" lon="6.54392">
        <ele>1182.2</ele>
        <time>2018-10-26T10:07:22Z</time>
      </trkpt>
      <trkpt lat="45.6711" lon="6.54381">
        <ele>1182.8</ele>
        <time>2018-10-26T10:07:27Z</time>
      </trkpt>
      <trkpt lat="45.67117" lon="6.5437">
        <ele>1184</ele>
        <time>2018-10-26T10:07:32Z</time>
      </trkpt>
      <trkpt lat="45.67123" lon="6.54358">
        <ele>1184.7</ele>
        <time>2018-10-26T10:07:37Z</time>
      </trkpt>
      <trkpt lat="45.67129" lon="6.54345">
        <ele>1185.3</ele>
        <time>2018-10-26T10:07:42Z</time>
      </trkpt>
      <trkpt lat="45.67134" lon="6.54335">
        <ele>1186.1</ele>
        <time>2018-10-26T10:07:46Z</time>
      </trkpt>
      <trkpt lat="45.67142" lon="6.54324">
        <ele>1187.1</ele>
        <time>2018-10-26T10:07:51Z</time>
      </trkpt>
      <trkpt lat="45.67149" lon="6.54313">
        <ele>1188.3</ele>
        <time>2018-10-26T10:07:56Z</time>
      </trkpt>
      <trkpt lat="45.67155" lon="6.54301">
        <ele>1189.2</ele>
        <time>2018-10-26T10:08:01Z</time>
      </trkpt>
      <trkpt lat="45.6716" lon="6.54287">
        <ele>1190.2</ele>
        <time>2018-10-26T10:08:06Z</time>
      </trkpt>
      <trkpt lat="45.67162" lon="6.54273">
        <ele>1191.1</ele>
        <time>2018-10-26T10:08:11Z</time>
      </trkpt>
      <trkpt lat="45.67163" lon="6.54257">
        <ele>1191.6</ele>
        <time>2018-10-26T10:08:16Z</time>
      </trkpt>
      <trkpt lat="45.67163" lon="6.54242">
        <ele>1192.6</ele>
        <time>2018-10-26T10:08:21Z</time>
      </trkpt>
      <trkpt lat="45.67163" lon="6.54225">
        <ele>1193.3</ele>
        <time>2018-10-26T10:08:26Z</time>
      </trkpt>
      <trkpt lat="45.67163" lon="6.5421">
        <ele>1194.3</ele>
        <time>2018-10-26T10:08:31Z</time>
      </trkpt>
      <trkpt lat="45.67164" lon="6.54197">
        <ele>1194.9</ele>
        <time>2018-10-26T10:08:35Z</time>
      </trkpt>
      <trkpt lat="45.67165" lon="6.54184">
        <ele>1195.8</ele>
        <time>2018-10-26T10:08:39Z</time>
      </trkpt>
      <trkpt lat="45.6717" lon="6.5417">
        <ele>1196.6</ele>
        <time>2018-10-26T10:08:44Z</time>
      </trkpt>
      <trkpt lat="45.67174" lon="6.54159">
        <ele>1197.7</ele>
        <time>2018-10-26T10:08:48Z</time>
      </trkpt>
      <trkpt lat="45.67178" lon="6.54147">
        <ele>1198.6</ele>
        <time>2018-10-26T10:08:52Z</time>
      </trkpt>
      <trkpt lat="45.67183" lon="6.54133">
        <ele>1199.8</ele>
        <time>2018-10-26T10:08:57Z</time>
      </trkpt>
      <trkpt lat="45.67188" lon="6.54119">
        <ele>1200.9</ele>
        <time>2018-10-26T10:09:02Z</time>
      </trkpt>
      <trkpt lat="45.67192" lon="6.54106">
        <ele>1201.8</ele>
        <time>2018-10-26T10:09:07Z</time>
      </trkpt>
      <trkpt lat="45.67196" lon="6.54092">
        <ele>1203</ele>
        <time>2018-10-26T10:09:12Z</time>
      </trkpt>
      <trkpt lat="45.67202" lon="6.5408">
        <ele>1203.7</ele>
        <time>2018-10-26T10:09:17Z</time>
      </trkpt>
      <trkpt lat="45.67208" lon="6.54067">
        <ele>1204.4</ele>
        <time>2018-10-26T10:09:22Z</time>
      </trkpt>
      <trkpt lat="45.67213" lon="6.54055">
        <ele>1205.1</ele>
        <time>2018-10-26T10:09:26Z</time>
      </trkpt>
      <trkpt lat="45.6722" lon="6.54044">
        <ele>1205.9</ele>
        <time>2018-10-26T10:09:30Z</time>
      </trkpt>
      <trkpt lat="45.67226" lon="6.54033">
        <ele>1206.2</ele>
        <time>2018-10-26T10:09:34Z</time>
      </trkpt>
      <trkpt lat="45.67234" lon="6.54022">
        <ele>1206.7</ele>
        <time>2018-10-26T10:09:38Z</time>
      </trkpt>
      <trkpt lat="45.67241" lon="6.54012">
        <ele>1207.3</ele>
        <time>2018-10-26T10:09:42Z</time>
      </trkpt>
      <trkpt lat="45.6725" lon="6.54004">
        <ele>1207.7</ele>
        <time>2018-10-26T10:09:46Z</time>
      </trkpt>
      <trkpt lat="45.67259" lon="6.53996">
        <ele>1208.3</ele>
        <time>2018-10-26T10:09:50Z</time>
      </trkpt>
      <trkpt lat="45.67267" lon="6.53989">
        <ele>1208.9</ele>
        <time>2018-10-26T10:09:54Z</time>
      </trkpt>
      <trkpt lat="45.67275" lon="6.53977">
        <ele>1209.2</ele>
        <time>2018-10-26T10:09:58Z</time>
      </trkpt>
      <trkpt lat="45.67279" lon="6.53965">
        <ele>1209.5</ele>
        <time>2018-10-26T10:10:01Z</time>
      </trkpt>
      <trkpt lat="45.67284" lon="6.5395">
        <ele>1209.3</ele>
        <time>2018-10-26T10:10:05Z</time>
      </trkpt>
      <trkpt lat="45.67287" lon="6.53936">
        <ele>1209.3</ele>
        <time>2018-10-26T10:10:08Z</time>
      </trkpt>
      <trkpt lat="45.67289" lon="6.53924">
        <ele>1209.4</ele>
        <time>2018-10-26T10:10:11Z</time>
      </trkpt>
      <trkpt lat="45.67292" lon="6.53911">
        <ele>1209.6</ele>
        <time>2018-10-26T10:10:14Z</time>
      </trkpt>
      <trkpt lat="45.67294" lon="6.53899">
        <ele>1209.8</ele>
        <time>2018-10-26T10:10:17Z</time>
      </trkpt>
      <trkpt lat="45.67299" lon="6.53883">
        <ele>1210.4</ele>
        <time>2018-10-26T10:10:21Z</time>
      </trkpt>
      <trkpt lat="45.67304" lon="6.53868">
        <ele>1210.4</ele>
        <time>2018-10-26T10:10:25Z</time>
      </trkpt>
      <trkpt lat="45.67309" lon="6.53857">
        <ele>1210.2</ele>
        <time>2018-10-26T10:10:28Z</time>
      </trkpt>
      <trkpt lat="45.67319" lon="6.53849">
        <ele>1211</ele>
        <time>2018-10-26T10:10:32Z</time>
      </trkpt>
      <trkpt lat="45.6733" lon="6.53854">
        <ele>1211.2</ele>
        <time>2018-10-26T10:10:36Z</time>
      </trkpt>
      <trkpt lat="45.67335" lon="6.53866">
        <ele>1211.9</ele>
        <time>2018-10-26T10:10:40Z</time>
      </trkpt>
      <trkpt lat="45.6734" lon="6.53881">
        <ele>1212.8</ele>
        <time>2018-10-26T10:10:45Z</time>
      </trkpt>
      <trkpt lat="45.67349" lon="6.5389">
        <ele>1213.9</ele>
        <time>2018-10-26T10:11:18Z</time>
      </trkpt>
      <trkpt lat="45.67356" lon="6.539">
        <ele>1214.5</ele>
        <time>2018-10-26T10:11:22Z</time>
      </trkpt>
      <trkpt lat="45.67362" lon="6.5391">
        <ele>1215.1</ele>
        <time>2018-10-26T10:11:26Z</time>
      </trkpt>
      <trkpt lat="45.67369" lon="6.53919">
        <ele>1215.7</ele>
        <time>2018-10-26T10:11:30Z</time>
      </trkpt>
      <trkpt lat="45.67375" lon="6.53931">
        <ele>1216.5</ele>
        <time>2018-10-26T10:11:34Z</time>
      </trkpt>
      <trkpt lat="45.6738" lon="6.53941">
        <ele>1217.1</ele>
        <time>2018-10-26T10:11:38Z</time>
      </trkpt>
      <trkpt lat="45.67387" lon="6.53954">
        <ele>1218</ele>
        <time>2018-10-26T10:11:43Z</time>
      </trkpt>
      <trkpt lat="45.67391" lon="6.53965">
        <ele>1218.7</ele>
        <time>2018-10-26T10:11:47Z</time>
      </trkpt>
      <trkpt lat="45.67395" lon="6.53977">
        <ele>1219.6</ele>
        <time>2018-10-26T10:11:51Z</time>
      </trkpt>
      <trkpt lat="45.674" lon="6.53988">
        <ele>1220</ele>
        <time>2018-10-26T10:11:55Z</time>
      </trkpt>
      <trkpt lat="45.67407" lon="6.54">
        <ele>1220.9</ele>
        <time>2018-10-26T10:12:00Z</time>
      </trkpt>
      <trkpt lat="45.67415" lon="6.54011">
        <ele>1221.7</ele>
        <time>2018-10-26T10:12:05Z</time>
      </trkpt>
      <trkpt lat="45.67424" lon="6.5402">
        <ele>1222.4</ele>
        <time>2018-10-26T10:12:10Z</time>
      </trkpt>
      <trkpt lat="45.67431" lon="6.54031">
        <ele>1223.2</ele>
        <time>2018-10-26T10:12:15Z</time>
      </trkpt>
      <trkpt lat="45.67438" lon="6.54043">
        <ele>1224.1</ele>
        <time>2018-10-26T10:12:20Z</time>
      </trkpt>
      <trkpt lat="45.67443" lon="6.54055">
        <ele>1225.2</ele>
        <time>2018-10-26T10:12:25Z</time>
      </trkpt>
      <trkpt lat="45.67445" lon="6.54069">
        <ele>1226.1</ele>
        <time>2018-10-26T10:12:30Z</time>
      </trkpt>
      <trkpt lat="45.67442" lon="6.54081">
        <ele>1227</ele>
        <time>2018-10-26T10:12:35Z</time>
      </trkpt>
      <trkpt lat="45.67438" lon="6.54093">
        <ele>1227.8</ele>
        <time>2018-10-26T10:12:40Z</time>
      </trkpt>
      <trkpt lat="45.67434" lon="6.54105">
        <ele>1228.5</ele>
        <time>2018-10-26T10:12:45Z</time>
      </trkpt>
      <trkpt lat="45.6743" lon="6.54117">
        <ele>1229.2</ele>
        <time>2018-10-26T10:12:50Z</time>
      </trkpt>
      <trkpt lat="45.67427" lon="6.5413">
        <ele>1230.5</ele>
        <time>2018-10-26T10:12:55Z</time>
      </trkpt>
      <trkpt lat="45.67426" lon="6.54144">
        <ele>1231.3</ele>
        <time>2018-10-26T10:13:00Z</time>
      </trkpt>
      <trkpt lat="45.67428" lon="6.54157">
        <ele>1231.8</ele>
        <time>2018-10-26T10:13:05Z</time>
      </trkpt>
      <trkpt lat="45.67431" lon="6.54171">
        <ele>1232.3</ele>
        <time>2018-10-26T10:13:10Z</time>
      </trkpt>
      <trkpt lat="45.67436" lon="6.54184">
        <ele>1233.8</ele>
        <time>2018-10-26T10:13:15Z</time>
      </trkpt>
      <trkpt lat="45.67438" lon="6.54198">
        <ele>1234.2</ele>
        <time>2018-10-26T10:13:20Z</time>
      </trkpt>
      <trkpt lat="45.67439" lon="6.54213">
        <ele>1234.9</ele>
        <time>2018-10-26T10:13:26Z</time>
      </trkpt>
      <trkpt lat="45.6744" lon="6.54226">
        <ele>1235.5</ele>
        <time>2018-10-26T10:13:31Z</time>
      </trkpt>
      <trkpt lat="45.6745" lon="6.54223">
        <ele>1236.9</ele>
        <time>2018-10-26T10:13:37Z</time>
      </trkpt>
      <trkpt lat="45.67451" lon="6.54207">
        <ele>1238.1</ele>
        <time>2018-10-26T10:13:42Z</time>
      </trkpt>
      <trkpt lat="45.6745" lon="6.54192">
        <ele>1238.8</ele>
        <time>2018-10-26T10:13:47Z</time>
      </trkpt>
      <trkpt lat="45.67451" lon="6.54178">
        <ele>1239.2</ele>
        <time>2018-10-26T10:13:51Z</time>
      </trkpt>
      <trkpt lat="45.6745" lon="6.54165">
        <ele>1239.8</ele>
        <time>2018-10-26T10:13:55Z</time>
      </trkpt>
      <trkpt lat="45.67452" lon="6.54151">
        <ele>1240.3</ele>
        <time>2018-10-26T10:14:00Z</time>
      </trkpt>
      <trkpt lat="45.67455" lon="6.54137">
        <ele>1241.1</ele>
        <time>2018-10-26T10:14:05Z</time>
      </trkpt>
      <trkpt lat="45.67461" lon="6.54125">
        <ele>1242.1</ele>
        <time>2018-10-26T10:14:10Z</time>
      </trkpt>
      <trkpt lat="45.67466" lon="6.54115">
        <ele>1243</ele>
        <time>2018-10-26T10:14:15Z</time>
      </trkpt>
      <trkpt lat="45.67473" lon="6.54103">
        <ele>1244</ele>
        <time>2018-10-26T10:14:21Z</time>
      </trkpt>
      <trkpt lat="45.67477" lon="6.54092">
        <ele>1245.1</ele>
        <time>2018-10-26T10:14:26Z</time>
      </trkpt>
      <trkpt lat="45.67483" lon="6.54081">
        <ele>1246.3</ele>
        <time>2018-10-26T10:14:31Z</time>
      </trkpt>
      <trkpt lat="45.6749" lon="6.54072">
        <ele>1247.3</ele>
        <time>2018-10-26T10:14:36Z</time>
      </trkpt>
      <trkpt lat="45.67496" lon="6.54063">
        <ele>1248.1</ele>
        <time>2018-10-26T10:14:41Z</time>
      </trkpt>
      <trkpt lat="45.67503" lon="6.54051">
        <ele>1249</ele>
        <time>2018-10-26T10:14:47Z</time>
      </trkpt>
      <trkpt lat="45.67505" lon="6.54038">
        <ele>1249.9</ele>
        <time>2018-10-26T10:14:52Z</time>
      </trkpt>
      <trkpt lat="45.67507" lon="6.54023">
        <ele>1250.7</ele>
        <time>2018-10-26T10:14:57Z</time>
      </trkpt>
      <trkpt lat="45.67507" lon="6.54009">
        <ele>1251.4</ele>
        <time>2018-10-26T10:15:02Z</time>
      </trkpt>
      <trkpt lat="45.67501" lon="6.53997">
        <ele>1252.4</ele>
        <time>2018-10-26T10:15:07Z</time>
      </trkpt>
      <trkpt lat="45.67496" lon="6.53984">
        <ele>1253.2</ele>
        <time>2018-10-26T10:15:12Z</time>
      </trkpt>
      <trkpt lat="45.67495" lon="6.53969">
        <ele>1254.5</ele>
        <time>2018-10-26T10:15:17Z</time>
      </trkpt>
      <trkpt lat="45.67494" lon="6.53953">
        <ele>1255</ele>
        <time>2018-10-26T10:15:22Z</time>
      </trkpt>
      <trkpt lat="45.67493" lon="6.53939">
        <ele>1256.2</ele>
        <time>2018-10-26T10:15:27Z</time>
      </trkpt>
      <trkpt lat="45.67493" lon="6.53924">
        <ele>1257.3</ele>
        <time>2018-10-26T10:15:32Z</time>
      </trkpt>
      <trkpt lat="45.67493" lon="6.53909">
        <ele>1258.1</ele>
        <time>2018-10-26T10:15:37Z</time>
      </trkpt>
      <trkpt lat="45.67493" lon="6.53895">
        <ele>1259.1</ele>
        <time>2018-10-26T10:15:42Z</time>
      </trkpt>
      <trkpt lat="45.67493" lon="6.5388">
        <ele>1260</ele>
        <time>2018-10-26T10:15:47Z</time>
      </trkpt>
      <trkpt lat="45.67493" lon="6.53867">
        <ele>1261.1</ele>
        <time>2018-10-26T10:15:52Z</time>
      </trkpt>
      <trkpt lat="45.67492" lon="6.53853">
        <ele>1262</ele>
        <time>2018-10-26T10:15:57Z</time>
      </trkpt>
      <trkpt lat="45.67494" lon="6.5384">
        <ele>1262.8</ele>
        <time>2018-10-26T10:16:02Z</time>
      </trkpt>
      <trkpt lat="45.67495" lon="6.53827">
        <ele>1263.5</ele>
        <time>2018-10-26T10:16:07Z</time>
      </trkpt>
      <trkpt lat="45.67493" lon="6.53813">
        <ele>1264.6</ele>
        <time>2018-10-26T10:16:12Z</time>
      </trkpt>
      <trkpt lat="45.67492" lon="6.538">
        <ele>1265.5</ele>
        <time>2018-10-26T10:16:17Z</time>
      </trkpt>
      <trkpt lat="45.67491" lon="6.53786">
        <ele>1266.5</ele>
        <time>2018-10-26T10:16:22Z</time>
      </trkpt>
      <trkpt lat="45.67489" lon="6.53773">
        <ele>1267.2</ele>
        <time>2018-10-26T10:16:27Z</time>
      </trkpt>
      <trkpt lat="45.67486" lon="6.5376">
        <ele>1268</ele>
        <time>2018-10-26T10:16:32Z</time>
      </trkpt>
      <trkpt lat="45.67483" lon="6.53747">
        <ele>1268.7</ele>
        <time>2018-10-26T10:16:37Z</time>
      </trkpt>
      <trkpt lat="45.6748" lon="6.53733">
        <ele>1269.8</ele>
        <time>2018-10-26T10:16:42Z</time>
      </trkpt>
      <trkpt lat="45.67481" lon="6.5372">
        <ele>1270.5</ele>
        <time>2018-10-26T10:16:47Z</time>
      </trkpt>
      <trkpt lat="45.67479" lon="6.53707">
        <ele>1271.1</ele>
        <time>2018-10-26T10:16:52Z</time>
      </trkpt>
      <trkpt lat="45.67473" lon="6.53696">
        <ele>1271.7</ele>
        <time>2018-10-26T10:16:57Z</time>
      </trkpt>
      <trkpt lat="45.67463" lon="6.53692">
        <ele>1272.6</ele>
        <time>2018-10-26T10:17:02Z</time>
      </trkpt>
      <trkpt lat="45.67453" lon="6.53689">
        <ele>1274.1</ele>
        <time>2018-10-26T10:17:07Z</time>
      </trkpt>
      <trkpt lat="45.67444" lon="6.53685">
        <ele>1275.5</ele>
        <time>2018-10-26T10:17:12Z</time>
      </trkpt>
      <trkpt lat="45.67437" lon="6.53674">
        <ele>1276.4</ele>
        <time>2018-10-26T10:17:18Z</time>
      </trkpt>
      <trkpt lat="45.67436" lon="6.53661">
        <ele>1277.8</ele>
        <time>2018-10-26T10:17:23Z</time>
      </trkpt>
      <trkpt lat="45.6744" lon="6.53647">
        <ele>1278.8</ele>
        <time>2018-10-26T10:17:29Z</time>
      </trkpt>
      <trkpt lat="45.67438" lon="6.53633">
        <ele>1279.7</ele>
        <time>2018-10-26T10:17:34Z</time>
      </trkpt>
      <trkpt lat="45.67437" lon="6.53618">
        <ele>1280.8</ele>
        <time>2018-10-26T10:17:40Z</time>
      </trkpt>
      <trkpt lat="45.67433" lon="6.53606">
        <ele>1281.8</ele>
        <time>2018-10-26T10:17:45Z</time>
      </trkpt>
      <trkpt lat="45.67429" lon="6.53593">
        <ele>1283.2</ele>
        <time>2018-10-26T10:17:50Z</time>
      </trkpt>
      <trkpt lat="45.67427" lon="6.53578">
        <ele>1284.3</ele>
        <time>2018-10-26T10:17:56Z</time>
      </trkpt>
      <trkpt lat="45.67424" lon="6.53565">
        <ele>1285.2</ele>
        <time>2018-10-26T10:18:01Z</time>
      </trkpt>
      <trkpt lat="45.67422" lon="6.53551">
        <ele>1286.3</ele>
        <time>2018-10-26T10:18:07Z</time>
      </trkpt>
      <trkpt lat="45.67421" lon="6.53537">
        <ele>1287.5</ele>
        <time>2018-10-26T10:18:12Z</time>
      </trkpt>
      <trkpt lat="45.67422" lon="6.53523">
        <ele>1288.5</ele>
        <time>2018-10-26T10:18:17Z</time>
      </trkpt>
      <trkpt lat="45.6742" lon="6.53509">
        <ele>1289.4</ele>
        <time>2018-10-26T10:18:22Z</time>
      </trkpt>
      <trkpt lat="45.67416" lon="6.53497">
        <ele>1290.4</ele>
        <time>2018-10-26T10:18:27Z</time>
      </trkpt>
      <trkpt lat="45.67413" lon="6.53483">
        <ele>1291.7</ele>
        <time>2018-10-26T10:18:33Z</time>
      </trkpt>
      <trkpt lat="45.6741" lon="6.5347">
        <ele>1292.9</ele>
        <time>2018-10-26T10:18:38Z</time>
      </trkpt>
      <trkpt lat="45.67411" lon="6.53455">
        <ele>1294.6</ele>
        <time>2018-10-26T10:18:44Z</time>
      </trkpt>
      <trkpt lat="45.67415" lon="6.53442">
        <ele>1295.7</ele>
        <time>2018-10-26T10:18:50Z</time>
      </trkpt>
      <trkpt lat="45.67423" lon="6.53432">
        <ele>1296.9</ele>
        <time>2018-10-26T10:18:56Z</time>
      </trkpt>
      <trkpt lat="45.6743" lon="6.53424">
        <ele>1297.7</ele>
        <time>2018-10-26T10:19:01Z</time>
      </trkpt>
      <trkpt lat="45.67439" lon="6.53416">
        <ele>1298.2</ele>
        <time>2018-10-26T10:19:06Z</time>
      </trkpt>
      <trkpt lat="45.67447" lon="6.53407">
        <ele>1299.1</ele>
        <time>2018-10-26T10:19:11Z</time>
      </trkpt>
      <trkpt lat="45.67455" lon="6.53399">
        <ele>1299.9</ele>
        <time>2018-10-26T10:19:15Z</time>
      </trkpt>
      <trkpt lat="45.67463" lon="6.53391">
        <ele>1301</ele>
        <time>2018-10-26T10:19:21Z</time>
      </trkpt>
      <trkpt lat="45.6747" lon="6.53381">
        <ele>1302.1</ele>
        <time>2018-10-26T10:19:26Z</time>
      </trkpt>
      <trkpt lat="45.67479" lon="6.53373">
        <ele>1303.7</ele>
        <time>2018-10-26T10:19:32Z</time>
      </trkpt>
      <trkpt lat="45.67483" lon="6.5336">
        <ele>1305.1</ele>
        <time>2018-10-26T10:19:39Z</time>
      </trkpt>
      <trkpt lat="45.67482" lon="6.53345">
        <ele>1306.1</ele>
        <time>2018-10-26T10:19:44Z</time>
      </trkpt>
      <trkpt lat="45.67481" lon="6.53331">
        <ele>1307</ele>
        <time>2018-10-26T10:19:49Z</time>
      </trkpt>
      <trkpt lat="45.67478" lon="6.53318">
        <ele>1308.4</ele>
        <time>2018-10-26T10:19:54Z</time>
      </trkpt>
      <trkpt lat="45.67475" lon="6.53304">
        <ele>1309.4</ele>
        <time>2018-10-26T10:20:00Z</time>
      </trkpt>
      <trkpt lat="45.6747" lon="6.53292">
        <ele>1311.2</ele>
        <time>2018-10-26T10:20:05Z</time>
      </trkpt>
      <trkpt lat="45.67467" lon="6.53277">
        <ele>1312.6</ele>
        <time>2018-10-26T10:20:11Z</time>
      </trkpt>
      <trkpt lat="45.67468" lon="6.53263">
        <ele>1313.4</ele>
        <time>2018-10-26T10:20:17Z</time>
      </trkpt>
      <trkpt lat="45.67468" lon="6.5325">
        <ele>1314.9</ele>
        <time>2018-10-26T10:20:22Z</time>
      </trkpt>
      <trkpt lat="45.67468" lon="6.53236">
        <ele>1316.1</ele>
        <time>2018-10-26T10:20:28Z</time>
      </trkpt>
      <trkpt lat="45.67469" lon="6.53223">
        <ele>1317.2</ele>
        <time>2018-10-26T10:20:33Z</time>
      </trkpt>
      <trkpt lat="45.6747" lon="6.5321">
        <ele>1318.2</ele>
        <time>2018-10-26T10:20:38Z</time>
      </trkpt>
      <trkpt lat="45.67471" lon="6.53195">
        <ele>1319.2</ele>
        <time>2018-10-26T10:20:44Z</time>
      </trkpt>
      <trkpt lat="45.67473" lon="6.5318">
        <ele>1321</ele>
        <time>2018-10-26T10:20:51Z</time>
      </trkpt>
      <trkpt lat="45.67475" lon="6.53167">
        <ele>1321.7</ele>
        <time>2018-10-26T10:20:56Z</time>
      </trkpt>
      <trkpt lat="45.67479" lon="6.53152">
        <ele>1322.9</ele>
        <time>2018-10-26T10:21:02Z</time>
      </trkpt>
      <trkpt lat="45.67486" lon="6.53144">
        <ele>1324</ele>
        <time>2018-10-26T10:21:07Z</time>
      </trkpt>
      <trkpt lat="45.67494" lon="6.53151">
        <ele>1324.9</ele>
        <time>2018-10-26T10:21:12Z</time>
      </trkpt>
      <trkpt lat="45.6749" lon="6.53164">
        <ele>1325.7</ele>
        <time>2018-10-26T10:21:18Z</time>
      </trkpt>
      <trkpt lat="45.67487" lon="6.53178">
        <ele>1326.9</ele>
        <time>2018-10-26T10:21:24Z</time>
      </trkpt>
      <trkpt lat="45.67486" lon="6.53191">
        <ele>1327.9</ele>
        <time>2018-10-26T10:21:29Z</time>
      </trkpt>
      <trkpt lat="45.67485" lon="6.53204">
        <ele>1328.9</ele>
        <time>2018-10-26T10:21:33Z</time>
      </trkpt>
      <trkpt lat="45.67485" lon="6.53218">
        <ele>1329.7</ele>
        <time>2018-10-26T10:21:38Z</time>
      </trkpt>
      <trkpt lat="45.67488" lon="6.53233">
        <ele>1330.4</ele>
        <time>2018-10-26T10:21:44Z</time>
      </trkpt>
      <trkpt lat="45.67489" lon="6.53248">
        <ele>1331.7</ele>
        <time>2018-10-26T10:21:49Z</time>
      </trkpt>
      <trkpt lat="45.6749" lon="6.53263">
        <ele>1332.7</ele>
        <time>2018-10-26T10:21:55Z</time>
      </trkpt>
      <trkpt lat="45.67495" lon="6.53276">
        <ele>1333.8</ele>
        <time>2018-10-26T10:22:01Z</time>
      </trkpt>
      <trkpt lat="45.675" lon="6.53287">
        <ele>1334.2</ele>
        <time>2018-10-26T10:22:06Z</time>
      </trkpt>
      <trkpt lat="45.67505" lon="6.533">
        <ele>1335.5</ele>
        <time>2018-10-26T10:22:11Z</time>
      </trkpt>
      <trkpt lat="45.67509" lon="6.53313">
        <ele>1336.6</ele>
        <time>2018-10-26T10:22:16Z</time>
      </trkpt>
      <trkpt lat="45.67513" lon="6.53325">
        <ele>1337.7</ele>
        <time>2018-10-26T10:22:21Z</time>
      </trkpt>
      <trkpt lat="45.67519" lon="6.53334">
        <ele>1338.6</ele>
        <time>2018-10-26T10:22:26Z</time>
      </trkpt>
      <trkpt lat="45.67526" lon="6.53345">
        <ele>1339.7</ele>
        <time>2018-10-26T10:22:31Z</time>
      </trkpt>
      <trkpt lat="45.67531" lon="6.53357">
        <ele>1340.6</ele>
        <time>2018-10-26T10:22:36Z</time>
      </trkpt>
      <trkpt lat="45.67536" lon="6.5337">
        <ele>1340.7</ele>
        <time>2018-10-26T10:22:41Z</time>
      </trkpt>
      <trkpt lat="45.67536" lon="6.53384">
        <ele>1342.4</ele>
        <time>2018-10-26T10:22:46Z</time>
      </trkpt>
      <trkpt lat="45.67532" lon="6.53396">
        <ele>1343.1</ele>
        <time>2018-10-26T10:22:51Z</time>
      </trkpt>
      <trkpt lat="45.67527" lon="6.5341">
        <ele>1343.7</ele>
        <time>2018-10-26T10:22:57Z</time>
      </trkpt>
      <trkpt lat="45.67531" lon="6.53425">
        <ele>1344.7</ele>
        <time>2018-10-26T10:23:02Z</time>
      </trkpt>
      <trkpt lat="45.67541" lon="6.53432">
        <ele>1345.3</ele>
        <time>2018-10-26T10:23:07Z</time>
      </trkpt>
      <trkpt lat="45.67551" lon="6.53439">
        <ele>1345.7</ele>
        <time>2018-10-26T10:23:11Z</time>
      </trkpt>
      <trkpt lat="45.67561" lon="6.53444">
        <ele>1346</ele>
        <time>2018-10-26T10:23:15Z</time>
      </trkpt>
      <trkpt lat="45.67572" lon="6.53452">
        <ele>1346.5</ele>
        <time>2018-10-26T10:23:19Z</time>
      </trkpt>
      <trkpt lat="45.67582" lon="6.5346">
        <ele>1347.1</ele>
        <time>2018-10-26T10:23:23Z</time>
      </trkpt>
      <trkpt lat="45.67591" lon="6.5347">
        <ele>1347.2</ele>
        <time>2018-10-26T10:23:27Z</time>
      </trkpt>
      <trkpt lat="45.67599" lon="6.53482">
        <ele>1347.4</ele>
        <time>2018-10-26T10:23:31Z</time>
      </trkpt>
      <trkpt lat="45.67603" lon="6.53495">
        <ele>1348.1</ele>
        <time>2018-10-26T10:23:34Z</time>
      </trkpt>
      <trkpt lat="45.67606" lon="6.53507">
        <ele>1348.4</ele>
        <time>2018-10-26T10:23:37Z</time>
      </trkpt>
      <trkpt lat="45.67613" lon="6.53519">
        <ele>1349.1</ele>
        <time>2018-10-26T10:23:41Z</time>
      </trkpt>
      <trkpt lat="45.6762" lon="6.53531">
        <ele>1349.6</ele>
        <time>2018-10-26T10:23:45Z</time>
      </trkpt>
      <trkpt lat="45.67626" lon="6.53545">
        <ele>1349.8</ele>
        <time>2018-10-26T10:23:49Z</time>
      </trkpt>
      <trkpt lat="45.6763" lon="6.53561">
        <ele>1350.3</ele>
        <time>2018-10-26T10:23:53Z</time>
      </trkpt>
      <trkpt lat="45.67631" lon="6.53574">
        <ele>1350.5</ele>
        <time>2018-10-26T10:23:56Z</time>
      </trkpt>
      <trkpt lat="45.67629" lon="6.53588">
        <ele>1350.9</ele>
        <time>2018-10-26T10:23:59Z</time>
      </trkpt>
      <trkpt lat="45.67622" lon="6.53601">
        <ele>1351.3</ele>
        <time>2018-10-26T10:24:03Z</time>
      </trkpt>
      <trkpt lat="45.67614" lon="6.53613">
        <ele>1351.9</ele>
        <time>2018-10-26T10:24:07Z</time>
      </trkpt>
      <trkpt lat="45.67606" lon="6.53625">
        <ele>1352.5</ele>
        <time>2018-10-26T10:24:11Z</time>
      </trkpt>
      <trkpt lat="45.67601" lon="6.53638">
        <ele>1353.1</ele>
        <time>2018-10-26T10:24:14Z</time>
      </trkpt>
      <trkpt lat="45.67599" lon="6.53653">
        <ele>1353.2</ele>
        <time>2018-10-26T10:24:17Z</time>
      </trkpt>
      <trkpt lat="45.67602" lon="6.53668">
        <ele>1353.2</ele>
        <time>2018-10-26T10:24:20Z</time>
      </trkpt>
      <trkpt lat="45.67609" lon="6.53679">
        <ele>1353.4</ele>
        <time>2018-10-26T10:24:23Z</time>
      </trkpt>
      <trkpt lat="45.6762" lon="6.53688">
        <ele>1353.4</ele>
        <time>2018-10-26T10:24:26Z</time>
      </trkpt>
      <trkpt lat="45.67631" lon="6.53698">
        <ele>1353.1</ele>
        <time>2018-10-26T10:24:29Z</time>
      </trkpt>
      <trkpt lat="45.67639" lon="6.53707">
        <ele>1353.1</ele>
        <time>2018-10-26T10:24:31Z</time>
      </trkpt>
      <trkpt lat="45.67646" lon="6.53719">
        <ele>1352.8</ele>
        <time>2018-10-26T10:24:33Z</time>
      </trkpt>
      <trkpt lat="45.6765" lon="6.53731">
        <ele>1352.8</ele>
        <time>2018-10-26T10:24:35Z</time>
      </trkpt>
      <trkpt lat="45.67653" lon="6.53746">
        <ele>1352.8</ele>
        <time>2018-10-26T10:24:37Z</time>
      </trkpt>
      <trkpt lat="45.67653" lon="6.53762">
        <ele>1352.7</ele>
        <time>2018-10-26T10:24:39Z</time>
      </trkpt>
      <trkpt lat="45.67652" lon="6.53777">
        <ele>1352.9</ele>
        <time>2018-10-26T10:24:41Z</time>
      </trkpt>
      <trkpt lat="45.67652" lon="6.53791">
        <ele>1352.7</ele>
        <time>2018-10-26T10:24:43Z</time>
      </trkpt>
      <trkpt lat="45.67654" lon="6.53806">
        <ele>1352.4</ele>
        <time>2018-10-26T10:24:45Z</time>
      </trkpt>
      <trkpt lat="45.67656" lon="6.53822">
        <ele>1352</ele>
        <time>2018-10-26T10:24:47Z</time>
      </trkpt>
      <trkpt lat="45.67655" lon="6.53838">
        <ele>1351.4</ele>
        <time>2018-10-26T10:24:49Z</time>
      </trkpt>
      <trkpt lat="45.67653" lon="6.53855">
        <ele>1350.8</ele>
        <time>2018-10-26T10:24:51Z</time>
      </trkpt>
      <trkpt lat="45.67651" lon="6.53874">
        <ele>1350.5</ele>
        <time>2018-10-26T10:24:53Z</time>
      </trkpt>
      <trkpt lat="45.67652" lon="6.5389">
        <ele>1349.7</ele>
        <time>2018-10-26T10:24:55Z</time>
      </trkpt>
      <trkpt lat="45.67658" lon="6.53904">
        <ele>1348.8</ele>
        <time>2018-10-26T10:24:57Z</time>
      </trkpt>
      <trkpt lat="45.67671" lon="6.53916">
        <ele>1348.2</ele>
        <time>2018-10-26T10:24:59Z</time>
      </trkpt>
      <trkpt lat="45.67686" lon="6.53926">
        <ele>1347</ele>
        <time>2018-10-26T10:25:01Z</time>
      </trkpt>
      <trkpt lat="45.67701" lon="6.53939">
        <ele>1346</ele>
        <time>2018-10-26T10:25:03Z</time>
      </trkpt>
      <trkpt lat="45.67708" lon="6.53947">
        <ele>1345.4</ele>
        <time>2018-10-26T10:25:04Z</time>
      </trkpt>
      <trkpt lat="45.67719" lon="6.53966">
        <ele>1344.7</ele>
        <time>2018-10-26T10:25:06Z</time>
      </trkpt>
      <trkpt lat="45.67727" lon="6.53981">
        <ele>1344.5</ele>
        <time>2018-10-26T10:25:08Z</time>
      </trkpt>
      <trkpt lat="45.67735" lon="6.53991">
        <ele>1344.5</ele>
        <time>2018-10-26T10:25:10Z</time>
      </trkpt>
      <trkpt lat="45.67743" lon="6.53999">
        <ele>1344.8</ele>
        <time>2018-10-26T10:25:13Z</time>
      </trkpt>
      <trkpt lat="45.6775" lon="6.54011">
        <ele>1345</ele>
        <time>2018-10-26T10:25:16Z</time>
      </trkpt>
      <trkpt lat="45.67752" lon="6.54027">
        <ele>1345.5</ele>
        <time>2018-10-26T10:25:20Z</time>
      </trkpt>
      <trkpt lat="45.67753" lon="6.54041">
        <ele>1346.3</ele>
        <time>2018-10-26T10:25:24Z</time>
      </trkpt>
      <trkpt lat="45.67753" lon="6.54054">
        <ele>1347.1</ele>
        <time>2018-10-26T10:25:28Z</time>
      </trkpt>
      <trkpt lat="45.67755" lon="6.54068">
        <ele>1348.1</ele>
        <time>2018-10-26T10:25:33Z</time>
      </trkpt>
      <trkpt lat="45.67755" lon="6.54083">
        <ele>1349.5</ele>
        <time>2018-10-26T10:25:38Z</time>
      </trkpt>
      <trkpt lat="45.67757" lon="6.54098">
        <ele>1350.7</ele>
        <time>2018-10-26T10:25:44Z</time>
      </trkpt>
      <trkpt lat="45.67761" lon="6.54112">
        <ele>1351.5</ele>
        <time>2018-10-26T10:25:49Z</time>
      </trkpt>
      <trkpt lat="45.67765" lon="6.54124">
        <ele>1352.8</ele>
        <time>2018-10-26T10:25:54Z</time>
      </trkpt>
      <trkpt lat="45.67771" lon="6.54135">
        <ele>1353.8</ele>
        <time>2018-10-26T10:26:00Z</time>
      </trkpt>
      <trkpt lat="45.67778" lon="6.54145">
        <ele>1354.7</ele>
        <time>2018-10-26T10:26:05Z</time>
      </trkpt>
      <trkpt lat="45.67787" lon="6.54154">
        <ele>1356</ele>
        <time>2018-10-26T10:26:11Z</time>
      </trkpt>
      <trkpt lat="45.67795" lon="6.54162">
        <ele>1356.6</ele>
        <time>2018-10-26T10:26:16Z</time>
      </trkpt>
      <trkpt lat="45.67803" lon="6.54172">
        <ele>1357.8</ele>
        <time>2018-10-26T10:26:22Z</time>
      </trkpt>
      <trkpt lat="45.67809" lon="6.54183">
        <ele>1359.1</ele>
        <time>2018-10-26T10:26:27Z</time>
      </trkpt>
      <trkpt lat="45.67816" lon="6.54195">
        <ele>1360.1</ele>
        <time>2018-10-26T10:26:33Z</time>
      </trkpt>
      <trkpt lat="45.67819" lon="6.54208">
        <ele>1361</ele>
        <time>2018-10-26T10:26:38Z</time>
      </trkpt>
      <trkpt lat="45.67817" lon="6.54222">
        <ele>1362.1</ele>
        <time>2018-10-26T10:26:43Z</time>
      </trkpt>
      <trkpt lat="45.67813" lon="6.54234">
        <ele>1362.7</ele>
        <time>2018-10-26T10:26:48Z</time>
      </trkpt>
      <trkpt lat="45.67809" lon="6.54245">
        <ele>1363.7</ele>
        <time>2018-10-26T10:26:53Z</time>
      </trkpt>
      <trkpt lat="45.67806" lon="6.54258">
        <ele>1364.8</ele>
        <time>2018-10-26T10:26:58Z</time>
      </trkpt>
      <trkpt lat="45.67802" lon="6.54272">
        <ele>1365.8</ele>
        <time>2018-10-26T10:27:04Z</time>
      </trkpt>
      <trkpt lat="45.67811" lon="6.54273">
        <ele>1368</ele>
        <time>2018-10-26T10:27:15Z</time>
      </trkpt>
      <trkpt lat="45.67812" lon="6.54258">
        <ele>1368.6</ele>
        <time>2018-10-26T10:27:21Z</time>
      </trkpt>
      <trkpt lat="45.67817" lon="6.54246">
        <ele>1369.5</ele>
        <time>2018-10-26T10:27:26Z</time>
      </trkpt>
      <trkpt lat="45.67825" lon="6.54237">
        <ele>1371.2</ele>
        <time>2018-10-26T10:27:32Z</time>
      </trkpt>
      <trkpt lat="45.67836" lon="6.54233">
        <ele>1372</ele>
        <time>2018-10-26T10:27:38Z</time>
      </trkpt>
      <trkpt lat="45.67845" lon="6.54226">
        <ele>1372.8</ele>
        <time>2018-10-26T10:27:44Z</time>
      </trkpt>
      <trkpt lat="45.67853" lon="6.54218">
        <ele>1373.3</ele>
        <time>2018-10-26T10:27:50Z</time>
      </trkpt>
      <trkpt lat="45.67857" lon="6.54206">
        <ele>1374.2</ele>
        <time>2018-10-26T10:27:55Z</time>
      </trkpt>
      <trkpt lat="45.67858" lon="6.54191">
        <ele>1375.3</ele>
        <time>2018-10-26T10:28:00Z</time>
      </trkpt>
      <trkpt lat="45.67857" lon="6.54178">
        <ele>1376.3</ele>
        <time>2018-10-26T10:28:05Z</time>
      </trkpt>
      <trkpt lat="45.67856" lon="6.54165">
        <ele>1377.1</ele>
        <time>2018-10-26T10:28:10Z</time>
      </trkpt>
      <trkpt lat="45.67855" lon="6.54151">
        <ele>1377.4</ele>
        <time>2018-10-26T10:28:15Z</time>
      </trkpt>
      <trkpt lat="45.67855" lon="6.54138">
        <ele>1377.8</ele>
        <time>2018-10-26T10:28:20Z</time>
      </trkpt>
      <trkpt lat="45.67856" lon="6.54123">
        <ele>1378.2</ele>
        <time>2018-10-26T10:28:26Z</time>
      </trkpt>
      <trkpt lat="45.67864" lon="6.54118">
        <ele>1379.3</ele>
        <time>2018-10-26T10:28:32Z</time>
      </trkpt>
      <trkpt lat="45.6787" lon="6.54128">
        <ele>1380.4</ele>
        <time>2018-10-26T10:28:37Z</time>
      </trkpt>
      <trkpt lat="45.67871" lon="6.54142">
        <ele>1381.3</ele>
        <time>2018-10-26T10:28:42Z</time>
      </trkpt>
      <trkpt lat="45.67873" lon="6.54156">
        <ele>1382.1</ele>
        <time>2018-10-26T10:28:47Z</time>
      </trkpt>
      <trkpt lat="45.67875" lon="6.54171">
        <ele>1383</ele>
        <time>2018-10-26T10:28:53Z</time>
      </trkpt>
      <trkpt lat="45.67879" lon="6.54183">
        <ele>1383.7</ele>
        <time>2018-10-26T10:28:59Z</time>
      </trkpt>
      <trkpt lat="45.67884" lon="6.54196">
        <ele>1385</ele>
        <time>2018-10-26T10:29:06Z</time>
      </trkpt>
      <trkpt lat="45.67889" lon="6.54206">
        <ele>1386</ele>
        <time>2018-10-26T10:29:12Z</time>
      </trkpt>
      <trkpt lat="45.67896" lon="6.54217">
        <ele>1387</ele>
        <time>2018-10-26T10:29:18Z</time>
      </trkpt>
      <trkpt lat="45.67901" lon="6.5423">
        <ele>1388.2</ele>
        <time>2018-10-26T10:29:24Z</time>
      </trkpt>
      <trkpt lat="45.67905" lon="6.54242">
        <ele>1388.9</ele>
        <time>2018-10-26T10:29:29Z</time>
      </trkpt>
      <trkpt lat="45.67906" lon="6.54255">
        <ele>1389.9</ele>
        <time>2018-10-26T10:29:34Z</time>
      </trkpt>
      <trkpt lat="45.67902" lon="6.54268">
        <ele>1390.7</ele>
        <time>2018-10-26T10:29:40Z</time>
      </trkpt>
      <trkpt lat="45.67894" lon="6.54276">
        <ele>1391.9</ele>
        <time>2018-10-26T10:29:46Z</time>
      </trkpt>
      <trkpt lat="45.67884" lon="6.54281">
        <ele>1393</ele>
        <time>2018-10-26T10:29:52Z</time>
      </trkpt>
      <trkpt lat="45.67874" lon="6.54283">
        <ele>1394</ele>
        <time>2018-10-26T10:29:58Z</time>
      </trkpt>
      <trkpt lat="45.67865" lon="6.54285">
        <ele>1394.9</ele>
        <time>2018-10-26T10:30:03Z</time>
      </trkpt>
      <trkpt lat="45.67855" lon="6.54288">
        <ele>1396.2</ele>
        <time>2018-10-26T10:30:09Z</time>
      </trkpt>
      <trkpt lat="45.67846" lon="6.54297">
        <ele>1397</ele>
        <time>2018-10-26T10:30:15Z</time>
      </trkpt>
      <trkpt lat="45.6784" lon="6.54306">
        <ele>1398.6</ele>
        <time>2018-10-26T10:30:21Z</time>
      </trkpt>
      <trkpt lat="45.67833" lon="6.54315">
        <ele>1399.9</ele>
        <time>2018-10-26T10:30:27Z</time>
      </trkpt>
      <trkpt lat="45.67826" lon="6.54326">
        <ele>1401.3</ele>
        <time>2018-10-26T10:30:34Z</time>
      </trkpt>
      <trkpt lat="45.67821" lon="6.54338">
        <ele>1402.8</ele>
        <time>2018-10-26T10:30:41Z</time>
      </trkpt>
      <trkpt lat="45.67816" lon="6.5435">
        <ele>1403.9</ele>
        <time>2018-10-26T10:30:48Z</time>
      </trkpt>
      <trkpt lat="45.67813" lon="6.54363">
        <ele>1405.3</ele>
        <time>2018-10-26T10:30:54Z</time>
      </trkpt>
      <trkpt lat="45.67809" lon="6.54376">
        <ele>1406.4</ele>
        <time>2018-10-26T10:31:00Z</time>
      </trkpt>
      <trkpt lat="45.67805" lon="6.54388">
        <ele>1407.7</ele>
        <time>2018-10-26T10:31:06Z</time>
      </trkpt>
      <trkpt lat="45.67803" lon="6.54403">
        <ele>1408.9</ele>
        <time>2018-10-26T10:31:13Z</time>
      </trkpt>
      <trkpt lat="45.67799" lon="6.54416">
        <ele>1410.2</ele>
        <time>2018-10-26T10:31:20Z</time>
      </trkpt>
      <trkpt lat="45.67796" lon="6.5443">
        <ele>1411.6</ele>
        <time>2018-10-26T10:31:27Z</time>
      </trkpt>
      <trkpt lat="45.67793" lon="6.54443">
        <ele>1412.7</ele>
        <time>2018-10-26T10:31:34Z</time>
      </trkpt>
      <trkpt lat="45.6779" lon="6.54455">
        <ele>1413.9</ele>
        <time>2018-10-26T10:31:40Z</time>
      </trkpt>
      <trkpt lat="45.67783" lon="6.54466">
        <ele>1415</ele>
        <time>2018-10-26T10:31:46Z</time>
      </trkpt>
      <trkpt lat="45.67785" lon="6.54481">
        <ele>1416</ele>
        <time>2018-10-26T10:31:52Z</time>
      </trkpt>
      <trkpt lat="45.67787" lon="6.54494">
        <ele>1417.1</ele>
        <time>2018-10-26T10:31:57Z</time>
      </trkpt>
      <trkpt lat="45.6779" lon="6.54508">
        <ele>1418.3</ele>
        <time>2018-10-26T10:32:03Z</time>
      </trkpt>
      <trkpt lat="45.67795" lon="6.5452">
        <ele>1419.1</ele>
        <time>2018-10-26T10:32:08Z</time>
      </trkpt>
      <trkpt lat="45.67799" lon="6.54532">
        <ele>1420.1</ele>
        <time>2018-10-26T10:32:14Z</time>
      </trkpt>
      <trkpt lat="45.67805" lon="6.54546">
        <ele>1421.1</ele>
        <time>2018-10-26T10:32:20Z</time>
      </trkpt>
      <trkpt lat="45.67807" lon="6.54558">
        <ele>1422</ele>
        <time>2018-10-26T10:32:25Z</time>
      </trkpt>
      <trkpt lat="45.67813" lon="6.54571">
        <ele>1423.5</ele>
        <time>2018-10-26T10:32:31Z</time>
      </trkpt>
      <trkpt lat="45.67817" lon="6.54584">
        <ele>1424.3</ele>
        <time>2018-10-26T10:32:37Z</time>
      </trkpt>
      <trkpt lat="45.67823" lon="6.54595">
        <ele>1425.4</ele>
        <time>2018-10-26T10:32:43Z</time>
      </trkpt>
      <trkpt lat="45.67827" lon="6.54607">
        <ele>1426.5</ele>
        <time>2018-10-26T10:32:48Z</time>
      </trkpt>
      <trkpt lat="45.67834" lon="6.54618">
        <ele>1427.4</ele>
        <time>2018-10-26T10:32:54Z</time>
      </trkpt>
      <trkpt lat="45.67841" lon="6.5463">
        <ele>1428.6</ele>
        <time>2018-10-26T10:33:00Z</time>
      </trkpt>
      <trkpt lat="45.67846" lon="6.54641">
        <ele>1430.2</ele>
        <time>2018-10-26T10:33:06Z</time>
      </trkpt>
      <trkpt lat="45.67853" lon="6.54651">
        <ele>1431.3</ele>
        <time>2018-10-26T10:33:12Z</time>
      </trkpt>
      <trkpt lat="45.67858" lon="6.54664">
        <ele>1432.6</ele>
        <time>2018-10-26T10:33:18Z</time>
      </trkpt>
      <trkpt lat="45.67865" lon="6.54675">
        <ele>1433.6</ele>
        <time>2018-10-26T10:33:24Z</time>
      </trkpt>
      <trkpt lat="45.67867" lon="6.54687">
        <ele>1434.5</ele>
        <time>2018-10-26T10:33:29Z</time>
      </trkpt>
      <trkpt lat="45.67873" lon="6.54697">
        <ele>1435.7</ele>
        <time>2018-10-26T10:33:35Z</time>
      </trkpt>
      <trkpt lat="45.6788" lon="6.54709">
        <ele>1436.9</ele>
        <time>2018-10-26T10:33:41Z</time>
      </trkpt>
      <trkpt lat="45.67886" lon="6.54721">
        <ele>1437.6</ele>
        <time>2018-10-26T10:33:47Z</time>
      </trkpt>
      <trkpt lat="45.67893" lon="6.54732">
        <ele>1438.8</ele>
        <time>2018-10-26T10:33:53Z</time>
      </trkpt>
      <trkpt lat="45.679" lon="6.54743">
        <ele>1439.8</ele>
        <time>2018-10-26T10:33:59Z</time>
      </trkpt>
      <trkpt lat="45.67909" lon="6.54751">
        <ele>1440.7</ele>
        <time>2018-10-26T10:34:05Z</time>
      </trkpt>
      <trkpt lat="45.67914" lon="6.54762">
        <ele>1441.7</ele>
        <time>2018-10-26T10:34:10Z</time>
      </trkpt>
      <trkpt lat="45.67918" lon="6.54774">
        <ele>1442.8</ele>
        <time>2018-10-26T10:34:15Z</time>
      </trkpt>
      <trkpt lat="45.67926" lon="6.54782">
        <ele>1443.7</ele>
        <time>2018-10-26T10:34:21Z</time>
      </trkpt>
      <trkpt lat="45.67932" lon="6.54794">
        <ele>1444.8</ele>
        <time>2018-10-26T10:34:26Z</time>
      </trkpt>
      <trkpt lat="45.6794" lon="6.54802">
        <ele>1446</ele>
        <time>2018-10-26T10:34:32Z</time>
      </trkpt>
      <trkpt lat="45.67946" lon="6.54814">
        <ele>1447.1</ele>
        <time>2018-10-26T10:34:38Z</time>
      </trkpt>
      <trkpt lat="45.67951" lon="6.54827">
        <ele>1448.1</ele>
        <time>2018-10-26T10:34:43Z</time>
      </trkpt>
      <trkpt lat="45.67957" lon="6.54836">
        <ele>1449.3</ele>
        <time>2018-10-26T10:34:49Z</time>
      </trkpt>
      <trkpt lat="45.67963" lon="6.54847">
        <ele>1450.4</ele>
        <time>2018-10-26T10:34:55Z</time>
      </trkpt>
      <trkpt lat="45.67972" lon="6.54851">
        <ele>1451.5</ele>
        <time>2018-10-26T10:35:01Z</time>
      </trkpt>
      <trkpt lat="45.67982" lon="6.54857">
        <ele>1452.4</ele>
        <time>2018-10-26T10:35:07Z</time>
      </trkpt>
      <trkpt lat="45.67991" lon="6.54864">
        <ele>1453.5</ele>
        <time>2018-10-26T10:35:13Z</time>
      </trkpt>
      <trkpt lat="45.67998" lon="6.54872">
        <ele>1454.4</ele>
        <time>2018-10-26T10:35:18Z</time>
      </trkpt>
      <trkpt lat="45.68005" lon="6.54883">
        <ele>1455.9</ele>
        <time>2018-10-26T10:35:24Z</time>
      </trkpt>
      <trkpt lat="45.68013" lon="6.54893">
        <ele>1457</ele>
        <time>2018-10-26T10:35:30Z</time>
      </trkpt>
      <trkpt lat="45.6802" lon="6.54904">
        <ele>1458.2</ele>
        <time>2018-10-26T10:35:37Z</time>
      </trkpt>
      <trkpt lat="45.68027" lon="6.54913">
        <ele>1459.9</ele>
        <time>2018-10-26T10:35:43Z</time>
      </trkpt>
      <trkpt lat="45.68034" lon="6.54923">
        <ele>1460.8</ele>
        <time>2018-10-26T10:35:49Z</time>
      </trkpt>
      <trkpt lat="45.68043" lon="6.54927">
        <ele>1462</ele>
        <time>2018-10-26T10:35:55Z</time>
      </trkpt>
      <trkpt lat="45.68052" lon="6.5493">
        <ele>1462.7</ele>
        <time>2018-10-26T10:36:00Z</time>
      </trkpt>
      <trkpt lat="45.6806" lon="6.54939">
        <ele>1464.1</ele>
        <time>2018-10-26T10:36:06Z</time>
      </trkpt>
      <trkpt lat="45.68069" lon="6.54945">
        <ele>1464.8</ele>
        <time>2018-10-26T10:36:11Z</time>
      </trkpt>
      <trkpt lat="45.68078" lon="6.54951">
        <ele>1465.3</ele>
        <time>2018-10-26T10:36:16Z</time>
      </trkpt>
      <trkpt lat="45.68087" lon="6.54958">
        <ele>1466.3</ele>
        <time>2018-10-26T10:36:21Z</time>
      </trkpt>
      <trkpt lat="45.68094" lon="6.54966">
        <ele>1467.3</ele>
        <time>2018-10-26T10:36:26Z</time>
      </trkpt>
      <trkpt lat="45.68103" lon="6.54973">
        <ele>1468.3</ele>
        <time>2018-10-26T10:36:31Z</time>
      </trkpt>
      <trkpt lat="45.68111" lon="6.54981">
        <ele>1469.8</ele>
        <time>2018-10-26T10:36:36Z</time>
      </trkpt>
      <trkpt lat="45.68118" lon="6.54993">
        <ele>1470.5</ele>
        <time>2018-10-26T10:36:42Z</time>
      </trkpt>
      <trkpt lat="45.68125" lon="6.55001">
        <ele>1471.4</ele>
        <time>2018-10-26T10:36:47Z</time>
      </trkpt>
      <trkpt lat="45.68134" lon="6.5501">
        <ele>1472.6</ele>
        <time>2018-10-26T10:36:53Z</time>
      </trkpt>
      <trkpt lat="45.68142" lon="6.5502">
        <ele>1473.4</ele>
        <time>2018-10-26T10:36:58Z</time>
      </trkpt>
      <trkpt lat="45.6815" lon="6.55029">
        <ele>1474.2</ele>
        <time>2018-10-26T10:37:04Z</time>
      </trkpt>
      <trkpt lat="45.68159" lon="6.55037">
        <ele>1475.4</ele>
        <time>2018-10-26T10:37:10Z</time>
      </trkpt>
      <trkpt lat="45.68168" lon="6.55045">
        <ele>1476.6</ele>
        <time>2018-10-26T10:37:16Z</time>
      </trkpt>
      <trkpt lat="45.68177" lon="6.55053">
        <ele>1477.7</ele>
        <time>2018-10-26T10:37:22Z</time>
      </trkpt>
      <trkpt lat="45.68186" lon="6.55059">
        <ele>1478.2</ele>
        <time>2018-10-26T10:37:28Z</time>
      </trkpt>
      <trkpt lat="45.68193" lon="6.55068">
        <ele>1479</ele>
        <time>2018-10-26T10:37:33Z</time>
      </trkpt>
      <trkpt lat="45.68201" lon="6.55075">
        <ele>1480.1</ele>
        <time>2018-10-26T10:37:39Z</time>
      </trkpt>
      <trkpt lat="45.68211" lon="6.55077">
        <ele>1481</ele>
        <time>2018-10-26T10:37:45Z</time>
      </trkpt>
      <trkpt lat="45.68221" lon="6.55071">
        <ele>1481.8</ele>
        <time>2018-10-26T10:37:51Z</time>
      </trkpt>
      <trkpt lat="45.68231" lon="6.55071">
        <ele>1483.2</ele>
        <time>2018-10-26T10:37:57Z</time>
      </trkpt>
      <trkpt lat="45.68241" lon="6.55071">
        <ele>1484.1</ele>
        <time>2018-10-26T10:38:03Z</time>
      </trkpt>
      <trkpt lat="45.6825" lon="6.55069">
        <ele>1484.6</ele>
        <time>2018-10-26T10:38:08Z</time>
      </trkpt>
      <trkpt lat="45.68259" lon="6.5507">
        <ele>1485.6</ele>
        <time>2018-10-26T10:38:14Z</time>
      </trkpt>
      <trkpt lat="45.68267" lon="6.55063">
        <ele>1486.2</ele>
        <time>2018-10-26T10:38:20Z</time>
      </trkpt>
      <trkpt lat="45.68269" lon="6.55049">
        <ele>1487</ele>
        <time>2018-10-26T10:38:25Z</time>
      </trkpt>
      <trkpt lat="45.68266" lon="6.55034">
        <ele>1487.6</ele>
        <time>2018-10-26T10:38:30Z</time>
      </trkpt>
      <trkpt lat="45.68263" lon="6.5502">
        <ele>1488</ele>
        <time>2018-10-26T10:38:35Z</time>
      </trkpt>
      <trkpt lat="45.68257" lon="6.55007">
        <ele>1488.8</ele>
        <time>2018-10-26T10:38:40Z</time>
      </trkpt>
      <trkpt lat="45.68254" lon="6.54994">
        <ele>1489.7</ele>
        <time>2018-10-26T10:38:45Z</time>
      </trkpt>
      <trkpt lat="45.68249" lon="6.54981">
        <ele>1490.6</ele>
        <time>2018-10-26T10:38:50Z</time>
      </trkpt>
      <trkpt lat="45.68244" lon="6.5497">
        <ele>1491.3</ele>
        <time>2018-10-26T10:38:55Z</time>
      </trkpt>
      <trkpt lat="45.68238" lon="6.54957">
        <ele>1492.3</ele>
        <time>2018-10-26T10:39:01Z</time>
      </trkpt>
      <trkpt lat="45.68234" lon="6.54944">
        <ele>1493.2</ele>
        <time>2018-10-26T10:39:07Z</time>
      </trkpt>
      <trkpt lat="45.68235" lon="6.5493">
        <ele>1494.9</ele>
        <time>2018-10-26T10:39:16Z</time>
      </trkpt>
      <trkpt lat="45.68236" lon="6.54914">
        <ele>1496</ele>
        <time>2018-10-26T10:39:22Z</time>
      </trkpt>
      <trkpt lat="45.68236" lon="6.549">
        <ele>1496.7</ele>
        <time>2018-10-26T10:39:26Z</time>
      </trkpt>
      <trkpt lat="45.68234" lon="6.54886">
        <ele>1497.7</ele>
        <time>2018-10-26T10:39:31Z</time>
      </trkpt>
      <trkpt lat="45.68232" lon="6.54871">
        <ele>1498.9</ele>
        <time>2018-10-26T10:39:37Z</time>
      </trkpt>
      <trkpt lat="45.68233" lon="6.54856">
        <ele>1500.2</ele>
        <time>2018-10-26T10:39:43Z</time>
      </trkpt>
      <trkpt lat="45.68232" lon="6.54841">
        <ele>1501.5</ele>
        <time>2018-10-26T10:39:49Z</time>
      </trkpt>
      <trkpt lat="45.68226" lon="6.54829">
        <ele>1502.3</ele>
        <time>2018-10-26T10:39:56Z</time>
      </trkpt>
      <trkpt lat="45.68219" lon="6.54817">
        <ele>1503.7</ele>
        <time>2018-10-26T10:40:03Z</time>
      </trkpt>
      <trkpt lat="45.68214" lon="6.54804">
        <ele>1505</ele>
        <time>2018-10-26T10:40:09Z</time>
      </trkpt>
      <trkpt lat="45.68208" lon="6.54793">
        <ele>1505.8</ele>
        <time>2018-10-26T10:40:15Z</time>
      </trkpt>
      <trkpt lat="45.68203" lon="6.5478">
        <ele>1506.6</ele>
        <time>2018-10-26T10:40:21Z</time>
      </trkpt>
      <trkpt lat="45.68198" lon="6.54769">
        <ele>1507.2</ele>
        <time>2018-10-26T10:40:26Z</time>
      </trkpt>
      <trkpt lat="45.68194" lon="6.54755">
        <ele>1507.9</ele>
        <time>2018-10-26T10:40:32Z</time>
      </trkpt>
      <trkpt lat="45.68191" lon="6.54743">
        <ele>1508.7</ele>
        <time>2018-10-26T10:40:37Z</time>
      </trkpt>
      <trkpt lat="45.68192" lon="6.54728">
        <ele>1509.5</ele>
        <time>2018-10-26T10:40:43Z</time>
      </trkpt>
      <trkpt lat="45.68192" lon="6.54714">
        <ele>1510.2</ele>
        <time>2018-10-26T10:40:48Z</time>
      </trkpt>
      <trkpt lat="45.68188" lon="6.547">
        <ele>1510.8</ele>
        <time>2018-10-26T10:40:53Z</time>
      </trkpt>
      <trkpt lat="45.68184" lon="6.54688">
        <ele>1511.1</ele>
        <time>2018-10-26T10:40:58Z</time>
      </trkpt>
      <trkpt lat="45.68179" lon="6.54675">
        <ele>1511.5</ele>
        <time>2018-10-26T10:41:03Z</time>
      </trkpt>
      <trkpt lat="45.68174" lon="6.54663">
        <ele>1512.3</ele>
        <time>2018-10-26T10:41:08Z</time>
      </trkpt>
      <trkpt lat="45.68169" lon="6.54652">
        <ele>1512.8</ele>
        <time>2018-10-26T10:41:13Z</time>
      </trkpt>
      <trkpt lat="45.68164" lon="6.54639">
        <ele>1513.4</ele>
        <time>2018-10-26T10:41:18Z</time>
      </trkpt>
      <trkpt lat="45.68162" lon="6.54624">
        <ele>1514.1</ele>
        <time>2018-10-26T10:41:23Z</time>
      </trkpt>
      <trkpt lat="45.68165" lon="6.5461">
        <ele>1514.8</ele>
        <time>2018-10-26T10:41:28Z</time>
      </trkpt>
      <trkpt lat="45.68172" lon="6.54599">
        <ele>1515.6</ele>
        <time>2018-10-26T10:41:33Z</time>
      </trkpt>
      <trkpt lat="45.68181" lon="6.54593">
        <ele>1516.5</ele>
        <time>2018-10-26T10:41:39Z</time>
      </trkpt>
      <trkpt lat="45.68188" lon="6.54584">
        <ele>1517.5</ele>
        <time>2018-10-26T10:41:44Z</time>
      </trkpt>
      <trkpt lat="45.68195" lon="6.54572">
        <ele>1518.1</ele>
        <time>2018-10-26T10:41:50Z</time>
      </trkpt>
      <trkpt lat="45.682" lon="6.54562">
        <ele>1519.2</ele>
        <time>2018-10-26T10:41:56Z</time>
      </trkpt>
      <trkpt lat="45.68204" lon="6.5455">
        <ele>1520</ele>
        <time>2018-10-26T10:42:01Z</time>
      </trkpt>
      <trkpt lat="45.68208" lon="6.54537">
        <ele>1520.9</ele>
        <time>2018-10-26T10:42:07Z</time>
      </trkpt>
      <trkpt lat="45.68209" lon="6.54522">
        <ele>1522.5</ele>
        <time>2018-10-26T10:42:13Z</time>
      </trkpt>
      <trkpt lat="45.68215" lon="6.54511">
        <ele>1523.6</ele>
        <time>2018-10-26T10:42:18Z</time>
      </trkpt>
      <trkpt lat="45.68218" lon="6.54498">
        <ele>1524.4</ele>
        <time>2018-10-26T10:42:24Z</time>
      </trkpt>
      <trkpt lat="45.6822" lon="6.54484">
        <ele>1525.7</ele>
        <time>2018-10-26T10:42:30Z</time>
      </trkpt>
      <trkpt lat="45.68223" lon="6.5447">
        <ele>1526.8</ele>
        <time>2018-10-26T10:42:36Z</time>
      </trkpt>
      <trkpt lat="45.68229" lon="6.54459">
        <ele>1527.9</ele>
        <time>2018-10-26T10:42:42Z</time>
      </trkpt>
      <trkpt lat="45.68233" lon="6.54446">
        <ele>1529.2</ele>
        <time>2018-10-26T10:42:48Z</time>
      </trkpt>
      <trkpt lat="45.68236" lon="6.54431">
        <ele>1530.3</ele>
        <time>2018-10-26T10:42:54Z</time>
      </trkpt>
      <trkpt lat="45.68237" lon="6.54418">
        <ele>1530.9</ele>
        <time>2018-10-26T10:43:00Z</time>
      </trkpt>
      <trkpt lat="45.68235" lon="6.54403">
        <ele>1531.8</ele>
        <time>2018-10-26T10:43:06Z</time>
      </trkpt>
      <trkpt lat="45.68233" lon="6.5439">
        <ele>1532.8</ele>
        <time>2018-10-26T10:43:12Z</time>
      </trkpt>
      <trkpt lat="45.68234" lon="6.54375">
        <ele>1533.8</ele>
        <time>2018-10-26T10:43:18Z</time>
      </trkpt>
      <trkpt lat="45.68236" lon="6.5436">
        <ele>1535</ele>
        <time>2018-10-26T10:43:24Z</time>
      </trkpt>
      <trkpt lat="45.68239" lon="6.54347">
        <ele>1535.9</ele>
        <time>2018-10-26T10:43:29Z</time>
      </trkpt>
      <trkpt lat="45.68243" lon="6.54333">
        <ele>1536.7</ele>
        <time>2018-10-26T10:43:35Z</time>
      </trkpt>
      <trkpt lat="45.68245" lon="6.54319">
        <ele>1537.7</ele>
        <time>2018-10-26T10:43:41Z</time>
      </trkpt>
      <trkpt lat="45.68247" lon="6.54304">
        <ele>1538.3</ele>
        <time>2018-10-26T10:43:47Z</time>
      </trkpt>
      <trkpt lat="45.68248" lon="6.5429">
        <ele>1539</ele>
        <time>2018-10-26T10:43:52Z</time>
      </trkpt>
      <trkpt lat="45.68248" lon="6.54276">
        <ele>1539.5</ele>
        <time>2018-10-26T10:43:57Z</time>
      </trkpt>
      <trkpt lat="45.68248" lon="6.54263">
        <ele>1540.5</ele>
        <time>2018-10-26T10:44:02Z</time>
      </trkpt>
      <trkpt lat="45.68249" lon="6.54247">
        <ele>1540.8</ele>
        <time>2018-10-26T10:44:07Z</time>
      </trkpt>
      <trkpt lat="45.68251" lon="6.54233">
        <ele>1541.4</ele>
        <time>2018-10-26T10:44:12Z</time>
      </trkpt>
      <trkpt lat="45.68251" lon="6.54218">
        <ele>1542</ele>
        <time>2018-10-26T10:44:17Z</time>
      </trkpt>
      <trkpt lat="45.6825" lon="6.54202">
        <ele>1542.7</ele>
        <time>2018-10-26T10:44:22Z</time>
      </trkpt>
      <trkpt lat="45.68252" lon="6.54188">
        <ele>1543.4</ele>
        <time>2018-10-26T10:44:26Z</time>
      </trkpt>
      <trkpt lat="45.68255" lon="6.54175">
        <ele>1544.2</ele>
        <time>2018-10-26T10:44:30Z</time>
      </trkpt>
      <trkpt lat="45.68257" lon="6.54162">
        <ele>1545.3</ele>
        <time>2018-10-26T10:44:34Z</time>
      </trkpt>
      <trkpt lat="45.68258" lon="6.54148">
        <ele>1545.4</ele>
        <time>2018-10-26T10:44:38Z</time>
      </trkpt>
      <trkpt lat="45.68258" lon="6.54134">
        <ele>1546.4</ele>
        <time>2018-10-26T10:44:42Z</time>
      </trkpt>
      <trkpt lat="45.6826" lon="6.54121">
        <ele>1547.3</ele>
        <time>2018-10-26T10:44:46Z</time>
      </trkpt>
      <trkpt lat="45.68262" lon="6.54107">
        <ele>1548.5</ele>
        <time>2018-10-26T10:44:50Z</time>
      </trkpt>
      <trkpt lat="45.68265" lon="6.54094">
        <ele>1549.2</ele>
        <time>2018-10-26T10:44:54Z</time>
      </trkpt>
      <trkpt lat="45.68267" lon="6.54081">
        <ele>1549.9</ele>
        <time>2018-10-26T10:44:58Z</time>
      </trkpt>
      <trkpt lat="45.6827" lon="6.54069">
        <ele>1550.7</ele>
        <time>2018-10-26T10:45:02Z</time>
      </trkpt>
      <trkpt lat="45.68274" lon="6.54054">
        <ele>1551.6</ele>
        <time>2018-10-26T10:45:07Z</time>
      </trkpt>
      <trkpt lat="45.68281" lon="6.54042">
        <ele>1552.5</ele>
        <time>2018-10-26T10:45:12Z</time>
      </trkpt>
      <trkpt lat="45.68284" lon="6.54029">
        <ele>1553.2</ele>
        <time>2018-10-26T10:45:16Z</time>
      </trkpt>
      <trkpt lat="45.68289" lon="6.54018">
        <ele>1553.6</ele>
        <time>2018-10-26T10:45:20Z</time>
      </trkpt>
      <trkpt lat="45.68299" lon="6.54014">
        <ele>1554.3</ele>
        <time>2018-10-26T10:45:25Z</time>
      </trkpt>
      <trkpt lat="45.68309" lon="6.54012">
        <ele>1554.8</ele>
        <time>2018-10-26T10:45:30Z</time>
      </trkpt>
      <trkpt lat="45.68319" lon="6.54012">
        <ele>1555.4</ele>
        <time>2018-10-26T10:45:35Z</time>
      </trkpt>
      <trkpt lat="45.68329" lon="6.54012">
        <ele>1556.2</ele>
        <time>2018-10-26T10:45:40Z</time>
      </trkpt>
      <trkpt lat="45.68338" lon="6.54013">
        <ele>1557.1</ele>
        <time>2018-10-26T10:45:45Z</time>
      </trkpt>
      <trkpt lat="45.68347" lon="6.54017">
        <ele>1558</ele>
        <time>2018-10-26T10:45:50Z</time>
      </trkpt>
      <trkpt lat="45.68356" lon="6.54022">
        <ele>1559</ele>
        <time>2018-10-26T10:45:55Z</time>
      </trkpt>
      <trkpt lat="45.68365" lon="6.54025">
        <ele>1559.4</ele>
        <time>2018-10-26T10:46:00Z</time>
      </trkpt>
      <trkpt lat="45.68374" lon="6.54031">
        <ele>1560.3</ele>
        <time>2018-10-26T10:46:06Z</time>
      </trkpt>
      <trkpt lat="45.68384" lon="6.5403">
        <ele>1560.7</ele>
        <time>2018-10-26T10:46:11Z</time>
      </trkpt>
      <trkpt lat="45.68393" lon="6.54024">
        <ele>1561.7</ele>
        <time>2018-10-26T10:46:16Z</time>
      </trkpt>
      <trkpt lat="45.68402" lon="6.54021">
        <ele>1562.4</ele>
        <time>2018-10-26T10:46:21Z</time>
      </trkpt>
      <trkpt lat="45.68411" lon="6.54018">
        <ele>1563.6</ele>
        <time>2018-10-26T10:46:26Z</time>
      </trkpt>
      <trkpt lat="45.6842" lon="6.54019">
        <ele>1564.1</ele>
        <time>2018-10-26T10:46:32Z</time>
      </trkpt>
      <trkpt lat="45.6843" lon="6.54018">
        <ele>1565.1</ele>
        <time>2018-10-26T10:46:37Z</time>
      </trkpt>
      <trkpt lat="45.6844" lon="6.54019">
        <ele>1565.6</ele>
        <time>2018-10-26T10:46:42Z</time>
      </trkpt>
      <trkpt lat="45.6845" lon="6.5402">
        <ele>1566.4</ele>
        <time>2018-10-26T10:46:48Z</time>
      </trkpt>
      <trkpt lat="45.6846" lon="6.54018">
        <ele>1566.9</ele>
        <time>2018-10-26T10:46:53Z</time>
      </trkpt>
      <trkpt lat="45.68471" lon="6.54015">
        <ele>1567.6</ele>
        <time>2018-10-26T10:46:58Z</time>
      </trkpt>
      <trkpt lat="45.6848" lon="6.54007">
        <ele>1568.4</ele>
        <time>2018-10-26T10:47:03Z</time>
      </trkpt>
      <trkpt lat="45.68489" lon="6.54">
        <ele>1568.6</ele>
        <time>2018-10-26T10:47:08Z</time>
      </trkpt>
      <trkpt lat="45.68498" lon="6.53992">
        <ele>1570</ele>
        <time>2018-10-26T10:47:14Z</time>
      </trkpt>
      <trkpt lat="45.68507" lon="6.53986">
        <ele>1570.9</ele>
        <time>2018-10-26T10:47:20Z</time>
      </trkpt>
      <trkpt lat="45.68498" lon="6.53984">
        <ele>1572</ele>
        <time>2018-10-26T10:47:29Z</time>
      </trkpt>
      <trkpt lat="45.6849" lon="6.5399">
        <ele>1572.4</ele>
        <time>2018-10-26T10:47:34Z</time>
      </trkpt>
      <trkpt lat="45.6848" lon="6.53993">
        <ele>1573.9</ele>
        <time>2018-10-26T10:47:41Z</time>
      </trkpt>
      <trkpt lat="45.68469" lon="6.53994">
        <ele>1574.7</ele>
        <time>2018-10-26T10:47:47Z</time>
      </trkpt>
      <trkpt lat="45.6846" lon="6.53993">
        <ele>1575.8</ele>
        <time>2018-10-26T10:47:52Z</time>
      </trkpt>
      <trkpt lat="45.6845" lon="6.53991">
        <ele>1576.5</ele>
        <time>2018-10-26T10:47:58Z</time>
      </trkpt>
      <trkpt lat="45.68441" lon="6.53987">
        <ele>1577.2</ele>
        <time>2018-10-26T10:48:03Z</time>
      </trkpt>
      <trkpt lat="45.68431" lon="6.53985">
        <ele>1578.2</ele>
        <time>2018-10-26T10:48:08Z</time>
      </trkpt>
      <trkpt lat="45.68421" lon="6.53984">
        <ele>1579.2</ele>
        <time>2018-10-26T10:48:13Z</time>
      </trkpt>
      <trkpt lat="45.68411" lon="6.53985">
        <ele>1580.4</ele>
        <time>2018-10-26T10:48:19Z</time>
      </trkpt>
      <trkpt lat="45.68401" lon="6.53984">
        <ele>1581.9</ele>
        <time>2018-10-26T10:48:25Z</time>
      </trkpt>
      <trkpt lat="45.68391" lon="6.53979">
        <ele>1583.1</ele>
        <time>2018-10-26T10:48:31Z</time>
      </trkpt>
      <trkpt lat="45.68383" lon="6.53971">
        <ele>1584.3</ele>
        <time>2018-10-26T10:48:37Z</time>
      </trkpt>
      <trkpt lat="45.68373" lon="6.53968">
        <ele>1585</ele>
        <time>2018-10-26T10:48:43Z</time>
      </trkpt>
      <trkpt lat="45.68365" lon="6.53963">
        <ele>1587.1</ele>
        <time>2018-10-26T10:48:49Z</time>
      </trkpt>
      <trkpt lat="45.68356" lon="6.53957">
        <ele>1587.4</ele>
        <time>2018-10-26T10:48:55Z</time>
      </trkpt>
      <trkpt lat="45.68345" lon="6.53955">
        <ele>1588.3</ele>
        <time>2018-10-26T10:49:01Z</time>
      </trkpt>
      <trkpt lat="45.68335" lon="6.53954">
        <ele>1589.3</ele>
        <time>2018-10-26T10:49:07Z</time>
      </trkpt>
      <trkpt lat="45.68326" lon="6.53949">
        <ele>1590.3</ele>
        <time>2018-10-26T10:49:13Z</time>
      </trkpt>
      <trkpt lat="45.68318" lon="6.5394">
        <ele>1591.7</ele>
        <time>2018-10-26T10:49:19Z</time>
      </trkpt>
      <trkpt lat="45.6831" lon="6.5393">
        <ele>1592.9</ele>
        <time>2018-10-26T10:49:25Z</time>
      </trkpt>
      <trkpt lat="45.68303" lon="6.53922">
        <ele>1593.5</ele>
        <time>2018-10-26T10:49:30Z</time>
      </trkpt>
      <trkpt lat="45.68294" lon="6.53915">
        <ele>1594.3</ele>
        <time>2018-10-26T10:49:36Z</time>
      </trkpt>
      <trkpt lat="45.68284" lon="6.53912">
        <ele>1595.2</ele>
        <time>2018-10-26T10:49:42Z</time>
      </trkpt>
      <trkpt lat="45.68275" lon="6.53911">
        <ele>1596.9</ele>
        <time>2018-10-26T10:49:49Z</time>
      </trkpt>
      <trkpt lat="45.68268" lon="6.53902">
        <ele>1598.3</ele>
        <time>2018-10-26T10:49:56Z</time>
      </trkpt>
      <trkpt lat="45.68266" lon="6.53889">
        <ele>1599.2</ele>
        <time>2018-10-26T10:53:38Z</time>
      </trkpt>
      <trkpt lat="45.6826" lon="6.53878">
        <ele>1601</ele>
        <time>2018-10-26T10:53:45Z</time>
      </trkpt>
      <trkpt lat="45.68252" lon="6.53872">
        <ele>1603.4</ele>
        <time>2018-10-26T10:53:52Z</time>
      </trkpt>
      <trkpt lat="45.68245" lon="6.53862">
        <ele>1605.3</ele>
        <time>2018-10-26T10:53:59Z</time>
      </trkpt>
      <trkpt lat="45.68237" lon="6.53855">
        <ele>1607.1</ele>
        <time>2018-10-26T10:54:07Z</time>
      </trkpt>
      <trkpt lat="45.68228" lon="6.53851">
        <ele>1609.3</ele>
        <time>2018-10-26T10:54:16Z</time>
      </trkpt>
      <trkpt lat="45.6822" lon="6.53844">
        <ele>1611.7</ele>
        <time>2018-10-26T10:54:26Z</time>
      </trkpt>
      <trkpt lat="45.68211" lon="6.53837">
        <ele>1613.7</ele>
        <time>2018-10-26T10:54:34Z</time>
      </trkpt>
      <trkpt lat="45.68205" lon="6.53828">
        <ele>1615.9</ele>
        <time>2018-10-26T10:54:42Z</time>
      </trkpt>
      <trkpt lat="45.68201" lon="6.53816">
        <ele>1617.3</ele>
        <time>2018-10-26T10:54:48Z</time>
      </trkpt>
      <trkpt lat="45.68197" lon="6.53802">
        <ele>1620.1</ele>
        <time>2018-10-26T10:54:57Z</time>
      </trkpt>
      <trkpt lat="45.68195" lon="6.5379">
        <ele>1622</ele>
        <time>2018-10-26T10:55:06Z</time>
      </trkpt>
      <trkpt lat="45.68192" lon="6.53777">
        <ele>1624.4</ele>
        <time>2018-10-26T10:55:15Z</time>
      </trkpt>
      <trkpt lat="45.68188" lon="6.53764">
        <ele>1626.9</ele>
        <time>2018-10-26T10:55:24Z</time>
      </trkpt>
      <trkpt lat="45.68182" lon="6.53754">
        <ele>1629.3</ele>
        <time>2018-10-26T10:55:34Z</time>
      </trkpt>
      <trkpt lat="45.68177" lon="6.53742">
        <ele>1631.7</ele>
        <time>2018-10-26T10:55:44Z</time>
      </trkpt>
      <trkpt lat="45.6817" lon="6.53732">
        <ele>1634.3</ele>
        <time>2018-10-26T10:55:55Z</time>
      </trkpt>
      <trkpt lat="45.68166" lon="6.53719">
        <ele>1636.1</ele>
        <time>2018-10-26T10:56:03Z</time>
      </trkpt>
      <trkpt lat="45.68165" lon="6.53706">
        <ele>1637.8</ele>
        <time>2018-10-26T10:56:10Z</time>
      </trkpt>
      <trkpt lat="45.6816" lon="6.53694">
        <ele>1639.9</ele>
        <time>2018-10-26T10:56:20Z</time>
      </trkpt>
      <trkpt lat="45.68159" lon="6.5368">
        <ele>1641.5</ele>
        <time>2018-10-26T10:56:29Z</time>
      </trkpt>
      <trkpt lat="45.68157" lon="6.53667">
        <ele>1643</ele>
        <time>2018-10-26T10:56:37Z</time>
      </trkpt>
      <trkpt lat="45.68154" lon="6.53654">
        <ele>1645.1</ele>
        <time>2018-10-26T10:56:46Z</time>
      </trkpt>
      <trkpt lat="45.68152" lon="6.53641">
        <ele>1647.2</ele>
        <time>2018-10-26T10:56:55Z</time>
      </trkpt>
      <trkpt lat="45.6815" lon="6.53628">
        <ele>1648.5</ele>
        <time>2018-10-26T10:57:03Z</time>
      </trkpt>
      <trkpt lat="45.68144" lon="6.53617">
        <ele>1650.3</ele>
        <time>2018-10-26T10:57:13Z</time>
      </trkpt>
      <trkpt lat="45.68136" lon="6.53608">
        <ele>1653.1</ele>
        <time>2018-10-26T10:57:22Z</time>
      </trkpt>
      <trkpt lat="45.68131" lon="6.53597">
        <ele>1654.5</ele>
        <time>2018-10-26T10:57:29Z</time>
      </trkpt>
      <trkpt lat="45.68128" lon="6.53585">
        <ele>1656.3</ele>
        <time>2018-10-26T10:57:38Z</time>
      </trkpt>
      <trkpt lat="45.68122" lon="6.53574">
        <ele>1657.4</ele>
        <time>2018-10-26T10:57:46Z</time>
      </trkpt>
      <trkpt lat="45.68116" lon="6.53562">
        <ele>1658.4</ele>
        <time>2018-10-26T10:57:54Z</time>
      </trkpt>
      <trkpt lat="45.68111" lon="6.5355">
        <ele>1660.4</ele>
        <time>2018-10-26T10:58:03Z</time>
      </trkpt>
      <trkpt lat="45.68105" lon="6.5354">
        <ele>1662.2</ele>
        <time>2018-10-26T10:58:11Z</time>
      </trkpt>
      <trkpt lat="45.68099" lon="6.53528">
        <ele>1664.1</ele>
        <time>2018-10-26T10:58:19Z</time>
      </trkpt>
      <trkpt lat="45.68098" lon="6.53515">
        <ele>1665.6</ele>
        <time>2018-10-26T10:58:26Z</time>
      </trkpt>
      <trkpt lat="45.68101" lon="6.53502">
        <ele>1666.8</ele>
        <time>2018-10-26T10:58:32Z</time>
      </trkpt>
      <trkpt lat="45.68105" lon="6.53489">
        <ele>1668.5</ele>
        <time>2018-10-26T10:58:40Z</time>
      </trkpt>
      <trkpt lat="45.6811" lon="6.53477">
        <ele>1669.6</ele>
        <time>2018-10-26T10:58:47Z</time>
      </trkpt>
      <trkpt lat="45.68115" lon="6.53467">
        <ele>1671.5</ele>
        <time>2018-10-26T10:58:56Z</time>
      </trkpt>
      <trkpt lat="45.68119" lon="6.53454">
        <ele>1672.9</ele>
        <time>2018-10-26T10:59:04Z</time>
      </trkpt>
      <trkpt lat="45.68119" lon="6.53441">
        <ele>1674.1</ele>
        <time>2018-10-26T10:59:11Z</time>
      </trkpt>
      <trkpt lat="45.68121" lon="6.53427">
        <ele>1675.3</ele>
        <time>2018-10-26T10:59:17Z</time>
      </trkpt>
      <trkpt lat="45.68125" lon="6.53415">
        <ele>1676.8</ele>
        <time>2018-10-26T10:59:25Z</time>
      </trkpt>
      <trkpt lat="45.6813" lon="6.534">
        <ele>1678</ele>
        <time>2018-10-26T10:59:32Z</time>
      </trkpt>
      <trkpt lat="45.6813" lon="6.53387">
        <ele>1679.1</ele>
        <time>2018-10-26T10:59:38Z</time>
      </trkpt>
      <trkpt lat="45.68129" lon="6.53374">
        <ele>1680.7</ele>
        <time>2018-10-26T10:59:45Z</time>
      </trkpt>
      <trkpt lat="45.68126" lon="6.53361">
        <ele>1682.5</ele>
        <time>2018-10-26T10:59:51Z</time>
      </trkpt>
      <trkpt lat="45.68124" lon="6.53348">
        <ele>1684.3</ele>
        <time>2018-10-26T10:59:59Z</time>
      </trkpt>
      <trkpt lat="45.68123" lon="6.53334">
        <ele>1686.4</ele>
        <time>2018-10-26T11:00:07Z</time>
      </trkpt>
      <trkpt lat="45.68126" lon="6.5332">
        <ele>1689.1</ele>
        <time>2018-10-26T11:00:17Z</time>
      </trkpt>
      <trkpt lat="45.68128" lon="6.53307">
        <ele>1690.3</ele>
        <time>2018-10-26T11:00:26Z</time>
      </trkpt>
      <trkpt lat="45.6813" lon="6.53293">
        <ele>1691.9</ele>
        <time>2018-10-26T11:00:36Z</time>
      </trkpt>
      <trkpt lat="45.6813" lon="6.53279">
        <ele>1693</ele>
        <time>2018-10-26T11:00:43Z</time>
      </trkpt>
      <trkpt lat="45.68129" lon="6.53265">
        <ele>1694.2</ele>
        <time>2018-10-26T11:00:50Z</time>
      </trkpt>
      <trkpt lat="45.68129" lon="6.53251">
        <ele>1695.4</ele>
        <time>2018-10-26T11:00:58Z</time>
      </trkpt>
      <trkpt lat="45.68131" lon="6.53236">
        <ele>1696.9</ele>
        <time>2018-10-26T11:01:06Z</time>
      </trkpt>
      <trkpt lat="45.68131" lon="6.53222">
        <ele>1698.4</ele>
        <time>2018-10-26T11:01:13Z</time>
      </trkpt>
      <trkpt lat="45.68132" lon="6.53209">
        <ele>1700.4</ele>
        <time>2018-10-26T11:01:21Z</time>
      </trkpt>
      <trkpt lat="45.68132" lon="6.53196">
        <ele>1702.6</ele>
        <time>2018-10-26T11:01:28Z</time>
      </trkpt>
      <trkpt lat="45.68132" lon="6.53181">
        <ele>1704.3</ele>
        <time>2018-10-26T11:01:35Z</time>
      </trkpt>
      <trkpt lat="45.68133" lon="6.53168">
        <ele>1705.8</ele>
        <time>2018-10-26T11:01:42Z</time>
      </trkpt>
      <trkpt lat="45.68134" lon="6.53153">
        <ele>1707.2</ele>
        <time>2018-10-26T11:01:50Z</time>
      </trkpt>
      <trkpt lat="45.68136" lon="6.5314">
        <ele>1708.8</ele>
        <time>2018-10-26T11:01:58Z</time>
      </trkpt>
      <trkpt lat="45.68141" lon="6.53129">
        <ele>1710.3</ele>
        <time>2018-10-26T11:02:08Z</time>
      </trkpt>
      <trkpt lat="45.6815" lon="6.53123">
        <ele>1711.6</ele>
        <time>2018-10-26T11:02:16Z</time>
      </trkpt>
      <trkpt lat="45.68159" lon="6.53125">
        <ele>1713.3</ele>
        <time>2018-10-26T11:02:25Z</time>
      </trkpt>
      <trkpt lat="45.68166" lon="6.53134">
        <ele>1715.3</ele>
        <time>2018-10-26T11:02:34Z</time>
      </trkpt>
      <trkpt lat="45.68171" lon="6.53145">
        <ele>1717</ele>
        <time>2018-10-26T11:02:42Z</time>
      </trkpt>
      <trkpt lat="45.68174" lon="6.53159">
        <ele>1718.3</ele>
        <time>2018-10-26T11:02:48Z</time>
      </trkpt>
      <trkpt lat="45.68177" lon="6.53172">
        <ele>1720.3</ele>
        <time>2018-10-26T11:02:56Z</time>
      </trkpt>
      <trkpt lat="45.68179" lon="6.53186">
        <ele>1721.8</ele>
        <time>2018-10-26T11:03:02Z</time>
      </trkpt>
      <trkpt lat="45.6818" lon="6.532">
        <ele>1723.5</ele>
        <time>2018-10-26T11:03:08Z</time>
      </trkpt>
      <trkpt lat="45.68182" lon="6.53213">
        <ele>1726.3</ele>
        <time>2018-10-26T11:03:17Z</time>
      </trkpt>
      <trkpt lat="45.68184" lon="6.53226">
        <ele>1728.3</ele>
        <time>2018-10-26T11:03:25Z</time>
      </trkpt>
      <trkpt lat="45.68185" lon="6.5324">
        <ele>1729.8</ele>
        <time>2018-10-26T11:03:34Z</time>
      </trkpt>
      <trkpt lat="45.68188" lon="6.53253">
        <ele>1731.1</ele>
        <time>2018-10-26T11:03:43Z</time>
      </trkpt>
      <trkpt lat="45.68188" lon="6.53267">
        <ele>1732.8</ele>
        <time>2018-10-26T11:03:53Z</time>
      </trkpt>
      <trkpt lat="45.68189" lon="6.53281">
        <ele>1734.6</ele>
        <time>2018-10-26T11:04:04Z</time>
      </trkpt>
      <trkpt lat="45.68192" lon="6.53293">
        <ele>1735.8</ele>
        <time>2018-10-26T11:04:13Z</time>
      </trkpt>
      <trkpt lat="45.68199" lon="6.53304">
        <ele>1736.6</ele>
        <time>2018-10-26T11:04:21Z</time>
      </trkpt>
      <trkpt lat="45.68208" lon="6.53311">
        <ele>1737.8</ele>
        <time>2018-10-26T11:04:30Z</time>
      </trkpt>
      <trkpt lat="45.68217" lon="6.53315">
        <ele>1739.5</ele>
        <time>2018-10-26T11:04:40Z</time>
      </trkpt>
      <trkpt lat="45.68227" lon="6.53313">
        <ele>1741.1</ele>
        <time>2018-10-26T11:04:47Z</time>
      </trkpt>
      <trkpt lat="45.68236" lon="6.53316">
        <ele>1743.9</ele>
        <time>2018-10-26T11:05:11Z</time>
      </trkpt>
      <trkpt lat="45.68244" lon="6.53326">
        <ele>1745.9</ele>
        <time>2018-10-26T11:05:20Z</time>
      </trkpt>
      <trkpt lat="45.68246" lon="6.5334">
        <ele>1747.4</ele>
        <time>2018-10-26T11:05:27Z</time>
      </trkpt>
      <trkpt lat="45.68243" lon="6.53354">
        <ele>1750.2</ele>
        <time>2018-10-26T11:05:34Z</time>
      </trkpt>
      <trkpt lat="45.68245" lon="6.53368">
        <ele>1752.3</ele>
        <time>2018-10-26T11:05:41Z</time>
      </trkpt>
      <trkpt lat="45.68244" lon="6.53382">
        <ele>1753.3</ele>
        <time>2018-10-26T11:05:49Z</time>
      </trkpt>
      <trkpt lat="45.68245" lon="6.53395">
        <ele>1753.7</ele>
        <time>2018-10-26T11:05:55Z</time>
      </trkpt>
      <trkpt lat="45.68252" lon="6.53404">
        <ele>1754.9</ele>
        <time>2018-10-26T11:06:02Z</time>
      </trkpt>
      <trkpt lat="45.68261" lon="6.53407">
        <ele>1755.4</ele>
        <time>2018-10-26T11:06:09Z</time>
      </trkpt>
      <trkpt lat="45.68267" lon="6.53397">
        <ele>1756.9</ele>
        <time>2018-10-26T11:06:18Z</time>
      </trkpt>
      <trkpt lat="45.68269" lon="6.53384">
        <ele>1758.6</ele>
        <time>2018-10-26T11:06:26Z</time>
      </trkpt>
      <trkpt lat="45.68272" lon="6.53371">
        <ele>1759.8</ele>
        <time>2018-10-26T11:06:36Z</time>
      </trkpt>
      <trkpt lat="45.68281" lon="6.53374">
        <ele>1762</ele>
        <time>2018-10-26T11:06:47Z</time>
      </trkpt>
      <trkpt lat="45.68287" lon="6.53384">
        <ele>1765.1</ele>
        <time>2018-10-26T11:06:58Z</time>
      </trkpt>
      <trkpt lat="45.68296" lon="6.5339">
        <ele>1766.6</ele>
        <time>2018-10-26T11:07:08Z</time>
      </trkpt>
      <trkpt lat="45.68305" lon="6.53391">
        <ele>1768.3</ele>
        <time>2018-10-26T11:07:17Z</time>
      </trkpt>
      <trkpt lat="45.68307" lon="6.53378">
        <ele>1771</ele>
        <time>2018-10-26T11:07:28Z</time>
      </trkpt>
      <trkpt lat="45.68303" lon="6.53365">
        <ele>1773.3</ele>
        <time>2018-10-26T11:07:38Z</time>
      </trkpt>
      <trkpt lat="45.68304" lon="6.53352">
        <ele>1774.5</ele>
        <time>2018-10-26T11:07:54Z</time>
      </trkpt>
      <trkpt lat="45.68303" lon="6.53339">
        <ele>1776.3</ele>
        <time>2018-10-26T11:08:07Z</time>
      </trkpt>
      <trkpt lat="45.68306" lon="6.53326">
        <ele>1777.5</ele>
        <time>2018-10-26T11:08:16Z</time>
      </trkpt>
      <trkpt lat="45.68306" lon="6.53312">
        <ele>1779.9</ele>
        <time>2018-10-26T11:08:29Z</time>
      </trkpt>
      <trkpt lat="45.68306" lon="6.53299">
        <ele>1782.1</ele>
        <time>2018-10-26T11:08:41Z</time>
      </trkpt>
      <trkpt lat="45.6831" lon="6.53285">
        <ele>1784.3</ele>
        <time>2018-10-26T11:08:57Z</time>
      </trkpt>
      <trkpt lat="45.68312" lon="6.53271">
        <ele>1785.3</ele>
        <time>2018-10-26T11:09:03Z</time>
      </trkpt>
      <trkpt lat="45.68313" lon="6.53257">
        <ele>1787.3</ele>
        <time>2018-10-26T11:09:12Z</time>
      </trkpt>
      <trkpt lat="45.68315" lon="6.53243">
        <ele>1789.7</ele>
        <time>2018-10-26T11:09:20Z</time>
      </trkpt>
      <trkpt lat="45.68315" lon="6.5323">
        <ele>1791.4</ele>
        <time>2018-10-26T11:09:29Z</time>
      </trkpt>
      <trkpt lat="45.68316" lon="6.53216">
        <ele>1794.1</ele>
        <time>2018-10-26T11:09:46Z</time>
      </trkpt>
      <trkpt lat="45.68316" lon="6.53203">
        <ele>1795.8</ele>
        <time>2018-10-26T11:09:58Z</time>
      </trkpt>
      <trkpt lat="45.6832" lon="6.53189">
        <ele>1798.3</ele>
        <time>2018-10-26T11:10:12Z</time>
      </trkpt>
      <trkpt lat="45.68323" lon="6.53176">
        <ele>1800.7</ele>
        <time>2018-10-26T11:10:25Z</time>
      </trkpt>
      <trkpt lat="45.68324" lon="6.53162">
        <ele>1802.1</ele>
        <time>2018-10-26T11:10:34Z</time>
      </trkpt>
      <trkpt lat="45.68325" lon="6.53149">
        <ele>1803.7</ele>
        <time>2018-10-26T11:10:43Z</time>
      </trkpt>
      <trkpt lat="45.68327" lon="6.53137">
        <ele>1806.6</ele>
        <time>2018-10-26T11:10:57Z</time>
      </trkpt>
      <trkpt lat="45.6833" lon="6.53123">
        <ele>1809.1</ele>
        <time>2018-10-26T11:11:12Z</time>
      </trkpt>
      <trkpt lat="45.68327" lon="6.53109">
        <ele>1810.6</ele>
        <time>2018-10-26T11:11:20Z</time>
      </trkpt>
      <trkpt lat="45.68322" lon="6.53096">
        <ele>1813</ele>
        <time>2018-10-26T11:11:27Z</time>
      </trkpt>
      <trkpt lat="45.68319" lon="6.53081">
        <ele>1815.7</ele>
        <time>2018-10-26T11:11:35Z</time>
      </trkpt>
      <trkpt lat="45.6832" lon="6.53068">
        <ele>1818</ele>
        <time>2018-10-26T11:11:43Z</time>
      </trkpt>
      <trkpt lat="45.68319" lon="6.53054">
        <ele>1819.7</ele>
        <time>2018-10-26T11:11:52Z</time>
      </trkpt>
      <trkpt lat="45.68329" lon="6.53054">
        <ele>1822.8</ele>
        <time>2018-10-26T11:12:27Z</time>
      </trkpt>
      <trkpt lat="45.68337" lon="6.53061">
        <ele>1824.8</ele>
        <time>2018-10-26T11:12:39Z</time>
      </trkpt>
      <trkpt lat="45.68347" lon="6.53064">
        <ele>1826.9</ele>
        <time>2018-10-26T11:12:53Z</time>
      </trkpt>
      <trkpt lat="45.68356" lon="6.53066">
        <ele>1828.9</ele>
        <time>2018-10-26T11:13:05Z</time>
      </trkpt>
      <trkpt lat="45.68363" lon="6.53075">
        <ele>1831</ele>
        <time>2018-10-26T11:13:17Z</time>
      </trkpt>
      <trkpt lat="45.6837" lon="6.53083">
        <ele>1832.8</ele>
        <time>2018-10-26T11:13:27Z</time>
      </trkpt>
      <trkpt lat="45.6838" lon="6.53084">
        <ele>1834.6</ele>
        <time>2018-10-26T11:13:40Z</time>
      </trkpt>
      <trkpt lat="45.68389" lon="6.53082">
        <ele>1836.9</ele>
        <time>2018-10-26T11:13:57Z</time>
      </trkpt>
      <trkpt lat="45.68398" lon="6.53078">
        <ele>1838.7</ele>
        <time>2018-10-26T11:14:08Z</time>
      </trkpt>
      <trkpt lat="45.68407" lon="6.53072">
        <ele>1840.9</ele>
        <time>2018-10-26T11:14:19Z</time>
      </trkpt>
      <trkpt lat="45.68414" lon="6.53064">
        <ele>1842.4</ele>
        <time>2018-10-26T11:14:33Z</time>
      </trkpt>
      <trkpt lat="45.6842" lon="6.53055">
        <ele>1844.2</ele>
        <time>2018-10-26T11:14:43Z</time>
      </trkpt>
      <trkpt lat="45.68426" lon="6.53043">
        <ele>1846.6</ele>
        <time>2018-10-26T11:14:58Z</time>
      </trkpt>
      <trkpt lat="45.68432" lon="6.53032">
        <ele>1847.5</ele>
        <time>2018-10-26T11:15:04Z</time>
      </trkpt>
      <trkpt lat="45.68439" lon="6.53024">
        <ele>1848.8</ele>
        <time>2018-10-26T11:15:12Z</time>
      </trkpt>
      <trkpt lat="45.68446" lon="6.53014">
        <ele>1850.1</ele>
        <time>2018-10-26T11:15:20Z</time>
      </trkpt>
      <trkpt lat="45.68451" lon="6.53002">
        <ele>1851.6</ele>
        <time>2018-10-26T11:15:28Z</time>
      </trkpt>
      <trkpt lat="45.68455" lon="6.5299">
        <ele>1853.8</ele>
        <time>2018-10-26T11:15:36Z</time>
      </trkpt>
      <trkpt lat="45.68448" lon="6.5298">
        <ele>1857.1</ele>
        <time>2018-10-26T11:16:06Z</time>
      </trkpt>
      <trkpt lat="45.68441" lon="6.52971">
        <ele>1859.9</ele>
        <time>2018-10-26T11:16:21Z</time>
      </trkpt>
      <trkpt lat="45.68436" lon="6.52958">
        <ele>1862.2</ele>
        <time>2018-10-26T11:16:36Z</time>
      </trkpt>
      <trkpt lat="45.68431" lon="6.52948">
        <ele>1864.7</ele>
        <time>2018-10-26T11:16:48Z</time>
      </trkpt>
      <trkpt lat="45.68426" lon="6.52937">
        <ele>1867.7</ele>
        <time>2018-10-26T11:17:05Z</time>
      </trkpt>
      <trkpt lat="45.6842" lon="6.52926">
        <ele>1869.6</ele>
        <time>2018-10-26T11:17:17Z</time>
      </trkpt>
      <trkpt lat="45.68413" lon="6.52917">
        <ele>1871.9</ele>
        <time>2018-10-26T11:17:29Z</time>
      </trkpt>
      <trkpt lat="45.68409" lon="6.52905">
        <ele>1873.5</ele>
        <time>2018-10-26T11:17:42Z</time>
      </trkpt>
      <trkpt lat="45.68405" lon="6.52893">
        <ele>1875.1</ele>
        <time>2018-10-26T11:17:49Z</time>
      </trkpt>
      <trkpt lat="45.68402" lon="6.5288">
        <ele>1876.6</ele>
        <time>2018-10-26T11:17:57Z</time>
      </trkpt>
      <trkpt lat="45.68399" lon="6.52867">
        <ele>1877.7</ele>
        <time>2018-10-26T11:18:05Z</time>
      </trkpt>
      <trkpt lat="45.68398" lon="6.52853">
        <ele>1880.2</ele>
        <time>2018-10-26T11:18:15Z</time>
      </trkpt>
      <trkpt lat="45.684" lon="6.5284">
        <ele>1881.8</ele>
        <time>2018-10-26T11:18:24Z</time>
      </trkpt>
      <trkpt lat="45.68404" lon="6.52828">
        <ele>1883.6</ele>
        <time>2018-10-26T11:18:33Z</time>
      </trkpt>
      <trkpt lat="45.68406" lon="6.52815">
        <ele>1885.2</ele>
        <time>2018-10-26T11:18:42Z</time>
      </trkpt>
      <trkpt lat="45.68414" lon="6.52807">
        <ele>1886.9</ele>
        <time>2018-10-26T11:18:50Z</time>
      </trkpt>
      <trkpt lat="45.68424" lon="6.52806">
        <ele>1888.4</ele>
        <time>2018-10-26T11:18:58Z</time>
      </trkpt>
      <trkpt lat="45.68433" lon="6.52807">
        <ele>1891.5</ele>
        <time>2018-10-26T11:19:26Z</time>
      </trkpt>
      <trkpt lat="45.68443" lon="6.52807">
        <ele>1893.2</ele>
        <time>2018-10-26T11:19:37Z</time>
      </trkpt>
      <trkpt lat="45.68452" lon="6.52805">
        <ele>1894.6</ele>
        <time>2018-10-26T11:19:48Z</time>
      </trkpt>
      <trkpt lat="45.68462" lon="6.52801">
        <ele>1896.5</ele>
        <time>2018-10-26T11:20:00Z</time>
      </trkpt>
      <trkpt lat="45.6847" lon="6.52793">
        <ele>1898.2</ele>
        <time>2018-10-26T11:20:10Z</time>
      </trkpt>
      <trkpt lat="45.68478" lon="6.52787">
        <ele>1899.7</ele>
        <time>2018-10-26T11:20:19Z</time>
      </trkpt>
      <trkpt lat="45.68487" lon="6.52782">
        <ele>1901.1</ele>
        <time>2018-10-26T11:20:29Z</time>
      </trkpt>
      <trkpt lat="45.68495" lon="6.52777">
        <ele>1903.4</ele>
        <time>2018-10-26T11:20:41Z</time>
      </trkpt>
      <trkpt lat="45.68505" lon="6.52774">
        <ele>1905.1</ele>
        <time>2018-10-26T11:20:52Z</time>
      </trkpt>
      <trkpt lat="45.68514" lon="6.52768">
        <ele>1907.6</ele>
        <time>2018-10-26T11:21:09Z</time>
      </trkpt>
      <trkpt lat="45.68521" lon="6.5276">
        <ele>1908.5</ele>
        <time>2018-10-26T11:21:16Z</time>
      </trkpt>
      <trkpt lat="45.68529" lon="6.52752">
        <ele>1910.1</ele>
        <time>2018-10-26T11:21:23Z</time>
      </trkpt>
      <trkpt lat="45.68536" lon="6.52744">
        <ele>1911.7</ele>
        <time>2018-10-26T11:21:31Z</time>
      </trkpt>
      <trkpt lat="45.68543" lon="6.52734">
        <ele>1912.4</ele>
        <time>2018-10-26T11:21:36Z</time>
      </trkpt>
      <trkpt lat="45.68552" lon="6.52727">
        <ele>1913.9</ele>
        <time>2018-10-26T11:21:44Z</time>
      </trkpt>
      <trkpt lat="45.68561" lon="6.52722">
        <ele>1915.5</ele>
        <time>2018-10-26T11:21:51Z</time>
      </trkpt>
      <trkpt lat="45.68567" lon="6.52711">
        <ele>1916.9</ele>
        <time>2018-10-26T11:21:59Z</time>
      </trkpt>
      <trkpt lat="45.68572" lon="6.52698">
        <ele>1917.4</ele>
        <time>2018-10-26T11:22:06Z</time>
      </trkpt>
      <trkpt lat="45.68575" lon="6.52685">
        <ele>1917.8</ele>
        <time>2018-10-26T11:22:13Z</time>
      </trkpt>
      <trkpt lat="45.68581" lon="6.52696">
        <ele>1917.6</ele>
        <time>2018-10-26T11:26:07Z</time>
      </trkpt>
      <trkpt lat="45.6859" lon="6.52697">
        <ele>1918.5</ele>
        <time>2018-10-26T11:26:19Z</time>
      </trkpt>
      <trkpt lat="45.68599" lon="6.527">
        <ele>1918.4</ele>
        <time>2018-10-26T11:26:25Z</time>
      </trkpt>
      <trkpt lat="45.68603" lon="6.52713">
        <ele>1918.6</ele>
        <time>2018-10-26T11:26:36Z</time>
      </trkpt>
      <trkpt lat="45.68609" lon="6.52724">
        <ele>1919.1</ele>
        <time>2018-10-26T11:26:47Z</time>
      </trkpt>
      <trkpt lat="45.68605" lon="6.52735">
        <ele>1918.9</ele>
        <time>2018-10-26T11:26:58Z</time>
      </trkpt>
      <trkpt lat="45.68614" lon="6.52739">
        <ele>1920.6</ele>
        <time>2018-10-26T11:27:19Z</time>
      </trkpt>
      <trkpt lat="45.68606" lon="6.52733">
        <ele>1920.5</ele>
        <time>2018-10-26T11:27:37Z</time>
      </trkpt>
      <trkpt lat="45.68606" lon="6.52719">
        <ele>1919.4</ele>
        <time>2018-10-26T11:27:52Z</time>
      </trkpt>
      <trkpt lat="45.68599" lon="6.5271">
        <ele>1917</ele>
        <time>2018-10-26T11:29:10Z</time>
      </trkpt>
      <trkpt lat="45.6859" lon="6.52709">
        <ele>1915.8</ele>
        <time>2018-10-26T11:29:17Z</time>
      </trkpt>
      <trkpt lat="45.68581" lon="6.52727">
        <ele>1915.7</ele>
        <time>2018-10-26T11:29:19Z</time>
      </trkpt>
      <trkpt lat="45.68571" lon="6.52738">
        <ele>1915.7</ele>
        <time>2018-10-26T11:29:20Z</time>
      </trkpt>
      <trkpt lat="45.68562" lon="6.52745">
        <ele>1915.7</ele>
        <time>2018-10-26T11:29:21Z</time>
      </trkpt>
      <trkpt lat="45.6857" lon="6.52731">
        <ele>1915.8</ele>
        <time>2018-10-26T11:29:22Z</time>
      </trkpt>
      <trkpt lat="45.68576" lon="6.52716">
        <ele>1916</ele>
        <time>2018-10-26T11:29:24Z</time>
      </trkpt>
      <trkpt lat="45.68578" lon="6.52703">
        <ele>1916.2</ele>
        <time>2018-10-26T11:29:26Z</time>
      </trkpt>
      <trkpt lat="45.68576" lon="6.5269">
        <ele>1916.7</ele>
        <time>2018-10-26T11:29:31Z</time>
      </trkpt>
      <trkpt lat="45.68568" lon="6.52684">
        <ele>1917.1</ele>
        <time>2018-10-26T11:29:59Z</time>
      </trkpt>
      <trkpt lat="45.6856" lon="6.52725">
        <ele>1919.5</ele>
        <time>2018-10-26T11:32:24Z</time>
      </trkpt>
      <trkpt lat="45.68556" lon="6.52738">
        <ele>1919.4</ele>
        <time>2018-10-26T11:32:25Z</time>
      </trkpt>
      <trkpt lat="45.68562" lon="6.52726">
        <ele>1919.2</ele>
        <time>2018-10-26T11:32:28Z</time>
      </trkpt>
      <trkpt lat="45.68567" lon="6.52711">
        <ele>1918.5</ele>
        <time>2018-10-26T11:32:40Z</time>
      </trkpt>
      <trkpt lat="45.68571" lon="6.52699">
        <ele>1918.7</ele>
        <time>2018-10-26T11:32:43Z</time>
      </trkpt>
      <trkpt lat="45.68577" lon="6.52688">
        <ele>1920.7</ele>
        <time>2018-10-26T11:34:28Z</time>
      </trkpt>
      <trkpt lat="45.68583" lon="6.52676">
        <ele>1919.7</ele>
        <time>2018-10-26T11:34:34Z</time>
      </trkpt>
      <trkpt lat="45.68579" lon="6.52663">
        <ele>1918.9</ele>
        <time>2018-10-26T11:34:37Z</time>
      </trkpt>
      <trkpt lat="45.68574" lon="6.52652">
        <ele>1917.6</ele>
        <time>2018-10-26T11:34:40Z</time>
      </trkpt>
      <trkpt lat="45.6857" lon="6.52639">
        <ele>1915.8</ele>
        <time>2018-10-26T11:34:44Z</time>
      </trkpt>
      <trkpt lat="45.68568" lon="6.52626">
        <ele>1913.7</ele>
        <time>2018-10-26T11:34:48Z</time>
      </trkpt>
      <trkpt lat="45.68565" lon="6.52613">
        <ele>1911.4</ele>
        <time>2018-10-26T11:34:52Z</time>
      </trkpt>
      <trkpt lat="45.68569" lon="6.52599">
        <ele>1908.6</ele>
        <time>2018-10-26T11:34:57Z</time>
      </trkpt>
      <trkpt lat="45.68577" lon="6.52592">
        <ele>1904.8</ele>
        <time>2018-10-26T11:35:13Z</time>
      </trkpt>
      <trkpt lat="45.68587" lon="6.52585">
        <ele>1903.6</ele>
        <time>2018-10-26T11:35:16Z</time>
      </trkpt>
      <trkpt lat="45.686" lon="6.5258">
        <ele>1901.5</ele>
        <time>2018-10-26T11:35:19Z</time>
      </trkpt>
      <trkpt lat="45.68609" lon="6.52581">
        <ele>1899.7</ele>
        <time>2018-10-26T11:35:21Z</time>
      </trkpt>
      <trkpt lat="45.6862" lon="6.52583">
        <ele>1896.9</ele>
        <time>2018-10-26T11:35:24Z</time>
      </trkpt>
      <trkpt lat="45.68632" lon="6.5258">
        <ele>1893.8</ele>
        <time>2018-10-26T11:35:28Z</time>
      </trkpt>
      <trkpt lat="45.68644" lon="6.52575">
        <ele>1891.2</ele>
        <time>2018-10-26T11:35:31Z</time>
      </trkpt>
      <trkpt lat="45.68658" lon="6.52574">
        <ele>1888.4</ele>
        <time>2018-10-26T11:35:34Z</time>
      </trkpt>
      <trkpt lat="45.68667" lon="6.52573">
        <ele>1886.5</ele>
        <time>2018-10-26T11:35:36Z</time>
      </trkpt>
      <trkpt lat="45.68677" lon="6.52574">
        <ele>1883.7</ele>
        <time>2018-10-26T11:35:39Z</time>
      </trkpt>
      <trkpt lat="45.68688" lon="6.52572">
        <ele>1880.3</ele>
        <time>2018-10-26T11:35:43Z</time>
      </trkpt>
      <trkpt lat="45.68697" lon="6.52563">
        <ele>1877.4</ele>
        <time>2018-10-26T11:35:47Z</time>
      </trkpt>
      <trkpt lat="45.68708" lon="6.5256">
        <ele>1875.4</ele>
        <time>2018-10-26T11:35:50Z</time>
      </trkpt>
      <trkpt lat="45.68713" lon="6.52575">
        <ele>1873.8</ele>
        <time>2018-10-26T11:35:52Z</time>
      </trkpt>
      <trkpt lat="45.68717" lon="6.52599">
        <ele>1872.9</ele>
        <time>2018-10-26T11:35:53Z</time>
      </trkpt>
      <trkpt lat="45.68729" lon="6.52597">
        <ele>1870.8</ele>
        <time>2018-10-26T11:35:56Z</time>
      </trkpt>
      <trkpt lat="45.68735" lon="6.5258">
        <ele>1868.7</ele>
        <time>2018-10-26T11:35:58Z</time>
      </trkpt>
      <trkpt lat="45.68743" lon="6.52572">
        <ele>1865.8</ele>
        <time>2018-10-26T11:36:01Z</time>
      </trkpt>
      <trkpt lat="45.68754" lon="6.52572">
        <ele>1862.6</ele>
        <time>2018-10-26T11:36:04Z</time>
      </trkpt>
      <trkpt lat="45.68765" lon="6.52573">
        <ele>1859.1</ele>
        <time>2018-10-26T11:36:07Z</time>
      </trkpt>
      <trkpt lat="45.68775" lon="6.52573">
        <ele>1855.2</ele>
        <time>2018-10-26T11:36:10Z</time>
      </trkpt>
      <trkpt lat="45.68785" lon="6.52568">
        <ele>1851.1</ele>
        <time>2018-10-26T11:36:13Z</time>
      </trkpt>
      <trkpt lat="45.68794" lon="6.52561">
        <ele>1847.1</ele>
        <time>2018-10-26T11:36:16Z</time>
      </trkpt>
      <trkpt lat="45.68803" lon="6.52555">
        <ele>1844.5</ele>
        <time>2018-10-26T11:36:18Z</time>
      </trkpt>
      <trkpt lat="45.6881" lon="6.52548">
        <ele>1841.8</ele>
        <time>2018-10-26T11:36:20Z</time>
      </trkpt>
      <trkpt lat="45.68819" lon="6.52541">
        <ele>1839.3</ele>
        <time>2018-10-26T11:36:22Z</time>
      </trkpt>
      <trkpt lat="45.68828" lon="6.52537">
        <ele>1835.7</ele>
        <time>2018-10-26T11:36:25Z</time>
      </trkpt>
      <trkpt lat="45.68836" lon="6.52529">
        <ele>1829.3</ele>
        <time>2018-10-26T11:36:38Z</time>
      </trkpt>
      <trkpt lat="45.68839" lon="6.52543">
        <ele>1825.7</ele>
        <time>2018-10-26T11:38:03Z</time>
      </trkpt>
      <trkpt lat="45.68842" lon="6.52529">
        <ele>1825.9</ele>
        <time>2018-10-26T11:38:05Z</time>
      </trkpt>
      <trkpt lat="45.68849" lon="6.5252">
        <ele>1825.3</ele>
        <time>2018-10-26T11:38:16Z</time>
      </trkpt>
      <trkpt lat="45.6886" lon="6.52514">
        <ele>1824</ele>
        <time>2018-10-26T11:38:19Z</time>
      </trkpt>
      <trkpt lat="45.68868" lon="6.52507">
        <ele>1821.2</ele>
        <time>2018-10-26T11:38:31Z</time>
      </trkpt>
      <trkpt lat="45.6887" lon="6.52529">
        <ele>1826.6</ele>
        <time>2018-10-26T11:39:03Z</time>
      </trkpt>
      <trkpt lat="45.68876" lon="6.52541">
        <ele>1827.1</ele>
        <time>2018-10-26T11:39:05Z</time>
      </trkpt>
      <trkpt lat="45.68879" lon="6.52522">
        <ele>1827.2</ele>
        <time>2018-10-26T11:39:06Z</time>
      </trkpt>
      <trkpt lat="45.68885" lon="6.52505">
        <ele>1827.5</ele>
        <time>2018-10-26T11:39:07Z</time>
      </trkpt>
      <trkpt lat="45.68889" lon="6.52491">
        <ele>1827.9</ele>
        <time>2018-10-26T11:39:09Z</time>
      </trkpt>
      <trkpt lat="45.68894" lon="6.5248">
        <ele>1834.6</ele>
        <time>2018-10-26T11:39:44Z</time>
      </trkpt>
      <trkpt lat="45.68904" lon="6.52472">
        <ele>1839.1</ele>
        <time>2018-10-26T11:40:11Z</time>
      </trkpt>
      <trkpt lat="45.68912" lon="6.52463">
        <ele>1840.3</ele>
        <time>2018-10-26T11:40:18Z</time>
      </trkpt>
      <trkpt lat="45.68922" lon="6.52459">
        <ele>1842.2</ele>
        <time>2018-10-26T11:40:28Z</time>
      </trkpt>
      <trkpt lat="45.6893" lon="6.52454">
        <ele>1844.5</ele>
        <time>2018-10-26T11:40:41Z</time>
      </trkpt>
      <trkpt lat="45.68938" lon="6.5246">
        <ele>1847</ele>
        <time>2018-10-26T11:41:23Z</time>
      </trkpt>
      <trkpt lat="45.68947" lon="6.52465">
        <ele>1846.9</ele>
        <time>2018-10-26T11:41:27Z</time>
      </trkpt>
      <trkpt lat="45.68956" lon="6.52472">
        <ele>1846.6</ele>
        <time>2018-10-26T11:41:30Z</time>
      </trkpt>
      <trkpt lat="45.68965" lon="6.52478">
        <ele>1846.3</ele>
        <time>2018-10-26T11:41:33Z</time>
      </trkpt>
      <trkpt lat="45.68974" lon="6.52483">
        <ele>1846</ele>
        <time>2018-10-26T11:41:36Z</time>
      </trkpt>
      <trkpt lat="45.68985" lon="6.52486">
        <ele>1845.6</ele>
        <time>2018-10-26T11:41:41Z</time>
      </trkpt>
      <trkpt lat="45.68994" lon="6.5249">
        <ele>1845.7</ele>
        <time>2018-10-26T11:41:46Z</time>
      </trkpt>
      <trkpt lat="45.69004" lon="6.5249">
        <ele>1845.2</ele>
        <time>2018-10-26T11:41:54Z</time>
      </trkpt>
      <trkpt lat="45.69012" lon="6.52494">
        <ele>1846.4</ele>
        <time>2018-10-26T11:42:06Z</time>
      </trkpt>
      <trkpt lat="45.69019" lon="6.52505">
        <ele>1847.1</ele>
        <time>2018-10-26T11:42:13Z</time>
      </trkpt>
      <trkpt lat="45.69025" lon="6.52515">
        <ele>1846.6</ele>
        <time>2018-10-26T11:42:17Z</time>
      </trkpt>
      <trkpt lat="45.69033" lon="6.52524">
        <ele>1846.3</ele>
        <time>2018-10-26T11:42:21Z</time>
      </trkpt>
      <trkpt lat="45.69042" lon="6.5253">
        <ele>1845.7</ele>
        <time>2018-10-26T11:42:25Z</time>
      </trkpt>
      <trkpt lat="45.69049" lon="6.52538">
        <ele>1845.2</ele>
        <time>2018-10-26T11:42:28Z</time>
      </trkpt>
      <trkpt lat="45.69057" lon="6.52546">
        <ele>1844.7</ele>
        <time>2018-10-26T11:42:31Z</time>
      </trkpt>
      <trkpt lat="45.69067" lon="6.52553">
        <ele>1843.9</ele>
        <time>2018-10-26T11:42:35Z</time>
      </trkpt>
      <trkpt lat="45.69076" lon="6.5256">
        <ele>1843.2</ele>
        <time>2018-10-26T11:42:39Z</time>
      </trkpt>
      <trkpt lat="45.69088" lon="6.52563">
        <ele>1842.3</ele>
        <time>2018-10-26T11:42:45Z</time>
      </trkpt>
      <trkpt lat="45.69099" lon="6.52564">
        <ele>1841.9</ele>
        <time>2018-10-26T11:42:49Z</time>
      </trkpt>
      <trkpt lat="45.6911" lon="6.52569">
        <ele>1841.7</ele>
        <time>2018-10-26T11:42:52Z</time>
      </trkpt>
      <trkpt lat="45.69121" lon="6.52575">
        <ele>1841.6</ele>
        <time>2018-10-26T11:42:55Z</time>
      </trkpt>
      <trkpt lat="45.6913" lon="6.52582">
        <ele>1840.8</ele>
        <time>2018-10-26T11:43:00Z</time>
      </trkpt>
      <trkpt lat="45.69137" lon="6.52591">
        <ele>1840.2</ele>
        <time>2018-10-26T11:43:04Z</time>
      </trkpt>
      <trkpt lat="45.69144" lon="6.526">
        <ele>1839.8</ele>
        <time>2018-10-26T11:43:08Z</time>
      </trkpt>
      <trkpt lat="45.6915" lon="6.52611">
        <ele>1839.3</ele>
        <time>2018-10-26T11:43:12Z</time>
      </trkpt>
      <trkpt lat="45.69155" lon="6.52623">
        <ele>1838.9</ele>
        <time>2018-10-26T11:43:17Z</time>
      </trkpt>
      <trkpt lat="45.6916" lon="6.52635">
        <ele>1838.1</ele>
        <time>2018-10-26T11:43:21Z</time>
      </trkpt>
      <trkpt lat="45.69167" lon="6.52645">
        <ele>1837.2</ele>
        <time>2018-10-26T11:43:33Z</time>
      </trkpt>
      <trkpt lat="45.69171" lon="6.52659">
        <ele>1836.5</ele>
        <time>2018-10-26T11:43:40Z</time>
      </trkpt>
      <trkpt lat="45.69175" lon="6.52674">
        <ele>1836</ele>
        <time>2018-10-26T11:43:45Z</time>
      </trkpt>
      <trkpt lat="45.69179" lon="6.52691">
        <ele>1835.5</ele>
        <time>2018-10-26T11:43:49Z</time>
      </trkpt>
      <trkpt lat="45.69182" lon="6.52705">
        <ele>1835.4</ele>
        <time>2018-10-26T11:43:52Z</time>
      </trkpt>
      <trkpt lat="45.69186" lon="6.52718">
        <ele>1834.8</ele>
        <time>2018-10-26T11:43:55Z</time>
      </trkpt>
      <trkpt lat="45.69191" lon="6.5273">
        <ele>1834.4</ele>
        <time>2018-10-26T11:43:58Z</time>
      </trkpt>
      <trkpt lat="45.69198" lon="6.52747">
        <ele>1834.1</ele>
        <time>2018-10-26T11:44:01Z</time>
      </trkpt>
      <trkpt lat="45.69207" lon="6.52758">
        <ele>1833.5</ele>
        <time>2018-10-26T11:44:04Z</time>
      </trkpt>
      <trkpt lat="45.69214" lon="6.52746">
        <ele>1833</ele>
        <time>2018-10-26T11:44:07Z</time>
      </trkpt>
      <trkpt lat="45.69219" lon="6.52729">
        <ele>1832.6</ele>
        <time>2018-10-26T11:44:10Z</time>
      </trkpt>
      <trkpt lat="45.69228" lon="6.52735">
        <ele>1832.3</ele>
        <time>2018-10-26T11:44:16Z</time>
      </trkpt>
      <trkpt lat="45.69232" lon="6.52752">
        <ele>1832</ele>
        <time>2018-10-26T11:44:20Z</time>
      </trkpt>
      <trkpt lat="45.69233" lon="6.52766">
        <ele>1831.6</ele>
        <time>2018-10-26T11:44:23Z</time>
      </trkpt>
      <trkpt lat="45.69234" lon="6.52784">
        <ele>1831.1</ele>
        <time>2018-10-26T11:44:27Z</time>
      </trkpt>
      <trkpt lat="45.69236" lon="6.528">
        <ele>1830.6</ele>
        <time>2018-10-26T11:44:30Z</time>
      </trkpt>
      <trkpt lat="45.69238" lon="6.52815">
        <ele>1830.4</ele>
        <time>2018-10-26T11:44:33Z</time>
      </trkpt>
      <trkpt lat="45.69239" lon="6.52829">
        <ele>1830</ele>
        <time>2018-10-26T11:44:36Z</time>
      </trkpt>
      <trkpt lat="45.69242" lon="6.52846">
        <ele>1829.9</ele>
        <time>2018-10-26T11:44:40Z</time>
      </trkpt>
      <trkpt lat="45.69246" lon="6.5286">
        <ele>1829.9</ele>
        <time>2018-10-26T11:44:43Z</time>
      </trkpt>
      <trkpt lat="45.69252" lon="6.52875">
        <ele>1829.8</ele>
        <time>2018-10-26T11:44:46Z</time>
      </trkpt>
      <trkpt lat="45.69259" lon="6.52888">
        <ele>1829.8</ele>
        <time>2018-10-26T11:44:49Z</time>
      </trkpt>
      <trkpt lat="45.69265" lon="6.52903">
        <ele>1829.6</ele>
        <time>2018-10-26T11:44:52Z</time>
      </trkpt>
      <trkpt lat="45.69272" lon="6.52918">
        <ele>1829.5</ele>
        <time>2018-10-26T11:44:55Z</time>
      </trkpt>
      <trkpt lat="45.69278" lon="6.5293">
        <ele>1829.4</ele>
        <time>2018-10-26T11:44:57Z</time>
      </trkpt>
      <trkpt lat="45.69284" lon="6.5294">
        <ele>1829.3</ele>
        <time>2018-10-26T11:44:59Z</time>
      </trkpt>
      <trkpt lat="45.6929" lon="6.52953">
        <ele>1829.1</ele>
        <time>2018-10-26T11:45:02Z</time>
      </trkpt>
      <trkpt lat="45.69295" lon="6.52967">
        <ele>1828.9</ele>
        <time>2018-10-26T11:45:06Z</time>
      </trkpt>
      <trkpt lat="45.69301" lon="6.5298">
        <ele>1829</ele>
        <time>2018-10-26T11:45:09Z</time>
      </trkpt>
      <trkpt lat="45.69306" lon="6.52996">
        <ele>1829</ele>
        <time>2018-10-26T11:45:12Z</time>
      </trkpt>
      <trkpt lat="45.69309" lon="6.53011">
        <ele>1828.9</ele>
        <time>2018-10-26T11:45:15Z</time>
      </trkpt>
      <trkpt lat="45.69314" lon="6.53026">
        <ele>1829</ele>
        <time>2018-10-26T11:45:18Z</time>
      </trkpt>
      <trkpt lat="45.69318" lon="6.53038">
        <ele>1829.2</ele>
        <time>2018-10-26T11:45:21Z</time>
      </trkpt>
      <trkpt lat="45.69323" lon="6.53051">
        <ele>1829.6</ele>
        <time>2018-10-26T11:45:25Z</time>
      </trkpt>
      <trkpt lat="45.69319" lon="6.53067">
        <ele>1829</ele>
        <time>2018-10-26T11:45:53Z</time>
      </trkpt>
      <trkpt lat="45.69312" lon="6.53076">
        <ele>1830.4</ele>
        <time>2018-10-26T11:47:08Z</time>
      </trkpt>
      <trkpt lat="45.69309" lon="6.53089">
        <ele>1830.8</ele>
        <time>2018-10-26T11:47:11Z</time>
      </trkpt>
      <trkpt lat="45.69314" lon="6.53103">
        <ele>1830.8</ele>
        <time>2018-10-26T11:47:15Z</time>
      </trkpt>
      <trkpt lat="45.69321" lon="6.53114">
        <ele>1830.9</ele>
        <time>2018-10-26T11:47:18Z</time>
      </trkpt>
      <trkpt lat="45.6933" lon="6.53123">
        <ele>1830.9</ele>
        <time>2018-10-26T11:47:20Z</time>
      </trkpt>
      <trkpt lat="45.69341" lon="6.53131">
        <ele>1830.8</ele>
        <time>2018-10-26T11:47:22Z</time>
      </trkpt>
      <trkpt lat="45.69349" lon="6.53142">
        <ele>1831</ele>
        <time>2018-10-26T11:47:24Z</time>
      </trkpt>
      <trkpt lat="45.69357" lon="6.53155">
        <ele>1831.7</ele>
        <time>2018-10-26T11:47:27Z</time>
      </trkpt>
      <trkpt lat="45.69363" lon="6.5317">
        <ele>1831.9</ele>
        <time>2018-10-26T11:47:30Z</time>
      </trkpt>
      <trkpt lat="45.69369" lon="6.53183">
        <ele>1832</ele>
        <time>2018-10-26T11:47:33Z</time>
      </trkpt>
      <trkpt lat="45.69374" lon="6.53195">
        <ele>1831.9</ele>
        <time>2018-10-26T11:47:37Z</time>
      </trkpt>
      <trkpt lat="45.6938" lon="6.53208">
        <ele>1832</ele>
        <time>2018-10-26T11:47:41Z</time>
      </trkpt>
      <trkpt lat="45.69385" lon="6.53219">
        <ele>1832.1</ele>
        <time>2018-10-26T11:47:45Z</time>
      </trkpt>
      <trkpt lat="45.69393" lon="6.53229">
        <ele>1832.3</ele>
        <time>2018-10-26T11:47:49Z</time>
      </trkpt>
      <trkpt lat="45.69401" lon="6.53239">
        <ele>1832.5</ele>
        <time>2018-10-26T11:47:52Z</time>
      </trkpt>
      <trkpt lat="45.69406" lon="6.53253">
        <ele>1832.2</ele>
        <time>2018-10-26T11:47:59Z</time>
      </trkpt>
      <trkpt lat="45.6941" lon="6.53268">
        <ele>1831.9</ele>
        <time>2018-10-26T11:48:01Z</time>
      </trkpt>
      <trkpt lat="45.69416" lon="6.53283">
        <ele>1831.6</ele>
        <time>2018-10-26T11:48:03Z</time>
      </trkpt>
      <trkpt lat="45.69421" lon="6.53294">
        <ele>1831.3</ele>
        <time>2018-10-26T11:48:06Z</time>
      </trkpt>
      <trkpt lat="45.69424" lon="6.53307">
        <ele>1831.8</ele>
        <time>2018-10-26T11:48:10Z</time>
      </trkpt>
      <trkpt lat="45.69427" lon="6.53322">
        <ele>1831.9</ele>
        <time>2018-10-26T11:48:14Z</time>
      </trkpt>
      <trkpt lat="45.69432" lon="6.53336">
        <ele>1832</ele>
        <time>2018-10-26T11:48:18Z</time>
      </trkpt>
      <trkpt lat="45.69439" lon="6.53346">
        <ele>1832</ele>
        <time>2018-10-26T11:48:22Z</time>
      </trkpt>
      <trkpt lat="45.6945" lon="6.53335">
        <ele>1832</ele>
        <time>2018-10-26T11:48:29Z</time>
      </trkpt>
      <trkpt lat="45.69462" lon="6.53334">
        <ele>1831.7</ele>
        <time>2018-10-26T11:48:31Z</time>
      </trkpt>
      <trkpt lat="45.69469" lon="6.53345">
        <ele>1831.4</ele>
        <time>2018-10-26T11:48:33Z</time>
      </trkpt>
      <trkpt lat="45.69478" lon="6.53366">
        <ele>1830.2</ele>
        <time>2018-10-26T11:48:35Z</time>
      </trkpt>
      <trkpt lat="45.69484" lon="6.53381">
        <ele>1828.7</ele>
        <time>2018-10-26T11:48:37Z</time>
      </trkpt>
      <trkpt lat="45.69489" lon="6.53399">
        <ele>1826.7</ele>
        <time>2018-10-26T11:48:39Z</time>
      </trkpt>
      <trkpt lat="45.69496" lon="6.53411">
        <ele>1824.5</ele>
        <time>2018-10-26T11:48:41Z</time>
      </trkpt>
      <trkpt lat="45.69504" lon="6.53418">
        <ele>1822.5</ele>
        <time>2018-10-26T11:48:43Z</time>
      </trkpt>
      <trkpt lat="45.69517" lon="6.53422">
        <ele>1819.9</ele>
        <time>2018-10-26T11:48:46Z</time>
      </trkpt>
      <trkpt lat="45.69528" lon="6.53426">
        <ele>1818.2</ele>
        <time>2018-10-26T11:48:49Z</time>
      </trkpt>
      <trkpt lat="45.69541" lon="6.53427">
        <ele>1816.6</ele>
        <time>2018-10-26T11:48:52Z</time>
      </trkpt>
      <trkpt lat="45.6955" lon="6.53429">
        <ele>1815.6</ele>
        <time>2018-10-26T11:48:54Z</time>
      </trkpt>
      <trkpt lat="45.69559" lon="6.53433">
        <ele>1814.8</ele>
        <time>2018-10-26T11:48:56Z</time>
      </trkpt>
      <trkpt lat="45.69568" lon="6.53436">
        <ele>1814.1</ele>
        <time>2018-10-26T11:48:58Z</time>
      </trkpt>
      <trkpt lat="45.69579" lon="6.53444">
        <ele>1813.4</ele>
        <time>2018-10-26T11:49:01Z</time>
      </trkpt>
      <trkpt lat="45.69588" lon="6.53456">
        <ele>1813</ele>
        <time>2018-10-26T11:49:04Z</time>
      </trkpt>
      <trkpt lat="45.69596" lon="6.53462">
        <ele>1812.2</ele>
        <time>2018-10-26T11:49:07Z</time>
      </trkpt>
      <trkpt lat="45.69605" lon="6.53471">
        <ele>1811.2</ele>
        <time>2018-10-26T11:49:09Z</time>
      </trkpt>
      <trkpt lat="45.69612" lon="6.53481">
        <ele>1809.8</ele>
        <time>2018-10-26T11:49:12Z</time>
      </trkpt>
      <trkpt lat="45.6962" lon="6.53488">
        <ele>1808.3</ele>
        <time>2018-10-26T11:49:14Z</time>
      </trkpt>
      <trkpt lat="45.69629" lon="6.53493">
        <ele>1805.6</ele>
        <time>2018-10-26T11:49:17Z</time>
      </trkpt>
      <trkpt lat="45.69639" lon="6.53491">
        <ele>1802.5</ele>
        <time>2018-10-26T11:49:20Z</time>
      </trkpt>
      <trkpt lat="45.69648" lon="6.53492">
        <ele>1800.2</ele>
        <time>2018-10-26T11:49:22Z</time>
      </trkpt>
      <trkpt lat="45.69661" lon="6.53498">
        <ele>1797</ele>
        <time>2018-10-26T11:49:25Z</time>
      </trkpt>
      <trkpt lat="45.6967" lon="6.53503">
        <ele>1794</ele>
        <time>2018-10-26T11:49:28Z</time>
      </trkpt>
      <trkpt lat="45.69683" lon="6.53505">
        <ele>1791</ele>
        <time>2018-10-26T11:49:31Z</time>
      </trkpt>
      <trkpt lat="45.69694" lon="6.53507">
        <ele>1788.8</ele>
        <time>2018-10-26T11:49:33Z</time>
      </trkpt>
      <trkpt lat="45.69703" lon="6.53511">
        <ele>1786.2</ele>
        <time>2018-10-26T11:49:35Z</time>
      </trkpt>
      <trkpt lat="45.69711" lon="6.53519">
        <ele>1783.6</ele>
        <time>2018-10-26T11:49:37Z</time>
      </trkpt>
      <trkpt lat="45.69721" lon="6.53528">
        <ele>1780</ele>
        <time>2018-10-26T11:49:40Z</time>
      </trkpt>
      <trkpt lat="45.69741" lon="6.5353">
        <ele>1776.8</ele>
        <time>2018-10-26T11:49:45Z</time>
      </trkpt>
      <trkpt lat="45.69747" lon="6.53542">
        <ele>1771</ele>
        <time>2018-10-26T11:49:49Z</time>
      </trkpt>
      <trkpt lat="45.69748" lon="6.53558">
        <ele>1767.8</ele>
        <time>2018-10-26T11:49:52Z</time>
      </trkpt>
      <trkpt lat="45.69746" lon="6.53574">
        <ele>1764.8</ele>
        <time>2018-10-26T11:49:55Z</time>
      </trkpt>
      <trkpt lat="45.69747" lon="6.53588">
        <ele>1761.9</ele>
        <time>2018-10-26T11:49:58Z</time>
      </trkpt>
      <trkpt lat="45.69749" lon="6.53606">
        <ele>1759.2</ele>
        <time>2018-10-26T11:50:01Z</time>
      </trkpt>
      <trkpt lat="45.69751" lon="6.5362">
        <ele>1757.2</ele>
        <time>2018-10-26T11:50:03Z</time>
      </trkpt>
      <trkpt lat="45.69753" lon="6.53635">
        <ele>1755.2</ele>
        <time>2018-10-26T11:50:05Z</time>
      </trkpt>
      <trkpt lat="45.69755" lon="6.53651">
        <ele>1753.3</ele>
        <time>2018-10-26T11:50:07Z</time>
      </trkpt>
      <trkpt lat="45.69754" lon="6.53668">
        <ele>1751</ele>
        <time>2018-10-26T11:50:09Z</time>
      </trkpt>
      <trkpt lat="45.69752" lon="6.53689">
        <ele>1748.7</ele>
        <time>2018-10-26T11:50:11Z</time>
      </trkpt>
      <trkpt lat="45.69749" lon="6.53709">
        <ele>1746.7</ele>
        <time>2018-10-26T11:50:13Z</time>
      </trkpt>
      <trkpt lat="45.69747" lon="6.53729">
        <ele>1744.9</ele>
        <time>2018-10-26T11:50:15Z</time>
      </trkpt>
      <trkpt lat="45.69743" lon="6.53746">
        <ele>1743.5</ele>
        <time>2018-10-26T11:50:17Z</time>
      </trkpt>
      <trkpt lat="45.69739" lon="6.53765">
        <ele>1742.3</ele>
        <time>2018-10-26T11:50:19Z</time>
      </trkpt>
      <trkpt lat="45.69738" lon="6.53779">
        <ele>1740.8</ele>
        <time>2018-10-26T11:50:21Z</time>
      </trkpt>
      <trkpt lat="45.69738" lon="6.53794">
        <ele>1739.5</ele>
        <time>2018-10-26T11:50:23Z</time>
      </trkpt>
      <trkpt lat="45.6974" lon="6.53811">
        <ele>1738</ele>
        <time>2018-10-26T11:50:25Z</time>
      </trkpt>
      <trkpt lat="45.6974" lon="6.53831">
        <ele>1736.4</ele>
        <time>2018-10-26T11:50:27Z</time>
      </trkpt>
      <trkpt lat="45.69742" lon="6.53845">
        <ele>1735</ele>
        <time>2018-10-26T11:50:29Z</time>
      </trkpt>
      <trkpt lat="45.69746" lon="6.53861">
        <ele>1731.8</ele>
        <time>2018-10-26T11:50:33Z</time>
      </trkpt>
      <trkpt lat="45.6975" lon="6.53875">
        <ele>1728.6</ele>
        <time>2018-10-26T11:50:36Z</time>
      </trkpt>
      <trkpt lat="45.69755" lon="6.53888">
        <ele>1726.3</ele>
        <time>2018-10-26T11:50:38Z</time>
      </trkpt>
      <trkpt lat="45.69757" lon="6.53901">
        <ele>1723.7</ele>
        <time>2018-10-26T11:50:40Z</time>
      </trkpt>
      <trkpt lat="45.69757" lon="6.53917">
        <ele>1718.9</ele>
        <time>2018-10-26T11:50:44Z</time>
      </trkpt>
      <trkpt lat="45.69759" lon="6.53931">
        <ele>1714</ele>
        <time>2018-10-26T11:50:48Z</time>
      </trkpt>
      <trkpt lat="45.69756" lon="6.53948">
        <ele>1710.1</ele>
        <time>2018-10-26T11:50:51Z</time>
      </trkpt>
      <trkpt lat="45.69756" lon="6.53961">
        <ele>1706.6</ele>
        <time>2018-10-26T11:50:54Z</time>
      </trkpt>
      <trkpt lat="45.69749" lon="6.53975">
        <ele>1701.8</ele>
        <time>2018-10-26T11:50:58Z</time>
      </trkpt>
      <trkpt lat="45.69741" lon="6.53986">
        <ele>1697.5</ele>
        <time>2018-10-26T11:51:02Z</time>
      </trkpt>
      <trkpt lat="45.69741" lon="6.54">
        <ele>1694.4</ele>
        <time>2018-10-26T11:51:05Z</time>
      </trkpt>
      <trkpt lat="45.69743" lon="6.54015">
        <ele>1690.5</ele>
        <time>2018-10-26T11:51:09Z</time>
      </trkpt>
      <trkpt lat="45.69749" lon="6.5403">
        <ele>1687.2</ele>
        <time>2018-10-26T11:51:13Z</time>
      </trkpt>
      <trkpt lat="45.69755" lon="6.54041">
        <ele>1685.1</ele>
        <time>2018-10-26T11:51:16Z</time>
      </trkpt>
      <trkpt lat="45.69748" lon="6.5405">
        <ele>1682.5</ele>
        <time>2018-10-26T11:51:20Z</time>
      </trkpt>
      <trkpt lat="45.69739" lon="6.5405">
        <ele>1679.6</ele>
        <time>2018-10-26T11:51:24Z</time>
      </trkpt>
      <trkpt lat="45.69727" lon="6.54049">
        <ele>1676.5</ele>
        <time>2018-10-26T11:51:28Z</time>
      </trkpt>
      <trkpt lat="45.69719" lon="6.54045">
        <ele>1674.2</ele>
        <time>2018-10-26T11:51:31Z</time>
      </trkpt>
      <trkpt lat="45.69717" lon="6.54058">
        <ele>1670.4</ele>
        <time>2018-10-26T11:51:37Z</time>
      </trkpt>
      <trkpt lat="45.69719" lon="6.54073">
        <ele>1667.2</ele>
        <time>2018-10-26T11:51:44Z</time>
      </trkpt>
      <trkpt lat="45.69726" lon="6.54088">
        <ele>1666.1</ele>
        <time>2018-10-26T11:51:47Z</time>
      </trkpt>
      <trkpt lat="45.69714" lon="6.54089">
        <ele>1663</ele>
        <time>2018-10-26T11:52:04Z</time>
      </trkpt>
      <trkpt lat="45.69705" lon="6.54087">
        <ele>1663</ele>
        <time>2018-10-26T11:52:07Z</time>
      </trkpt>
      <trkpt lat="45.69696" lon="6.54087">
        <ele>1662.9</ele>
        <time>2018-10-26T11:52:10Z</time>
      </trkpt>
      <trkpt lat="45.69686" lon="6.54083">
        <ele>1662.6</ele>
        <time>2018-10-26T11:52:15Z</time>
      </trkpt>
      <trkpt lat="45.69681" lon="6.54072">
        <ele>1662.3</ele>
        <time>2018-10-26T11:53:06Z</time>
      </trkpt>
      <trkpt lat="45.69674" lon="6.54061">
        <ele>1662.2</ele>
        <time>2018-10-26T11:53:09Z</time>
      </trkpt>
      <trkpt lat="45.69666" lon="6.54049">
        <ele>1662.1</ele>
        <time>2018-10-26T11:53:12Z</time>
      </trkpt>
      <trkpt lat="45.69656" lon="6.54038">
        <ele>1662</ele>
        <time>2018-10-26T11:53:15Z</time>
      </trkpt>
      <trkpt lat="45.69645" lon="6.54028">
        <ele>1661.8</ele>
        <time>2018-10-26T11:53:18Z</time>
      </trkpt>
      <trkpt lat="45.69636" lon="6.54023">
        <ele>1661.6</ele>
        <time>2018-10-26T11:53:20Z</time>
      </trkpt>
      <trkpt lat="45.69627" lon="6.5402">
        <ele>1661.2</ele>
        <time>2018-10-26T11:53:22Z</time>
      </trkpt>
      <trkpt lat="45.69617" lon="6.54017">
        <ele>1660.9</ele>
        <time>2018-10-26T11:53:24Z</time>
      </trkpt>
      <trkpt lat="45.69609" lon="6.5401">
        <ele>1660.6</ele>
        <time>2018-10-26T11:53:26Z</time>
      </trkpt>
      <trkpt lat="45.69601" lon="6.54001">
        <ele>1660.3</ele>
        <time>2018-10-26T11:53:28Z</time>
      </trkpt>
      <trkpt lat="45.69594" lon="6.5399">
        <ele>1660</ele>
        <time>2018-10-26T11:53:30Z</time>
      </trkpt>
      <trkpt lat="45.69588" lon="6.53976">
        <ele>1659.7</ele>
        <time>2018-10-26T11:53:32Z</time>
      </trkpt>
      <trkpt lat="45.69583" lon="6.53963">
        <ele>1659.3</ele>
        <time>2018-10-26T11:53:34Z</time>
      </trkpt>
      <trkpt lat="45.69576" lon="6.53952">
        <ele>1659.2</ele>
        <time>2018-10-26T11:53:36Z</time>
      </trkpt>
      <trkpt lat="45.69567" lon="6.53942">
        <ele>1658.9</ele>
        <time>2018-10-26T11:53:38Z</time>
      </trkpt>
      <trkpt lat="45.69558" lon="6.53935">
        <ele>1658.7</ele>
        <time>2018-10-26T11:53:40Z</time>
      </trkpt>
      <trkpt lat="45.69547" lon="6.53928">
        <ele>1658.5</ele>
        <time>2018-10-26T11:53:42Z</time>
      </trkpt>
      <trkpt lat="45.69536" lon="6.53922">
        <ele>1658.3</ele>
        <time>2018-10-26T11:53:44Z</time>
      </trkpt>
      <trkpt lat="45.69525" lon="6.53917">
        <ele>1657.9</ele>
        <time>2018-10-26T11:53:46Z</time>
      </trkpt>
      <trkpt lat="45.69514" lon="6.53911">
        <ele>1657.6</ele>
        <time>2018-10-26T11:53:48Z</time>
      </trkpt>
      <trkpt lat="45.69503" lon="6.53906">
        <ele>1657.3</ele>
        <time>2018-10-26T11:53:50Z</time>
      </trkpt>
      <trkpt lat="45.69491" lon="6.53905">
        <ele>1656.8</ele>
        <time>2018-10-26T11:53:52Z</time>
      </trkpt>
      <trkpt lat="45.69478" lon="6.5391">
        <ele>1656.1</ele>
        <time>2018-10-26T11:53:54Z</time>
      </trkpt>
      <trkpt lat="45.69466" lon="6.53912">
        <ele>1655.5</ele>
        <time>2018-10-26T11:53:56Z</time>
      </trkpt>
      <trkpt lat="45.69452" lon="6.53913">
        <ele>1654.7</ele>
        <time>2018-10-26T11:53:58Z</time>
      </trkpt>
      <trkpt lat="45.6944" lon="6.5392">
        <ele>1654.2</ele>
        <time>2018-10-26T11:54:00Z</time>
      </trkpt>
      <trkpt lat="45.69428" lon="6.5393">
        <ele>1653.5</ele>
        <time>2018-10-26T11:54:02Z</time>
      </trkpt>
      <trkpt lat="45.69416" lon="6.53938">
        <ele>1652.8</ele>
        <time>2018-10-26T11:54:04Z</time>
      </trkpt>
      <trkpt lat="45.69405" lon="6.53936">
        <ele>1652</ele>
        <time>2018-10-26T11:54:06Z</time>
      </trkpt>
      <trkpt lat="45.69397" lon="6.53929">
        <ele>1651.2</ele>
        <time>2018-10-26T11:54:08Z</time>
      </trkpt>
      <trkpt lat="45.6939" lon="6.53919">
        <ele>1650.5</ele>
        <time>2018-10-26T11:54:10Z</time>
      </trkpt>
      <trkpt lat="45.69382" lon="6.53908">
        <ele>1649.9</ele>
        <time>2018-10-26T11:54:12Z</time>
      </trkpt>
      <trkpt lat="45.69371" lon="6.53903">
        <ele>1649.4</ele>
        <time>2018-10-26T11:54:14Z</time>
      </trkpt>
      <trkpt lat="45.69358" lon="6.53905">
        <ele>1649.1</ele>
        <time>2018-10-26T11:54:16Z</time>
      </trkpt>
      <trkpt lat="45.69346" lon="6.53904">
        <ele>1648.7</ele>
        <time>2018-10-26T11:54:18Z</time>
      </trkpt>
      <trkpt lat="45.69336" lon="6.53896">
        <ele>1648.3</ele>
        <time>2018-10-26T11:54:20Z</time>
      </trkpt>
      <trkpt lat="45.69329" lon="6.53882">
        <ele>1647.8</ele>
        <time>2018-10-26T11:54:22Z</time>
      </trkpt>
      <trkpt lat="45.69319" lon="6.53868">
        <ele>1647.6</ele>
        <time>2018-10-26T11:54:24Z</time>
      </trkpt>
      <trkpt lat="45.69309" lon="6.53862">
        <ele>1647.3</ele>
        <time>2018-10-26T11:54:26Z</time>
      </trkpt>
      <trkpt lat="45.69298" lon="6.53857">
        <ele>1646.9</ele>
        <time>2018-10-26T11:54:28Z</time>
      </trkpt>
      <trkpt lat="45.69287" lon="6.53849">
        <ele>1646.4</ele>
        <time>2018-10-26T11:54:30Z</time>
      </trkpt>
      <trkpt lat="45.69276" lon="6.53839">
        <ele>1646.1</ele>
        <time>2018-10-26T11:54:32Z</time>
      </trkpt>
      <trkpt lat="45.69267" lon="6.53828">
        <ele>1645.7</ele>
        <time>2018-10-26T11:54:34Z</time>
      </trkpt>
      <trkpt lat="45.6926" lon="6.53818">
        <ele>1645.2</ele>
        <time>2018-10-26T11:54:36Z</time>
      </trkpt>
      <trkpt lat="45.69251" lon="6.53811">
        <ele>1644.6</ele>
        <time>2018-10-26T11:54:38Z</time>
      </trkpt>
      <trkpt lat="45.69243" lon="6.53805">
        <ele>1644</ele>
        <time>2018-10-26T11:54:40Z</time>
      </trkpt>
      <trkpt lat="45.69237" lon="6.53795">
        <ele>1643.3</ele>
        <time>2018-10-26T11:54:42Z</time>
      </trkpt>
      <trkpt lat="45.69233" lon="6.53781">
        <ele>1642.8</ele>
        <time>2018-10-26T11:54:44Z</time>
      </trkpt>
      <trkpt lat="45.69229" lon="6.53765">
        <ele>1642.3</ele>
        <time>2018-10-26T11:54:46Z</time>
      </trkpt>
      <trkpt lat="45.69225" lon="6.53749">
        <ele>1641.9</ele>
        <time>2018-10-26T11:54:48Z</time>
      </trkpt>
      <trkpt lat="45.69218" lon="6.53732">
        <ele>1641.4</ele>
        <time>2018-10-26T11:54:50Z</time>
      </trkpt>
      <trkpt lat="45.69209" lon="6.53717">
        <ele>1640.9</ele>
        <time>2018-10-26T11:54:52Z</time>
      </trkpt>
      <trkpt lat="45.69198" lon="6.53707">
        <ele>1640.6</ele>
        <time>2018-10-26T11:54:54Z</time>
      </trkpt>
      <trkpt lat="45.69186" lon="6.537">
        <ele>1640.2</ele>
        <time>2018-10-26T11:54:56Z</time>
      </trkpt>
      <trkpt lat="45.69176" lon="6.53691">
        <ele>1639.8</ele>
        <time>2018-10-26T11:54:58Z</time>
      </trkpt>
      <trkpt lat="45.69168" lon="6.53679">
        <ele>1639.2</ele>
        <time>2018-10-26T11:55:00Z</time>
      </trkpt>
      <trkpt lat="45.69162" lon="6.53664">
        <ele>1638.7</ele>
        <time>2018-10-26T11:55:02Z</time>
      </trkpt>
      <trkpt lat="45.69155" lon="6.53648">
        <ele>1638.3</ele>
        <time>2018-10-26T11:55:04Z</time>
      </trkpt>
      <trkpt lat="45.69148" lon="6.53634">
        <ele>1637.7</ele>
        <time>2018-10-26T11:55:06Z</time>
      </trkpt>
      <trkpt lat="45.69143" lon="6.53618">
        <ele>1637</ele>
        <time>2018-10-26T11:55:08Z</time>
      </trkpt>
      <trkpt lat="45.69139" lon="6.53601">
        <ele>1636.3</ele>
        <time>2018-10-26T11:55:10Z</time>
      </trkpt>
      <trkpt lat="45.69138" lon="6.53583">
        <ele>1635.8</ele>
        <time>2018-10-26T11:55:12Z</time>
      </trkpt>
      <trkpt lat="45.69138" lon="6.53564">
        <ele>1635.3</ele>
        <time>2018-10-26T11:55:14Z</time>
      </trkpt>
      <trkpt lat="45.69138" lon="6.53546">
        <ele>1635</ele>
        <time>2018-10-26T11:55:16Z</time>
      </trkpt>
      <trkpt lat="45.69137" lon="6.53529">
        <ele>1634.6</ele>
        <time>2018-10-26T11:55:18Z</time>
      </trkpt>
      <trkpt lat="45.6913" lon="6.53514">
        <ele>1633.9</ele>
        <time>2018-10-26T11:55:20Z</time>
      </trkpt>
      <trkpt lat="45.69119" lon="6.53506">
        <ele>1633.5</ele>
        <time>2018-10-26T11:55:22Z</time>
      </trkpt>
      <trkpt lat="45.69109" lon="6.535">
        <ele>1632.8</ele>
        <time>2018-10-26T11:55:24Z</time>
      </trkpt>
      <trkpt lat="45.69101" lon="6.53489">
        <ele>1632.3</ele>
        <time>2018-10-26T11:55:26Z</time>
      </trkpt>
      <trkpt lat="45.69098" lon="6.53471">
        <ele>1631.9</ele>
        <time>2018-10-26T11:55:28Z</time>
      </trkpt>
      <trkpt lat="45.69096" lon="6.53453">
        <ele>1631.4</ele>
        <time>2018-10-26T11:55:30Z</time>
      </trkpt>
      <trkpt lat="45.69094" lon="6.53436">
        <ele>1631</ele>
        <time>2018-10-26T11:55:32Z</time>
      </trkpt>
      <trkpt lat="45.69093" lon="6.53416">
        <ele>1630.5</ele>
        <time>2018-10-26T11:55:34Z</time>
      </trkpt>
      <trkpt lat="45.69092" lon="6.53398">
        <ele>1630.2</ele>
        <time>2018-10-26T11:55:36Z</time>
      </trkpt>
      <trkpt lat="45.69088" lon="6.53381">
        <ele>1629.8</ele>
        <time>2018-10-26T11:55:38Z</time>
      </trkpt>
      <trkpt lat="45.69079" lon="6.53371">
        <ele>1629.2</ele>
        <time>2018-10-26T11:55:40Z</time>
      </trkpt>
      <trkpt lat="45.69068" lon="6.5337">
        <ele>1628.7</ele>
        <time>2018-10-26T11:55:42Z</time>
      </trkpt>
      <trkpt lat="45.69056" lon="6.53377">
        <ele>1628.2</ele>
        <time>2018-10-26T11:55:45Z</time>
      </trkpt>
      <trkpt lat="45.69045" lon="6.53388">
        <ele>1627.9</ele>
        <time>2018-10-26T11:55:48Z</time>
      </trkpt>
      <trkpt lat="45.69035" lon="6.53394">
        <ele>1627.6</ele>
        <time>2018-10-26T11:55:50Z</time>
      </trkpt>
      <trkpt lat="45.69025" lon="6.53399">
        <ele>1627.2</ele>
        <time>2018-10-26T11:55:52Z</time>
      </trkpt>
      <trkpt lat="45.69013" lon="6.53404">
        <ele>1626.8</ele>
        <time>2018-10-26T11:55:54Z</time>
      </trkpt>
      <trkpt lat="45.69001" lon="6.53408">
        <ele>1626.5</ele>
        <time>2018-10-26T11:55:56Z</time>
      </trkpt>
      <trkpt lat="45.68988" lon="6.53409">
        <ele>1626.1</ele>
        <time>2018-10-26T11:55:58Z</time>
      </trkpt>
      <trkpt lat="45.68976" lon="6.53405">
        <ele>1625.7</ele>
        <time>2018-10-26T11:56:00Z</time>
      </trkpt>
      <trkpt lat="45.68964" lon="6.534">
        <ele>1625.3</ele>
        <time>2018-10-26T11:56:02Z</time>
      </trkpt>
      <trkpt lat="45.68955" lon="6.53392">
        <ele>1625</ele>
        <time>2018-10-26T11:56:04Z</time>
      </trkpt>
      <trkpt lat="45.68945" lon="6.53381">
        <ele>1624.7</ele>
        <time>2018-10-26T11:56:06Z</time>
      </trkpt>
      <trkpt lat="45.68934" lon="6.53373">
        <ele>1624.4</ele>
        <time>2018-10-26T11:56:08Z</time>
      </trkpt>
      <trkpt lat="45.68924" lon="6.5337">
        <ele>1624.3</ele>
        <time>2018-10-26T11:56:10Z</time>
      </trkpt>
      <trkpt lat="45.68915" lon="6.53372">
        <ele>1624.2</ele>
        <time>2018-10-26T11:56:12Z</time>
      </trkpt>
      <trkpt lat="45.68906" lon="6.53378">
        <ele>1624.2</ele>
        <time>2018-10-26T11:56:14Z</time>
      </trkpt>
      <trkpt lat="45.68899" lon="6.53386">
        <ele>1624.1</ele>
        <time>2018-10-26T11:56:16Z</time>
      </trkpt>
      <trkpt lat="45.68892" lon="6.53397">
        <ele>1623.8</ele>
        <time>2018-10-26T11:56:18Z</time>
      </trkpt>
      <trkpt lat="45.68886" lon="6.5341">
        <ele>1623.5</ele>
        <time>2018-10-26T11:56:20Z</time>
      </trkpt>
      <trkpt lat="45.6888" lon="6.53424">
        <ele>1623.1</ele>
        <time>2018-10-26T11:56:22Z</time>
      </trkpt>
      <trkpt lat="45.68872" lon="6.53437">
        <ele>1622.7</ele>
        <time>2018-10-26T11:56:24Z</time>
      </trkpt>
      <trkpt lat="45.68864" lon="6.53448">
        <ele>1622.5</ele>
        <time>2018-10-26T11:56:26Z</time>
      </trkpt>
      <trkpt lat="45.68855" lon="6.53458">
        <ele>1622.1</ele>
        <time>2018-10-26T11:56:28Z</time>
      </trkpt>
      <trkpt lat="45.68848" lon="6.53471">
        <ele>1621.6</ele>
        <time>2018-10-26T11:56:30Z</time>
      </trkpt>
      <trkpt lat="45.68844" lon="6.53484">
        <ele>1621.3</ele>
        <time>2018-10-26T11:56:32Z</time>
      </trkpt>
      <trkpt lat="45.68837" lon="6.53497">
        <ele>1621</ele>
        <time>2018-10-26T11:56:34Z</time>
      </trkpt>
      <trkpt lat="45.6883" lon="6.53508">
        <ele>1620.7</ele>
        <time>2018-10-26T11:56:36Z</time>
      </trkpt>
      <trkpt lat="45.68823" lon="6.53519">
        <ele>1620.5</ele>
        <time>2018-10-26T11:56:38Z</time>
      </trkpt>
      <trkpt lat="45.68814" lon="6.53527">
        <ele>1620.3</ele>
        <time>2018-10-26T11:56:40Z</time>
      </trkpt>
      <trkpt lat="45.68804" lon="6.53534">
        <ele>1620</ele>
        <time>2018-10-26T11:56:42Z</time>
      </trkpt>
      <trkpt lat="45.68796" lon="6.53542">
        <ele>1619.7</ele>
        <time>2018-10-26T11:56:44Z</time>
      </trkpt>
      <trkpt lat="45.68789" lon="6.53553">
        <ele>1619.1</ele>
        <time>2018-10-26T11:56:46Z</time>
      </trkpt>
      <trkpt lat="45.68785" lon="6.53569">
        <ele>1618.6</ele>
        <time>2018-10-26T11:56:48Z</time>
      </trkpt>
      <trkpt lat="45.68782" lon="6.53585">
        <ele>1618.1</ele>
        <time>2018-10-26T11:56:50Z</time>
      </trkpt>
      <trkpt lat="45.68779" lon="6.53601">
        <ele>1617.5</ele>
        <time>2018-10-26T11:56:52Z</time>
      </trkpt>
      <trkpt lat="45.68772" lon="6.53616">
        <ele>1616.9</ele>
        <time>2018-10-26T11:56:54Z</time>
      </trkpt>
      <trkpt lat="45.68767" lon="6.53633">
        <ele>1616.3</ele>
        <time>2018-10-26T11:56:56Z</time>
      </trkpt>
      <trkpt lat="45.68765" lon="6.53651">
        <ele>1615.7</ele>
        <time>2018-10-26T11:56:58Z</time>
      </trkpt>
      <trkpt lat="45.68758" lon="6.53669">
        <ele>1614.9</ele>
        <time>2018-10-26T11:57:00Z</time>
      </trkpt>
      <trkpt lat="45.68752" lon="6.53686">
        <ele>1614.2</ele>
        <time>2018-10-26T11:57:02Z</time>
      </trkpt>
      <trkpt lat="45.68751" lon="6.53705">
        <ele>1613.4</ele>
        <time>2018-10-26T11:57:04Z</time>
      </trkpt>
      <trkpt lat="45.68751" lon="6.53724">
        <ele>1612.6</ele>
        <time>2018-10-26T11:57:06Z</time>
      </trkpt>
      <trkpt lat="45.68749" lon="6.53744">
        <ele>1611.8</ele>
        <time>2018-10-26T11:57:08Z</time>
      </trkpt>
      <trkpt lat="45.68746" lon="6.53764">
        <ele>1610.8</ele>
        <time>2018-10-26T11:57:10Z</time>
      </trkpt>
      <trkpt lat="45.6874" lon="6.53785">
        <ele>1609.8</ele>
        <time>2018-10-26T11:57:12Z</time>
      </trkpt>
      <trkpt lat="45.68735" lon="6.53806">
        <ele>1608.7</ele>
        <time>2018-10-26T11:57:14Z</time>
      </trkpt>
      <trkpt lat="45.6873" lon="6.53828">
        <ele>1607.6</ele>
        <time>2018-10-26T11:57:16Z</time>
      </trkpt>
      <trkpt lat="45.68724" lon="6.53851">
        <ele>1606.6</ele>
        <time>2018-10-26T11:57:18Z</time>
      </trkpt>
      <trkpt lat="45.68718" lon="6.53873">
        <ele>1605.4</ele>
        <time>2018-10-26T11:57:20Z</time>
      </trkpt>
      <trkpt lat="45.68713" lon="6.53889">
        <ele>1604.1</ele>
        <time>2018-10-26T11:57:22Z</time>
      </trkpt>
      <trkpt lat="45.68706" lon="6.53902">
        <ele>1602.4</ele>
        <time>2018-10-26T11:57:25Z</time>
      </trkpt>
      <trkpt lat="45.68716" lon="6.539">
        <ele>1596.4</ele>
        <time>2018-10-26T11:58:43Z</time>
      </trkpt>
      <trkpt lat="45.68726" lon="6.53893">
        <ele>1592.4</ele>
        <time>2018-10-26T11:58:52Z</time>
      </trkpt>
      <trkpt lat="45.68732" lon="6.53883">
        <ele>1589.9</ele>
        <time>2018-10-26T11:58:55Z</time>
      </trkpt>
      <trkpt lat="45.68736" lon="6.53896">
        <ele>1585.9</ele>
        <time>2018-10-26T11:59:01Z</time>
      </trkpt>
      <trkpt lat="45.68736" lon="6.53911">
        <ele>1583.7</ele>
        <time>2018-10-26T11:59:04Z</time>
      </trkpt>
      <trkpt lat="45.68738" lon="6.53926">
        <ele>1577.6</ele>
        <time>2018-10-26T11:59:14Z</time>
      </trkpt>
      <trkpt lat="45.68747" lon="6.53914">
        <ele>1573.4</ele>
        <time>2018-10-26T11:59:21Z</time>
      </trkpt>
      <trkpt lat="45.68753" lon="6.53904">
        <ele>1570.9</ele>
        <time>2018-10-26T11:59:24Z</time>
      </trkpt>
      <trkpt lat="45.68762" lon="6.53893">
        <ele>1568.1</ele>
        <time>2018-10-26T11:59:27Z</time>
      </trkpt>
      <trkpt lat="45.68771" lon="6.53882">
        <ele>1565</ele>
        <time>2018-10-26T11:59:30Z</time>
      </trkpt>
      <trkpt lat="45.68772" lon="6.53897">
        <ele>1558.4</ele>
        <time>2018-10-26T11:59:44Z</time>
      </trkpt>
      <trkpt lat="45.68771" lon="6.53911">
        <ele>1557.7</ele>
        <time>2018-10-26T11:59:47Z</time>
      </trkpt>
      <trkpt lat="45.68771" lon="6.53924">
        <ele>1557</ele>
        <time>2018-10-26T11:59:50Z</time>
      </trkpt>
      <trkpt lat="45.68768" lon="6.53938">
        <ele>1556.3</ele>
        <time>2018-10-26T11:59:53Z</time>
      </trkpt>
      <trkpt lat="45.68767" lon="6.53951">
        <ele>1555.7</ele>
        <time>2018-10-26T11:59:55Z</time>
      </trkpt>
      <trkpt lat="45.68763" lon="6.53964">
        <ele>1555.2</ele>
        <time>2018-10-26T11:59:57Z</time>
      </trkpt>
      <trkpt lat="45.68755" lon="6.53975">
        <ele>1554.4</ele>
        <time>2018-10-26T12:00:00Z</time>
      </trkpt>
      <trkpt lat="45.68746" lon="6.5398">
        <ele>1552.8</ele>
        <time>2018-10-26T12:00:03Z</time>
      </trkpt>
      <trkpt lat="45.68737" lon="6.53986">
        <ele>1551.1</ele>
        <time>2018-10-26T12:00:06Z</time>
      </trkpt>
      <trkpt lat="45.68733" lon="6.53998">
        <ele>1549.2</ele>
        <time>2018-10-26T12:00:10Z</time>
      </trkpt>
      <trkpt lat="45.68732" lon="6.54011">
        <ele>1547.6</ele>
        <time>2018-10-26T12:00:19Z</time>
      </trkpt>
      <trkpt lat="45.68731" lon="6.54024">
        <ele>1547.4</ele>
        <time>2018-10-26T12:00:24Z</time>
      </trkpt>
      <trkpt lat="45.68724" lon="6.54036">
        <ele>1545.8</ele>
        <time>2018-10-26T12:00:28Z</time>
      </trkpt>
      <trkpt lat="45.68717" lon="6.54046">
        <ele>1543.9</ele>
        <time>2018-10-26T12:00:31Z</time>
      </trkpt>
      <trkpt lat="45.68711" lon="6.54058">
        <ele>1541.4</ele>
        <time>2018-10-26T12:00:34Z</time>
      </trkpt>
      <trkpt lat="45.68704" lon="6.5407">
        <ele>1538.4</ele>
        <time>2018-10-26T12:00:37Z</time>
      </trkpt>
      <trkpt lat="45.68697" lon="6.54082">
        <ele>1534.8</ele>
        <time>2018-10-26T12:00:40Z</time>
      </trkpt>
      <trkpt lat="45.68694" lon="6.54097">
        <ele>1531</ele>
        <time>2018-10-26T12:00:43Z</time>
      </trkpt>
      <trkpt lat="45.68695" lon="6.54113">
        <ele>1527.2</ele>
        <time>2018-10-26T12:00:46Z</time>
      </trkpt>
      <trkpt lat="45.68698" lon="6.54126">
        <ele>1523.8</ele>
        <time>2018-10-26T12:00:49Z</time>
      </trkpt>
      <trkpt lat="45.68707" lon="6.54126">
        <ele>1515.1</ele>
        <time>2018-10-26T12:00:59Z</time>
      </trkpt>
      <trkpt lat="45.68712" lon="6.54139">
        <ele>1511.2</ele>
        <time>2018-10-26T12:01:04Z</time>
      </trkpt>
      <trkpt lat="45.68719" lon="6.54131">
        <ele>1505.5</ele>
        <time>2018-10-26T12:01:12Z</time>
      </trkpt>
      <trkpt lat="45.68728" lon="6.54129">
        <ele>1501</ele>
        <time>2018-10-26T12:01:18Z</time>
      </trkpt>
      <trkpt lat="45.68737" lon="6.54133">
        <ele>1495.2</ele>
        <time>2018-10-26T12:01:28Z</time>
      </trkpt>
      <trkpt lat="45.68746" lon="6.5414">
        <ele>1490.9</ele>
        <time>2018-10-26T12:01:34Z</time>
      </trkpt>
      <trkpt lat="45.68748" lon="6.54153">
        <ele>1487.7</ele>
        <time>2018-10-26T12:01:38Z</time>
      </trkpt>
      <trkpt lat="45.68759" lon="6.54147">
        <ele>1483.1</ele>
        <time>2018-10-26T12:01:45Z</time>
      </trkpt>
      <trkpt lat="45.68768" lon="6.54156">
        <ele>1479</ele>
        <time>2018-10-26T12:01:51Z</time>
      </trkpt>
      <trkpt lat="45.68773" lon="6.54167">
        <ele>1476.9</ele>
        <time>2018-10-26T12:01:54Z</time>
      </trkpt>
      <trkpt lat="45.6878" lon="6.54177">
        <ele>1475.3</ele>
        <time>2018-10-26T12:01:56Z</time>
      </trkpt>
      <trkpt lat="45.68786" lon="6.54188">
        <ele>1472.5</ele>
        <time>2018-10-26T12:02:00Z</time>
      </trkpt>
      <trkpt lat="45.6879" lon="6.54206">
        <ele>1470.1</ele>
        <time>2018-10-26T12:02:03Z</time>
      </trkpt>
      <trkpt lat="45.68797" lon="6.54216">
        <ele>1467.8</ele>
        <time>2018-10-26T12:02:06Z</time>
      </trkpt>
      <trkpt lat="45.68799" lon="6.54231">
        <ele>1465.5</ele>
        <time>2018-10-26T12:02:10Z</time>
      </trkpt>
      <trkpt lat="45.68802" lon="6.54245">
        <ele>1462.2</ele>
        <time>2018-10-26T12:02:15Z</time>
      </trkpt>
      <trkpt lat="45.68804" lon="6.5426">
        <ele>1459.5</ele>
        <time>2018-10-26T12:02:20Z</time>
      </trkpt>
      <trkpt lat="45.68808" lon="6.54271">
        <ele>1457.5</ele>
        <time>2018-10-26T12:02:24Z</time>
      </trkpt>
      <trkpt lat="45.68812" lon="6.54284">
        <ele>1454.3</ele>
        <time>2018-10-26T12:02:34Z</time>
      </trkpt>
      <trkpt lat="45.68807" lon="6.54297">
        <ele>1452</ele>
        <time>2018-10-26T12:02:39Z</time>
      </trkpt>
      <trkpt lat="45.68817" lon="6.54298">
        <ele>1446.5</ele>
        <time>2018-10-26T12:02:50Z</time>
      </trkpt>
      <trkpt lat="45.68825" lon="6.5429">
        <ele>1445.8</ele>
        <time>2018-10-26T12:02:54Z</time>
      </trkpt>
      <trkpt lat="45.68834" lon="6.54288">
        <ele>1442.3</ele>
        <time>2018-10-26T12:03:01Z</time>
      </trkpt>
      <trkpt lat="45.68846" lon="6.5429">
        <ele>1439.1</ele>
        <time>2018-10-26T12:03:06Z</time>
      </trkpt>
      <trkpt lat="45.68856" lon="6.54291">
        <ele>1436.9</ele>
        <time>2018-10-26T12:03:09Z</time>
      </trkpt>
      <trkpt lat="45.68855" lon="6.54276">
        <ele>1425.9</ele>
        <time>2018-10-26T12:03:29Z</time>
      </trkpt>
      <trkpt lat="45.68852" lon="6.54262">
        <ele>1423</ele>
        <time>2018-10-26T12:03:34Z</time>
      </trkpt>
      <trkpt lat="45.6886" lon="6.54255">
        <ele>1417.4</ele>
        <time>2018-10-26T12:03:42Z</time>
      </trkpt>
      <trkpt lat="45.68868" lon="6.54246">
        <ele>1412</ele>
        <time>2018-10-26T12:03:49Z</time>
      </trkpt>
      <trkpt lat="45.68875" lon="6.54237">
        <ele>1406</ele>
        <time>2018-10-26T12:03:56Z</time>
      </trkpt>
      <trkpt lat="45.68881" lon="6.54226">
        <ele>1402</ele>
        <time>2018-10-26T12:04:01Z</time>
      </trkpt>
      <trkpt lat="45.6889" lon="6.54222">
        <ele>1396.2</ele>
        <time>2018-10-26T12:04:10Z</time>
      </trkpt>
      <trkpt lat="45.68899" lon="6.54223">
        <ele>1393</ele>
        <time>2018-10-26T12:04:14Z</time>
      </trkpt>
      <trkpt lat="45.68909" lon="6.54224">
        <ele>1389.9</ele>
        <time>2018-10-26T12:04:17Z</time>
      </trkpt>
      <trkpt lat="45.6892" lon="6.54226">
        <ele>1386.4</ele>
        <time>2018-10-26T12:04:20Z</time>
      </trkpt>
      <trkpt lat="45.68929" lon="6.54229">
        <ele>1383.1</ele>
        <time>2018-10-26T12:04:23Z</time>
      </trkpt>
      <trkpt lat="45.68938" lon="6.5424">
        <ele>1378.5</ele>
        <time>2018-10-26T12:04:27Z</time>
      </trkpt>
      <trkpt lat="45.68943" lon="6.54253">
        <ele>1375.3</ele>
        <time>2018-10-26T12:04:30Z</time>
      </trkpt>
      <trkpt lat="45.6895" lon="6.54266">
        <ele>1370.7</ele>
        <time>2018-10-26T12:04:34Z</time>
      </trkpt>
      <trkpt lat="45.68957" lon="6.54278">
        <ele>1366.2</ele>
        <time>2018-10-26T12:04:38Z</time>
      </trkpt>
      <trkpt lat="45.68962" lon="6.54291">
        <ele>1363.3</ele>
        <time>2018-10-26T12:04:42Z</time>
      </trkpt>
      <trkpt lat="45.68965" lon="6.54308">
        <ele>1361.3</ele>
        <time>2018-10-26T12:04:46Z</time>
      </trkpt>
      <trkpt lat="45.68969" lon="6.54321">
        <ele>1359.8</ele>
        <time>2018-10-26T12:04:49Z</time>
      </trkpt>
      <trkpt lat="45.68971" lon="6.54337">
        <ele>1358.6</ele>
        <time>2018-10-26T12:04:52Z</time>
      </trkpt>
      <trkpt lat="45.6897" lon="6.54353">
        <ele>1357.1</ele>
        <time>2018-10-26T12:04:55Z</time>
      </trkpt>
      <trkpt lat="45.68972" lon="6.54371">
        <ele>1355.6</ele>
        <time>2018-10-26T12:04:58Z</time>
      </trkpt>
      <trkpt lat="45.68977" lon="6.54383">
        <ele>1354.3</ele>
        <time>2018-10-26T12:05:01Z</time>
      </trkpt>
      <trkpt lat="45.68985" lon="6.54393">
        <ele>1352.8</ele>
        <time>2018-10-26T12:05:06Z</time>
      </trkpt>
      <trkpt lat="45.68991" lon="6.54403">
        <ele>1351.9</ele>
        <time>2018-10-26T12:05:09Z</time>
      </trkpt>
      <trkpt lat="45.68999" lon="6.54413">
        <ele>1351.1</ele>
        <time>2018-10-26T12:05:12Z</time>
      </trkpt>
      <trkpt lat="45.69007" lon="6.54421">
        <ele>1350</ele>
        <time>2018-10-26T12:05:15Z</time>
      </trkpt>
      <trkpt lat="45.69014" lon="6.5443">
        <ele>1348.7</ele>
        <time>2018-10-26T12:05:18Z</time>
      </trkpt>
      <trkpt lat="45.69019" lon="6.54441">
        <ele>1347.2</ele>
        <time>2018-10-26T12:05:22Z</time>
      </trkpt>
      <trkpt lat="45.69021" lon="6.5446">
        <ele>1345.3</ele>
        <time>2018-10-26T12:05:25Z</time>
      </trkpt>
      <trkpt lat="45.69022" lon="6.54474">
        <ele>1343.9</ele>
        <time>2018-10-26T12:05:27Z</time>
      </trkpt>
      <trkpt lat="45.69021" lon="6.54487">
        <ele>1341.9</ele>
        <time>2018-10-26T12:05:30Z</time>
      </trkpt>
      <trkpt lat="45.69016" lon="6.54499">
        <ele>1339.8</ele>
        <time>2018-10-26T12:05:35Z</time>
      </trkpt>
      <trkpt lat="45.69007" lon="6.54507">
        <ele>1338.1</ele>
        <time>2018-10-26T12:05:40Z</time>
      </trkpt>
      <trkpt lat="45.68996" lon="6.54511">
        <ele>1337</ele>
        <time>2018-10-26T12:05:43Z</time>
      </trkpt>
      <trkpt lat="45.68992" lon="6.54523">
        <ele>1335.6</ele>
        <time>2018-10-26T12:05:46Z</time>
      </trkpt>
      <trkpt lat="45.68995" lon="6.54536">
        <ele>1334</ele>
        <time>2018-10-26T12:05:50Z</time>
      </trkpt>
      <trkpt lat="45.69" lon="6.54547">
        <ele>1332.3</ele>
        <time>2018-10-26T12:05:53Z</time>
      </trkpt>
      <trkpt lat="45.69005" lon="6.54558">
        <ele>1330.4</ele>
        <time>2018-10-26T12:05:56Z</time>
      </trkpt>
      <trkpt lat="45.69012" lon="6.54568">
        <ele>1328.7</ele>
        <time>2018-10-26T12:06:00Z</time>
      </trkpt>
      <trkpt lat="45.6902" lon="6.54579">
        <ele>1327.6</ele>
        <time>2018-10-26T12:06:04Z</time>
      </trkpt>
      <trkpt lat="45.69024" lon="6.54593">
        <ele>1326</ele>
        <time>2018-10-26T12:06:08Z</time>
      </trkpt>
      <trkpt lat="45.69024" lon="6.5461">
        <ele>1324.2</ele>
        <time>2018-10-26T12:06:12Z</time>
      </trkpt>
      <trkpt lat="45.69024" lon="6.54624">
        <ele>1322.4</ele>
        <time>2018-10-26T12:06:16Z</time>
      </trkpt>
      <trkpt lat="45.69023" lon="6.54638">
        <ele>1320.4</ele>
        <time>2018-10-26T12:06:19Z</time>
      </trkpt>
      <trkpt lat="45.69026" lon="6.54654">
        <ele>1318.4</ele>
        <time>2018-10-26T12:06:22Z</time>
      </trkpt>
      <trkpt lat="45.69024" lon="6.54671">
        <ele>1316.1</ele>
        <time>2018-10-26T12:06:26Z</time>
      </trkpt>
      <trkpt lat="45.69023" lon="6.54685">
        <ele>1314.4</ele>
        <time>2018-10-26T12:06:29Z</time>
      </trkpt>
      <trkpt lat="45.69021" lon="6.547">
        <ele>1312.9</ele>
        <time>2018-10-26T12:06:33Z</time>
      </trkpt>
      <trkpt lat="45.69018" lon="6.54716">
        <ele>1311.4</ele>
        <time>2018-10-26T12:06:37Z</time>
      </trkpt>
      <trkpt lat="45.69017" lon="6.5473">
        <ele>1309.8</ele>
        <time>2018-10-26T12:06:40Z</time>
      </trkpt>
      <trkpt lat="45.69017" lon="6.54742">
        <ele>1308</ele>
        <time>2018-10-26T12:06:43Z</time>
      </trkpt>
      <trkpt lat="45.69007" lon="6.5475">
        <ele>1306</ele>
        <time>2018-10-26T12:06:48Z</time>
      </trkpt>
      <trkpt lat="45.68994" lon="6.54752">
        <ele>1304.7</ele>
        <time>2018-10-26T12:06:51Z</time>
      </trkpt>
      <trkpt lat="45.68983" lon="6.54757">
        <ele>1303.3</ele>
        <time>2018-10-26T12:06:54Z</time>
      </trkpt>
      <trkpt lat="45.68973" lon="6.54761">
        <ele>1302</ele>
        <time>2018-10-26T12:06:57Z</time>
      </trkpt>
      <trkpt lat="45.68963" lon="6.54763">
        <ele>1300.8</ele>
        <time>2018-10-26T12:07:00Z</time>
      </trkpt>
      <trkpt lat="45.68951" lon="6.54763">
        <ele>1299.9</ele>
        <time>2018-10-26T12:07:03Z</time>
      </trkpt>
      <trkpt lat="45.68941" lon="6.54762">
        <ele>1299</ele>
        <time>2018-10-26T12:07:06Z</time>
      </trkpt>
      <trkpt lat="45.68931" lon="6.54761">
        <ele>1297.4</ele>
        <time>2018-10-26T12:07:09Z</time>
      </trkpt>
      <trkpt lat="45.68933" lon="6.54775">
        <ele>1294.1</ele>
        <time>2018-10-26T12:07:15Z</time>
      </trkpt>
      <trkpt lat="45.68939" lon="6.54787">
        <ele>1292.2</ele>
        <time>2018-10-26T12:07:19Z</time>
      </trkpt>
      <trkpt lat="45.68948" lon="6.54798">
        <ele>1290.6</ele>
        <time>2018-10-26T12:07:23Z</time>
      </trkpt>
      <trkpt lat="45.68956" lon="6.54809">
        <ele>1288.8</ele>
        <time>2018-10-26T12:07:26Z</time>
      </trkpt>
      <trkpt lat="45.68963" lon="6.5482">
        <ele>1287.1</ele>
        <time>2018-10-26T12:07:29Z</time>
      </trkpt>
      <trkpt lat="45.68969" lon="6.5483">
        <ele>1286.2</ele>
        <time>2018-10-26T12:07:31Z</time>
      </trkpt>
      <trkpt lat="45.68973" lon="6.54842">
        <ele>1285.4</ele>
        <time>2018-10-26T12:07:33Z</time>
      </trkpt>
      <trkpt lat="45.68975" lon="6.54855">
        <ele>1284.2</ele>
        <time>2018-10-26T12:07:36Z</time>
      </trkpt>
      <trkpt lat="45.68976" lon="6.5487">
        <ele>1283.1</ele>
        <time>2018-10-26T12:07:40Z</time>
      </trkpt>
      <trkpt lat="45.68976" lon="6.54883">
        <ele>1281.9</ele>
        <time>2018-10-26T12:07:44Z</time>
      </trkpt>
      <trkpt lat="45.68975" lon="6.54896">
        <ele>1280.5</ele>
        <time>2018-10-26T12:07:49Z</time>
      </trkpt>
      <trkpt lat="45.68972" lon="6.54909">
        <ele>1279.6</ele>
        <time>2018-10-26T12:07:53Z</time>
      </trkpt>
      <trkpt lat="45.68963" lon="6.54916">
        <ele>1279</ele>
        <time>2018-10-26T12:07:58Z</time>
      </trkpt>
      <trkpt lat="45.6895" lon="6.54917">
        <ele>1278.7</ele>
        <time>2018-10-26T12:08:02Z</time>
      </trkpt>
      <trkpt lat="45.68939" lon="6.54918">
        <ele>1278.4</ele>
        <time>2018-10-26T12:08:05Z</time>
      </trkpt>
      <trkpt lat="45.68927" lon="6.54916">
        <ele>1277.8</ele>
        <time>2018-10-26T12:08:09Z</time>
      </trkpt>
      <trkpt lat="45.68916" lon="6.54918">
        <ele>1276.9</ele>
        <time>2018-10-26T12:08:12Z</time>
      </trkpt>
      <trkpt lat="45.68913" lon="6.5493">
        <ele>1275.1</ele>
        <time>2018-10-26T12:08:20Z</time>
      </trkpt>
      <trkpt lat="45.68914" lon="6.54943">
        <ele>1274.3</ele>
        <time>2018-10-26T12:08:24Z</time>
      </trkpt>
      <trkpt lat="45.68917" lon="6.54956">
        <ele>1274.1</ele>
        <time>2018-10-26T12:08:29Z</time>
      </trkpt>
      <trkpt lat="45.68923" lon="6.54971">
        <ele>1273.7</ele>
        <time>2018-10-26T12:08:34Z</time>
      </trkpt>
      <trkpt lat="45.68928" lon="6.54984">
        <ele>1273.2</ele>
        <time>2018-10-26T12:08:38Z</time>
      </trkpt>
      <trkpt lat="45.68932" lon="6.54995">
        <ele>1272.3</ele>
        <time>2018-10-26T12:08:42Z</time>
      </trkpt>
      <trkpt lat="45.68936" lon="6.55008">
        <ele>1271.3</ele>
        <time>2018-10-26T12:08:45Z</time>
      </trkpt>
      <trkpt lat="45.6894" lon="6.55021">
        <ele>1269.8</ele>
        <time>2018-10-26T12:08:49Z</time>
      </trkpt>
      <trkpt lat="45.68948" lon="6.55033">
        <ele>1268</ele>
        <time>2018-10-26T12:08:53Z</time>
      </trkpt>
      <trkpt lat="45.68951" lon="6.55048">
        <ele>1265.5</ele>
        <time>2018-10-26T12:08:57Z</time>
      </trkpt>
      <trkpt lat="45.68954" lon="6.55063">
        <ele>1264.2</ele>
        <time>2018-10-26T12:08:59Z</time>
      </trkpt>
      <trkpt lat="45.68956" lon="6.55076">
        <ele>1262.1</ele>
        <time>2018-10-26T12:09:03Z</time>
      </trkpt>
      <trkpt lat="45.68947" lon="6.55084">
        <ele>1260.7</ele>
        <time>2018-10-26T12:09:07Z</time>
      </trkpt>
      <trkpt lat="45.68937" lon="6.55089">
        <ele>1259.7</ele>
        <time>2018-10-26T12:09:10Z</time>
      </trkpt>
      <trkpt lat="45.68929" lon="6.55096">
        <ele>1258.4</ele>
        <time>2018-10-26T12:09:13Z</time>
      </trkpt>
      <trkpt lat="45.68919" lon="6.55101">
        <ele>1256.9</ele>
        <time>2018-10-26T12:09:19Z</time>
      </trkpt>
      <trkpt lat="45.68919" lon="6.55116">
        <ele>1251.3</ele>
        <time>2018-10-26T12:09:40Z</time>
      </trkpt>
      <trkpt lat="45.68926" lon="6.55126">
        <ele>1250.6</ele>
        <time>2018-10-26T12:09:44Z</time>
      </trkpt>
      <trkpt lat="45.68934" lon="6.55135">
        <ele>1249.4</ele>
        <time>2018-10-26T12:09:48Z</time>
      </trkpt>
      <trkpt lat="45.68939" lon="6.55146">
        <ele>1248.6</ele>
        <time>2018-10-26T12:09:52Z</time>
      </trkpt>
      <trkpt lat="45.68946" lon="6.55155">
        <ele>1247.7</ele>
        <time>2018-10-26T12:09:55Z</time>
      </trkpt>
      <trkpt lat="45.68954" lon="6.55164">
        <ele>1246.2</ele>
        <time>2018-10-26T12:09:59Z</time>
      </trkpt>
      <trkpt lat="45.68964" lon="6.55174">
        <ele>1244</ele>
        <time>2018-10-26T12:10:04Z</time>
      </trkpt>
      <trkpt lat="45.68971" lon="6.55183">
        <ele>1242.3</ele>
        <time>2018-10-26T12:10:08Z</time>
      </trkpt>
      <trkpt lat="45.68981" lon="6.55188">
        <ele>1239.9</ele>
        <time>2018-10-26T12:10:12Z</time>
      </trkpt>
      <trkpt lat="45.68991" lon="6.55194">
        <ele>1237.6</ele>
        <time>2018-10-26T12:10:16Z</time>
      </trkpt>
      <trkpt lat="45.68989" lon="6.55208">
        <ele>1235.5</ele>
        <time>2018-10-26T12:10:22Z</time>
      </trkpt>
      <trkpt lat="45.68984" lon="6.5522">
        <ele>1234.7</ele>
        <time>2018-10-26T12:10:26Z</time>
      </trkpt>
      <trkpt lat="45.68977" lon="6.55229">
        <ele>1234.1</ele>
        <time>2018-10-26T12:10:29Z</time>
      </trkpt>
      <trkpt lat="45.68977" lon="6.55244">
        <ele>1232.3</ele>
        <time>2018-10-26T12:10:33Z</time>
      </trkpt>
      <trkpt lat="45.68985" lon="6.55253">
        <ele>1230.8</ele>
        <time>2018-10-26T12:10:37Z</time>
      </trkpt>
      <trkpt lat="45.68996" lon="6.55259">
        <ele>1229.5</ele>
        <time>2018-10-26T12:10:41Z</time>
      </trkpt>
      <trkpt lat="45.69004" lon="6.55269">
        <ele>1227.7</ele>
        <time>2018-10-26T12:10:45Z</time>
      </trkpt>
      <trkpt lat="45.69006" lon="6.55283">
        <ele>1225.7</ele>
        <time>2018-10-26T12:10:51Z</time>
      </trkpt>
      <trkpt lat="45.68999" lon="6.55295">
        <ele>1224.5</ele>
        <time>2018-10-26T12:10:54Z</time>
      </trkpt>
      <trkpt lat="45.68994" lon="6.55306">
        <ele>1223.6</ele>
        <time>2018-10-26T12:10:56Z</time>
      </trkpt>
      <trkpt lat="45.68994" lon="6.55322">
        <ele>1221.8</ele>
        <time>2018-10-26T12:11:00Z</time>
      </trkpt>
      <trkpt lat="45.69001" lon="6.55336">
        <ele>1220.5</ele>
        <time>2018-10-26T12:11:03Z</time>
      </trkpt>
      <trkpt lat="45.69008" lon="6.55349">
        <ele>1219.2</ele>
        <time>2018-10-26T12:11:06Z</time>
      </trkpt>
      <trkpt lat="45.69016" lon="6.55357">
        <ele>1218</ele>
        <time>2018-10-26T12:11:09Z</time>
      </trkpt>
      <trkpt lat="45.69023" lon="6.55369">
        <ele>1216.7</ele>
        <time>2018-10-26T12:11:12Z</time>
      </trkpt>
      <trkpt lat="45.69029" lon="6.55379">
        <ele>1216</ele>
        <time>2018-10-26T12:11:14Z</time>
      </trkpt>
      <trkpt lat="45.69033" lon="6.55393">
        <ele>1214.8</ele>
        <time>2018-10-26T12:11:17Z</time>
      </trkpt>
      <trkpt lat="45.69031" lon="6.55411">
        <ele>1213.4</ele>
        <time>2018-10-26T12:11:20Z</time>
      </trkpt>
      <trkpt lat="45.69027" lon="6.55426">
        <ele>1212.1</ele>
        <time>2018-10-26T12:11:23Z</time>
      </trkpt>
      <trkpt lat="45.69029" lon="6.5544">
        <ele>1210.8</ele>
        <time>2018-10-26T12:11:26Z</time>
      </trkpt>
      <trkpt lat="45.69037" lon="6.55448">
        <ele>1209.9</ele>
        <time>2018-10-26T12:11:29Z</time>
      </trkpt>
      <trkpt lat="45.69046" lon="6.55455">
        <ele>1209</ele>
        <time>2018-10-26T12:11:33Z</time>
      </trkpt>
      <trkpt lat="45.69054" lon="6.55463">
        <ele>1208.6</ele>
        <time>2018-10-26T12:11:36Z</time>
      </trkpt>
      <trkpt lat="45.69054" lon="6.55478">
        <ele>1207.5</ele>
        <time>2018-10-26T12:11:42Z</time>
      </trkpt>
      <trkpt lat="45.69047" lon="6.55492">
        <ele>1206.5</ele>
        <time>2018-10-26T12:11:45Z</time>
      </trkpt>
      <trkpt lat="45.69044" lon="6.55505">
        <ele>1205.7</ele>
        <time>2018-10-26T12:11:47Z</time>
      </trkpt>
      <trkpt lat="45.69044" lon="6.55518">
        <ele>1204.7</ele>
        <time>2018-10-26T12:11:50Z</time>
      </trkpt>
      <trkpt lat="45.69048" lon="6.5553">
        <ele>1204.1</ele>
        <time>2018-10-26T12:11:54Z</time>
      </trkpt>
      <trkpt lat="45.69057" lon="6.55537">
        <ele>1204.1</ele>
        <time>2018-10-26T12:11:58Z</time>
      </trkpt>
      <trkpt lat="45.69061" lon="6.55549">
        <ele>1203.7</ele>
        <time>2018-10-26T12:12:02Z</time>
      </trkpt>
      <trkpt lat="45.69068" lon="6.55556">
        <ele>1203.1</ele>
        <time>2018-10-26T12:12:05Z</time>
      </trkpt>
      <trkpt lat="45.69079" lon="6.55562">
        <ele>1202.3</ele>
        <time>2018-10-26T12:12:09Z</time>
      </trkpt>
      <trkpt lat="45.69088" lon="6.55566">
        <ele>1201.5</ele>
        <time>2018-10-26T12:12:12Z</time>
      </trkpt>
      <trkpt lat="45.69094" lon="6.55575">
        <ele>1200.6</ele>
        <time>2018-10-26T12:12:15Z</time>
      </trkpt>
      <trkpt lat="45.69099" lon="6.55591">
        <ele>1199.7</ele>
        <time>2018-10-26T12:12:19Z</time>
      </trkpt>
      <trkpt lat="45.69101" lon="6.55607">
        <ele>1198.6</ele>
        <time>2018-10-26T12:12:22Z</time>
      </trkpt>
      <trkpt lat="45.69103" lon="6.55623">
        <ele>1198</ele>
        <time>2018-10-26T12:12:24Z</time>
      </trkpt>
      <trkpt lat="45.69103" lon="6.55636">
        <ele>1197.6</ele>
        <time>2018-10-26T12:12:27Z</time>
      </trkpt>
      <trkpt lat="45.69101" lon="6.55653">
        <ele>1196.6</ele>
        <time>2018-10-26T12:12:30Z</time>
      </trkpt>
      <trkpt lat="45.69104" lon="6.55671">
        <ele>1194.5</ele>
        <time>2018-10-26T12:12:33Z</time>
      </trkpt>
      <trkpt lat="45.69109" lon="6.55689">
        <ele>1191.7</ele>
        <time>2018-10-26T12:12:36Z</time>
      </trkpt>
      <trkpt lat="45.69115" lon="6.55702">
        <ele>1189.5</ele>
        <time>2018-10-26T12:12:38Z</time>
      </trkpt>
      <trkpt lat="45.69122" lon="6.55713">
        <ele>1187</ele>
        <time>2018-10-26T12:12:40Z</time>
      </trkpt>
      <trkpt lat="45.6913" lon="6.5572">
        <ele>1184.5</ele>
        <time>2018-10-26T12:12:42Z</time>
      </trkpt>
      <trkpt lat="45.69137" lon="6.55731">
        <ele>1182</ele>
        <time>2018-10-26T12:12:44Z</time>
      </trkpt>
      <trkpt lat="45.69146" lon="6.55741">
        <ele>1178.5</ele>
        <time>2018-10-26T12:12:47Z</time>
      </trkpt>
      <trkpt lat="45.6915" lon="6.55752">
        <ele>1175.7</ele>
        <time>2018-10-26T12:12:50Z</time>
      </trkpt>
      <trkpt lat="45.69154" lon="6.55766">
        <ele>1171.6</ele>
        <time>2018-10-26T12:12:54Z</time>
      </trkpt>
      <trkpt lat="45.69163" lon="6.55774">
        <ele>1166.5</ele>
        <time>2018-10-26T12:12:59Z</time>
      </trkpt>
      <trkpt lat="45.69169" lon="6.55786">
        <ele>1161.5</ele>
        <time>2018-10-26T12:13:03Z</time>
      </trkpt>
      <trkpt lat="45.69179" lon="6.5579">
        <ele>1156.3</ele>
        <time>2018-10-26T12:13:08Z</time>
      </trkpt>
      <trkpt lat="45.69186" lon="6.55801">
        <ele>1150.6</ele>
        <time>2018-10-26T12:13:14Z</time>
      </trkpt>
      <trkpt lat="45.69196" lon="6.55805">
        <ele>1145.9</ele>
        <time>2018-10-26T12:13:19Z</time>
      </trkpt>
      <trkpt lat="45.692" lon="6.55816">
        <ele>1142.2</ele>
        <time>2018-10-26T12:13:23Z</time>
      </trkpt>
      <trkpt lat="45.69208" lon="6.55825">
        <ele>1134.9</ele>
        <time>2018-10-26T12:13:32Z</time>
      </trkpt>
      <trkpt lat="45.69211" lon="6.55838">
        <ele>1128.8</ele>
        <time>2018-10-26T12:13:41Z</time>
      </trkpt>
      <trkpt lat="45.69217" lon="6.55851">
        <ele>1123.4</ele>
        <time>2018-10-26T12:13:47Z</time>
      </trkpt>
      <trkpt lat="45.69227" lon="6.55855">
        <ele>1116.5</ele>
        <time>2018-10-26T12:13:55Z</time>
      </trkpt>
      <trkpt lat="45.69231" lon="6.55866">
        <ele>1111.7</ele>
        <time>2018-10-26T12:14:02Z</time>
      </trkpt>
      <trkpt lat="45.6924" lon="6.55862">
        <ele>1108.8</ele>
        <time>2018-10-26T12:14:06Z</time>
      </trkpt>
      <trkpt lat="45.69244" lon="6.55874">
        <ele>1104.4</ele>
        <time>2018-10-26T12:14:12Z</time>
      </trkpt>
      <trkpt lat="45.69244" lon="6.55887">
        <ele>1099.2</ele>
        <time>2018-10-26T12:14:32Z</time>
      </trkpt>
      <trkpt lat="45.69245" lon="6.559">
        <ele>1097.5</ele>
        <time>2018-10-26T12:14:36Z</time>
      </trkpt>
      <trkpt lat="45.69255" lon="6.55901">
        <ele>1090.9</ele>
        <time>2018-10-26T12:14:47Z</time>
      </trkpt>
      <trkpt lat="45.69263" lon="6.55895">
        <ele>1087.9</ele>
        <time>2018-10-26T12:14:51Z</time>
      </trkpt>
      <trkpt lat="45.69269" lon="6.55885">
        <ele>1085.4</ele>
        <time>2018-10-26T12:14:54Z</time>
      </trkpt>
      <trkpt lat="45.69275" lon="6.55875">
        <ele>1082.6</ele>
        <time>2018-10-26T12:14:57Z</time>
      </trkpt>
      <trkpt lat="45.69285" lon="6.55869">
        <ele>1078.8</ele>
        <time>2018-10-26T12:15:01Z</time>
      </trkpt>
      <trkpt lat="45.69294" lon="6.55869">
        <ele>1073.4</ele>
        <time>2018-10-26T12:15:07Z</time>
      </trkpt>
      <trkpt lat="45.69303" lon="6.55862">
        <ele>1068.9</ele>
        <time>2018-10-26T12:15:13Z</time>
      </trkpt>
      <trkpt lat="45.69307" lon="6.55879">
        <ele>1064.8</ele>
        <time>2018-10-26T12:15:18Z</time>
      </trkpt>
      <trkpt lat="45.69307" lon="6.55896">
        <ele>1063</ele>
        <time>2018-10-26T12:15:20Z</time>
      </trkpt>
      <trkpt lat="45.69307" lon="6.55916">
        <ele>1061</ele>
        <time>2018-10-26T12:15:22Z</time>
      </trkpt>
      <trkpt lat="45.69305" lon="6.55936">
        <ele>1058.5</ele>
        <time>2018-10-26T12:15:24Z</time>
      </trkpt>
      <trkpt lat="45.69304" lon="6.5595">
        <ele>1056.1</ele>
        <time>2018-10-26T12:15:26Z</time>
      </trkpt>
      <trkpt lat="45.69313" lon="6.55956">
        <ele>1052.3</ele>
        <time>2018-10-26T12:15:32Z</time>
      </trkpt>
      <trkpt lat="45.69322" lon="6.55958">
        <ele>1051.5</ele>
        <time>2018-10-26T12:15:36Z</time>
      </trkpt>
      <trkpt lat="45.69331" lon="6.55965">
        <ele>1052.4</ele>
        <time>2018-10-26T12:23:56Z</time>
      </trkpt>
      <trkpt lat="45.69338" lon="6.55976">
        <ele>1053.2</ele>
        <time>2018-10-26T12:24:01Z</time>
      </trkpt>
      <trkpt lat="45.69345" lon="6.55986">
        <ele>1053.9</ele>
        <time>2018-10-26T12:24:05Z</time>
      </trkpt>
      <trkpt lat="45.69351" lon="6.55997">
        <ele>1054.5</ele>
        <time>2018-10-26T12:24:09Z</time>
      </trkpt>
      <trkpt lat="45.69356" lon="6.56008">
        <ele>1055.3</ele>
        <time>2018-10-26T12:24:13Z</time>
      </trkpt>
      <trkpt lat="45.69362" lon="6.56017">
        <ele>1056.1</ele>
        <time>2018-10-26T12:24:17Z</time>
      </trkpt>
      <trkpt lat="45.6937" lon="6.56029">
        <ele>1057.1</ele>
        <time>2018-10-26T12:24:22Z</time>
      </trkpt>
      <trkpt lat="45.69379" lon="6.56033">
        <ele>1057.7</ele>
        <time>2018-10-26T12:24:27Z</time>
      </trkpt>
      <trkpt lat="45.69388" lon="6.56029">
        <ele>1058.4</ele>
        <time>2018-10-26T12:24:31Z</time>
      </trkpt>
      <trkpt lat="45.69396" lon="6.56023">
        <ele>1059.1</ele>
        <time>2018-10-26T12:24:35Z</time>
      </trkpt>
      <trkpt lat="45.69405" lon="6.56019">
        <ele>1059.8</ele>
        <time>2018-10-26T12:24:39Z</time>
      </trkpt>
      <trkpt lat="45.69414" lon="6.56016">
        <ele>1060.4</ele>
        <time>2018-10-26T12:24:43Z</time>
      </trkpt>
      <trkpt lat="45.69425" lon="6.56014">
        <ele>1061.1</ele>
        <time>2018-10-26T12:24:48Z</time>
      </trkpt>
      <trkpt lat="45.69435" lon="6.56012">
        <ele>1061.8</ele>
        <time>2018-10-26T12:24:53Z</time>
      </trkpt>
      <trkpt lat="45.69445" lon="6.56011">
        <ele>1062.2</ele>
        <time>2018-10-26T12:24:57Z</time>
      </trkpt>
      <trkpt lat="45.69455" lon="6.56013">
        <ele>1063.2</ele>
        <time>2018-10-26T12:25:02Z</time>
      </trkpt>
      <trkpt lat="45.69465" lon="6.56017">
        <ele>1064.4</ele>
        <time>2018-10-26T12:25:07Z</time>
      </trkpt>
      <trkpt lat="45.69474" lon="6.56023">
        <ele>1065.4</ele>
        <time>2018-10-26T12:25:12Z</time>
      </trkpt>
      <trkpt lat="45.69484" lon="6.56026">
        <ele>1066.3</ele>
        <time>2018-10-26T12:25:17Z</time>
      </trkpt>
      <trkpt lat="45.69494" lon="6.56028">
        <ele>1067.3</ele>
        <time>2018-10-26T12:25:22Z</time>
      </trkpt>
      <trkpt lat="45.69504" lon="6.56027">
        <ele>1068.4</ele>
        <time>2018-10-26T12:25:27Z</time>
      </trkpt>
      <trkpt lat="45.69514" lon="6.56024">
        <ele>1069.4</ele>
        <time>2018-10-26T12:25:32Z</time>
      </trkpt>
      <trkpt lat="45.69524" lon="6.5602">
        <ele>1070.3</ele>
        <time>2018-10-26T12:25:37Z</time>
      </trkpt>
      <trkpt lat="45.69533" lon="6.56014">
        <ele>1071</ele>
        <time>2018-10-26T12:25:42Z</time>
      </trkpt>
      <trkpt lat="45.69542" lon="6.56007">
        <ele>1071.7</ele>
        <time>2018-10-26T12:25:47Z</time>
      </trkpt>
      <trkpt lat="45.69551" lon="6.56001">
        <ele>1072.2</ele>
        <time>2018-10-26T12:25:51Z</time>
      </trkpt>
      <trkpt lat="45.6956" lon="6.55995">
        <ele>1072.5</ele>
        <time>2018-10-26T12:25:55Z</time>
      </trkpt>
      <trkpt lat="45.6957" lon="6.55991">
        <ele>1072.8</ele>
        <time>2018-10-26T12:25:59Z</time>
      </trkpt>
      <trkpt lat="45.6958" lon="6.55984">
        <ele>1073.4</ele>
        <time>2018-10-26T12:26:03Z</time>
      </trkpt>
      <trkpt lat="45.6959" lon="6.55977">
        <ele>1074</ele>
        <time>2018-10-26T12:26:07Z</time>
      </trkpt>
      <trkpt lat="45.696" lon="6.55973">
        <ele>1074.6</ele>
        <time>2018-10-26T12:26:11Z</time>
      </trkpt>
      <trkpt lat="45.69611" lon="6.55968">
        <ele>1075.1</ele>
        <time>2018-10-26T12:26:15Z</time>
      </trkpt>
      <trkpt lat="45.6962" lon="6.55962">
        <ele>1075.6</ele>
        <time>2018-10-26T12:26:19Z</time>
      </trkpt>
      <trkpt lat="45.6963" lon="6.55957">
        <ele>1076</ele>
        <time>2018-10-26T12:26:23Z</time>
      </trkpt>
      <trkpt lat="45.6964" lon="6.55953">
        <ele>1076.6</ele>
        <time>2018-10-26T12:26:27Z</time>
      </trkpt>
      <trkpt lat="45.6965" lon="6.55948">
        <ele>1077.1</ele>
        <time>2018-10-26T12:26:31Z</time>
      </trkpt>
      <trkpt lat="45.6966" lon="6.55943">
        <ele>1077.6</ele>
        <time>2018-10-26T12:26:35Z</time>
      </trkpt>
      <trkpt lat="45.69669" lon="6.5594">
        <ele>1078.1</ele>
        <time>2018-10-26T12:26:39Z</time>
      </trkpt>
      <trkpt lat="45.6968" lon="6.55938">
        <ele>1078.7</ele>
        <time>2018-10-26T12:26:43Z</time>
      </trkpt>
      <trkpt lat="45.6969" lon="6.55935">
        <ele>1079.3</ele>
        <time>2018-10-26T12:26:47Z</time>
      </trkpt>
      <trkpt lat="45.697" lon="6.55933">
        <ele>1080.2</ele>
        <time>2018-10-26T12:26:51Z</time>
      </trkpt>
      <trkpt lat="45.69711" lon="6.5593">
        <ele>1081</ele>
        <time>2018-10-26T12:26:55Z</time>
      </trkpt>
      <trkpt lat="45.69721" lon="6.55925">
        <ele>1081.9</ele>
        <time>2018-10-26T12:26:59Z</time>
      </trkpt>
      <trkpt lat="45.69731" lon="6.55919">
        <ele>1082.8</ele>
        <time>2018-10-26T12:27:03Z</time>
      </trkpt>
      <trkpt lat="45.69739" lon="6.5591">
        <ele>1083.5</ele>
        <time>2018-10-26T12:27:07Z</time>
      </trkpt>
      <trkpt lat="45.69748" lon="6.55902">
        <ele>1084.3</ele>
        <time>2018-10-26T12:27:11Z</time>
      </trkpt>
      <trkpt lat="45.69755" lon="6.55893">
        <ele>1085</ele>
        <time>2018-10-26T12:27:15Z</time>
      </trkpt>
      <trkpt lat="45.69765" lon="6.55884">
        <ele>1086</ele>
        <time>2018-10-26T12:27:20Z</time>
      </trkpt>
      <trkpt lat="45.69776" lon="6.55879">
        <ele>1086.9</ele>
        <time>2018-10-26T12:27:25Z</time>
      </trkpt>
      <trkpt lat="45.69785" lon="6.5588">
        <ele>1087.8</ele>
        <time>2018-10-26T12:27:29Z</time>
      </trkpt>
      <trkpt lat="45.69794" lon="6.55881">
        <ele>1088.8</ele>
        <time>2018-10-26T12:27:33Z</time>
      </trkpt>
      <trkpt lat="45.69804" lon="6.55881">
        <ele>1089.8</ele>
        <time>2018-10-26T12:27:38Z</time>
      </trkpt>
      <trkpt lat="45.69813" lon="6.55879">
        <ele>1090.8</ele>
        <time>2018-10-26T12:27:43Z</time>
      </trkpt>
      <trkpt lat="45.69824" lon="6.5588">
        <ele>1091.8</ele>
        <time>2018-10-26T12:27:48Z</time>
      </trkpt>
      <trkpt lat="45.69834" lon="6.5588">
        <ele>1092.7</ele>
        <time>2018-10-26T12:27:53Z</time>
      </trkpt>
      <trkpt lat="45.69845" lon="6.55884">
        <ele>1093.8</ele>
        <time>2018-10-26T12:27:58Z</time>
      </trkpt>
      <trkpt lat="45.69853" lon="6.55887">
        <ele>1094.8</ele>
        <time>2018-10-26T12:28:02Z</time>
      </trkpt>
      <trkpt lat="45.69863" lon="6.55884">
        <ele>1095.9</ele>
        <time>2018-10-26T12:28:07Z</time>
      </trkpt>
      <trkpt lat="45.69859" lon="6.55871">
        <ele>1097</ele>
        <time>2018-10-26T12:28:13Z</time>
      </trkpt>
      <trkpt lat="45.69851" lon="6.55861">
        <ele>1098.2</ele>
        <time>2018-10-26T12:28:19Z</time>
      </trkpt>
      <trkpt lat="45.69841" lon="6.55856">
        <ele>1099.5</ele>
        <time>2018-10-26T12:28:25Z</time>
      </trkpt>
      <trkpt lat="45.69831" lon="6.55853">
        <ele>1100.7</ele>
        <time>2018-10-26T12:28:31Z</time>
      </trkpt>
      <trkpt lat="45.69822" lon="6.55854">
        <ele>1102</ele>
        <time>2018-10-26T12:28:37Z</time>
      </trkpt>
      <trkpt lat="45.69812" lon="6.55859">
        <ele>1103.3</ele>
        <time>2018-10-26T12:28:43Z</time>
      </trkpt>
      <trkpt lat="45.69802" lon="6.55857">
        <ele>1104.3</ele>
        <time>2018-10-26T12:28:48Z</time>
      </trkpt>
      <trkpt lat="45.69792" lon="6.55851">
        <ele>1105.4</ele>
        <time>2018-10-26T12:28:53Z</time>
      </trkpt>
      <trkpt lat="45.69785" lon="6.55843">
        <ele>1106.3</ele>
        <time>2018-10-26T12:28:58Z</time>
      </trkpt>
      <trkpt lat="45.69775" lon="6.55838">
        <ele>1107.2</ele>
        <time>2018-10-26T12:29:04Z</time>
      </trkpt>
      <trkpt lat="45.69765" lon="6.55839">
        <ele>1108.2</ele>
        <time>2018-10-26T12:29:10Z</time>
      </trkpt>
      <trkpt lat="45.69754" lon="6.55843">
        <ele>1109.3</ele>
        <time>2018-10-26T12:29:16Z</time>
      </trkpt>
      <trkpt lat="45.69744" lon="6.55847">
        <ele>1110.3</ele>
        <time>2018-10-26T12:29:22Z</time>
      </trkpt>
      <trkpt lat="45.69734" lon="6.55849">
        <ele>1111.1</ele>
        <time>2018-10-26T12:29:27Z</time>
      </trkpt>
      <trkpt lat="45.69725" lon="6.55849">
        <ele>1111.9</ele>
        <time>2018-10-26T12:29:32Z</time>
      </trkpt>
      <trkpt lat="45.69716" lon="6.55852">
        <ele>1112.8</ele>
        <time>2018-10-26T12:29:37Z</time>
      </trkpt>
      <trkpt lat="45.69706" lon="6.55853">
        <ele>1113.7</ele>
        <time>2018-10-26T12:29:42Z</time>
      </trkpt>
      <trkpt lat="45.69697" lon="6.55853">
        <ele>1114.5</ele>
        <time>2018-10-26T12:29:47Z</time>
      </trkpt>
      <trkpt lat="45.69687" lon="6.55852">
        <ele>1115.1</ele>
        <time>2018-10-26T12:29:52Z</time>
      </trkpt>
      <trkpt lat="45.69678" lon="6.55852">
        <ele>1115.9</ele>
        <time>2018-10-26T12:29:57Z</time>
      </trkpt>
      <trkpt lat="45.69668" lon="6.55852">
        <ele>1116.8</ele>
        <time>2018-10-26T12:30:02Z</time>
      </trkpt>
      <trkpt lat="45.69658" lon="6.55852">
        <ele>1117.8</ele>
        <time>2018-10-26T12:30:07Z</time>
      </trkpt>
      <trkpt lat="45.69649" lon="6.55853">
        <ele>1118.7</ele>
        <time>2018-10-26T12:30:12Z</time>
      </trkpt>
      <trkpt lat="45.69639" lon="6.55854">
        <ele>1119.8</ele>
        <time>2018-10-26T12:30:17Z</time>
      </trkpt>
      <trkpt lat="45.6963" lon="6.55854">
        <ele>1121</ele>
        <time>2018-10-26T12:30:22Z</time>
      </trkpt>
      <trkpt lat="45.69619" lon="6.55852">
        <ele>1121.9</ele>
        <time>2018-10-26T12:30:27Z</time>
      </trkpt>
      <trkpt lat="45.69609" lon="6.55848">
        <ele>1122.8</ele>
        <time>2018-10-26T12:30:32Z</time>
      </trkpt>
      <trkpt lat="45.696" lon="6.55843">
        <ele>1123.7</ele>
        <time>2018-10-26T12:30:37Z</time>
      </trkpt>
      <trkpt lat="45.6959" lon="6.55841">
        <ele>1124.5</ele>
        <time>2018-10-26T12:30:42Z</time>
      </trkpt>
      <trkpt lat="45.69581" lon="6.55837">
        <ele>1125.4</ele>
        <time>2018-10-26T12:30:47Z</time>
      </trkpt>
      <trkpt lat="45.69583" lon="6.55823">
        <ele>1126.3</ele>
        <time>2018-10-26T12:30:53Z</time>
      </trkpt>
      <trkpt lat="45.69591" lon="6.55818">
        <ele>1127.5</ele>
        <time>2018-10-26T12:30:58Z</time>
      </trkpt>
      <trkpt lat="45.696" lon="6.55823">
        <ele>1128.6</ele>
        <time>2018-10-26T12:31:03Z</time>
      </trkpt>
      <trkpt lat="45.6961" lon="6.55823">
        <ele>1129.7</ele>
        <time>2018-10-26T12:31:08Z</time>
      </trkpt>
      <trkpt lat="45.69621" lon="6.55821">
        <ele>1130.8</ele>
        <time>2018-10-26T12:31:14Z</time>
      </trkpt>
      <trkpt lat="45.6963" lon="6.55818">
        <ele>1131.7</ele>
        <time>2018-10-26T12:31:19Z</time>
      </trkpt>
      <trkpt lat="45.6964" lon="6.55812">
        <ele>1133</ele>
        <time>2018-10-26T12:31:25Z</time>
      </trkpt>
      <trkpt lat="45.6965" lon="6.55808">
        <ele>1133.7</ele>
        <time>2018-10-26T12:31:30Z</time>
      </trkpt>
      <trkpt lat="45.69659" lon="6.55804">
        <ele>1134.4</ele>
        <time>2018-10-26T12:31:35Z</time>
      </trkpt>
      <trkpt lat="45.69666" lon="6.55797">
        <ele>1135.3</ele>
        <time>2018-10-26T12:31:40Z</time>
      </trkpt>
      <trkpt lat="45.69677" lon="6.55793">
        <ele>1136.2</ele>
        <time>2018-10-26T12:31:46Z</time>
      </trkpt>
      <trkpt lat="45.69685" lon="6.55786">
        <ele>1137.3</ele>
        <time>2018-10-26T12:31:52Z</time>
      </trkpt>
      <trkpt lat="45.69695" lon="6.55779">
        <ele>1138.5</ele>
        <time>2018-10-26T12:31:58Z</time>
      </trkpt>
      <trkpt lat="45.69705" lon="6.55777">
        <ele>1139.5</ele>
        <time>2018-10-26T12:32:03Z</time>
      </trkpt>
      <trkpt lat="45.69712" lon="6.55768">
        <ele>1140.4</ele>
        <time>2018-10-26T12:32:09Z</time>
      </trkpt>
      <trkpt lat="45.69719" lon="6.55758">
        <ele>1141.5</ele>
        <time>2018-10-26T12:32:15Z</time>
      </trkpt>
      <trkpt lat="45.69729" lon="6.55752">
        <ele>1141.8</ele>
        <time>2018-10-26T12:33:08Z</time>
      </trkpt>
      <trkpt lat="45.69739" lon="6.55743">
        <ele>1142.8</ele>
        <time>2018-10-26T12:33:12Z</time>
      </trkpt>
      <trkpt lat="45.69748" lon="6.55737">
        <ele>1143.7</ele>
        <time>2018-10-26T12:33:15Z</time>
      </trkpt>
      <trkpt lat="45.69759" lon="6.55733">
        <ele>1144.9</ele>
        <time>2018-10-26T12:33:19Z</time>
      </trkpt>
      <trkpt lat="45.69768" lon="6.5573">
        <ele>1145.8</ele>
        <time>2018-10-26T12:33:22Z</time>
      </trkpt>
      <trkpt lat="45.69779" lon="6.55726">
        <ele>1146.8</ele>
        <time>2018-10-26T12:33:26Z</time>
      </trkpt>
      <trkpt lat="45.69788" lon="6.55724">
        <ele>1147.6</ele>
        <time>2018-10-26T12:33:30Z</time>
      </trkpt>
      <trkpt lat="45.69799" lon="6.5572">
        <ele>1148.3</ele>
        <time>2018-10-26T12:33:34Z</time>
      </trkpt>
      <trkpt lat="45.69809" lon="6.55718">
        <ele>1148.8</ele>
        <time>2018-10-26T12:33:38Z</time>
      </trkpt>
      <trkpt lat="45.6982" lon="6.55716">
        <ele>1149.2</ele>
        <time>2018-10-26T12:33:43Z</time>
      </trkpt>
      <trkpt lat="45.69829" lon="6.55717">
        <ele>1149.6</ele>
        <time>2018-10-26T12:33:47Z</time>
      </trkpt>
      <trkpt lat="45.69839" lon="6.5572">
        <ele>1149.9</ele>
        <time>2018-10-26T12:33:51Z</time>
      </trkpt>
      <trkpt lat="45.6985" lon="6.55722">
        <ele>1150.2</ele>
        <time>2018-10-26T12:33:55Z</time>
      </trkpt>
      <trkpt lat="45.69861" lon="6.55719">
        <ele>1150.5</ele>
        <time>2018-10-26T12:33:59Z</time>
      </trkpt>
      <trkpt lat="45.6987" lon="6.55716">
        <ele>1150.8</ele>
        <time>2018-10-26T12:34:02Z</time>
      </trkpt>
      <trkpt lat="45.69881" lon="6.55714">
        <ele>1151.2</ele>
        <time>2018-10-26T12:34:06Z</time>
      </trkpt>
      <trkpt lat="45.69891" lon="6.55708">
        <ele>1151.4</ele>
        <time>2018-10-26T12:34:10Z</time>
      </trkpt>
      <trkpt lat="45.69901" lon="6.55699">
        <ele>1152.1</ele>
        <time>2018-10-26T12:34:14Z</time>
      </trkpt>
      <trkpt lat="45.69908" lon="6.55687">
        <ele>1152.6</ele>
        <time>2018-10-26T12:34:18Z</time>
      </trkpt>
      <trkpt lat="45.69913" lon="6.55676">
        <ele>1152.9</ele>
        <time>2018-10-26T12:34:21Z</time>
      </trkpt>
      <trkpt lat="45.69919" lon="6.55666">
        <ele>1153</ele>
        <time>2018-10-26T12:34:24Z</time>
      </trkpt>
      <trkpt lat="45.69925" lon="6.55652">
        <ele>1153.3</ele>
        <time>2018-10-26T12:34:28Z</time>
      </trkpt>
      <trkpt lat="45.69931" lon="6.55641">
        <ele>1153.5</ele>
        <time>2018-10-26T12:34:31Z</time>
      </trkpt>
      <trkpt lat="45.69938" lon="6.55628">
        <ele>1154.1</ele>
        <time>2018-10-26T12:34:35Z</time>
      </trkpt>
      <trkpt lat="45.69943" lon="6.55617">
        <ele>1154.5</ele>
        <time>2018-10-26T12:34:38Z</time>
      </trkpt>
      <trkpt lat="45.69949" lon="6.55607">
        <ele>1154.8</ele>
        <time>2018-10-26T12:34:41Z</time>
      </trkpt>
      <trkpt lat="45.69954" lon="6.55595">
        <ele>1155.1</ele>
        <time>2018-10-26T12:34:44Z</time>
      </trkpt>
      <trkpt lat="45.69957" lon="6.55582">
        <ele>1155.4</ele>
        <time>2018-10-26T12:34:47Z</time>
      </trkpt>
      <trkpt lat="45.69961" lon="6.55566">
        <ele>1155.6</ele>
        <time>2018-10-26T12:34:50Z</time>
      </trkpt>
      <trkpt lat="45.69963" lon="6.5555">
        <ele>1155.5</ele>
        <time>2018-10-26T12:34:53Z</time>
      </trkpt>
      <trkpt lat="45.69972" lon="6.55551">
        <ele>1155.4</ele>
        <time>2018-10-26T12:34:58Z</time>
      </trkpt>
      <trkpt lat="45.69976" lon="6.55564">
        <ele>1155.6</ele>
        <time>2018-10-26T12:35:01Z</time>
      </trkpt>
      <trkpt lat="45.69982" lon="6.55578">
        <ele>1156.2</ele>
        <time>2018-10-26T12:35:05Z</time>
      </trkpt>
      <trkpt lat="45.69986" lon="6.5559">
        <ele>1157</ele>
        <time>2018-10-26T12:35:09Z</time>
      </trkpt>
      <trkpt lat="45.69991" lon="6.55601">
        <ele>1157.7</ele>
        <time>2018-10-26T12:35:13Z</time>
      </trkpt>
      <trkpt lat="45.69994" lon="6.55613">
        <ele>1158.7</ele>
        <time>2018-10-26T12:35:17Z</time>
      </trkpt>
      <trkpt lat="45.69997" lon="6.55626">
        <ele>1159.9</ele>
        <time>2018-10-26T12:35:21Z</time>
      </trkpt>
      <trkpt lat="45.70001" lon="6.5564">
        <ele>1161</ele>
        <time>2018-10-26T12:35:26Z</time>
      </trkpt>
      <trkpt lat="45.70004" lon="6.55653">
        <ele>1161.7</ele>
        <time>2018-10-26T12:35:30Z</time>
      </trkpt>
      <trkpt lat="45.7001" lon="6.55664">
        <ele>1161.8</ele>
        <time>2018-10-26T12:35:33Z</time>
      </trkpt>
      <trkpt lat="45.70019" lon="6.55673">
        <ele>1161.7</ele>
        <time>2018-10-26T12:35:36Z</time>
      </trkpt>
      <trkpt lat="45.70031" lon="6.55679">
        <ele>1161.6</ele>
        <time>2018-10-26T12:35:39Z</time>
      </trkpt>
      <trkpt lat="45.70041" lon="6.55682">
        <ele>1161.5</ele>
        <time>2018-10-26T12:35:41Z</time>
      </trkpt>
      <trkpt lat="45.70051" lon="6.55684">
        <ele>1161.3</ele>
        <time>2018-10-26T12:35:43Z</time>
      </trkpt>
      <trkpt lat="45.7006" lon="6.55685">
        <ele>1160.9</ele>
        <time>2018-10-26T12:35:45Z</time>
      </trkpt>
      <trkpt lat="45.70069" lon="6.55688">
        <ele>1160.5</ele>
        <time>2018-10-26T12:35:47Z</time>
      </trkpt>
      <trkpt lat="45.70078" lon="6.55693">
        <ele>1160.5</ele>
        <time>2018-10-26T12:35:49Z</time>
      </trkpt>
      <trkpt lat="45.7009" lon="6.55698">
        <ele>1160.5</ele>
        <time>2018-10-26T12:35:52Z</time>
      </trkpt>
      <trkpt lat="45.701" lon="6.55703">
        <ele>1160.7</ele>
        <time>2018-10-26T12:35:55Z</time>
      </trkpt>
      <trkpt lat="45.70111" lon="6.55706">
        <ele>1160.7</ele>
        <time>2018-10-26T12:35:58Z</time>
      </trkpt>
      <trkpt lat="45.7012" lon="6.55708">
        <ele>1161</ele>
        <time>2018-10-26T12:36:01Z</time>
      </trkpt>
      <trkpt lat="45.70129" lon="6.55712">
        <ele>1161.2</ele>
        <time>2018-10-26T12:36:04Z</time>
      </trkpt>
      <trkpt lat="45.7014" lon="6.55714">
        <ele>1161.7</ele>
        <time>2018-10-26T12:36:08Z</time>
      </trkpt>
      <trkpt lat="45.70149" lon="6.55716">
        <ele>1162.4</ele>
        <time>2018-10-26T12:36:12Z</time>
      </trkpt>
      <trkpt lat="45.70159" lon="6.55719">
        <ele>1163.3</ele>
        <time>2018-10-26T12:36:16Z</time>
      </trkpt>
      <trkpt lat="45.70168" lon="6.55718">
        <ele>1164.3</ele>
        <time>2018-10-26T12:36:20Z</time>
      </trkpt>
      <trkpt lat="45.70177" lon="6.55714">
        <ele>1165.1</ele>
        <time>2018-10-26T12:36:24Z</time>
      </trkpt>
      <trkpt lat="45.70186" lon="6.55709">
        <ele>1166.1</ele>
        <time>2018-10-26T12:36:28Z</time>
      </trkpt>
      <trkpt lat="45.70194" lon="6.55702">
        <ele>1167</ele>
        <time>2018-10-26T12:36:32Z</time>
      </trkpt>
      <trkpt lat="45.70202" lon="6.55695">
        <ele>1167.9</ele>
        <time>2018-10-26T12:36:36Z</time>
      </trkpt>
      <trkpt lat="45.70209" lon="6.55684">
        <ele>1168.8</ele>
        <time>2018-10-26T12:36:41Z</time>
      </trkpt>
      <trkpt lat="45.70212" lon="6.55671">
        <ele>1169.1</ele>
        <time>2018-10-26T12:36:45Z</time>
      </trkpt>
      <trkpt lat="45.7021" lon="6.55657">
        <ele>1170.1</ele>
        <time>2018-10-26T12:36:50Z</time>
      </trkpt>
      <trkpt lat="45.70202" lon="6.5565">
        <ele>1171.2</ele>
        <time>2018-10-26T12:36:55Z</time>
      </trkpt>
      <trkpt lat="45.70191" lon="6.5565">
        <ele>1172.5</ele>
        <time>2018-10-26T12:37:00Z</time>
      </trkpt>
      <trkpt lat="45.70182" lon="6.55653">
        <ele>1173.5</ele>
        <time>2018-10-26T12:37:05Z</time>
      </trkpt>
      <trkpt lat="45.70177" lon="6.55643">
        <ele>1175</ele>
        <time>2018-10-26T12:37:11Z</time>
      </trkpt>
      <trkpt lat="45.70183" lon="6.55633">
        <ele>1176.1</ele>
        <time>2018-10-26T12:37:16Z</time>
      </trkpt>
      <trkpt lat="45.70192" lon="6.5563">
        <ele>1176.9</ele>
        <time>2018-10-26T12:37:21Z</time>
      </trkpt>
      <trkpt lat="45.70203" lon="6.5563">
        <ele>1178.1</ele>
        <time>2018-10-26T12:37:27Z</time>
      </trkpt>
      <trkpt lat="45.70213" lon="6.55628">
        <ele>1179.1</ele>
        <time>2018-10-26T12:37:33Z</time>
      </trkpt>
      <trkpt lat="45.70222" lon="6.55629">
        <ele>1180.1</ele>
        <time>2018-10-26T12:37:39Z</time>
      </trkpt>
      <trkpt lat="45.70231" lon="6.55628">
        <ele>1181.1</ele>
        <time>2018-10-26T12:37:44Z</time>
      </trkpt>
      <trkpt lat="45.70241" lon="6.55623">
        <ele>1181.9</ele>
        <time>2018-10-26T12:37:49Z</time>
      </trkpt>
      <trkpt lat="45.7025" lon="6.55615">
        <ele>1183</ele>
        <time>2018-10-26T12:37:54Z</time>
      </trkpt>
      <trkpt lat="45.70257" lon="6.55604">
        <ele>1184.1</ele>
        <time>2018-10-26T12:38:00Z</time>
      </trkpt>
      <trkpt lat="45.70264" lon="6.55595">
        <ele>1185.2</ele>
        <time>2018-10-26T12:38:05Z</time>
      </trkpt>
      <trkpt lat="45.70272" lon="6.55588">
        <ele>1186.1</ele>
        <time>2018-10-26T12:38:10Z</time>
      </trkpt>
      <trkpt lat="45.70282" lon="6.55586">
        <ele>1187.2</ele>
        <time>2018-10-26T12:38:16Z</time>
      </trkpt>
      <trkpt lat="45.70292" lon="6.55586">
        <ele>1188.2</ele>
        <time>2018-10-26T12:38:22Z</time>
      </trkpt>
      <trkpt lat="45.70302" lon="6.55586">
        <ele>1189.4</ele>
        <time>2018-10-26T12:38:28Z</time>
      </trkpt>
      <trkpt lat="45.70311" lon="6.55585">
        <ele>1190.3</ele>
        <time>2018-10-26T12:38:33Z</time>
      </trkpt>
      <trkpt lat="45.70322" lon="6.55581">
        <ele>1191.2</ele>
        <time>2018-10-26T12:38:39Z</time>
      </trkpt>
      <trkpt lat="45.70331" lon="6.55578">
        <ele>1192.4</ele>
        <time>2018-10-26T12:38:45Z</time>
      </trkpt>
      <trkpt lat="45.70341" lon="6.55572">
        <ele>1193.5</ele>
        <time>2018-10-26T12:38:51Z</time>
      </trkpt>
      <trkpt lat="45.7035" lon="6.55571">
        <ele>1194.4</ele>
        <time>2018-10-26T12:38:56Z</time>
      </trkpt>
      <trkpt lat="45.7036" lon="6.55573">
        <ele>1195.6</ele>
        <time>2018-10-26T12:39:01Z</time>
      </trkpt>
      <trkpt lat="45.70369" lon="6.5558">
        <ele>1196.8</ele>
        <time>2018-10-26T12:39:07Z</time>
      </trkpt>
      <trkpt lat="45.70377" lon="6.55588">
        <ele>1197.8</ele>
        <time>2018-10-26T12:39:12Z</time>
      </trkpt>
      <trkpt lat="45.70386" lon="6.55593">
        <ele>1198.7</ele>
        <time>2018-10-26T12:39:17Z</time>
      </trkpt>
      <trkpt lat="45.70395" lon="6.55594">
        <ele>1199.7</ele>
        <time>2018-10-26T12:39:22Z</time>
      </trkpt>
      <trkpt lat="45.70405" lon="6.55592">
        <ele>1200.7</ele>
        <time>2018-10-26T12:39:27Z</time>
      </trkpt>
      <trkpt lat="45.70414" lon="6.55587">
        <ele>1201.6</ele>
        <time>2018-10-26T12:39:32Z</time>
      </trkpt>
      <trkpt lat="45.70421" lon="6.55578">
        <ele>1202.7</ele>
        <time>2018-10-26T12:39:37Z</time>
      </trkpt>
      <trkpt lat="45.7043" lon="6.5557">
        <ele>1203.9</ele>
        <time>2018-10-26T12:39:43Z</time>
      </trkpt>
      <trkpt lat="45.70436" lon="6.5556">
        <ele>1205.1</ele>
        <time>2018-10-26T12:39:48Z</time>
      </trkpt>
      <trkpt lat="45.70444" lon="6.55553">
        <ele>1206.1</ele>
        <time>2018-10-26T12:39:53Z</time>
      </trkpt>
      <trkpt lat="45.70452" lon="6.55546">
        <ele>1207.3</ele>
        <time>2018-10-26T12:39:59Z</time>
      </trkpt>
      <trkpt lat="45.70462" lon="6.55538">
        <ele>1208.5</ele>
        <time>2018-10-26T12:40:05Z</time>
      </trkpt>
      <trkpt lat="45.7047" lon="6.55532">
        <ele>1209.5</ele>
        <time>2018-10-26T12:40:10Z</time>
      </trkpt>
      <trkpt lat="45.70479" lon="6.55525">
        <ele>1210.7</ele>
        <time>2018-10-26T12:40:16Z</time>
      </trkpt>
      <trkpt lat="45.70487" lon="6.55515">
        <ele>1211.9</ele>
        <time>2018-10-26T12:40:22Z</time>
      </trkpt>
      <trkpt lat="45.70495" lon="6.55504">
        <ele>1213.2</ele>
        <time>2018-10-26T12:40:28Z</time>
      </trkpt>
      <trkpt lat="45.70498" lon="6.55491">
        <ele>1214.1</ele>
        <time>2018-10-26T12:40:33Z</time>
      </trkpt>
      <trkpt lat="45.70499" lon="6.55478">
        <ele>1215</ele>
        <time>2018-10-26T12:40:38Z</time>
      </trkpt>
      <trkpt lat="45.70503" lon="6.55464">
        <ele>1215.9</ele>
        <time>2018-10-26T12:40:44Z</time>
      </trkpt>
      <trkpt lat="45.70505" lon="6.55451">
        <ele>1216.8</ele>
        <time>2018-10-26T12:40:49Z</time>
      </trkpt>
      <trkpt lat="45.70508" lon="6.55436">
        <ele>1218.2</ele>
        <time>2018-10-26T12:40:55Z</time>
      </trkpt>
      <trkpt lat="45.70511" lon="6.55424">
        <ele>1219.2</ele>
        <time>2018-10-26T12:41:00Z</time>
      </trkpt>
      <trkpt lat="45.70516" lon="6.55413">
        <ele>1220.3</ele>
        <time>2018-10-26T12:41:05Z</time>
      </trkpt>
      <trkpt lat="45.70524" lon="6.55401">
        <ele>1221.7</ele>
        <time>2018-10-26T12:41:11Z</time>
      </trkpt>
      <trkpt lat="45.70532" lon="6.55395">
        <ele>1222.9</ele>
        <time>2018-10-26T12:41:17Z</time>
      </trkpt>
      <trkpt lat="45.70542" lon="6.55401">
        <ele>1223.9</ele>
        <time>2018-10-26T12:41:23Z</time>
      </trkpt>
      <trkpt lat="45.70552" lon="6.55401">
        <ele>1224.8</ele>
        <time>2018-10-26T12:41:29Z</time>
      </trkpt>
      <trkpt lat="45.70561" lon="6.55398">
        <ele>1225.7</ele>
        <time>2018-10-26T12:41:34Z</time>
      </trkpt>
      <trkpt lat="45.7057" lon="6.55396">
        <ele>1226.6</ele>
        <time>2018-10-26T12:41:39Z</time>
      </trkpt>
      <trkpt lat="45.70579" lon="6.55391">
        <ele>1227.5</ele>
        <time>2018-10-26T12:41:44Z</time>
      </trkpt>
      <trkpt lat="45.70584" lon="6.55379">
        <ele>1228.7</ele>
        <time>2018-10-26T12:41:50Z</time>
      </trkpt>
      <trkpt lat="45.70578" lon="6.55368">
        <ele>1229.5</ele>
        <time>2018-10-26T12:41:56Z</time>
      </trkpt>
      <trkpt lat="45.70568" lon="6.55371">
        <ele>1230.4</ele>
        <time>2018-10-26T12:42:01Z</time>
      </trkpt>
      <trkpt lat="45.70559" lon="6.55375">
        <ele>1231.7</ele>
        <time>2018-10-26T12:42:07Z</time>
      </trkpt>
      <trkpt lat="45.70549" lon="6.55374">
        <ele>1233.3</ele>
        <time>2018-10-26T12:42:13Z</time>
      </trkpt>
      <trkpt lat="45.70541" lon="6.55368">
        <ele>1234.4</ele>
        <time>2018-10-26T12:42:18Z</time>
      </trkpt>
      <trkpt lat="45.70532" lon="6.55361">
        <ele>1235.6</ele>
        <time>2018-10-26T12:42:24Z</time>
      </trkpt>
      <trkpt lat="45.70522" lon="6.55359">
        <ele>1236.7</ele>
        <time>2018-10-26T12:42:30Z</time>
      </trkpt>
      <trkpt lat="45.70514" lon="6.55365">
        <ele>1237.6</ele>
        <time>2018-10-26T12:42:35Z</time>
      </trkpt>
      <trkpt lat="45.70506" lon="6.55371">
        <ele>1238.8</ele>
        <time>2018-10-26T12:42:40Z</time>
      </trkpt>
      <trkpt lat="45.70496" lon="6.55376">
        <ele>1239.9</ele>
        <time>2018-10-26T12:42:46Z</time>
      </trkpt>
      <trkpt lat="45.70487" lon="6.55382">
        <ele>1241.1</ele>
        <time>2018-10-26T12:42:51Z</time>
      </trkpt>
      <trkpt lat="45.70479" lon="6.55388">
        <ele>1242.1</ele>
        <time>2018-10-26T12:42:56Z</time>
      </trkpt>
      <trkpt lat="45.70471" lon="6.55396">
        <ele>1243</ele>
        <time>2018-10-26T12:43:01Z</time>
      </trkpt>
      <trkpt lat="45.70462" lon="6.55406">
        <ele>1244</ele>
        <time>2018-10-26T12:43:07Z</time>
      </trkpt>
      <trkpt lat="45.70455" lon="6.55417">
        <ele>1245.2</ele>
        <time>2018-10-26T12:43:13Z</time>
      </trkpt>
      <trkpt lat="45.70447" lon="6.55422">
        <ele>1246.1</ele>
        <time>2018-10-26T12:43:18Z</time>
      </trkpt>
      <trkpt lat="45.70438" lon="6.55427">
        <ele>1246.9</ele>
        <time>2018-10-26T12:43:23Z</time>
      </trkpt>
      <trkpt lat="45.70429" lon="6.5543">
        <ele>1247.7</ele>
        <time>2018-10-26T12:43:28Z</time>
      </trkpt>
      <trkpt lat="45.7042" lon="6.55434">
        <ele>1248.8</ele>
        <time>2018-10-26T12:43:33Z</time>
      </trkpt>
      <trkpt lat="45.7041" lon="6.55438">
        <ele>1250.1</ele>
        <time>2018-10-26T12:43:39Z</time>
      </trkpt>
      <trkpt lat="45.70401" lon="6.55442">
        <ele>1251.1</ele>
        <time>2018-10-26T12:43:44Z</time>
      </trkpt>
      <trkpt lat="45.70391" lon="6.55446">
        <ele>1252.2</ele>
        <time>2018-10-26T12:43:50Z</time>
      </trkpt>
      <trkpt lat="45.7038" lon="6.55448">
        <ele>1253.3</ele>
        <time>2018-10-26T12:43:56Z</time>
      </trkpt>
      <trkpt lat="45.70371" lon="6.5545">
        <ele>1254.1</ele>
        <time>2018-10-26T12:44:01Z</time>
      </trkpt>
      <trkpt lat="45.70361" lon="6.55449">
        <ele>1254.9</ele>
        <time>2018-10-26T12:44:06Z</time>
      </trkpt>
      <trkpt lat="45.70351" lon="6.55444">
        <ele>1256.2</ele>
        <time>2018-10-26T12:44:12Z</time>
      </trkpt>
      <trkpt lat="45.70344" lon="6.55433">
        <ele>1257.3</ele>
        <time>2018-10-26T12:44:18Z</time>
      </trkpt>
      <trkpt lat="45.70335" lon="6.55428">
        <ele>1258.2</ele>
        <time>2018-10-26T12:44:23Z</time>
      </trkpt>
      <trkpt lat="45.70327" lon="6.55422">
        <ele>1258.9</ele>
        <time>2018-10-26T12:44:28Z</time>
      </trkpt>
      <trkpt lat="45.70316" lon="6.55421">
        <ele>1260.2</ele>
        <time>2018-10-26T12:44:34Z</time>
      </trkpt>
      <trkpt lat="45.70307" lon="6.55421">
        <ele>1261.3</ele>
        <time>2018-10-26T12:44:39Z</time>
      </trkpt>
      <trkpt lat="45.70298" lon="6.55417">
        <ele>1262.3</ele>
        <time>2018-10-26T12:44:44Z</time>
      </trkpt>
      <trkpt lat="45.70297" lon="6.55404">
        <ele>1263.2</ele>
        <time>2018-10-26T12:44:50Z</time>
      </trkpt>
      <trkpt lat="45.70306" lon="6.55396">
        <ele>1263.9</ele>
        <time>2018-10-26T12:44:56Z</time>
      </trkpt>
      <trkpt lat="45.70315" lon="6.55401">
        <ele>1264.9</ele>
        <time>2018-10-26T12:45:01Z</time>
      </trkpt>
      <trkpt lat="45.70324" lon="6.55398">
        <ele>1265.9</ele>
        <time>2018-10-26T12:45:06Z</time>
      </trkpt>
      <trkpt lat="45.70323" lon="6.55385">
        <ele>1267</ele>
        <time>2018-10-26T12:45:12Z</time>
      </trkpt>
      <trkpt lat="45.70314" lon="6.55381">
        <ele>1268.1</ele>
        <time>2018-10-26T12:45:17Z</time>
      </trkpt>
      <trkpt lat="45.70306" lon="6.55379">
        <ele>1269.3</ele>
        <time>2018-10-26T12:45:22Z</time>
      </trkpt>
      <trkpt lat="45.70297" lon="6.55374">
        <ele>1270.4</ele>
        <time>2018-10-26T12:45:27Z</time>
      </trkpt>
      <trkpt lat="45.70288" lon="6.55365">
        <ele>1271.4</ele>
        <time>2018-10-26T12:45:33Z</time>
      </trkpt>
      <trkpt lat="45.70288" lon="6.5535">
        <ele>1272.8</ele>
        <time>2018-10-26T12:45:39Z</time>
      </trkpt>
      <trkpt lat="45.70298" lon="6.5535">
        <ele>1273.6</ele>
        <time>2018-10-26T12:45:45Z</time>
      </trkpt>
      <trkpt lat="45.70306" lon="6.55356">
        <ele>1274.4</ele>
        <time>2018-10-26T12:45:50Z</time>
      </trkpt>
      <trkpt lat="45.70316" lon="6.55357">
        <ele>1275.4</ele>
        <time>2018-10-26T12:45:55Z</time>
      </trkpt>
      <trkpt lat="45.70325" lon="6.55354">
        <ele>1276.3</ele>
        <time>2018-10-26T12:46:00Z</time>
      </trkpt>
      <trkpt lat="45.70336" lon="6.55353">
        <ele>1277.1</ele>
        <time>2018-10-26T12:46:05Z</time>
      </trkpt>
      <trkpt lat="45.70346" lon="6.55354">
        <ele>1278</ele>
        <time>2018-10-26T12:46:10Z</time>
      </trkpt>
      <trkpt lat="45.70357" lon="6.55356">
        <ele>1278.8</ele>
        <time>2018-10-26T12:46:15Z</time>
      </trkpt>
      <trkpt lat="45.70368" lon="6.55356">
        <ele>1279.5</ele>
        <time>2018-10-26T12:46:20Z</time>
      </trkpt>
      <trkpt lat="45.70379" lon="6.55353">
        <ele>1280.4</ele>
        <time>2018-10-26T12:46:25Z</time>
      </trkpt>
      <trkpt lat="45.70388" lon="6.55349">
        <ele>1280.8</ele>
        <time>2018-10-26T12:46:29Z</time>
      </trkpt>
      <trkpt lat="45.70398" lon="6.55342">
        <ele>1281.4</ele>
        <time>2018-10-26T12:46:34Z</time>
      </trkpt>
      <trkpt lat="45.70408" lon="6.55338">
        <ele>1281.9</ele>
        <time>2018-10-26T12:46:39Z</time>
      </trkpt>
      <trkpt lat="45.70418" lon="6.55332">
        <ele>1282.7</ele>
        <time>2018-10-26T12:46:44Z</time>
      </trkpt>
      <trkpt lat="45.70421" lon="6.5532">
        <ele>1283.5</ele>
        <time>2018-10-26T12:46:58Z</time>
      </trkpt>
      <trkpt lat="45.70429" lon="6.55309">
        <ele>1283</ele>
        <time>2018-10-26T12:48:01Z</time>
      </trkpt>
      <trkpt lat="45.70437" lon="6.55299">
        <ele>1282.7</ele>
        <time>2018-10-26T12:48:04Z</time>
      </trkpt>
      <trkpt lat="45.70446" lon="6.55295">
        <ele>1282.4</ele>
        <time>2018-10-26T12:48:06Z</time>
      </trkpt>
      <trkpt lat="45.70458" lon="6.5529">
        <ele>1282</ele>
        <time>2018-10-26T12:48:08Z</time>
      </trkpt>
      <trkpt lat="45.70471" lon="6.55286">
        <ele>1281.4</ele>
        <time>2018-10-26T12:48:10Z</time>
      </trkpt>
      <trkpt lat="45.70484" lon="6.55284">
        <ele>1280.6</ele>
        <time>2018-10-26T12:48:12Z</time>
      </trkpt>
      <trkpt lat="45.70494" lon="6.55275">
        <ele>1279.7</ele>
        <time>2018-10-26T12:48:14Z</time>
      </trkpt>
      <trkpt lat="45.70505" lon="6.55265">
        <ele>1278.6</ele>
        <time>2018-10-26T12:48:16Z</time>
      </trkpt>
      <trkpt lat="45.70516" lon="6.55264">
        <ele>1277.4</ele>
        <time>2018-10-26T12:48:18Z</time>
      </trkpt>
      <trkpt lat="45.7053" lon="6.5527">
        <ele>1276.3</ele>
        <time>2018-10-26T12:48:20Z</time>
      </trkpt>
      <trkpt lat="45.70545" lon="6.55272">
        <ele>1275.3</ele>
        <time>2018-10-26T12:48:22Z</time>
      </trkpt>
      <trkpt lat="45.70561" lon="6.55274">
        <ele>1273.8</ele>
        <time>2018-10-26T12:48:24Z</time>
      </trkpt>
      <trkpt lat="45.70578" lon="6.55276">
        <ele>1272.5</ele>
        <time>2018-10-26T12:48:26Z</time>
      </trkpt>
      <trkpt lat="45.70592" lon="6.55275">
        <ele>1271</ele>
        <time>2018-10-26T12:48:28Z</time>
      </trkpt>
      <trkpt lat="45.70607" lon="6.55274">
        <ele>1269.7</ele>
        <time>2018-10-26T12:48:30Z</time>
      </trkpt>
      <trkpt lat="45.7062" lon="6.55272">
        <ele>1268.3</ele>
        <time>2018-10-26T12:48:32Z</time>
      </trkpt>
      <trkpt lat="45.70631" lon="6.5527">
        <ele>1266.9</ele>
        <time>2018-10-26T12:48:34Z</time>
      </trkpt>
      <trkpt lat="45.70641" lon="6.55264">
        <ele>1265.6</ele>
        <time>2018-10-26T12:48:36Z</time>
      </trkpt>
      <trkpt lat="45.70654" lon="6.55256">
        <ele>1264.4</ele>
        <time>2018-10-26T12:48:38Z</time>
      </trkpt>
      <trkpt lat="45.70669" lon="6.55249">
        <ele>1263.2</ele>
        <time>2018-10-26T12:48:40Z</time>
      </trkpt>
      <trkpt lat="45.70687" lon="6.55245">
        <ele>1262</ele>
        <time>2018-10-26T12:48:42Z</time>
      </trkpt>
      <trkpt lat="45.70702" lon="6.55248">
        <ele>1260.6</ele>
        <time>2018-10-26T12:48:44Z</time>
      </trkpt>
      <trkpt lat="45.70717" lon="6.5525">
        <ele>1259.4</ele>
        <time>2018-10-26T12:48:46Z</time>
      </trkpt>
      <trkpt lat="45.70731" lon="6.55249">
        <ele>1258</ele>
        <time>2018-10-26T12:48:48Z</time>
      </trkpt>
      <trkpt lat="45.70741" lon="6.55244">
        <ele>1257.1</ele>
        <time>2018-10-26T12:48:51Z</time>
      </trkpt>
      <trkpt lat="45.7075" lon="6.55236">
        <ele>1257.2</ele>
        <time>2018-10-26T12:48:58Z</time>
      </trkpt>
      <trkpt lat="45.70759" lon="6.55231">
        <ele>1257.5</ele>
        <time>2018-10-26T12:49:03Z</time>
      </trkpt>
      <trkpt lat="45.70768" lon="6.55228">
        <ele>1258.9</ele>
        <time>2018-10-26T12:49:11Z</time>
      </trkpt>
      <trkpt lat="45.70779" lon="6.5523">
        <ele>1260.4</ele>
        <time>2018-10-26T12:49:18Z</time>
      </trkpt>
      <trkpt lat="45.70789" lon="6.55231">
        <ele>1260.9</ele>
        <time>2018-10-26T12:49:23Z</time>
      </trkpt>
      <trkpt lat="45.708" lon="6.55232">
        <ele>1261</ele>
        <time>2018-10-26T12:49:28Z</time>
      </trkpt>
      <trkpt lat="45.70809" lon="6.55238">
        <ele>1261.4</ele>
        <time>2018-10-26T12:49:34Z</time>
      </trkpt>
      <trkpt lat="45.70818" lon="6.55242">
        <ele>1262.4</ele>
        <time>2018-10-26T12:49:41Z</time>
      </trkpt>
      <trkpt lat="45.70827" lon="6.55247">
        <ele>1263.4</ele>
        <time>2018-10-26T12:49:48Z</time>
      </trkpt>
      <trkpt lat="45.70837" lon="6.55249">
        <ele>1264.3</ele>
        <time>2018-10-26T12:49:54Z</time>
      </trkpt>
      <trkpt lat="45.70846" lon="6.55253">
        <ele>1264.6</ele>
        <time>2018-10-26T12:50:00Z</time>
      </trkpt>
      <trkpt lat="45.70854" lon="6.55262">
        <ele>1265.1</ele>
        <time>2018-10-26T12:50:07Z</time>
      </trkpt>
      <trkpt lat="45.7086" lon="6.55273">
        <ele>1266.2</ele>
        <time>2018-10-26T12:50:14Z</time>
      </trkpt>
      <trkpt lat="45.70868" lon="6.55282">
        <ele>1267.6</ele>
        <time>2018-10-26T12:50:21Z</time>
      </trkpt>
      <trkpt lat="45.70877" lon="6.55287">
        <ele>1269.2</ele>
        <time>2018-10-26T12:50:28Z</time>
      </trkpt>
      <trkpt lat="45.70885" lon="6.55295">
        <ele>1270.6</ele>
        <time>2018-10-26T12:50:36Z</time>
      </trkpt>
      <trkpt lat="45.70893" lon="6.55305">
        <ele>1271.8</ele>
        <time>2018-10-26T12:50:44Z</time>
      </trkpt>
      <trkpt lat="45.709" lon="6.55315">
        <ele>1273.3</ele>
        <time>2018-10-26T12:50:52Z</time>
      </trkpt>
      <trkpt lat="45.70906" lon="6.55324">
        <ele>1274.9</ele>
        <time>2018-10-26T12:50:59Z</time>
      </trkpt>
      <trkpt lat="45.70913" lon="6.55335">
        <ele>1276.5</ele>
        <time>2018-10-26T12:51:08Z</time>
      </trkpt>
      <trkpt lat="45.70918" lon="6.55346">
        <ele>1277.6</ele>
        <time>2018-10-26T12:51:15Z</time>
      </trkpt>
      <trkpt lat="45.70923" lon="6.55359">
        <ele>1279</ele>
        <time>2018-10-26T12:51:23Z</time>
      </trkpt>
      <trkpt lat="45.70926" lon="6.55371">
        <ele>1280.5</ele>
        <time>2018-10-26T12:51:31Z</time>
      </trkpt>
      <trkpt lat="45.70932" lon="6.55382">
        <ele>1281.7</ele>
        <time>2018-10-26T12:51:39Z</time>
      </trkpt>
      <trkpt lat="45.7094" lon="6.55391">
        <ele>1282.9</ele>
        <time>2018-10-26T12:51:47Z</time>
      </trkpt>
      <trkpt lat="45.70948" lon="6.55398">
        <ele>1284.7</ele>
        <time>2018-10-26T12:52:04Z</time>
      </trkpt>
      <trkpt lat="45.70958" lon="6.554">
        <ele>1285.7</ele>
        <time>2018-10-26T12:52:13Z</time>
      </trkpt>
      <trkpt lat="45.70968" lon="6.55402">
        <ele>1287</ele>
        <time>2018-10-26T12:52:21Z</time>
      </trkpt>
      <trkpt lat="45.70976" lon="6.55396">
        <ele>1289</ele>
        <time>2018-10-26T12:52:29Z</time>
      </trkpt>
      <trkpt lat="45.70984" lon="6.55388">
        <ele>1291.8</ele>
        <time>2018-10-26T12:52:38Z</time>
      </trkpt>
      <trkpt lat="45.70994" lon="6.55388">
        <ele>1293.5</ele>
        <time>2018-10-26T12:52:46Z</time>
      </trkpt>
      <trkpt lat="45.71003" lon="6.55387">
        <ele>1293.5</ele>
        <time>2018-10-26T12:52:51Z</time>
      </trkpt>
      <trkpt lat="45.71012" lon="6.55382">
        <ele>1292.8</ele>
        <time>2018-10-26T12:53:09Z</time>
      </trkpt>
      <trkpt lat="45.71022" lon="6.55375">
        <ele>1293.5</ele>
        <time>2018-10-26T12:53:16Z</time>
      </trkpt>
      <trkpt lat="45.71029" lon="6.55366">
        <ele>1293.7</ele>
        <time>2018-10-26T12:53:22Z</time>
      </trkpt>
      <trkpt lat="45.71037" lon="6.55356">
        <ele>1293.8</ele>
        <time>2018-10-26T12:53:27Z</time>
      </trkpt>
      <trkpt lat="45.71044" lon="6.55345">
        <ele>1294.3</ele>
        <time>2018-10-26T12:53:33Z</time>
      </trkpt>
      <trkpt lat="45.71052" lon="6.55334">
        <ele>1295.5</ele>
        <time>2018-10-26T12:53:39Z</time>
      </trkpt>
      <trkpt lat="45.71057" lon="6.55323">
        <ele>1297</ele>
        <time>2018-10-26T12:53:45Z</time>
      </trkpt>
      <trkpt lat="45.71058" lon="6.55308">
        <ele>1298.7</ele>
        <time>2018-10-26T12:53:52Z</time>
      </trkpt>
      <trkpt lat="45.71061" lon="6.55294">
        <ele>1299.7</ele>
        <time>2018-10-26T12:54:00Z</time>
      </trkpt>
      <trkpt lat="45.71062" lon="6.5528">
        <ele>1301.3</ele>
        <time>2018-10-26T12:54:07Z</time>
      </trkpt>
      <trkpt lat="45.71066" lon="6.55269">
        <ele>1302.1</ele>
        <time>2018-10-26T12:54:12Z</time>
      </trkpt>
      <trkpt lat="45.71074" lon="6.55258">
        <ele>1302.4</ele>
        <time>2018-10-26T12:54:18Z</time>
      </trkpt>
      <trkpt lat="45.71079" lon="6.55247">
        <ele>1302.6</ele>
        <time>2018-10-26T12:54:23Z</time>
      </trkpt>
      <trkpt lat="45.71083" lon="6.55233">
        <ele>1303.8</ele>
        <time>2018-10-26T12:54:31Z</time>
      </trkpt>
      <trkpt lat="45.71085" lon="6.5522">
        <ele>1304.9</ele>
        <time>2018-10-26T12:54:37Z</time>
      </trkpt>
      <trkpt lat="45.71089" lon="6.55208">
        <ele>1305.2</ele>
        <time>2018-10-26T12:54:41Z</time>
      </trkpt>
      <trkpt lat="45.71092" lon="6.55194">
        <ele>1305.2</ele>
        <time>2018-10-26T12:54:46Z</time>
      </trkpt>
      <trkpt lat="45.71098" lon="6.5518">
        <ele>1305.4</ele>
        <time>2018-10-26T12:54:52Z</time>
      </trkpt>
      <trkpt lat="45.71103" lon="6.55168">
        <ele>1305.2</ele>
        <time>2018-10-26T12:54:58Z</time>
      </trkpt>
      <trkpt lat="45.71101" lon="6.55154">
        <ele>1305.5</ele>
        <time>2018-10-26T12:55:05Z</time>
      </trkpt>
      <trkpt lat="45.71096" lon="6.55142">
        <ele>1306.3</ele>
        <time>2018-10-26T12:55:12Z</time>
      </trkpt>
      <trkpt lat="45.71096" lon="6.55128">
        <ele>1307.7</ele>
        <time>2018-10-26T12:55:19Z</time>
      </trkpt>
      <trkpt lat="45.71097" lon="6.55112">
        <ele>1308.8</ele>
        <time>2018-10-26T12:55:26Z</time>
      </trkpt>
      <trkpt lat="45.71098" lon="6.55099">
        <ele>1309.9</ele>
        <time>2018-10-26T12:55:31Z</time>
      </trkpt>
      <trkpt lat="45.71103" lon="6.55088">
        <ele>1310.6</ele>
        <time>2018-10-26T12:55:36Z</time>
      </trkpt>
      <trkpt lat="45.71107" lon="6.55075">
        <ele>1311.3</ele>
        <time>2018-10-26T12:55:40Z</time>
      </trkpt>
      <trkpt lat="45.71111" lon="6.55062">
        <ele>1312.1</ele>
        <time>2018-10-26T12:55:45Z</time>
      </trkpt>
      <trkpt lat="45.71118" lon="6.55053">
        <ele>1312.4</ele>
        <time>2018-10-26T12:55:49Z</time>
      </trkpt>
      <trkpt lat="45.71124" lon="6.55039">
        <ele>1312.5</ele>
        <time>2018-10-26T12:55:53Z</time>
      </trkpt>
      <trkpt lat="45.71127" lon="6.55026">
        <ele>1312.4</ele>
        <time>2018-10-26T12:55:56Z</time>
      </trkpt>
      <trkpt lat="45.71128" lon="6.55011">
        <ele>1312.1</ele>
        <time>2018-10-26T12:55:59Z</time>
      </trkpt>
      <trkpt lat="45.71129" lon="6.54995">
        <ele>1311.6</ele>
        <time>2018-10-26T12:56:01Z</time>
      </trkpt>
      <trkpt lat="45.7113" lon="6.54981">
        <ele>1311</ele>
        <time>2018-10-26T12:56:04Z</time>
      </trkpt>
      <trkpt lat="45.71132" lon="6.54965">
        <ele>1310.9</ele>
        <time>2018-10-26T12:56:09Z</time>
      </trkpt>
      <trkpt lat="45.71133" lon="6.54952">
        <ele>1311.4</ele>
        <time>2018-10-26T12:56:13Z</time>
      </trkpt>
      <trkpt lat="45.71134" lon="6.54937">
        <ele>1312.6</ele>
        <time>2018-10-26T12:56:18Z</time>
      </trkpt>
      <trkpt lat="45.71132" lon="6.54923">
        <ele>1313.6</ele>
        <time>2018-10-26T12:56:23Z</time>
      </trkpt>
      <trkpt lat="45.7113" lon="6.5491">
        <ele>1313.9</ele>
        <time>2018-10-26T12:56:27Z</time>
      </trkpt>
      <trkpt lat="45.71126" lon="6.54898">
        <ele>1314.5</ele>
        <time>2018-10-26T12:56:32Z</time>
      </trkpt>
      <trkpt lat="45.71122" lon="6.54886">
        <ele>1315</ele>
        <time>2018-10-26T12:56:36Z</time>
      </trkpt>
      <trkpt lat="45.71117" lon="6.54873">
        <ele>1315.1</ele>
        <time>2018-10-26T12:56:41Z</time>
      </trkpt>
      <trkpt lat="45.71124" lon="6.54863">
        <ele>1313.8</ele>
        <time>2018-10-26T12:56:45Z</time>
      </trkpt>
      <trkpt lat="45.71135" lon="6.54867">
        <ele>1311.4</ele>
        <time>2018-10-26T12:56:49Z</time>
      </trkpt>
      <trkpt lat="45.71142" lon="6.54856">
        <ele>1308.5</ele>
        <time>2018-10-26T12:56:54Z</time>
      </trkpt>
      <trkpt lat="45.71135" lon="6.54846">
        <ele>1307.9</ele>
        <time>2018-10-26T12:56:59Z</time>
      </trkpt>
      <trkpt lat="45.7113" lon="6.54835">
        <ele>1308.5</ele>
        <time>2018-10-26T12:57:04Z</time>
      </trkpt>
      <trkpt lat="45.71126" lon="6.54821">
        <ele>1309.4</ele>
        <time>2018-10-26T12:57:10Z</time>
      </trkpt>
      <trkpt lat="45.71122" lon="6.54809">
        <ele>1310.3</ele>
        <time>2018-10-26T12:57:15Z</time>
      </trkpt>
      <trkpt lat="45.7112" lon="6.54796">
        <ele>1311.2</ele>
        <time>2018-10-26T12:57:20Z</time>
      </trkpt>
      <trkpt lat="45.71121" lon="6.5478">
        <ele>1312.4</ele>
        <time>2018-10-26T12:57:26Z</time>
      </trkpt>
      <trkpt lat="45.71123" lon="6.54765">
        <ele>1313.3</ele>
        <time>2018-10-26T12:57:31Z</time>
      </trkpt>
      <trkpt lat="45.71123" lon="6.54752">
        <ele>1314.3</ele>
        <time>2018-10-26T12:57:36Z</time>
      </trkpt>
      <trkpt lat="45.71123" lon="6.54738">
        <ele>1315.3</ele>
        <time>2018-10-26T12:57:42Z</time>
      </trkpt>
      <trkpt lat="45.71123" lon="6.54725">
        <ele>1316</ele>
        <time>2018-10-26T12:57:46Z</time>
      </trkpt>
      <trkpt lat="45.71119" lon="6.5471">
        <ele>1317</ele>
        <time>2018-10-26T12:57:51Z</time>
      </trkpt>
      <trkpt lat="45.71114" lon="6.54696">
        <ele>1317.9</ele>
        <time>2018-10-26T12:57:56Z</time>
      </trkpt>
      <trkpt lat="45.7111" lon="6.54683">
        <ele>1318.8</ele>
        <time>2018-10-26T12:58:01Z</time>
      </trkpt>
      <trkpt lat="45.71105" lon="6.54671">
        <ele>1319.7</ele>
        <time>2018-10-26T12:58:06Z</time>
      </trkpt>
      <trkpt lat="45.711" lon="6.54658">
        <ele>1321.1</ele>
        <time>2018-10-26T12:58:12Z</time>
      </trkpt>
      <trkpt lat="45.71092" lon="6.54648">
        <ele>1322.1</ele>
        <time>2018-10-26T12:58:18Z</time>
      </trkpt>
      <trkpt lat="45.71083" lon="6.54652">
        <ele>1323.7</ele>
        <time>2018-10-26T13:05:35Z</time>
      </trkpt>
      <trkpt lat="45.71084" lon="6.54635">
        <ele>1323.1</ele>
        <time>2018-10-26T13:05:47Z</time>
      </trkpt>
      <trkpt lat="45.71081" lon="6.5462">
        <ele>1321.4</ele>
        <time>2018-10-26T13:05:50Z</time>
      </trkpt>
      <trkpt lat="45.71081" lon="6.54608">
        <ele>1319.9</ele>
        <time>2018-10-26T13:05:54Z</time>
      </trkpt>
      <trkpt lat="45.7108" lon="6.54594">
        <ele>1319.1</ele>
        <time>2018-10-26T13:05:56Z</time>
      </trkpt>
      <trkpt lat="45.7108" lon="6.54576">
        <ele>1317.8</ele>
        <time>2018-10-26T13:05:59Z</time>
      </trkpt>
      <trkpt lat="45.71081" lon="6.54562">
        <ele>1317.1</ele>
        <time>2018-10-26T13:06:01Z</time>
      </trkpt>
      <trkpt lat="45.71087" lon="6.54545">
        <ele>1316.1</ele>
        <time>2018-10-26T13:06:04Z</time>
      </trkpt>
      <trkpt lat="45.71094" lon="6.54535">
        <ele>1315.3</ele>
        <time>2018-10-26T13:06:06Z</time>
      </trkpt>
      <trkpt lat="45.71101" lon="6.54524">
        <ele>1314</ele>
        <time>2018-10-26T13:06:08Z</time>
      </trkpt>
      <trkpt lat="45.7111" lon="6.54511">
        <ele>1311.9</ele>
        <time>2018-10-26T13:06:11Z</time>
      </trkpt>
      <trkpt lat="45.71114" lon="6.54494">
        <ele>1309.7</ele>
        <time>2018-10-26T13:06:15Z</time>
      </trkpt>
      <trkpt lat="45.71122" lon="6.54484">
        <ele>1308.4</ele>
        <time>2018-10-26T13:06:17Z</time>
      </trkpt>
      <trkpt lat="45.71127" lon="6.54473">
        <ele>1306.8</ele>
        <time>2018-10-26T13:06:19Z</time>
      </trkpt>
      <trkpt lat="45.71132" lon="6.54484">
        <ele>1303.3</ele>
        <time>2018-10-26T13:06:24Z</time>
      </trkpt>
      <trkpt lat="45.71134" lon="6.54499">
        <ele>1301.7</ele>
        <time>2018-10-26T13:06:26Z</time>
      </trkpt>
      <trkpt lat="45.71134" lon="6.54515">
        <ele>1299.7</ele>
        <time>2018-10-26T13:06:28Z</time>
      </trkpt>
      <trkpt lat="45.71133" lon="6.54532">
        <ele>1297.6</ele>
        <time>2018-10-26T13:06:30Z</time>
      </trkpt>
      <trkpt lat="45.71133" lon="6.54546">
        <ele>1295.2</ele>
        <time>2018-10-26T13:06:32Z</time>
      </trkpt>
      <trkpt lat="45.71133" lon="6.54561">
        <ele>1291.9</ele>
        <time>2018-10-26T13:06:35Z</time>
      </trkpt>
      <trkpt lat="45.71143" lon="6.54559">
        <ele>1286.1</ele>
        <time>2018-10-26T13:06:41Z</time>
      </trkpt>
      <trkpt lat="45.71155" lon="6.5455">
        <ele>1283.8</ele>
        <time>2018-10-26T13:06:44Z</time>
      </trkpt>
      <trkpt lat="45.71163" lon="6.54541">
        <ele>1279.8</ele>
        <time>2018-10-26T13:06:50Z</time>
      </trkpt>
      <trkpt lat="45.7117" lon="6.54529">
        <ele>1278.1</ele>
        <time>2018-10-26T13:06:53Z</time>
      </trkpt>
      <trkpt lat="45.71178" lon="6.54518">
        <ele>1275.1</ele>
        <time>2018-10-26T13:06:57Z</time>
      </trkpt>
      <trkpt lat="45.71185" lon="6.54533">
        <ele>1270.5</ele>
        <time>2018-10-26T13:07:03Z</time>
      </trkpt>
      <trkpt lat="45.71187" lon="6.5455">
        <ele>1268.1</ele>
        <time>2018-10-26T13:07:06Z</time>
      </trkpt>
      <trkpt lat="45.71188" lon="6.54564">
        <ele>1266.1</ele>
        <time>2018-10-26T13:07:08Z</time>
      </trkpt>
      <trkpt lat="45.7119" lon="6.54581">
        <ele>1263.9</ele>
        <time>2018-10-26T13:07:10Z</time>
      </trkpt>
      <trkpt lat="45.71191" lon="6.54596">
        <ele>1260.6</ele>
        <time>2018-10-26T13:07:13Z</time>
      </trkpt>
      <trkpt lat="45.71193" lon="6.54611">
        <ele>1257.6</ele>
        <time>2018-10-26T13:07:16Z</time>
      </trkpt>
      <trkpt lat="45.71196" lon="6.54626">
        <ele>1254.6</ele>
        <time>2018-10-26T13:07:20Z</time>
      </trkpt>
      <trkpt lat="45.71202" lon="6.54615">
        <ele>1249.5</ele>
        <time>2018-10-26T13:07:34Z</time>
      </trkpt>
      <trkpt lat="45.71208" lon="6.54604">
        <ele>1247.8</ele>
        <time>2018-10-26T13:07:37Z</time>
      </trkpt>
      <trkpt lat="45.71214" lon="6.54617">
        <ele>1242.6</ele>
        <time>2018-10-26T13:07:45Z</time>
      </trkpt>
      <trkpt lat="45.7122" lon="6.5463">
        <ele>1239.9</ele>
        <time>2018-10-26T13:07:49Z</time>
      </trkpt>
      <trkpt lat="45.71227" lon="6.54644">
        <ele>1237.3</ele>
        <time>2018-10-26T13:07:52Z</time>
      </trkpt>
      <trkpt lat="45.71229" lon="6.54658">
        <ele>1235.6</ele>
        <time>2018-10-26T13:07:54Z</time>
      </trkpt>
      <trkpt lat="45.7123" lon="6.54672">
        <ele>1234</ele>
        <time>2018-10-26T13:07:57Z</time>
      </trkpt>
      <trkpt lat="45.71232" lon="6.54689">
        <ele>1231.6</ele>
        <time>2018-10-26T13:08:01Z</time>
      </trkpt>
      <trkpt lat="45.71235" lon="6.54701">
        <ele>1227.7</ele>
        <time>2018-10-26T13:08:09Z</time>
      </trkpt>
      <trkpt lat="45.71244" lon="6.54703">
        <ele>1217.1</ele>
        <time>2018-10-26T13:08:41Z</time>
      </trkpt>
      <trkpt lat="45.71251" lon="6.5469">
        <ele>1214.4</ele>
        <time>2018-10-26T13:08:45Z</time>
      </trkpt>
      <trkpt lat="45.7126" lon="6.54697">
        <ele>1209.8</ele>
        <time>2018-10-26T13:08:52Z</time>
      </trkpt>
      <trkpt lat="45.71266" lon="6.54712">
        <ele>1207.6</ele>
        <time>2018-10-26T13:08:55Z</time>
      </trkpt>
      <trkpt lat="45.71271" lon="6.54729">
        <ele>1205.8</ele>
        <time>2018-10-26T13:08:57Z</time>
      </trkpt>
      <trkpt lat="45.71275" lon="6.54741">
        <ele>1203.7</ele>
        <time>2018-10-26T13:08:59Z</time>
      </trkpt>
      <trkpt lat="45.71283" lon="6.54751">
        <ele>1201.1</ele>
        <time>2018-10-26T13:09:01Z</time>
      </trkpt>
      <trkpt lat="45.71292" lon="6.54759">
        <ele>1197.6</ele>
        <time>2018-10-26T13:09:04Z</time>
      </trkpt>
      <trkpt lat="45.71298" lon="6.54749">
        <ele>1195.4</ele>
        <time>2018-10-26T13:09:06Z</time>
      </trkpt>
      <trkpt lat="45.71305" lon="6.54742">
        <ele>1193.4</ele>
        <time>2018-10-26T13:09:08Z</time>
      </trkpt>
      <trkpt lat="45.71313" lon="6.54731">
        <ele>1190</ele>
        <time>2018-10-26T13:09:11Z</time>
      </trkpt>
      <trkpt lat="45.71314" lon="6.54716">
        <ele>1186.7</ele>
        <time>2018-10-26T13:09:15Z</time>
      </trkpt>
      <trkpt lat="45.71312" lon="6.54696">
        <ele>1184</ele>
        <time>2018-10-26T13:09:18Z</time>
      </trkpt>
      <trkpt lat="45.71311" lon="6.5468">
        <ele>1181.7</ele>
        <time>2018-10-26T13:09:20Z</time>
      </trkpt>
      <trkpt lat="45.71307" lon="6.54665">
        <ele>1178.2</ele>
        <time>2018-10-26T13:09:23Z</time>
      </trkpt>
      <trkpt lat="45.71316" lon="6.54672">
        <ele>1170.9</ele>
        <time>2018-10-26T13:09:32Z</time>
      </trkpt>
      <trkpt lat="45.71323" lon="6.5468">
        <ele>1167.6</ele>
        <time>2018-10-26T13:09:35Z</time>
      </trkpt>
      <trkpt lat="45.7133" lon="6.5467">
        <ele>1160.2</ele>
        <time>2018-10-26T13:09:44Z</time>
      </trkpt>
      <trkpt lat="45.71329" lon="6.54657">
        <ele>1157.2</ele>
        <time>2018-10-26T13:09:47Z</time>
      </trkpt>
      <trkpt lat="45.71336" lon="6.54667">
        <ele>1151.5</ele>
        <time>2018-10-26T13:09:55Z</time>
      </trkpt>
      <trkpt lat="45.71342" lon="6.5468">
        <ele>1147.7</ele>
        <time>2018-10-26T13:09:59Z</time>
      </trkpt>
      <trkpt lat="45.71349" lon="6.54689">
        <ele>1144.1</ele>
        <time>2018-10-26T13:10:04Z</time>
      </trkpt>
      <trkpt lat="45.71352" lon="6.54673">
        <ele>1140.7</ele>
        <time>2018-10-26T13:10:12Z</time>
      </trkpt>
      <trkpt lat="45.71351" lon="6.54657">
        <ele>1138.9</ele>
        <time>2018-10-26T13:10:15Z</time>
      </trkpt>
      <trkpt lat="45.7135" lon="6.54643">
        <ele>1137.4</ele>
        <time>2018-10-26T13:10:17Z</time>
      </trkpt>
      <trkpt lat="45.7135" lon="6.54628">
        <ele>1134.8</ele>
        <time>2018-10-26T13:10:20Z</time>
      </trkpt>
      <trkpt lat="45.7135" lon="6.54615">
        <ele>1130.9</ele>
        <time>2018-10-26T13:10:26Z</time>
      </trkpt>
      <trkpt lat="45.71346" lon="6.54602">
        <ele>1129.9</ele>
        <time>2018-10-26T13:10:31Z</time>
      </trkpt>
      <trkpt lat="45.71346" lon="6.54589">
        <ele>1129.2</ele>
        <time>2018-10-26T13:10:35Z</time>
      </trkpt>
      <trkpt lat="45.71349" lon="6.5457">
        <ele>1128.2</ele>
        <time>2018-10-26T13:10:38Z</time>
      </trkpt>
      <trkpt lat="45.71351" lon="6.54554">
        <ele>1126.3</ele>
        <time>2018-10-26T13:10:41Z</time>
      </trkpt>
      <trkpt lat="45.71359" lon="6.54547">
        <ele>1123.9</ele>
        <time>2018-10-26T13:10:45Z</time>
      </trkpt>
      <trkpt lat="45.71365" lon="6.54559">
        <ele>1120.6</ele>
        <time>2018-10-26T13:10:49Z</time>
      </trkpt>
      <trkpt lat="45.71368" lon="6.54572">
        <ele>1118.5</ele>
        <time>2018-10-26T13:10:51Z</time>
      </trkpt>
      <trkpt lat="45.71374" lon="6.54587">
        <ele>1115.4</ele>
        <time>2018-10-26T13:10:54Z</time>
      </trkpt>
      <trkpt lat="45.71377" lon="6.546">
        <ele>1112.5</ele>
        <time>2018-10-26T13:10:57Z</time>
      </trkpt>
      <trkpt lat="45.71381" lon="6.54612">
        <ele>1109.7</ele>
        <time>2018-10-26T13:11:00Z</time>
      </trkpt>
      <trkpt lat="45.71387" lon="6.54626">
        <ele>1106.2</ele>
        <time>2018-10-26T13:11:04Z</time>
      </trkpt>
      <trkpt lat="45.7139" lon="6.54641">
        <ele>1104.1</ele>
        <time>2018-10-26T13:11:07Z</time>
      </trkpt>
      <trkpt lat="45.71395" lon="6.54656">
        <ele>1102.7</ele>
        <time>2018-10-26T13:11:09Z</time>
      </trkpt>
      <trkpt lat="45.71399" lon="6.54671">
        <ele>1100.8</ele>
        <time>2018-10-26T13:11:11Z</time>
      </trkpt>
      <trkpt lat="45.71401" lon="6.54687">
        <ele>1098.8</ele>
        <time>2018-10-26T13:11:13Z</time>
      </trkpt>
      <trkpt lat="45.71405" lon="6.54699">
        <ele>1096.8</ele>
        <time>2018-10-26T13:11:15Z</time>
      </trkpt>
      <trkpt lat="45.7141" lon="6.54713">
        <ele>1094.2</ele>
        <time>2018-10-26T13:11:18Z</time>
      </trkpt>
      <trkpt lat="45.71416" lon="6.54723">
        <ele>1092.8</ele>
        <time>2018-10-26T13:11:20Z</time>
      </trkpt>
      <trkpt lat="45.71423" lon="6.54733">
        <ele>1091.2</ele>
        <time>2018-10-26T13:11:22Z</time>
      </trkpt>
      <trkpt lat="45.7143" lon="6.54742">
        <ele>1088.6</ele>
        <time>2018-10-26T13:11:25Z</time>
      </trkpt>
      <trkpt lat="45.71439" lon="6.54741">
        <ele>1084.8</ele>
        <time>2018-10-26T13:11:29Z</time>
      </trkpt>
      <trkpt lat="45.7145" lon="6.54752">
        <ele>1083.2</ele>
        <time>2018-10-26T13:11:31Z</time>
      </trkpt>
      <trkpt lat="45.71455" lon="6.54762">
        <ele>1082.4</ele>
        <time>2018-10-26T13:11:32Z</time>
      </trkpt>
      <trkpt lat="45.71462" lon="6.54773">
        <ele>1080.6</ele>
        <time>2018-10-26T13:11:34Z</time>
      </trkpt>
      <trkpt lat="45.71469" lon="6.54763">
        <ele>1072.9</ele>
        <time>2018-10-26T13:11:42Z</time>
      </trkpt>
      <trkpt lat="45.7147" lon="6.5475">
        <ele>1068.4</ele>
        <time>2018-10-26T13:11:47Z</time>
      </trkpt>
      <trkpt lat="45.71474" lon="6.54735">
        <ele>1064.2</ele>
        <time>2018-10-26T13:11:55Z</time>
      </trkpt>
      <trkpt lat="45.71478" lon="6.54722">
        <ele>1062.7</ele>
        <time>2018-10-26T13:11:57Z</time>
      </trkpt>
      <trkpt lat="45.71474" lon="6.54709">
        <ele>1060.6</ele>
        <time>2018-10-26T13:11:59Z</time>
      </trkpt>
      <trkpt lat="45.71475" lon="6.5469">
        <ele>1057</ele>
        <time>2018-10-26T13:12:02Z</time>
      </trkpt>
      <trkpt lat="45.71479" lon="6.54671">
        <ele>1053.8</ele>
        <time>2018-10-26T13:12:05Z</time>
      </trkpt>
      <trkpt lat="45.71482" lon="6.54658">
        <ele>1051.4</ele>
        <time>2018-10-26T13:12:07Z</time>
      </trkpt>
      <trkpt lat="45.71486" lon="6.54674">
        <ele>1041.4</ele>
        <time>2018-10-26T13:12:20Z</time>
      </trkpt>
      <trkpt lat="45.71491" lon="6.54685">
        <ele>1039.2</ele>
        <time>2018-10-26T13:12:22Z</time>
      </trkpt>
      <trkpt lat="45.71496" lon="6.54696">
        <ele>1037.1</ele>
        <time>2018-10-26T13:12:24Z</time>
      </trkpt>
      <trkpt lat="45.71504" lon="6.54709">
        <ele>1033.9</ele>
        <time>2018-10-26T13:12:27Z</time>
      </trkpt>
      <trkpt lat="45.71513" lon="6.5471">
        <ele>1030.3</ele>
        <time>2018-10-26T13:12:31Z</time>
      </trkpt>
      <trkpt lat="45.71516" lon="6.54695">
        <ele>1026.2</ele>
        <time>2018-10-26T13:12:35Z</time>
      </trkpt>
      <trkpt lat="45.71516" lon="6.54679">
        <ele>1023.6</ele>
        <time>2018-10-26T13:12:38Z</time>
      </trkpt>
      <trkpt lat="45.71519" lon="6.54664">
        <ele>1022</ele>
        <time>2018-10-26T13:12:41Z</time>
      </trkpt>
      <trkpt lat="45.71523" lon="6.54649">
        <ele>1020</ele>
        <time>2018-10-26T13:12:44Z</time>
      </trkpt>
      <trkpt lat="45.71526" lon="6.54632">
        <ele>1017.9</ele>
        <time>2018-10-26T13:12:46Z</time>
      </trkpt>
      <trkpt lat="45.71526" lon="6.54618">
        <ele>1015.5</ele>
        <time>2018-10-26T13:12:48Z</time>
      </trkpt>
      <trkpt lat="45.71526" lon="6.54602">
        <ele>1012.3</ele>
        <time>2018-10-26T13:12:51Z</time>
      </trkpt>
      <trkpt lat="45.71526" lon="6.54588">
        <ele>1008.8</ele>
        <time>2018-10-26T13:12:55Z</time>
      </trkpt>
      <trkpt lat="45.71527" lon="6.54573">
        <ele>1005.7</ele>
        <time>2018-10-26T13:13:01Z</time>
      </trkpt>
      <trkpt lat="45.71533" lon="6.54558">
        <ele>1003.5</ele>
        <time>2018-10-26T13:13:04Z</time>
      </trkpt>
      <trkpt lat="45.71538" lon="6.54545">
        <ele>1000.9</ele>
        <time>2018-10-26T13:13:07Z</time>
      </trkpt>
      <trkpt lat="45.71542" lon="6.54533">
        <ele>997.1</ele>
        <time>2018-10-26T13:13:11Z</time>
      </trkpt>
      <trkpt lat="45.71553" lon="6.5454">
        <ele>991.5</ele>
        <time>2018-10-26T13:13:16Z</time>
      </trkpt>
      <trkpt lat="45.7156" lon="6.54551">
        <ele>988</ele>
        <time>2018-10-26T13:13:19Z</time>
      </trkpt>
      <trkpt lat="45.71567" lon="6.54565">
        <ele>983.7</ele>
        <time>2018-10-26T13:13:23Z</time>
      </trkpt>
      <trkpt lat="45.71575" lon="6.54572">
        <ele>979.9</ele>
        <time>2018-10-26T13:13:27Z</time>
      </trkpt>
      <trkpt lat="45.71575" lon="6.54556">
        <ele>976.3</ele>
        <time>2018-10-26T13:13:32Z</time>
      </trkpt>
      <trkpt lat="45.71575" lon="6.54542">
        <ele>974.3</ele>
        <time>2018-10-26T13:13:35Z</time>
      </trkpt>
      <trkpt lat="45.71582" lon="6.54528">
        <ele>970.9</ele>
        <time>2018-10-26T13:13:39Z</time>
      </trkpt>
      <trkpt lat="45.71591" lon="6.54517">
        <ele>968.6</ele>
        <time>2018-10-26T13:13:42Z</time>
      </trkpt>
      <trkpt lat="45.71598" lon="6.54503">
        <ele>966.1</ele>
        <time>2018-10-26T13:13:45Z</time>
      </trkpt>
      <trkpt lat="45.71608" lon="6.54504">
        <ele>957.4</ele>
        <time>2018-10-26T13:14:02Z</time>
      </trkpt>
      <trkpt lat="45.71618" lon="6.54496">
        <ele>953.4</ele>
        <time>2018-10-26T13:14:07Z</time>
      </trkpt>
      <trkpt lat="45.71623" lon="6.54507">
        <ele>948.1</ele>
        <time>2018-10-26T13:14:14Z</time>
      </trkpt>
      <trkpt lat="45.71632" lon="6.54498">
        <ele>945.3</ele>
        <time>2018-10-26T13:14:18Z</time>
      </trkpt>
      <trkpt lat="45.71638" lon="6.54488">
        <ele>942.9</ele>
        <time>2018-10-26T13:14:21Z</time>
      </trkpt>
      <trkpt lat="45.71645" lon="6.5448">
        <ele>940.6</ele>
        <time>2018-10-26T13:14:24Z</time>
      </trkpt>
      <trkpt lat="45.71653" lon="6.5447">
        <ele>937.2</ele>
        <time>2018-10-26T13:14:28Z</time>
      </trkpt>
      <trkpt lat="45.71651" lon="6.54484">
        <ele>929.4</ele>
        <time>2018-10-26T13:14:39Z</time>
      </trkpt>
      <trkpt lat="45.71653" lon="6.54498">
        <ele>926.2</ele>
        <time>2018-10-26T13:14:43Z</time>
      </trkpt>
      <trkpt lat="45.71664" lon="6.54493">
        <ele>922.1</ele>
        <time>2018-10-26T13:14:48Z</time>
      </trkpt>
      <trkpt lat="45.71674" lon="6.54482">
        <ele>918.9</ele>
        <time>2018-10-26T13:14:51Z</time>
      </trkpt>
      <trkpt lat="45.71682" lon="6.54471">
        <ele>916.4</ele>
        <time>2018-10-26T13:14:53Z</time>
      </trkpt>
      <trkpt lat="45.7169" lon="6.54478">
        <ele>908.9</ele>
        <time>2018-10-26T13:15:01Z</time>
      </trkpt>
      <trkpt lat="45.71692" lon="6.54491">
        <ele>906.8</ele>
        <time>2018-10-26T13:15:03Z</time>
      </trkpt>
      <trkpt lat="45.7169" lon="6.54504">
        <ele>904.1</ele>
        <time>2018-10-26T13:15:06Z</time>
      </trkpt>
      <trkpt lat="45.71701" lon="6.54498">
        <ele>898.7</ele>
        <time>2018-10-26T13:15:13Z</time>
      </trkpt>
      <trkpt lat="45.71714" lon="6.54493">
        <ele>897.2</ele>
        <time>2018-10-26T13:15:15Z</time>
      </trkpt>
      <trkpt lat="45.7172" lon="6.5448">
        <ele>895</ele>
        <time>2018-10-26T13:15:18Z</time>
      </trkpt>
      <trkpt lat="45.71723" lon="6.54463">
        <ele>892.3</ele>
        <time>2018-10-26T13:15:21Z</time>
      </trkpt>
      <trkpt lat="45.7173" lon="6.54477">
        <ele>885.8</ele>
        <time>2018-10-26T13:15:28Z</time>
      </trkpt>
      <trkpt lat="45.71732" lon="6.54492">
        <ele>882.1</ele>
        <time>2018-10-26T13:15:32Z</time>
      </trkpt>
      <trkpt lat="45.71734" lon="6.54509">
        <ele>879.4</ele>
        <time>2018-10-26T13:15:36Z</time>
      </trkpt>
      <trkpt lat="45.71736" lon="6.54521">
        <ele>876.2</ele>
        <time>2018-10-26T13:15:40Z</time>
      </trkpt>
      <trkpt lat="45.71745" lon="6.54514">
        <ele>873</ele>
        <time>2018-10-26T13:15:45Z</time>
      </trkpt>
      <trkpt lat="45.71751" lon="6.54503">
        <ele>870.9</ele>
        <time>2018-10-26T13:15:48Z</time>
      </trkpt>
      <trkpt lat="45.71757" lon="6.54491">
        <ele>868.7</ele>
        <time>2018-10-26T13:15:51Z</time>
      </trkpt>
      <trkpt lat="45.71764" lon="6.54502">
        <ele>860.5</ele>
        <time>2018-10-26T13:16:01Z</time>
      </trkpt>
      <trkpt lat="45.71767" lon="6.54516">
        <ele>857.4</ele>
        <time>2018-10-26T13:16:04Z</time>
      </trkpt>
      <trkpt lat="45.71774" lon="6.54506">
        <ele>853</ele>
        <time>2018-10-26T13:16:10Z</time>
      </trkpt>
      <trkpt lat="45.7178" lon="6.54492">
        <ele>850.1</ele>
        <time>2018-10-26T13:16:14Z</time>
      </trkpt>
      <trkpt lat="45.71789" lon="6.54494">
        <ele>844</ele>
        <time>2018-10-26T13:16:21Z</time>
      </trkpt>
      <trkpt lat="45.71789" lon="6.54511">
        <ele>841</ele>
        <time>2018-10-26T13:16:24Z</time>
      </trkpt>
      <trkpt lat="45.71794" lon="6.54495">
        <ele>834.4</ele>
        <time>2018-10-26T13:16:32Z</time>
      </trkpt>
      <trkpt lat="45.71799" lon="6.54482">
        <ele>832.6</ele>
        <time>2018-10-26T13:16:34Z</time>
      </trkpt>
      <trkpt lat="45.71809" lon="6.54486">
        <ele>827.9</ele>
        <time>2018-10-26T13:16:39Z</time>
      </trkpt>
      <trkpt lat="45.71814" lon="6.54502">
        <ele>824.3</ele>
        <time>2018-10-26T13:16:42Z</time>
      </trkpt>
      <trkpt lat="45.71824" lon="6.545">
        <ele>817.9</ele>
        <time>2018-10-26T13:16:49Z</time>
      </trkpt>
      <trkpt lat="45.71834" lon="6.54487">
        <ele>815.9</ele>
        <time>2018-10-26T13:16:51Z</time>
      </trkpt>
      <trkpt lat="45.71838" lon="6.54474">
        <ele>814</ele>
        <time>2018-10-26T13:16:53Z</time>
      </trkpt>
      <trkpt lat="45.71845" lon="6.54461">
        <ele>811.3</ele>
        <time>2018-10-26T13:16:56Z</time>
      </trkpt>
      <trkpt lat="45.71851" lon="6.54446">
        <ele>808.4</ele>
        <time>2018-10-26T13:16:59Z</time>
      </trkpt>
      <trkpt lat="45.71853" lon="6.54432">
        <ele>806.4</ele>
        <time>2018-10-26T13:17:01Z</time>
      </trkpt>
      <trkpt lat="45.71856" lon="6.54418">
        <ele>802.3</ele>
        <time>2018-10-26T13:17:05Z</time>
      </trkpt>
      <trkpt lat="45.71863" lon="6.54434">
        <ele>797.1</ele>
        <time>2018-10-26T13:17:11Z</time>
      </trkpt>
      <trkpt lat="45.71868" lon="6.54445">
        <ele>794.6</ele>
        <time>2018-10-26T13:17:13Z</time>
      </trkpt>
      <trkpt lat="45.71873" lon="6.54458">
        <ele>790.9</ele>
        <time>2018-10-26T13:17:16Z</time>
      </trkpt>
      <trkpt lat="45.7188" lon="6.54447">
        <ele>784.6</ele>
        <time>2018-10-26T13:17:24Z</time>
      </trkpt>
      <trkpt lat="45.71888" lon="6.54435">
        <ele>781.6</ele>
        <time>2018-10-26T13:17:27Z</time>
      </trkpt>
      <trkpt lat="45.71895" lon="6.54423">
        <ele>768.8</ele>
        <time>2018-10-26T13:17:53Z</time>
      </trkpt>
      <trkpt lat="45.71902" lon="6.54433">
        <ele>763.7</ele>
        <time>2018-10-26T13:18:06Z</time>
      </trkpt>
      <trkpt lat="45.71912" lon="6.54427">
        <ele>755.5</ele>
        <time>2018-10-26T13:18:27Z</time>
      </trkpt>
      <trkpt lat="45.7192" lon="6.54433">
        <ele>745.9</ele>
        <time>2018-10-26T13:18:48Z</time>
      </trkpt>
      <trkpt lat="45.71927" lon="6.54444">
        <ele>743.7</ele>
        <time>2018-10-26T13:18:53Z</time>
      </trkpt>
      <trkpt lat="45.71934" lon="6.54456">
        <ele>741.6</ele>
        <time>2018-10-26T13:18:57Z</time>
      </trkpt>
      <trkpt lat="45.71931" lon="6.54471">
        <ele>739.2</ele>
        <time>2018-10-26T13:19:01Z</time>
      </trkpt>
      <trkpt lat="45.71924" lon="6.54483">
        <ele>737.4</ele>
        <time>2018-10-26T13:19:05Z</time>
      </trkpt>
      <trkpt lat="45.71924" lon="6.54498">
        <ele>736.3</ele>
        <time>2018-10-26T13:19:12Z</time>
      </trkpt>
      <trkpt lat="45.71923" lon="6.54513">
        <ele>735.5</ele>
        <time>2018-10-26T13:19:15Z</time>
      </trkpt>
      <trkpt lat="45.71922" lon="6.54527">
        <ele>734.5</ele>
        <time>2018-10-26T13:19:17Z</time>
      </trkpt>
      <trkpt lat="45.7192" lon="6.54543">
        <ele>732.8</ele>
        <time>2018-10-26T13:19:20Z</time>
      </trkpt>
      <trkpt lat="45.71918" lon="6.54556">
        <ele>730.9</ele>
        <time>2018-10-26T13:19:23Z</time>
      </trkpt>
      <trkpt lat="45.71918" lon="6.5457">
        <ele>729.6</ele>
        <time>2018-10-26T13:19:26Z</time>
      </trkpt>
      <trkpt lat="45.71922" lon="6.54584">
        <ele>728</ele>
        <time>2018-10-26T13:19:29Z</time>
      </trkpt>
      <trkpt lat="45.71929" lon="6.54601">
        <ele>726.2</ele>
        <time>2018-10-26T13:19:32Z</time>
      </trkpt>
      <trkpt lat="45.71933" lon="6.54614">
        <ele>725.3</ele>
        <time>2018-10-26T13:19:36Z</time>
      </trkpt>
      <trkpt lat="45.71934" lon="6.54628">
        <ele>724.7</ele>
        <time>2018-10-26T13:19:41Z</time>
      </trkpt>
      <trkpt lat="45.71931" lon="6.54646">
        <ele>723.5</ele>
        <time>2018-10-26T13:19:44Z</time>
      </trkpt>
      <trkpt lat="45.71928" lon="6.54659">
        <ele>721.3</ele>
        <time>2018-10-26T13:19:48Z</time>
      </trkpt>
      <trkpt lat="45.7193" lon="6.54674">
        <ele>717.6</ele>
        <time>2018-10-26T13:20:00Z</time>
      </trkpt>
      <trkpt lat="45.7194" lon="6.54677">
        <ele>714.6</ele>
        <time>2018-10-26T13:20:03Z</time>
      </trkpt>
      <trkpt lat="45.71949" lon="6.5468">
        <ele>712.1</ele>
        <time>2018-10-26T13:20:05Z</time>
      </trkpt>
      <trkpt lat="45.7196" lon="6.54682">
        <ele>709.3</ele>
        <time>2018-10-26T13:20:07Z</time>
      </trkpt>
      <trkpt lat="45.71973" lon="6.54686">
        <ele>707.3</ele>
        <time>2018-10-26T13:20:09Z</time>
      </trkpt>
      <trkpt lat="45.71983" lon="6.54691">
        <ele>705.9</ele>
        <time>2018-10-26T13:20:11Z</time>
      </trkpt>
      <trkpt lat="45.71993" lon="6.54698">
        <ele>703.9</ele>
        <time>2018-10-26T13:20:15Z</time>
      </trkpt>
      <trkpt lat="45.71991" lon="6.54713">
        <ele>703.1</ele>
        <time>2018-10-26T13:20:20Z</time>
      </trkpt>
      <trkpt lat="45.71989" lon="6.54726">
        <ele>702.9</ele>
        <time>2018-10-26T13:20:38Z</time>
      </trkpt>
      <trkpt lat="45.71988" lon="6.54743">
        <ele>703.2</ele>
        <time>2018-10-26T13:20:42Z</time>
      </trkpt>
      <trkpt lat="45.71986" lon="6.54756">
        <ele>703.5</ele>
        <time>2018-10-26T13:20:45Z</time>
      </trkpt>
      <trkpt lat="45.71986" lon="6.5477">
        <ele>703.7</ele>
        <time>2018-10-26T13:20:48Z</time>
      </trkpt>
      <trkpt lat="45.71983" lon="6.54786">
        <ele>703.9</ele>
        <time>2018-10-26T13:20:51Z</time>
      </trkpt>
      <trkpt lat="45.71982" lon="6.54804">
        <ele>704.2</ele>
        <time>2018-10-26T13:20:54Z</time>
      </trkpt>
      <trkpt lat="45.71982" lon="6.54819">
        <ele>704.4</ele>
        <time>2018-10-26T13:20:57Z</time>
      </trkpt>
      <trkpt lat="45.71983" lon="6.54834">
        <ele>704.7</ele>
        <time>2018-10-26T13:21:00Z</time>
      </trkpt>
      <trkpt lat="45.71984" lon="6.54851">
        <ele>705</ele>
        <time>2018-10-26T13:21:03Z</time>
      </trkpt>
      <trkpt lat="45.71985" lon="6.54867">
        <ele>705.3</ele>
        <time>2018-10-26T13:21:06Z</time>
      </trkpt>
      <trkpt lat="45.71986" lon="6.54882">
        <ele>705.3</ele>
        <time>2018-10-26T13:21:09Z</time>
      </trkpt>
      <trkpt lat="45.71986" lon="6.54898">
        <ele>705.6</ele>
        <time>2018-10-26T13:21:12Z</time>
      </trkpt>
      <trkpt lat="45.71985" lon="6.54916">
        <ele>705.8</ele>
        <time>2018-10-26T13:21:15Z</time>
      </trkpt>
      <trkpt lat="45.71985" lon="6.54934">
        <ele>705.9</ele>
        <time>2018-10-26T13:21:18Z</time>
      </trkpt>
      <trkpt lat="45.71983" lon="6.54951">
        <ele>706</ele>
        <time>2018-10-26T13:21:21Z</time>
      </trkpt>
      <trkpt lat="45.7198" lon="6.54968">
        <ele>706</ele>
        <time>2018-10-26T13:21:24Z</time>
      </trkpt>
      <trkpt lat="45.71975" lon="6.54983">
        <ele>706.2</ele>
        <time>2018-10-26T13:21:27Z</time>
      </trkpt>
      <trkpt lat="45.7197" lon="6.55">
        <ele>706.4</ele>
        <time>2018-10-26T13:21:30Z</time>
      </trkpt>
      <trkpt lat="45.71965" lon="6.55015">
        <ele>706.6</ele>
        <time>2018-10-26T13:21:33Z</time>
      </trkpt>
      <trkpt lat="45.7196" lon="6.55031">
        <ele>706.7</ele>
        <time>2018-10-26T13:21:36Z</time>
      </trkpt>
      <trkpt lat="45.71954" lon="6.55047">
        <ele>706.9</ele>
        <time>2018-10-26T13:21:39Z</time>
      </trkpt>
      <trkpt lat="45.71948" lon="6.55062">
        <ele>707.2</ele>
        <time>2018-10-26T13:21:42Z</time>
      </trkpt>
      <trkpt lat="45.71943" lon="6.55078">
        <ele>707.4</ele>
        <time>2018-10-26T13:21:45Z</time>
      </trkpt>
      <trkpt lat="45.71937" lon="6.55095">
        <ele>707.4</ele>
        <time>2018-10-26T13:21:48Z</time>
      </trkpt>
      <trkpt lat="45.71932" lon="6.55111">
        <ele>707.5</ele>
        <time>2018-10-26T13:21:51Z</time>
      </trkpt>
      <trkpt lat="45.71926" lon="6.55126">
        <ele>707.8</ele>
        <time>2018-10-26T13:21:54Z</time>
      </trkpt>
      <trkpt lat="45.71919" lon="6.55142">
        <ele>708</ele>
        <time>2018-10-26T13:21:57Z</time>
      </trkpt>
      <trkpt lat="45.71915" lon="6.55154">
        <ele>708.2</ele>
        <time>2018-10-26T13:21:59Z</time>
      </trkpt>
      <trkpt lat="45.7191" lon="6.55169">
        <ele>708.4</ele>
        <time>2018-10-26T13:22:02Z</time>
      </trkpt>
      <trkpt lat="45.71905" lon="6.55185">
        <ele>708.7</ele>
        <time>2018-10-26T13:22:05Z</time>
      </trkpt>
      <trkpt lat="45.71901" lon="6.55201">
        <ele>709.2</ele>
        <time>2018-10-26T13:22:08Z</time>
      </trkpt>
      <trkpt lat="45.71897" lon="6.55216">
        <ele>709.5</ele>
        <time>2018-10-26T13:22:11Z</time>
      </trkpt>
      <trkpt lat="45.71894" lon="6.55233">
        <ele>709.6</ele>
        <time>2018-10-26T13:22:14Z</time>
      </trkpt>
      <trkpt lat="45.71893" lon="6.5525">
        <ele>709.8</ele>
        <time>2018-10-26T13:22:17Z</time>
      </trkpt>
      <trkpt lat="45.71894" lon="6.55268">
        <ele>710.1</ele>
        <time>2018-10-26T13:22:20Z</time>
      </trkpt>
      <trkpt lat="45.71895" lon="6.55285">
        <ele>710.3</ele>
        <time>2018-10-26T13:22:23Z</time>
      </trkpt>
      <trkpt lat="45.71897" lon="6.55304">
        <ele>710.7</ele>
        <time>2018-10-26T13:22:26Z</time>
      </trkpt>
      <trkpt lat="45.71898" lon="6.55322">
        <ele>710.9</ele>
        <time>2018-10-26T13:22:29Z</time>
      </trkpt>
      <trkpt lat="45.71899" lon="6.5534">
        <ele>711.2</ele>
        <time>2018-10-26T13:22:32Z</time>
      </trkpt>
      <trkpt lat="45.719" lon="6.55358">
        <ele>711.3</ele>
        <time>2018-10-26T13:22:35Z</time>
      </trkpt>
      <trkpt lat="45.719" lon="6.55376">
        <ele>711.5</ele>
        <time>2018-10-26T13:22:38Z</time>
      </trkpt>
      <trkpt lat="45.71901" lon="6.55393">
        <ele>711.9</ele>
        <time>2018-10-26T13:22:41Z</time>
      </trkpt>
      <trkpt lat="45.71901" lon="6.55411">
        <ele>712.1</ele>
        <time>2018-10-26T13:22:44Z</time>
      </trkpt>
      <trkpt lat="45.71901" lon="6.5543">
        <ele>712.4</ele>
        <time>2018-10-26T13:22:47Z</time>
      </trkpt>
      <trkpt lat="45.71902" lon="6.55449">
        <ele>712.6</ele>
        <time>2018-10-26T13:22:50Z</time>
      </trkpt>
      <trkpt lat="45.71903" lon="6.55466">
        <ele>712.8</ele>
        <time>2018-10-26T13:22:53Z</time>
      </trkpt>
      <trkpt lat="45.71903" lon="6.55482">
        <ele>713</ele>
        <time>2018-10-26T13:22:56Z</time>
      </trkpt>
      <trkpt lat="45.71903" lon="6.55499">
        <ele>713.3</ele>
        <time>2018-10-26T13:22:59Z</time>
      </trkpt>
      <trkpt lat="45.71902" lon="6.55517">
        <ele>713.7</ele>
        <time>2018-10-26T13:23:02Z</time>
      </trkpt>
      <trkpt lat="45.71902" lon="6.55534">
        <ele>713.9</ele>
        <time>2018-10-26T13:23:05Z</time>
      </trkpt>
      <trkpt lat="45.71902" lon="6.5555">
        <ele>714.1</ele>
        <time>2018-10-26T13:23:08Z</time>
      </trkpt>
      <trkpt lat="45.71901" lon="6.55566">
        <ele>714.3</ele>
        <time>2018-10-26T13:23:11Z</time>
      </trkpt>
      <trkpt lat="45.719" lon="6.55582">
        <ele>714.7</ele>
        <time>2018-10-26T13:23:14Z</time>
      </trkpt>
      <trkpt lat="45.71899" lon="6.55598">
        <ele>715</ele>
        <time>2018-10-26T13:23:17Z</time>
      </trkpt>
      <trkpt lat="45.71899" lon="6.55615">
        <ele>715.1</ele>
        <time>2018-10-26T13:23:20Z</time>
      </trkpt>
      <trkpt lat="45.71898" lon="6.55632">
        <ele>715.4</ele>
        <time>2018-10-26T13:23:23Z</time>
      </trkpt>
      <trkpt lat="45.71898" lon="6.5565">
        <ele>715.7</ele>
        <time>2018-10-26T13:23:26Z</time>
      </trkpt>
      <trkpt lat="45.71897" lon="6.55666">
        <ele>716</ele>
        <time>2018-10-26T13:23:29Z</time>
      </trkpt>
      <trkpt lat="45.71897" lon="6.55681">
        <ele>716.3</ele>
        <time>2018-10-26T13:23:32Z</time>
      </trkpt>
      <trkpt lat="45.71896" lon="6.55697">
        <ele>716.5</ele>
        <time>2018-10-26T13:23:35Z</time>
      </trkpt>
      <trkpt lat="45.71893" lon="6.55713">
        <ele>716.9</ele>
        <time>2018-10-26T13:23:38Z</time>
      </trkpt>
      <trkpt lat="45.71892" lon="6.55728">
        <ele>717.2</ele>
        <time>2018-10-26T13:23:41Z</time>
      </trkpt>
      <trkpt lat="45.7189" lon="6.55746">
        <ele>717.5</ele>
        <time>2018-10-26T13:23:44Z</time>
      </trkpt>
      <trkpt lat="45.71887" lon="6.55763">
        <ele>717.8</ele>
        <time>2018-10-26T13:23:47Z</time>
      </trkpt>
      <trkpt lat="45.71882" lon="6.55776">
        <ele>718.1</ele>
        <time>2018-10-26T13:23:50Z</time>
      </trkpt>
      <trkpt lat="45.71877" lon="6.55788">
        <ele>719</ele>
        <time>2018-10-26T13:23:54Z</time>
      </trkpt>
      <trkpt lat="45.71872" lon="6.558">
        <ele>721.1</ele>
        <time>2018-10-26T13:24:00Z</time>
      </trkpt>
      <trkpt lat="45.71867" lon="6.55811">
        <ele>723.7</ele>
        <time>2018-10-26T13:24:07Z</time>
      </trkpt>
      <trkpt lat="45.71862" lon="6.55824">
        <ele>725.2</ele>
        <time>2018-10-26T13:24:14Z</time>
      </trkpt>
      <trkpt lat="45.71857" lon="6.55838">
        <ele>725.9</ele>
        <time>2018-10-26T13:24:20Z</time>
      </trkpt>
      <trkpt lat="45.71851" lon="6.5585">
        <ele>725.9</ele>
        <time>2018-10-26T13:24:24Z</time>
      </trkpt>
      <trkpt lat="45.71844" lon="6.55859">
        <ele>725.9</ele>
        <time>2018-10-26T13:24:28Z</time>
      </trkpt>
      <trkpt lat="45.7184" lon="6.55873">
        <ele>725.5</ele>
        <time>2018-10-26T13:24:31Z</time>
      </trkpt>
      <trkpt lat="45.71838" lon="6.55895">
        <ele>725.2</ele>
        <time>2018-10-26T13:24:34Z</time>
      </trkpt>
      <trkpt lat="45.71838" lon="6.55911">
        <ele>724.6</ele>
        <time>2018-10-26T13:24:36Z</time>
      </trkpt>
      <trkpt lat="45.71836" lon="6.55927">
        <ele>724.4</ele>
        <time>2018-10-26T13:24:38Z</time>
      </trkpt>
      <trkpt lat="45.71837" lon="6.55943">
        <ele>724.2</ele>
        <time>2018-10-26T13:24:40Z</time>
      </trkpt>
      <trkpt lat="45.71838" lon="6.55959">
        <ele>724</ele>
        <time>2018-10-26T13:24:42Z</time>
      </trkpt>
      <trkpt lat="45.71838" lon="6.55976">
        <ele>724.2</ele>
        <time>2018-10-26T13:24:45Z</time>
      </trkpt>
      <trkpt lat="45.71838" lon="6.55989">
        <ele>724.8</ele>
        <time>2018-10-26T13:24:48Z</time>
      </trkpt>
      <trkpt lat="45.71838" lon="6.56003">
        <ele>725.7</ele>
        <time>2018-10-26T13:24:52Z</time>
      </trkpt>
      <trkpt lat="45.71837" lon="6.56019">
        <ele>726.3</ele>
        <time>2018-10-26T13:24:56Z</time>
      </trkpt>
      <trkpt lat="45.71832" lon="6.56033">
        <ele>726.8</ele>
        <time>2018-10-26T13:25:00Z</time>
      </trkpt>
      <trkpt lat="45.71826" lon="6.56047">
        <ele>727.3</ele>
        <time>2018-10-26T13:25:04Z</time>
      </trkpt>
      <trkpt lat="45.71819" lon="6.56057">
        <ele>727.8</ele>
        <time>2018-10-26T13:25:07Z</time>
      </trkpt>
      <trkpt lat="45.71816" lon="6.5607">
        <ele>728.2</ele>
        <time>2018-10-26T13:25:10Z</time>
      </trkpt>
      <trkpt lat="45.71813" lon="6.56085">
        <ele>728.3</ele>
        <time>2018-10-26T13:25:13Z</time>
      </trkpt>
      <trkpt lat="45.71813" lon="6.561">
        <ele>728.4</ele>
        <time>2018-10-26T13:25:16Z</time>
      </trkpt>
      <trkpt lat="45.7181" lon="6.56117">
        <ele>728.3</ele>
        <time>2018-10-26T13:25:19Z</time>
      </trkpt>
      <trkpt lat="45.71807" lon="6.56133">
        <ele>727.9</ele>
        <time>2018-10-26T13:25:21Z</time>
      </trkpt>
      <trkpt lat="45.71806" lon="6.56146">
        <ele>727.7</ele>
        <time>2018-10-26T13:25:23Z</time>
      </trkpt>
      <trkpt lat="45.71806" lon="6.5616">
        <ele>727.8</ele>
        <time>2018-10-26T13:25:25Z</time>
      </trkpt>
      <trkpt lat="45.71805" lon="6.56174">
        <ele>727.9</ele>
        <time>2018-10-26T13:25:28Z</time>
      </trkpt>
      <trkpt lat="45.71802" lon="6.56188">
        <ele>728.6</ele>
        <time>2018-10-26T13:25:31Z</time>
      </trkpt>
      <trkpt lat="45.718" lon="6.56201">
        <ele>729.5</ele>
        <time>2018-10-26T13:25:34Z</time>
      </trkpt>
      <trkpt lat="45.71798" lon="6.56215">
        <ele>731.2</ele>
        <time>2018-10-26T13:25:39Z</time>
      </trkpt>
      <trkpt lat="45.71795" lon="6.5623">
        <ele>732.7</ele>
        <time>2018-10-26T13:25:44Z</time>
      </trkpt>
      <trkpt lat="45.71789" lon="6.56242">
        <ele>733.4</ele>
        <time>2018-10-26T13:25:48Z</time>
      </trkpt>
      <trkpt lat="45.71787" lon="6.56254">
        <ele>733.5</ele>
        <time>2018-10-26T13:25:52Z</time>
      </trkpt>
      <trkpt lat="45.71778" lon="6.56266">
        <ele>733.3</ele>
        <time>2018-10-26T13:25:55Z</time>
      </trkpt>
      <trkpt lat="45.71772" lon="6.56277">
        <ele>733.2</ele>
        <time>2018-10-26T13:25:57Z</time>
      </trkpt>
      <trkpt lat="45.71769" lon="6.5629">
        <ele>733</ele>
        <time>2018-10-26T13:25:59Z</time>
      </trkpt>
      <trkpt lat="45.71766" lon="6.56302">
        <ele>732.7</ele>
        <time>2018-10-26T13:26:01Z</time>
      </trkpt>
      <trkpt lat="45.71764" lon="6.56315">
        <ele>732.5</ele>
        <time>2018-10-26T13:26:03Z</time>
      </trkpt>
      <trkpt lat="45.71762" lon="6.56329">
        <ele>732.4</ele>
        <time>2018-10-26T13:26:05Z</time>
      </trkpt>
      <trkpt lat="45.71761" lon="6.56347">
        <ele>732.3</ele>
        <time>2018-10-26T13:26:08Z</time>
      </trkpt>
      <trkpt lat="45.71761" lon="6.56365">
        <ele>732.3</ele>
        <time>2018-10-26T13:26:11Z</time>
      </trkpt>
      <trkpt lat="45.7176" lon="6.56382">
        <ele>732.2</ele>
        <time>2018-10-26T13:26:14Z</time>
      </trkpt>
      <trkpt lat="45.71758" lon="6.56397">
        <ele>732.1</ele>
        <time>2018-10-26T13:26:17Z</time>
      </trkpt>
      <trkpt lat="45.71759" lon="6.56413">
        <ele>732.2</ele>
        <time>2018-10-26T13:26:20Z</time>
      </trkpt>
      <trkpt lat="45.71758" lon="6.56432">
        <ele>732.3</ele>
        <time>2018-10-26T13:26:23Z</time>
      </trkpt>
      <trkpt lat="45.71755" lon="6.56445">
        <ele>732.4</ele>
        <time>2018-10-26T13:26:25Z</time>
      </trkpt>
      <trkpt lat="45.71753" lon="6.56462">
        <ele>732.6</ele>
        <time>2018-10-26T13:26:28Z</time>
      </trkpt>
      <trkpt lat="45.71749" lon="6.56476">
        <ele>732.9</ele>
        <time>2018-10-26T13:26:31Z</time>
      </trkpt>
      <trkpt lat="45.71745" lon="6.56489">
        <ele>733.4</ele>
        <time>2018-10-26T13:26:34Z</time>
      </trkpt>
      <trkpt lat="45.71744" lon="6.56505">
        <ele>734.4</ele>
        <time>2018-10-26T13:26:38Z</time>
      </trkpt>
      <trkpt lat="45.71742" lon="6.56519">
        <ele>735</ele>
        <time>2018-10-26T13:26:42Z</time>
      </trkpt>
      <trkpt lat="45.71741" lon="6.56533">
        <ele>735.6</ele>
        <time>2018-10-26T13:26:45Z</time>
      </trkpt>
      <trkpt lat="45.7174" lon="6.56548">
        <ele>736.1</ele>
        <time>2018-10-26T13:26:48Z</time>
      </trkpt>
      <trkpt lat="45.71742" lon="6.56562">
        <ele>736.4</ele>
        <time>2018-10-26T13:26:51Z</time>
      </trkpt>
      <trkpt lat="45.71744" lon="6.56576">
        <ele>736.6</ele>
        <time>2018-10-26T13:26:54Z</time>
      </trkpt>
      <trkpt lat="45.71746" lon="6.5659">
        <ele>736.9</ele>
        <time>2018-10-26T13:26:57Z</time>
      </trkpt>
      <trkpt lat="45.71748" lon="6.56605">
        <ele>737</ele>
        <time>2018-10-26T13:27:00Z</time>
      </trkpt>
      <trkpt lat="45.71748" lon="6.56618">
        <ele>737.2</ele>
        <time>2018-10-26T13:27:03Z</time>
      </trkpt>
      <trkpt lat="45.71744" lon="6.56635">
        <ele>737.6</ele>
        <time>2018-10-26T13:27:07Z</time>
      </trkpt>
      <trkpt lat="45.71739" lon="6.56649">
        <ele>738.4</ele>
        <time>2018-10-26T13:27:11Z</time>
      </trkpt>
      <trkpt lat="45.71736" lon="6.56664">
        <ele>739</ele>
        <time>2018-10-26T13:27:15Z</time>
      </trkpt>
      <trkpt lat="45.71737" lon="6.56679">
        <ele>739.5</ele>
        <time>2018-10-26T13:27:18Z</time>
      </trkpt>
      <trkpt lat="45.71738" lon="6.56692">
        <ele>739.7</ele>
        <time>2018-10-26T13:27:21Z</time>
      </trkpt>
      <trkpt lat="45.71739" lon="6.56705">
        <ele>740.1</ele>
        <time>2018-10-26T13:27:24Z</time>
      </trkpt>
      <trkpt lat="45.71745" lon="6.56719">
        <ele>740</ele>
        <time>2018-10-26T13:27:27Z</time>
      </trkpt>
      <trkpt lat="45.71751" lon="6.56732">
        <ele>739.7</ele>
        <time>2018-10-26T13:27:29Z</time>
      </trkpt>
      <trkpt lat="45.7176" lon="6.56742">
        <ele>739.3</ele>
        <time>2018-10-26T13:27:31Z</time>
      </trkpt>
      <trkpt lat="45.71769" lon="6.56748">
        <ele>739.1</ele>
        <time>2018-10-26T13:27:33Z</time>
      </trkpt>
      <trkpt lat="45.7178" lon="6.56754">
        <ele>739</ele>
        <time>2018-10-26T13:27:36Z</time>
      </trkpt>
      <trkpt lat="45.7179" lon="6.56755">
        <ele>739.2</ele>
        <time>2018-10-26T13:27:39Z</time>
      </trkpt>
      <trkpt lat="45.71804" lon="6.56755">
        <ele>739.3</ele>
        <time>2018-10-26T13:27:42Z</time>
      </trkpt>
      <trkpt lat="45.71813" lon="6.56761">
        <ele>739.1</ele>
        <time>2018-10-26T13:27:44Z</time>
      </trkpt>
      <trkpt lat="45.71821" lon="6.5677">
        <ele>738.9</ele>
        <time>2018-10-26T13:27:46Z</time>
      </trkpt>
      <trkpt lat="45.71828" lon="6.56785">
        <ele>738.7</ele>
        <time>2018-10-26T13:27:49Z</time>
      </trkpt>
      <trkpt lat="45.71836" lon="6.56799">
        <ele>738.6</ele>
        <time>2018-10-26T13:27:52Z</time>
      </trkpt>
      <trkpt lat="45.71843" lon="6.56814">
        <ele>738.7</ele>
        <time>2018-10-26T13:27:55Z</time>
      </trkpt>
      <trkpt lat="45.71852" lon="6.56825">
        <ele>739</ele>
        <time>2018-10-26T13:27:58Z</time>
      </trkpt>
      <trkpt lat="45.71862" lon="6.56832">
        <ele>739.4</ele>
        <time>2018-10-26T13:28:01Z</time>
      </trkpt>
      <trkpt lat="45.71872" lon="6.56837">
        <ele>739.8</ele>
        <time>2018-10-26T13:28:04Z</time>
      </trkpt>
      <trkpt lat="45.71879" lon="6.56848">
        <ele>740</ele>
        <time>2018-10-26T13:28:07Z</time>
      </trkpt>
      <trkpt lat="45.71885" lon="6.56861">
        <ele>740.5</ele>
        <time>2018-10-26T13:28:10Z</time>
      </trkpt>
      <trkpt lat="45.71891" lon="6.56874">
        <ele>740.7</ele>
        <time>2018-10-26T13:28:13Z</time>
      </trkpt>
      <trkpt lat="45.71896" lon="6.56888">
        <ele>741</ele>
        <time>2018-10-26T13:28:16Z</time>
      </trkpt>
      <trkpt lat="45.71899" lon="6.56905">
        <ele>741.3</ele>
        <time>2018-10-26T13:28:19Z</time>
      </trkpt>
      <trkpt lat="45.71899" lon="6.5692">
        <ele>741.5</ele>
        <time>2018-10-26T13:28:22Z</time>
      </trkpt>
      <trkpt lat="45.71898" lon="6.56933">
        <ele>741.6</ele>
        <time>2018-10-26T13:28:25Z</time>
      </trkpt>
      <trkpt lat="45.71898" lon="6.56946">
        <ele>741.8</ele>
        <time>2018-10-26T13:28:28Z</time>
      </trkpt>
      <trkpt lat="45.719" lon="6.56962">
        <ele>742.3</ele>
        <time>2018-10-26T13:28:48Z</time>
      </trkpt>
      <trkpt lat="45.71899" lon="6.56976">
        <ele>742.5</ele>
        <time>2018-10-26T13:28:52Z</time>
      </trkpt>
      <trkpt lat="45.71898" lon="6.5699">
        <ele>742.8</ele>
        <time>2018-10-26T13:28:55Z</time>
      </trkpt>
      <trkpt lat="45.71898" lon="6.57007">
        <ele>743.1</ele>
        <time>2018-10-26T13:28:58Z</time>
      </trkpt>
      <trkpt lat="45.71899" lon="6.57024">
        <ele>743.5</ele>
        <time>2018-10-26T13:29:01Z</time>
      </trkpt>
      <trkpt lat="45.71902" lon="6.57042">
        <ele>743.7</ele>
        <time>2018-10-26T13:29:04Z</time>
      </trkpt>
      <trkpt lat="45.71904" lon="6.57057">
        <ele>744.3</ele>
        <time>2018-10-26T13:29:07Z</time>
      </trkpt>
      <trkpt lat="45.71909" lon="6.57071">
        <ele>744.8</ele>
        <time>2018-10-26T13:29:10Z</time>
      </trkpt>
      <trkpt lat="45.71918" lon="6.57084">
        <ele>745.4</ele>
        <time>2018-10-26T13:29:13Z</time>
      </trkpt>
      <trkpt lat="45.71924" lon="6.57096">
        <ele>746.1</ele>
        <time>2018-10-26T13:29:16Z</time>
      </trkpt>
      <trkpt lat="45.71926" lon="6.57111">
        <ele>747</ele>
        <time>2018-10-26T13:29:19Z</time>
      </trkpt>
      <trkpt lat="45.71925" lon="6.57125">
        <ele>748</ele>
        <time>2018-10-26T13:29:22Z</time>
      </trkpt>
      <trkpt lat="45.71919" lon="6.57138">
        <ele>749</ele>
        <time>2018-10-26T13:29:26Z</time>
      </trkpt>
      <trkpt lat="45.71914" lon="6.57152">
        <ele>749.9</ele>
        <time>2018-10-26T13:29:30Z</time>
      </trkpt>
      <trkpt lat="45.71912" lon="6.57165">
        <ele>750.9</ele>
        <time>2018-10-26T13:29:34Z</time>
      </trkpt>
      <trkpt lat="45.71911" lon="6.57178">
        <ele>751.8</ele>
        <time>2018-10-26T13:29:38Z</time>
      </trkpt>
      <trkpt lat="45.71911" lon="6.57192">
        <ele>752.8</ele>
        <time>2018-10-26T13:29:42Z</time>
      </trkpt>
      <trkpt lat="45.7191" lon="6.57205">
        <ele>753.7</ele>
        <time>2018-10-26T13:29:46Z</time>
      </trkpt>
      <trkpt lat="45.71909" lon="6.5722">
        <ele>754.8</ele>
        <time>2018-10-26T13:29:50Z</time>
      </trkpt>
      <trkpt lat="45.71908" lon="6.57234">
        <ele>755.7</ele>
        <time>2018-10-26T13:29:54Z</time>
      </trkpt>
      <trkpt lat="45.71903" lon="6.57245">
        <ele>756.6</ele>
        <time>2018-10-26T13:29:58Z</time>
      </trkpt>
      <trkpt lat="45.71894" lon="6.5725">
        <ele>757.6</ele>
        <time>2018-10-26T13:30:02Z</time>
      </trkpt>
      <trkpt lat="45.71884" lon="6.5725">
        <ele>758.7</ele>
        <time>2018-10-26T13:30:06Z</time>
      </trkpt>
      <trkpt lat="45.71874" lon="6.5725">
        <ele>759.9</ele>
        <time>2018-10-26T13:30:10Z</time>
      </trkpt>
      <trkpt lat="45.71864" lon="6.57248">
        <ele>760.7</ele>
        <time>2018-10-26T13:30:14Z</time>
      </trkpt>
      <trkpt lat="45.71854" lon="6.57246">
        <ele>761.7</ele>
        <time>2018-10-26T13:30:18Z</time>
      </trkpt>
      <trkpt lat="45.71843" lon="6.57241">
        <ele>762.1</ele>
        <time>2018-10-26T13:30:22Z</time>
      </trkpt>
      <trkpt lat="45.71834" lon="6.57233">
        <ele>762.3</ele>
        <time>2018-10-26T13:30:25Z</time>
      </trkpt>
      <trkpt lat="45.71825" lon="6.57224">
        <ele>762.4</ele>
        <time>2018-10-26T13:30:28Z</time>
      </trkpt>
      <trkpt lat="45.71816" lon="6.57219">
        <ele>762.5</ele>
        <time>2018-10-26T13:30:31Z</time>
      </trkpt>
      <trkpt lat="45.71806" lon="6.57218">
        <ele>762.6</ele>
        <time>2018-10-26T13:30:34Z</time>
      </trkpt>
      <trkpt lat="45.71796" lon="6.57219">
        <ele>762.3</ele>
        <time>2018-10-26T13:30:36Z</time>
      </trkpt>
      <trkpt lat="45.71784" lon="6.57227">
        <ele>761.9</ele>
        <time>2018-10-26T13:30:38Z</time>
      </trkpt>
      <trkpt lat="45.71775" lon="6.5724">
        <ele>761.6</ele>
        <time>2018-10-26T13:30:40Z</time>
      </trkpt>
      <trkpt lat="45.71771" lon="6.57254">
        <ele>761</ele>
        <time>2018-10-26T13:30:42Z</time>
      </trkpt>
      <trkpt lat="45.71771" lon="6.57268">
        <ele>760.3</ele>
        <time>2018-10-26T13:30:44Z</time>
      </trkpt>
      <trkpt lat="45.71778" lon="6.57279">
        <ele>759.9</ele>
        <time>2018-10-26T13:30:46Z</time>
      </trkpt>
      <trkpt lat="45.71786" lon="6.57286">
        <ele>759.4</ele>
        <time>2018-10-26T13:30:48Z</time>
      </trkpt>
      <trkpt lat="45.71794" lon="6.57296">
        <ele>759</ele>
        <time>2018-10-26T13:30:50Z</time>
      </trkpt>
      <trkpt lat="45.71803" lon="6.57305">
        <ele>758.7</ele>
        <time>2018-10-26T13:30:52Z</time>
      </trkpt>
      <trkpt lat="45.71809" lon="6.57317">
        <ele>758.5</ele>
        <time>2018-10-26T13:30:54Z</time>
      </trkpt>
      <trkpt lat="45.71814" lon="6.5733">
        <ele>758.4</ele>
        <time>2018-10-26T13:30:56Z</time>
      </trkpt>
      <trkpt lat="45.71819" lon="6.57341">
        <ele>758</ele>
        <time>2018-10-26T13:30:58Z</time>
      </trkpt>
      <trkpt lat="45.7182" lon="6.57361">
        <ele>757.5</ele>
        <time>2018-10-26T13:31:01Z</time>
      </trkpt>
      <trkpt lat="45.71821" lon="6.57374">
        <ele>757.4</ele>
        <time>2018-10-26T13:31:03Z</time>
      </trkpt>
      <trkpt lat="45.71823" lon="6.57391">
        <ele>757.4</ele>
        <time>2018-10-26T13:31:06Z</time>
      </trkpt>
      <trkpt lat="45.71826" lon="6.57405">
        <ele>757.5</ele>
        <time>2018-10-26T13:31:09Z</time>
      </trkpt>
      <trkpt lat="45.71829" lon="6.57408">
        <ele>756.7</ele>
        <time>2018-10-26T13:31:48Z</time>
      </trkpt>
    </trkseg>
  </trk>
</gpx>